<?xml version="1.0" encoding="UTF-8" standalone="no" ?>
<gpx xmlns="http://www.topografix.com/GPX/1/1" xmlns:xsi="http://www.w3.org/2001/XMLSchema-instance" xsi:schemaLocation="http://www.topografix.com/GPX/1/1 http://www.topografix.com/GPX/1/1/gpx.xsd" version="1.1" creator="VisuGPX - https://www.visugpx.com">
  <metadata>
    <name>Petite  ballade  pour  bien  commencer 2013 </name>
    <desc><![CDATA[Tavaux city
]]></desc>
  </metadata>
  <trk>
    <name><![CDATA[9-13 Avenue de l'Europe]]></name>
    <desc><![CDATA[Tavaux city
]]></desc>
    <trkseg>
      <trkpt lat="47.04814" lon="5.4079">
        <ele>261</ele>
        <time>2012-12-24T12:51:26.000Z</time>
      </trkpt>
      <trkpt lat="47.04812" lon="5.40784">
        <ele>256.3</ele>
        <time>2012-12-24T12:51:29.000Z</time>
      </trkpt>
      <trkpt lat="47.04812" lon="5.40783">
        <ele>256.5</ele>
        <time>2012-12-24T12:51:30.000Z</time>
      </trkpt>
      <trkpt lat="47.0481" lon="5.40779">
        <ele>259</ele>
        <time>2012-12-24T12:51:34.000Z</time>
      </trkpt>
      <trkpt lat="47.04809" lon="5.40778">
        <ele>259.6</ele>
        <time>2012-12-24T12:51:35.000Z</time>
      </trkpt>
      <trkpt lat="47.04808" lon="5.40772">
        <ele>258.9</ele>
        <time>2012-12-24T12:51:39.000Z</time>
      </trkpt>
      <trkpt lat="47.04808" lon="5.40771">
        <ele>258.3</ele>
        <time>2012-12-24T12:51:40.000Z</time>
      </trkpt>
      <trkpt lat="47.04807" lon="5.40765">
        <ele>256.9</ele>
        <time>2012-12-24T12:51:45.000Z</time>
      </trkpt>
      <trkpt lat="47.04807" lon="5.40764">
        <ele>256.6</ele>
        <time>2012-12-24T12:51:46.000Z</time>
      </trkpt>
      <trkpt lat="47.04806" lon="5.40759">
        <ele>256.8</ele>
        <time>2012-12-24T12:51:51.000Z</time>
      </trkpt>
      <trkpt lat="47.04805" lon="5.40758">
        <ele>257</ele>
        <time>2012-12-24T12:51:52.000Z</time>
      </trkpt>
      <trkpt lat="47.04803" lon="5.40753">
        <ele>257.1</ele>
        <time>2012-12-24T12:51:57.000Z</time>
      </trkpt>
      <trkpt lat="47.04803" lon="5.40752">
        <ele>257.4</ele>
        <time>2012-12-24T12:51:58.000Z</time>
      </trkpt>
      <trkpt lat="47.04802" lon="5.40746">
        <ele>257.3</ele>
        <time>2012-12-24T12:52:03.000Z</time>
      </trkpt>
      <trkpt lat="47.04802" lon="5.40744">
        <ele>257.2</ele>
        <time>2012-12-24T12:52:04.000Z</time>
      </trkpt>
      <trkpt lat="47.04801" lon="5.40739">
        <ele>256.9</ele>
        <time>2012-12-24T12:52:08.000Z</time>
      </trkpt>
      <trkpt lat="47.04801" lon="5.40737">
        <ele>256.1</ele>
        <time>2012-12-24T12:52:09.000Z</time>
      </trkpt>
      <trkpt lat="47.04799" lon="5.40731">
        <ele>255.9</ele>
        <time>2012-12-24T12:52:14.000Z</time>
      </trkpt>
      <trkpt lat="47.04798" lon="5.40731">
        <ele>255.7</ele>
        <time>2012-12-24T12:52:15.000Z</time>
      </trkpt>
      <trkpt lat="47.04797" lon="5.40725">
        <ele>255.3</ele>
        <time>2012-12-24T12:52:22.000Z</time>
      </trkpt>
      <trkpt lat="47.04797" lon="5.40725">
        <ele>254.9</ele>
        <time>2012-12-24T12:52:23.000Z</time>
      </trkpt>
      <trkpt lat="47.04795" lon="5.40719">
        <ele>254.5</ele>
        <time>2012-12-24T12:52:28.000Z</time>
      </trkpt>
      <trkpt lat="47.04794" lon="5.40718">
        <ele>254.4</ele>
        <time>2012-12-24T12:52:29.000Z</time>
      </trkpt>
      <trkpt lat="47.04792" lon="5.40712">
        <ele>254.5</ele>
        <time>2012-12-24T12:52:33.000Z</time>
      </trkpt>
      <trkpt lat="47.04792" lon="5.4071">
        <ele>254.6</ele>
        <time>2012-12-24T12:52:34.000Z</time>
      </trkpt>
      <trkpt lat="47.04791" lon="5.40705">
        <ele>254.6</ele>
        <time>2012-12-24T12:52:37.000Z</time>
      </trkpt>
      <trkpt lat="47.0479" lon="5.40703">
        <ele>254.3</ele>
        <time>2012-12-24T12:52:38.000Z</time>
      </trkpt>
      <trkpt lat="47.0479" lon="5.40698">
        <ele>254.1</ele>
        <time>2012-12-24T12:52:42.000Z</time>
      </trkpt>
      <trkpt lat="47.04791" lon="5.40696">
        <ele>253.5</ele>
        <time>2012-12-24T12:52:43.000Z</time>
      </trkpt>
      <trkpt lat="47.04794" lon="5.40692">
        <ele>253.3</ele>
        <time>2012-12-24T12:52:48.000Z</time>
      </trkpt>
      <trkpt lat="47.04794" lon="5.40691">
        <ele>253.5</ele>
        <time>2012-12-24T12:52:49.000Z</time>
      </trkpt>
      <trkpt lat="47.0479" lon="5.40689">
        <ele>254.4</ele>
        <time>2012-12-24T12:52:53.000Z</time>
      </trkpt>
      <trkpt lat="47.04789" lon="5.40689">
        <ele>254.6</ele>
        <time>2012-12-24T12:52:54.000Z</time>
      </trkpt>
      <trkpt lat="47.04786" lon="5.40684">
        <ele>256</ele>
        <time>2012-12-24T12:52:59.000Z</time>
      </trkpt>
      <trkpt lat="47.04785" lon="5.40683">
        <ele>256.4</ele>
        <time>2012-12-24T12:53:00.000Z</time>
      </trkpt>
      <trkpt lat="47.04783" lon="5.40678">
        <ele>259</ele>
        <time>2012-12-24T12:53:04.000Z</time>
      </trkpt>
      <trkpt lat="47.04782" lon="5.40677">
        <ele>259.6</ele>
        <time>2012-12-24T12:53:05.000Z</time>
      </trkpt>
      <trkpt lat="47.04781" lon="5.40672">
        <ele>260</ele>
        <time>2012-12-24T12:53:08.000Z</time>
      </trkpt>
      <trkpt lat="47.0478" lon="5.4067">
        <ele>260.4</ele>
        <time>2012-12-24T12:53:09.000Z</time>
      </trkpt>
      <trkpt lat="47.04778" lon="5.40666">
        <ele>261.9</ele>
        <time>2012-12-24T12:53:12.000Z</time>
      </trkpt>
      <trkpt lat="47.04778" lon="5.40664">
        <ele>262.1</ele>
        <time>2012-12-24T12:53:13.000Z</time>
      </trkpt>
      <trkpt lat="47.04776" lon="5.40659">
        <ele>263.1</ele>
        <time>2012-12-24T12:53:16.000Z</time>
      </trkpt>
      <trkpt lat="47.04776" lon="5.40657">
        <ele>263.5</ele>
        <time>2012-12-24T12:53:17.000Z</time>
      </trkpt>
      <trkpt lat="47.04775" lon="5.40652">
        <ele>263.8</ele>
        <time>2012-12-24T12:53:20.000Z</time>
      </trkpt>
      <trkpt lat="47.04774" lon="5.4065">
        <ele>264</ele>
        <time>2012-12-24T12:53:21.000Z</time>
      </trkpt>
      <trkpt lat="47.04773" lon="5.40645">
        <ele>263.6</ele>
        <time>2012-12-24T12:53:24.000Z</time>
      </trkpt>
      <trkpt lat="47.04773" lon="5.40643">
        <ele>263.3</ele>
        <time>2012-12-24T12:53:25.000Z</time>
      </trkpt>
      <trkpt lat="47.04772" lon="5.40638">
        <ele>263.1</ele>
        <time>2012-12-24T12:53:28.000Z</time>
      </trkpt>
      <trkpt lat="47.04771" lon="5.40637">
        <ele>263.1</ele>
        <time>2012-12-24T12:53:29.000Z</time>
      </trkpt>
      <trkpt lat="47.04771" lon="5.40632">
        <ele>262.4</ele>
        <time>2012-12-24T12:53:32.000Z</time>
      </trkpt>
      <trkpt lat="47.0477" lon="5.4063">
        <ele>262.2</ele>
        <time>2012-12-24T12:53:33.000Z</time>
      </trkpt>
      <trkpt lat="47.0477" lon="5.40623">
        <ele>261.6</ele>
        <time>2012-12-24T12:53:37.000Z</time>
      </trkpt>
      <trkpt lat="47.04769" lon="5.40622">
        <ele>261.5</ele>
        <time>2012-12-24T12:53:38.000Z</time>
      </trkpt>
      <trkpt lat="47.04769" lon="5.40616">
        <ele>260.2</ele>
        <time>2012-12-24T12:53:41.000Z</time>
      </trkpt>
      <trkpt lat="47.04769" lon="5.40615">
        <ele>259.8</ele>
        <time>2012-12-24T12:53:42.000Z</time>
      </trkpt>
      <trkpt lat="47.04769" lon="5.40608">
        <ele>258.9</ele>
        <time>2012-12-24T12:53:46.000Z</time>
      </trkpt>
      <trkpt lat="47.04768" lon="5.40607">
        <ele>258.9</ele>
        <time>2012-12-24T12:53:47.000Z</time>
      </trkpt>
      <trkpt lat="47.04767" lon="5.40601">
        <ele>258.3</ele>
        <time>2012-12-24T12:53:51.000Z</time>
      </trkpt>
      <trkpt lat="47.04767" lon="5.40599">
        <ele>258.3</ele>
        <time>2012-12-24T12:53:52.000Z</time>
      </trkpt>
      <trkpt lat="47.04766" lon="5.40594">
        <ele>258.5</ele>
        <time>2012-12-24T12:53:55.000Z</time>
      </trkpt>
      <trkpt lat="47.04765" lon="5.40593">
        <ele>258.7</ele>
        <time>2012-12-24T12:53:56.000Z</time>
      </trkpt>
      <trkpt lat="47.04763" lon="5.40587">
        <ele>258.7</ele>
        <time>2012-12-24T12:53:59.000Z</time>
      </trkpt>
      <trkpt lat="47.04763" lon="5.40586">
        <ele>258.8</ele>
        <time>2012-12-24T12:54:00.000Z</time>
      </trkpt>
      <trkpt lat="47.04761" lon="5.4058">
        <ele>259.4</ele>
        <time>2012-12-24T12:54:03.000Z</time>
      </trkpt>
      <trkpt lat="47.0476" lon="5.40578">
        <ele>259.4</ele>
        <time>2012-12-24T12:54:04.000Z</time>
      </trkpt>
      <trkpt lat="47.04759" lon="5.40572">
        <ele>259.2</ele>
        <time>2012-12-24T12:54:07.000Z</time>
      </trkpt>
      <trkpt lat="47.04758" lon="5.4057">
        <ele>259.2</ele>
        <time>2012-12-24T12:54:08.000Z</time>
      </trkpt>
      <trkpt lat="47.04757" lon="5.40564">
        <ele>259.1</ele>
        <time>2012-12-24T12:54:11.000Z</time>
      </trkpt>
      <trkpt lat="47.04757" lon="5.40563">
        <ele>259.1</ele>
        <time>2012-12-24T12:54:12.000Z</time>
      </trkpt>
      <trkpt lat="47.04755" lon="5.40557">
        <ele>260.1</ele>
        <time>2012-12-24T12:54:15.000Z</time>
      </trkpt>
      <trkpt lat="47.04755" lon="5.40555">
        <ele>260.3</ele>
        <time>2012-12-24T12:54:16.000Z</time>
      </trkpt>
      <trkpt lat="47.04753" lon="5.40551">
        <ele>261.4</ele>
        <time>2012-12-24T12:54:19.000Z</time>
      </trkpt>
      <trkpt lat="47.04752" lon="5.40549">
        <ele>261.7</ele>
        <time>2012-12-24T12:54:20.000Z</time>
      </trkpt>
      <trkpt lat="47.04751" lon="5.40545">
        <ele>262.9</ele>
        <time>2012-12-24T12:54:23.000Z</time>
      </trkpt>
      <trkpt lat="47.0475" lon="5.40543">
        <ele>262.7</ele>
        <time>2012-12-24T12:54:24.000Z</time>
      </trkpt>
      <trkpt lat="47.04749" lon="5.40538">
        <ele>262</ele>
        <time>2012-12-24T12:54:27.000Z</time>
      </trkpt>
      <trkpt lat="47.04749" lon="5.40537">
        <ele>261.7</ele>
        <time>2012-12-24T12:54:28.000Z</time>
      </trkpt>
      <trkpt lat="47.04747" lon="5.40532">
        <ele>261.5</ele>
        <time>2012-12-24T12:54:32.000Z</time>
      </trkpt>
      <trkpt lat="47.04747" lon="5.4053">
        <ele>261.6</ele>
        <time>2012-12-24T12:54:33.000Z</time>
      </trkpt>
      <trkpt lat="47.04745" lon="5.40524">
        <ele>262.6</ele>
        <time>2012-12-24T12:54:37.000Z</time>
      </trkpt>
      <trkpt lat="47.04746" lon="5.40523">
        <ele>262.6</ele>
        <time>2012-12-24T12:54:38.000Z</time>
      </trkpt>
      <trkpt lat="47.04745" lon="5.40517">
        <ele>260.9</ele>
        <time>2012-12-24T12:54:42.000Z</time>
      </trkpt>
      <trkpt lat="47.04745" lon="5.40516">
        <ele>260</ele>
        <time>2012-12-24T12:54:43.000Z</time>
      </trkpt>
      <trkpt lat="47.04743" lon="5.4051">
        <ele>258</ele>
        <time>2012-12-24T12:54:48.000Z</time>
      </trkpt>
      <trkpt lat="47.04743" lon="5.40509">
        <ele>257.8</ele>
        <time>2012-12-24T12:54:49.000Z</time>
      </trkpt>
      <trkpt lat="47.04741" lon="5.40502">
        <ele>256.9</ele>
        <time>2012-12-24T12:54:54.000Z</time>
      </trkpt>
      <trkpt lat="47.04741" lon="5.40501">
        <ele>256.5</ele>
        <time>2012-12-24T12:54:55.000Z</time>
      </trkpt>
      <trkpt lat="47.04741" lon="5.40495">
        <ele>253.5</ele>
        <time>2012-12-24T12:55:02.000Z</time>
      </trkpt>
      <trkpt lat="47.04741" lon="5.40494">
        <ele>253.4</ele>
        <time>2012-12-24T12:55:03.000Z</time>
      </trkpt>
      <trkpt lat="47.04739" lon="5.40488">
        <ele>252.6</ele>
        <time>2012-12-24T12:55:09.000Z</time>
      </trkpt>
      <trkpt lat="47.04739" lon="5.40487">
        <ele>252.5</ele>
        <time>2012-12-24T12:55:10.000Z</time>
      </trkpt>
      <trkpt lat="47.04736" lon="5.40483">
        <ele>252.2</ele>
        <time>2012-12-24T12:55:16.000Z</time>
      </trkpt>
      <trkpt lat="47.04736" lon="5.40482">
        <ele>252</ele>
        <time>2012-12-24T12:55:17.000Z</time>
      </trkpt>
      <trkpt lat="47.04734" lon="5.40476">
        <ele>250.9</ele>
        <time>2012-12-24T12:55:23.000Z</time>
      </trkpt>
      <trkpt lat="47.04734" lon="5.40475">
        <ele>250.7</ele>
        <time>2012-12-24T12:55:24.000Z</time>
      </trkpt>
      <trkpt lat="47.04732" lon="5.4047">
        <ele>250.1</ele>
        <time>2012-12-24T12:55:28.000Z</time>
      </trkpt>
      <trkpt lat="47.04731" lon="5.40469">
        <ele>249.9</ele>
        <time>2012-12-24T12:55:29.000Z</time>
      </trkpt>
      <trkpt lat="47.0473" lon="5.40465">
        <ele>249.5</ele>
        <time>2012-12-24T12:55:32.000Z</time>
      </trkpt>
      <trkpt lat="47.04729" lon="5.40463">
        <ele>249.4</ele>
        <time>2012-12-24T12:55:33.000Z</time>
      </trkpt>
      <trkpt lat="47.04727" lon="5.40457">
        <ele>248.6</ele>
        <time>2012-12-24T12:55:37.000Z</time>
      </trkpt>
      <trkpt lat="47.04727" lon="5.40456">
        <ele>248.5</ele>
        <time>2012-12-24T12:55:38.000Z</time>
      </trkpt>
      <trkpt lat="47.04726" lon="5.4045">
        <ele>247.8</ele>
        <time>2012-12-24T12:55:42.000Z</time>
      </trkpt>
      <trkpt lat="47.04726" lon="5.40449">
        <ele>247.6</ele>
        <time>2012-12-24T12:55:43.000Z</time>
      </trkpt>
      <trkpt lat="47.04726" lon="5.40444">
        <ele>247.9</ele>
        <time>2012-12-24T12:55:48.000Z</time>
      </trkpt>
      <trkpt lat="47.04726" lon="5.40443">
        <ele>247.8</ele>
        <time>2012-12-24T12:55:49.000Z</time>
      </trkpt>
      <trkpt lat="47.04725" lon="5.40437">
        <ele>245.9</ele>
        <time>2012-12-24T12:55:53.000Z</time>
      </trkpt>
      <trkpt lat="47.04725" lon="5.40436">
        <ele>245.5</ele>
        <time>2012-12-24T12:55:54.000Z</time>
      </trkpt>
      <trkpt lat="47.04723" lon="5.4043">
        <ele>245.6</ele>
        <time>2012-12-24T12:55:58.000Z</time>
      </trkpt>
      <trkpt lat="47.04722" lon="5.40429">
        <ele>245.6</ele>
        <time>2012-12-24T12:55:59.000Z</time>
      </trkpt>
      <trkpt lat="47.0472" lon="5.40423">
        <ele>245.8</ele>
        <time>2012-12-24T12:56:03.000Z</time>
      </trkpt>
      <trkpt lat="47.0472" lon="5.40422">
        <ele>246</ele>
        <time>2012-12-24T12:56:04.000Z</time>
      </trkpt>
      <trkpt lat="47.04718" lon="5.40418">
        <ele>246.4</ele>
        <time>2012-12-24T12:56:07.000Z</time>
      </trkpt>
      <trkpt lat="47.04717" lon="5.40416">
        <ele>246.5</ele>
        <time>2012-12-24T12:56:08.000Z</time>
      </trkpt>
      <trkpt lat="47.04715" lon="5.40411">
        <ele>246.8</ele>
        <time>2012-12-24T12:56:12.000Z</time>
      </trkpt>
      <trkpt lat="47.04715" lon="5.4041">
        <ele>247</ele>
        <time>2012-12-24T12:56:13.000Z</time>
      </trkpt>
      <trkpt lat="47.04713" lon="5.40405">
        <ele>246.6</ele>
        <time>2012-12-24T12:56:16.000Z</time>
      </trkpt>
      <trkpt lat="47.04713" lon="5.40403">
        <ele>246.6</ele>
        <time>2012-12-24T12:56:17.000Z</time>
      </trkpt>
      <trkpt lat="47.04711" lon="5.40398">
        <ele>246.4</ele>
        <time>2012-12-24T12:56:22.000Z</time>
      </trkpt>
      <trkpt lat="47.04711" lon="5.40397">
        <ele>246.4</ele>
        <time>2012-12-24T12:56:23.000Z</time>
      </trkpt>
      <trkpt lat="47.04711" lon="5.40392">
        <ele>246.7</ele>
        <time>2012-12-24T12:56:27.000Z</time>
      </trkpt>
      <trkpt lat="47.04711" lon="5.4039">
        <ele>247</ele>
        <time>2012-12-24T12:56:28.000Z</time>
      </trkpt>
      <trkpt lat="47.04709" lon="5.40385">
        <ele>247.5</ele>
        <time>2012-12-24T12:56:31.000Z</time>
      </trkpt>
      <trkpt lat="47.04708" lon="5.40383">
        <ele>247.8</ele>
        <time>2012-12-24T12:56:32.000Z</time>
      </trkpt>
      <trkpt lat="47.04706" lon="5.40379">
        <ele>248.3</ele>
        <time>2012-12-24T12:56:35.000Z</time>
      </trkpt>
      <trkpt lat="47.04705" lon="5.40378">
        <ele>248.6</ele>
        <time>2012-12-24T12:56:36.000Z</time>
      </trkpt>
      <trkpt lat="47.04702" lon="5.40373">
        <ele>249</ele>
        <time>2012-12-24T12:56:40.000Z</time>
      </trkpt>
      <trkpt lat="47.04702" lon="5.40371">
        <ele>248.9</ele>
        <time>2012-12-24T12:56:41.000Z</time>
      </trkpt>
      <trkpt lat="47.04702" lon="5.40366">
        <ele>248.2</ele>
        <time>2012-12-24T12:56:44.000Z</time>
      </trkpt>
      <trkpt lat="47.04702" lon="5.40364">
        <ele>248.1</ele>
        <time>2012-12-24T12:56:45.000Z</time>
      </trkpt>
      <trkpt lat="47.047" lon="5.40358">
        <ele>247.8</ele>
        <time>2012-12-24T12:56:49.000Z</time>
      </trkpt>
      <trkpt lat="47.04701" lon="5.40357">
        <ele>247.5</ele>
        <time>2012-12-24T12:56:50.000Z</time>
      </trkpt>
      <trkpt lat="47.047" lon="5.40351">
        <ele>247.8</ele>
        <time>2012-12-24T12:56:55.000Z</time>
      </trkpt>
      <trkpt lat="47.04699" lon="5.4035">
        <ele>247.8</ele>
        <time>2012-12-24T12:56:56.000Z</time>
      </trkpt>
      <trkpt lat="47.04699" lon="5.40345">
        <ele>247.1</ele>
        <time>2012-12-24T12:57:00.000Z</time>
      </trkpt>
      <trkpt lat="47.04698" lon="5.40343">
        <ele>247.1</ele>
        <time>2012-12-24T12:57:01.000Z</time>
      </trkpt>
      <trkpt lat="47.04697" lon="5.40338">
        <ele>247.6</ele>
        <time>2012-12-24T12:57:05.000Z</time>
      </trkpt>
      <trkpt lat="47.04696" lon="5.40336">
        <ele>247.8</ele>
        <time>2012-12-24T12:57:06.000Z</time>
      </trkpt>
      <trkpt lat="47.04695" lon="5.40332">
        <ele>248.1</ele>
        <time>2012-12-24T12:57:09.000Z</time>
      </trkpt>
      <trkpt lat="47.04694" lon="5.4033">
        <ele>248.2</ele>
        <time>2012-12-24T12:57:10.000Z</time>
      </trkpt>
      <trkpt lat="47.04693" lon="5.40326">
        <ele>248.2</ele>
        <time>2012-12-24T12:57:13.000Z</time>
      </trkpt>
      <trkpt lat="47.04692" lon="5.40324">
        <ele>248.1</ele>
        <time>2012-12-24T12:57:14.000Z</time>
      </trkpt>
      <trkpt lat="47.0469" lon="5.4032">
        <ele>248.2</ele>
        <time>2012-12-24T12:57:17.000Z</time>
      </trkpt>
      <trkpt lat="47.04689" lon="5.40318">
        <ele>248.2</ele>
        <time>2012-12-24T12:57:18.000Z</time>
      </trkpt>
      <trkpt lat="47.04689" lon="5.40312">
        <ele>248.6</ele>
        <time>2012-12-24T12:57:23.000Z</time>
      </trkpt>
      <trkpt lat="47.04689" lon="5.40311">
        <ele>248.6</ele>
        <time>2012-12-24T12:57:24.000Z</time>
      </trkpt>
      <trkpt lat="47.04688" lon="5.40305">
        <ele>248.3</ele>
        <time>2012-12-24T12:57:30.000Z</time>
      </trkpt>
      <trkpt lat="47.04688" lon="5.40304">
        <ele>248</ele>
        <time>2012-12-24T12:57:31.000Z</time>
      </trkpt>
      <trkpt lat="47.04685" lon="5.40298">
        <ele>247.9</ele>
        <time>2012-12-24T12:57:35.000Z</time>
      </trkpt>
      <trkpt lat="47.04685" lon="5.40296">
        <ele>247.9</ele>
        <time>2012-12-24T12:57:36.000Z</time>
      </trkpt>
      <trkpt lat="47.04682" lon="5.40292">
        <ele>247.4</ele>
        <time>2012-12-24T12:57:39.000Z</time>
      </trkpt>
      <trkpt lat="47.04682" lon="5.4029">
        <ele>247.2</ele>
        <time>2012-12-24T12:57:40.000Z</time>
      </trkpt>
      <trkpt lat="47.04681" lon="5.40284">
        <ele>247.1</ele>
        <time>2012-12-24T12:57:44.000Z</time>
      </trkpt>
      <trkpt lat="47.04681" lon="5.40283">
        <ele>246.9</ele>
        <time>2012-12-24T12:57:45.000Z</time>
      </trkpt>
      <trkpt lat="47.04679" lon="5.40277">
        <ele>247</ele>
        <time>2012-12-24T12:57:49.000Z</time>
      </trkpt>
      <trkpt lat="47.04678" lon="5.40276">
        <ele>247</ele>
        <time>2012-12-24T12:57:50.000Z</time>
      </trkpt>
      <trkpt lat="47.04676" lon="5.4027">
        <ele>247.2</ele>
        <time>2012-12-24T12:57:54.000Z</time>
      </trkpt>
      <trkpt lat="47.04676" lon="5.40268">
        <ele>247.6</ele>
        <time>2012-12-24T12:57:55.000Z</time>
      </trkpt>
      <trkpt lat="47.04675" lon="5.40264">
        <ele>247.6</ele>
        <time>2012-12-24T12:57:59.000Z</time>
      </trkpt>
      <trkpt lat="47.04674" lon="5.40262">
        <ele>247.6</ele>
        <time>2012-12-24T12:58:00.500Z</time>
      </trkpt>
      <trkpt lat="47.04672" lon="5.40257">
        <ele>248</ele>
        <time>2012-12-24T12:58:05.000Z</time>
      </trkpt>
      <trkpt lat="47.04671" lon="5.40256">
        <ele>248.1</ele>
        <time>2012-12-24T12:58:06.000Z</time>
      </trkpt>
      <trkpt lat="47.0467" lon="5.40251">
        <ele>248.1</ele>
        <time>2012-12-24T12:58:11.000Z</time>
      </trkpt>
      <trkpt lat="47.04669" lon="5.4025">
        <ele>248.1</ele>
        <time>2012-12-24T12:58:12.000Z</time>
      </trkpt>
      <trkpt lat="47.04664" lon="5.40226">
        <ele>245.8</ele>
        <time>2012-12-24T12:58:18.000Z</time>
      </trkpt>
      <trkpt lat="47.04663" lon="5.40223">
        <ele>247.2</ele>
        <time>2012-12-24T12:58:25.000Z</time>
      </trkpt>
      <trkpt lat="47.04661" lon="5.4022">
        <ele>247.4</ele>
        <time>2012-12-24T12:58:26.000Z</time>
      </trkpt>
      <trkpt lat="47.04658" lon="5.40216">
        <ele>246.5</ele>
        <time>2012-12-24T12:58:29.000Z</time>
      </trkpt>
      <trkpt lat="47.04657" lon="5.40215">
        <ele>245.6</ele>
        <time>2012-12-24T12:58:30.000Z</time>
      </trkpt>
      <trkpt lat="47.04656" lon="5.4021">
        <ele>243.5</ele>
        <time>2012-12-24T12:58:35.000Z</time>
      </trkpt>
      <trkpt lat="47.04656" lon="5.40209">
        <ele>243</ele>
        <time>2012-12-24T12:58:36.000Z</time>
      </trkpt>
      <trkpt lat="47.04654" lon="5.40203">
        <ele>242.2</ele>
        <time>2012-12-24T12:58:40.000Z</time>
      </trkpt>
      <trkpt lat="47.04654" lon="5.40202">
        <ele>241.9</ele>
        <time>2012-12-24T12:58:41.000Z</time>
      </trkpt>
      <trkpt lat="47.04653" lon="5.40196">
        <ele>241.9</ele>
        <time>2012-12-24T12:58:45.000Z</time>
      </trkpt>
      <trkpt lat="47.04652" lon="5.40195">
        <ele>241.8</ele>
        <time>2012-12-24T12:58:46.000Z</time>
      </trkpt>
      <trkpt lat="47.0465" lon="5.4019">
        <ele>241.7</ele>
        <time>2012-12-24T12:58:51.000Z</time>
      </trkpt>
      <trkpt lat="47.04649" lon="5.40189">
        <ele>242.2</ele>
        <time>2012-12-24T12:58:52.000Z</time>
      </trkpt>
      <trkpt lat="47.04646" lon="5.40185">
        <ele>242.8</ele>
        <time>2012-12-24T12:58:57.000Z</time>
      </trkpt>
      <trkpt lat="47.04645" lon="5.40184">
        <ele>242.6</ele>
        <time>2012-12-24T12:58:58.000Z</time>
      </trkpt>
      <trkpt lat="47.04644" lon="5.40179">
        <ele>242.1</ele>
        <time>2012-12-24T12:59:03.000Z</time>
      </trkpt>
      <trkpt lat="47.04643" lon="5.40178">
        <ele>242.2</ele>
        <time>2012-12-24T12:59:04.000Z</time>
      </trkpt>
      <trkpt lat="47.04642" lon="5.40172">
        <ele>241.3</ele>
        <time>2012-12-24T12:59:08.000Z</time>
      </trkpt>
      <trkpt lat="47.04641" lon="5.40171">
        <ele>241.1</ele>
        <time>2012-12-24T12:59:09.000Z</time>
      </trkpt>
      <trkpt lat="47.04639" lon="5.40165">
        <ele>239.7</ele>
        <time>2012-12-24T12:59:14.000Z</time>
      </trkpt>
      <trkpt lat="47.04639" lon="5.40164">
        <ele>239.7</ele>
        <time>2012-12-24T12:59:15.000Z</time>
      </trkpt>
      <trkpt lat="47.04637" lon="5.40158">
        <ele>238</ele>
        <time>2012-12-24T12:59:20.000Z</time>
      </trkpt>
      <trkpt lat="47.04637" lon="5.40157">
        <ele>238.1</ele>
        <time>2012-12-24T12:59:21.000Z</time>
      </trkpt>
      <trkpt lat="47.04636" lon="5.40152">
        <ele>237.3</ele>
        <time>2012-12-24T12:59:25.000Z</time>
      </trkpt>
      <trkpt lat="47.04635" lon="5.4015">
        <ele>236.9</ele>
        <time>2012-12-24T12:59:26.000Z</time>
      </trkpt>
      <trkpt lat="47.04635" lon="5.40144">
        <ele>236.2</ele>
        <time>2012-12-24T12:59:30.000Z</time>
      </trkpt>
      <trkpt lat="47.04634" lon="5.40142">
        <ele>236.3</ele>
        <time>2012-12-24T12:59:31.000Z</time>
      </trkpt>
      <trkpt lat="47.04633" lon="5.40136">
        <ele>235.8</ele>
        <time>2012-12-24T12:59:35.000Z</time>
      </trkpt>
      <trkpt lat="47.04633" lon="5.40134">
        <ele>235.6</ele>
        <time>2012-12-24T12:59:36.000Z</time>
      </trkpt>
      <trkpt lat="47.04632" lon="5.40129">
        <ele>235</ele>
        <time>2012-12-24T12:59:40.000Z</time>
      </trkpt>
      <trkpt lat="47.04632" lon="5.40127">
        <ele>234.9</ele>
        <time>2012-12-24T12:59:41.000Z</time>
      </trkpt>
      <trkpt lat="47.0463" lon="5.40122">
        <ele>234.5</ele>
        <time>2012-12-24T12:59:45.000Z</time>
      </trkpt>
      <trkpt lat="47.0463" lon="5.40121">
        <ele>234.5</ele>
        <time>2012-12-24T12:59:46.000Z</time>
      </trkpt>
      <trkpt lat="47.04628" lon="5.40115">
        <ele>234.9</ele>
        <time>2012-12-24T12:59:50.000Z</time>
      </trkpt>
      <trkpt lat="47.04628" lon="5.40114">
        <ele>234.9</ele>
        <time>2012-12-24T12:59:51.000Z</time>
      </trkpt>
      <trkpt lat="47.04626" lon="5.40109">
        <ele>234.9</ele>
        <time>2012-12-24T12:59:55.000Z</time>
      </trkpt>
      <trkpt lat="47.04626" lon="5.40108">
        <ele>234.8</ele>
        <time>2012-12-24T12:59:56.000Z</time>
      </trkpt>
      <trkpt lat="47.04624" lon="5.40102">
        <ele>234.6</ele>
        <time>2012-12-24T13:00:01.000Z</time>
      </trkpt>
      <trkpt lat="47.04624" lon="5.40101">
        <ele>234.6</ele>
        <time>2012-12-24T13:00:02.000Z</time>
      </trkpt>
      <trkpt lat="47.04622" lon="5.40095">
        <ele>234.3</ele>
        <time>2012-12-24T13:00:06.000Z</time>
      </trkpt>
      <trkpt lat="47.04622" lon="5.40093">
        <ele>234.2</ele>
        <time>2012-12-24T13:00:07.000Z</time>
      </trkpt>
      <trkpt lat="47.0462" lon="5.40089">
        <ele>233.8</ele>
        <time>2012-12-24T13:00:11.000Z</time>
      </trkpt>
      <trkpt lat="47.04619" lon="5.40087">
        <ele>233.6</ele>
        <time>2012-12-24T13:00:12.000Z</time>
      </trkpt>
      <trkpt lat="47.04617" lon="5.40082">
        <ele>232.9</ele>
        <time>2012-12-24T13:00:17.000Z</time>
      </trkpt>
      <trkpt lat="47.04617" lon="5.40081">
        <ele>233</ele>
        <time>2012-12-24T13:00:18.000Z</time>
      </trkpt>
      <trkpt lat="47.04614" lon="5.40075">
        <ele>232.9</ele>
        <time>2012-12-24T13:00:23.000Z</time>
      </trkpt>
      <trkpt lat="47.04614" lon="5.40074">
        <ele>232.9</ele>
        <time>2012-12-24T13:00:24.000Z</time>
      </trkpt>
      <trkpt lat="47.04613" lon="5.40068">
        <ele>233.5</ele>
        <time>2012-12-24T13:00:28.000Z</time>
      </trkpt>
      <trkpt lat="47.04612" lon="5.40067">
        <ele>233.6</ele>
        <time>2012-12-24T13:00:29.000Z</time>
      </trkpt>
      <trkpt lat="47.04611" lon="5.40061">
        <ele>233.5</ele>
        <time>2012-12-24T13:00:33.000Z</time>
      </trkpt>
      <trkpt lat="47.0461" lon="5.40059">
        <ele>233.5</ele>
        <time>2012-12-24T13:00:34.000Z</time>
      </trkpt>
      <trkpt lat="47.04612" lon="5.40054">
        <ele>230.4</ele>
        <time>2012-12-24T13:00:53.000Z</time>
      </trkpt>
      <trkpt lat="47.04613" lon="5.40052">
        <ele>229.1</ele>
        <time>2012-12-24T13:00:54.000Z</time>
      </trkpt>
      <trkpt lat="47.04615" lon="5.40046">
        <ele>224.9</ele>
        <time>2012-12-24T13:00:59.000Z</time>
      </trkpt>
      <trkpt lat="47.04615" lon="5.40045">
        <ele>225.2</ele>
        <time>2012-12-24T13:01:00.000Z</time>
      </trkpt>
      <trkpt lat="47.04613" lon="5.4004">
        <ele>227.1</ele>
        <time>2012-12-24T13:01:07.000Z</time>
      </trkpt>
      <trkpt lat="47.04612" lon="5.40039">
        <ele>227.4</ele>
        <time>2012-12-24T13:01:08.000Z</time>
      </trkpt>
      <trkpt lat="47.04609" lon="5.40034">
        <ele>228.2</ele>
        <time>2012-12-24T13:01:12.000Z</time>
      </trkpt>
      <trkpt lat="47.04608" lon="5.40033">
        <ele>228.6</ele>
        <time>2012-12-24T13:01:13.000Z</time>
      </trkpt>
      <trkpt lat="47.04605" lon="5.40028">
        <ele>229.1</ele>
        <time>2012-12-24T13:01:16.000Z</time>
      </trkpt>
      <trkpt lat="47.04604" lon="5.40027">
        <ele>229.3</ele>
        <time>2012-12-24T13:01:17.000Z</time>
      </trkpt>
      <trkpt lat="47.04602" lon="5.40022">
        <ele>229.9</ele>
        <time>2012-12-24T13:01:20.000Z</time>
      </trkpt>
      <trkpt lat="47.04601" lon="5.4002">
        <ele>230.2</ele>
        <time>2012-12-24T13:01:21.000Z</time>
      </trkpt>
      <trkpt lat="47.04599" lon="5.40015">
        <ele>231</ele>
        <time>2012-12-24T13:01:24.000Z</time>
      </trkpt>
      <trkpt lat="47.04599" lon="5.40014">
        <ele>231.4</ele>
        <time>2012-12-24T13:01:25.000Z</time>
      </trkpt>
      <trkpt lat="47.04597" lon="5.40009">
        <ele>232.9</ele>
        <time>2012-12-24T13:01:29.000Z</time>
      </trkpt>
      <trkpt lat="47.04596" lon="5.40008">
        <ele>233.4</ele>
        <time>2012-12-24T13:01:30.000Z</time>
      </trkpt>
      <trkpt lat="47.04593" lon="5.40003">
        <ele>235.1</ele>
        <time>2012-12-24T13:01:34.000Z</time>
      </trkpt>
      <trkpt lat="47.04593" lon="5.40002">
        <ele>235.2</ele>
        <time>2012-12-24T13:01:35.000Z</time>
      </trkpt>
      <trkpt lat="47.04591" lon="5.39997">
        <ele>236</ele>
        <time>2012-12-24T13:01:38.000Z</time>
      </trkpt>
      <trkpt lat="47.04591" lon="5.39995">
        <ele>236</ele>
        <time>2012-12-24T13:01:39.000Z</time>
      </trkpt>
      <trkpt lat="47.04591" lon="5.39989">
        <ele>237</ele>
        <time>2012-12-24T13:01:43.000Z</time>
      </trkpt>
      <trkpt lat="47.0459" lon="5.39987">
        <ele>237.2</ele>
        <time>2012-12-24T13:01:44.000Z</time>
      </trkpt>
      <trkpt lat="47.04588" lon="5.39983">
        <ele>238.9</ele>
        <time>2012-12-24T13:01:47.000Z</time>
      </trkpt>
      <trkpt lat="47.04587" lon="5.39981">
        <ele>238.9</ele>
        <time>2012-12-24T13:01:48.000Z</time>
      </trkpt>
      <trkpt lat="47.04586" lon="5.39975">
        <ele>236.5</ele>
        <time>2012-12-24T13:01:54.000Z</time>
      </trkpt>
      <trkpt lat="47.04586" lon="5.39974">
        <ele>236.5</ele>
        <time>2012-12-24T13:01:55.000Z</time>
      </trkpt>
      <trkpt lat="47.04585" lon="5.39968">
        <ele>237.1</ele>
        <time>2012-12-24T13:01:59.000Z</time>
      </trkpt>
      <trkpt lat="47.04584" lon="5.39967">
        <ele>237.4</ele>
        <time>2012-12-24T13:02:00.000Z</time>
      </trkpt>
      <trkpt lat="47.04583" lon="5.39961">
        <ele>238.1</ele>
        <time>2012-12-24T13:02:09.000Z</time>
      </trkpt>
      <trkpt lat="47.04583" lon="5.39961">
        <ele>238.4</ele>
        <time>2012-12-24T13:02:10.000Z</time>
      </trkpt>
      <trkpt lat="47.04583" lon="5.3996">
        <ele>239.1</ele>
        <time>2012-12-24T13:02:12.000Z</time>
      </trkpt>
      <trkpt lat="47.0458" lon="5.39949">
        <ele>233.3</ele>
        <time>2012-12-24T13:02:17.000Z</time>
      </trkpt>
      <trkpt lat="47.04576" lon="5.39942">
        <ele>245.1</ele>
        <time>2012-12-24T13:02:18.000Z</time>
      </trkpt>
      <trkpt lat="47.04572" lon="5.39935">
        <ele>257.9</ele>
        <time>2012-12-24T13:02:20.000Z</time>
      </trkpt>
      <trkpt lat="47.04572" lon="5.39935">
        <ele>257.9</ele>
        <time>2012-12-24T13:02:23.000Z</time>
      </trkpt>
      <trkpt lat="47.04568" lon="5.39928">
        <ele>255.6</ele>
        <time>2012-12-24T13:02:24.000Z</time>
      </trkpt>
      <trkpt lat="47.04566" lon="5.39923">
        <ele>252.2</ele>
        <time>2012-12-24T13:02:31.000Z</time>
      </trkpt>
      <trkpt lat="47.04566" lon="5.39922">
        <ele>251.7</ele>
        <time>2012-12-24T13:02:32.000Z</time>
      </trkpt>
      <trkpt lat="47.04563" lon="5.39918">
        <ele>249.7</ele>
        <time>2012-12-24T13:02:41.000Z</time>
      </trkpt>
      <trkpt lat="47.04563" lon="5.39916">
        <ele>249.7</ele>
        <time>2012-12-24T13:02:42.000Z</time>
      </trkpt>
      <trkpt lat="47.04562" lon="5.3991">
        <ele>250.7</ele>
        <time>2012-12-24T13:02:45.000Z</time>
      </trkpt>
      <trkpt lat="47.04562" lon="5.39908">
        <ele>251.4</ele>
        <time>2012-12-24T13:02:46.000Z</time>
      </trkpt>
      <trkpt lat="47.04561" lon="5.39901">
        <ele>253.4</ele>
        <time>2012-12-24T13:02:50.000Z</time>
      </trkpt>
      <trkpt lat="47.04561" lon="5.399">
        <ele>253.8</ele>
        <time>2012-12-24T13:02:51.000Z</time>
      </trkpt>
      <trkpt lat="47.04559" lon="5.39895">
        <ele>257</ele>
        <time>2012-12-24T13:02:55.000Z</time>
      </trkpt>
      <trkpt lat="47.04558" lon="5.39893">
        <ele>257.5</ele>
        <time>2012-12-24T13:02:56.000Z</time>
      </trkpt>
      <trkpt lat="47.04558" lon="5.39887">
        <ele>255.6</ele>
        <time>2012-12-24T13:03:06.000Z</time>
      </trkpt>
      <trkpt lat="47.04558" lon="5.39885">
        <ele>255.7</ele>
        <time>2012-12-24T13:03:07.000Z</time>
      </trkpt>
      <trkpt lat="47.04557" lon="5.39879">
        <ele>255.9</ele>
        <time>2012-12-24T13:03:10.000Z</time>
      </trkpt>
      <trkpt lat="47.04557" lon="5.39878">
        <ele>256.3</ele>
        <time>2012-12-24T13:03:11.000Z</time>
      </trkpt>
      <trkpt lat="47.04557" lon="5.39876">
        <ele>256.7</ele>
        <time>2012-12-24T13:03:12.000Z</time>
      </trkpt>
      <trkpt lat="47.04545" lon="5.39866">
        <ele>257.7</ele>
        <time>2012-12-24T13:03:20.000Z</time>
      </trkpt>
      <trkpt lat="47.04544" lon="5.39875">
        <ele>257.2</ele>
        <time>2012-12-24T13:03:21.000Z</time>
      </trkpt>
      <trkpt lat="47.0454" lon="5.39877">
        <ele>257.6</ele>
        <time>2012-12-24T13:03:25.000Z</time>
      </trkpt>
      <trkpt lat="47.04538" lon="5.39877">
        <ele>258.1</ele>
        <time>2012-12-24T13:03:26.000Z</time>
      </trkpt>
      <trkpt lat="47.04535" lon="5.39878">
        <ele>249.5</ele>
        <time>2012-12-24T13:03:36.000Z</time>
      </trkpt>
      <trkpt lat="47.04534" lon="5.39878">
        <ele>249.1</ele>
        <time>2012-12-24T13:03:37.000Z</time>
      </trkpt>
      <trkpt lat="47.0453" lon="5.3988">
        <ele>250.3</ele>
        <time>2012-12-24T13:03:41.000Z</time>
      </trkpt>
      <trkpt lat="47.04529" lon="5.3988">
        <ele>250.6</ele>
        <time>2012-12-24T13:03:42.000Z</time>
      </trkpt>
      <trkpt lat="47.04525" lon="5.39883">
        <ele>246.3</ele>
        <time>2012-12-24T13:03:47.000Z</time>
      </trkpt>
      <trkpt lat="47.04524" lon="5.39884">
        <ele>245.9</ele>
        <time>2012-12-24T13:03:48.000Z</time>
      </trkpt>
      <trkpt lat="47.04521" lon="5.39887">
        <ele>245.7</ele>
        <time>2012-12-24T13:03:52.000Z</time>
      </trkpt>
      <trkpt lat="47.0452" lon="5.39888">
        <ele>246.2</ele>
        <time>2012-12-24T13:03:53.000Z</time>
      </trkpt>
      <trkpt lat="47.04518" lon="5.39892">
        <ele>247.3</ele>
        <time>2012-12-24T13:03:56.000Z</time>
      </trkpt>
      <trkpt lat="47.04517" lon="5.39894">
        <ele>247.4</ele>
        <time>2012-12-24T13:03:57.000Z</time>
      </trkpt>
      <trkpt lat="47.04514" lon="5.39897">
        <ele>248.7</ele>
        <time>2012-12-24T13:04:00.000Z</time>
      </trkpt>
      <trkpt lat="47.04513" lon="5.39898">
        <ele>249.2</ele>
        <time>2012-12-24T13:04:01.000Z</time>
      </trkpt>
      <trkpt lat="47.0451" lon="5.39902">
        <ele>250.3</ele>
        <time>2012-12-24T13:04:04.000Z</time>
      </trkpt>
      <trkpt lat="47.04509" lon="5.39903">
        <ele>250.1</ele>
        <time>2012-12-24T13:04:05.000Z</time>
      </trkpt>
      <trkpt lat="47.04506" lon="5.39906">
        <ele>249.8</ele>
        <time>2012-12-24T13:04:09.000Z</time>
      </trkpt>
      <trkpt lat="47.04505" lon="5.39907">
        <ele>250</ele>
        <time>2012-12-24T13:04:10.000Z</time>
      </trkpt>
      <trkpt lat="47.04503" lon="5.39908">
        <ele>250.1</ele>
        <time>2012-12-24T13:04:12.000Z</time>
      </trkpt>
      <trkpt lat="47.04504" lon="5.39895">
        <ele>236</ele>
        <time>2012-12-24T13:04:17.000Z</time>
      </trkpt>
      <trkpt lat="47.04504" lon="5.39895">
        <ele>236</ele>
        <time>2012-12-24T13:04:19.000Z</time>
      </trkpt>
      <trkpt lat="47.04503" lon="5.39888">
        <ele>231.2</ele>
        <time>2012-12-24T13:04:20.000Z</time>
      </trkpt>
      <trkpt lat="47.04498" lon="5.3989">
        <ele>231.3</ele>
        <time>2012-12-24T13:04:23.000Z</time>
      </trkpt>
      <trkpt lat="47.04497" lon="5.39891">
        <ele>232.3</ele>
        <time>2012-12-24T13:04:24.000Z</time>
      </trkpt>
      <trkpt lat="47.04493" lon="5.39892">
        <ele>232.9</ele>
        <time>2012-12-24T13:04:27.000Z</time>
      </trkpt>
      <trkpt lat="47.04492" lon="5.39892">
        <ele>232.6</ele>
        <time>2012-12-24T13:04:28.000Z</time>
      </trkpt>
      <trkpt lat="47.04489" lon="5.39893">
        <ele>232.3</ele>
        <time>2012-12-24T13:04:32.000Z</time>
      </trkpt>
      <trkpt lat="47.04488" lon="5.39893">
        <ele>232.5</ele>
        <time>2012-12-24T13:04:33.000Z</time>
      </trkpt>
      <trkpt lat="47.04483" lon="5.3989">
        <ele>233.3</ele>
        <time>2012-12-24T13:04:37.000Z</time>
      </trkpt>
      <trkpt lat="47.04483" lon="5.3989">
        <ele>233.3</ele>
        <time>2012-12-24T13:04:38.000Z</time>
      </trkpt>
      <trkpt lat="47.04478" lon="5.39891">
        <ele>233.5</ele>
        <time>2012-12-24T13:04:43.000Z</time>
      </trkpt>
      <trkpt lat="47.04477" lon="5.39892">
        <ele>233.9</ele>
        <time>2012-12-24T13:04:44.000Z</time>
      </trkpt>
      <trkpt lat="47.04473" lon="5.3989">
        <ele>235.3</ele>
        <time>2012-12-24T13:04:48.000Z</time>
      </trkpt>
      <trkpt lat="47.04472" lon="5.39889">
        <ele>235.7</ele>
        <time>2012-12-24T13:04:49.000Z</time>
      </trkpt>
      <trkpt lat="47.04471" lon="5.39884">
        <ele>236.7</ele>
        <time>2012-12-24T13:04:53.000Z</time>
      </trkpt>
      <trkpt lat="47.04471" lon="5.39882">
        <ele>236.9</ele>
        <time>2012-12-24T13:04:54.000Z</time>
      </trkpt>
      <trkpt lat="47.04472" lon="5.39877">
        <ele>237.8</ele>
        <time>2012-12-24T13:05:01.000Z</time>
      </trkpt>
      <trkpt lat="47.04472" lon="5.39875">
        <ele>238</ele>
        <time>2012-12-24T13:05:02.000Z</time>
      </trkpt>
      <trkpt lat="47.04472" lon="5.39869">
        <ele>237.9</ele>
        <time>2012-12-24T13:05:06.000Z</time>
      </trkpt>
      <trkpt lat="47.04472" lon="5.39867">
        <ele>237.9</ele>
        <time>2012-12-24T13:05:07.000Z</time>
      </trkpt>
      <trkpt lat="47.04472" lon="5.39862">
        <ele>238.2</ele>
        <time>2012-12-24T13:05:12.000Z</time>
      </trkpt>
      <trkpt lat="47.04462" lon="5.3984">
        <ele>240.7</ele>
        <time>2012-12-24T13:05:17.000Z</time>
      </trkpt>
      <trkpt lat="47.04462" lon="5.39834">
        <ele>243</ele>
        <time>2012-12-24T13:05:31.000Z</time>
      </trkpt>
      <trkpt lat="47.04462" lon="5.39833">
        <ele>243.4</ele>
        <time>2012-12-24T13:05:32.000Z</time>
      </trkpt>
      <trkpt lat="47.04464" lon="5.39828">
        <ele>243.8</ele>
        <time>2012-12-24T13:05:36.000Z</time>
      </trkpt>
      <trkpt lat="47.04464" lon="5.39827">
        <ele>243.9</ele>
        <time>2012-12-24T13:05:37.000Z</time>
      </trkpt>
      <trkpt lat="47.04466" lon="5.39821">
        <ele>243.2</ele>
        <time>2012-12-24T13:05:42.000Z</time>
      </trkpt>
      <trkpt lat="47.04466" lon="5.3982">
        <ele>243.3</ele>
        <time>2012-12-24T13:05:43.000Z</time>
      </trkpt>
      <trkpt lat="47.04465" lon="5.39814">
        <ele>246.7</ele>
        <time>2012-12-24T13:05:49.000Z</time>
      </trkpt>
      <trkpt lat="47.04465" lon="5.39813">
        <ele>247.1</ele>
        <time>2012-12-24T13:05:50.000Z</time>
      </trkpt>
      <trkpt lat="47.04465" lon="5.39806">
        <ele>248.7</ele>
        <time>2012-12-24T13:05:54.000Z</time>
      </trkpt>
      <trkpt lat="47.04465" lon="5.39805">
        <ele>249</ele>
        <time>2012-12-24T13:05:55.000Z</time>
      </trkpt>
      <trkpt lat="47.04464" lon="5.398">
        <ele>249.1</ele>
        <time>2012-12-24T13:05:58.000Z</time>
      </trkpt>
      <trkpt lat="47.04464" lon="5.39798">
        <ele>249</ele>
        <time>2012-12-24T13:05:59.000Z</time>
      </trkpt>
      <trkpt lat="47.04464" lon="5.39793">
        <ele>245.3</ele>
        <time>2012-12-24T13:06:02.000Z</time>
      </trkpt>
      <trkpt lat="47.04464" lon="5.39791">
        <ele>244.6</ele>
        <time>2012-12-24T13:06:03.000Z</time>
      </trkpt>
      <trkpt lat="47.04464" lon="5.39786">
        <ele>243.1</ele>
        <time>2012-12-24T13:06:06.000Z</time>
      </trkpt>
      <trkpt lat="47.04464" lon="5.39784">
        <ele>242.8</ele>
        <time>2012-12-24T13:06:07.000Z</time>
      </trkpt>
      <trkpt lat="47.04464" lon="5.39778">
        <ele>242.2</ele>
        <time>2012-12-24T13:06:11.000Z</time>
      </trkpt>
      <trkpt lat="47.04464" lon="5.39776">
        <ele>242</ele>
        <time>2012-12-24T13:06:12.000Z</time>
      </trkpt>
      <trkpt lat="47.04464" lon="5.3977">
        <ele>241</ele>
        <time>2012-12-24T13:06:16.000Z</time>
      </trkpt>
      <trkpt lat="47.04463" lon="5.39769">
        <ele>240.9</ele>
        <time>2012-12-24T13:06:17.000Z</time>
      </trkpt>
      <trkpt lat="47.04462" lon="5.39763">
        <ele>240.5</ele>
        <time>2012-12-24T13:06:22.000Z</time>
      </trkpt>
      <trkpt lat="47.04462" lon="5.39762">
        <ele>240.6</ele>
        <time>2012-12-24T13:06:23.000Z</time>
      </trkpt>
      <trkpt lat="47.04462" lon="5.39756">
        <ele>239.7</ele>
        <time>2012-12-24T13:06:27.000Z</time>
      </trkpt>
      <trkpt lat="47.04462" lon="5.39754">
        <ele>239.7</ele>
        <time>2012-12-24T13:06:28.000Z</time>
      </trkpt>
      <trkpt lat="47.04462" lon="5.39749">
        <ele>239.3</ele>
        <time>2012-12-24T13:06:31.000Z</time>
      </trkpt>
      <trkpt lat="47.04463" lon="5.39747">
        <ele>239.2</ele>
        <time>2012-12-24T13:06:32.000Z</time>
      </trkpt>
      <trkpt lat="47.04463" lon="5.39741">
        <ele>239.3</ele>
        <time>2012-12-24T13:06:36.000Z</time>
      </trkpt>
      <trkpt lat="47.04463" lon="5.39739">
        <ele>239.5</ele>
        <time>2012-12-24T13:06:37.000Z</time>
      </trkpt>
      <trkpt lat="47.04463" lon="5.39733">
        <ele>240</ele>
        <time>2012-12-24T13:06:41.000Z</time>
      </trkpt>
      <trkpt lat="47.04463" lon="5.39731">
        <ele>240.3</ele>
        <time>2012-12-24T13:06:42.000Z</time>
      </trkpt>
      <trkpt lat="47.04462" lon="5.39726">
        <ele>240.1</ele>
        <time>2012-12-24T13:06:46.000Z</time>
      </trkpt>
      <trkpt lat="47.04462" lon="5.39724">
        <ele>240</ele>
        <time>2012-12-24T13:06:47.000Z</time>
      </trkpt>
      <trkpt lat="47.04462" lon="5.39718">
        <ele>238.9</ele>
        <time>2012-12-24T13:06:52.000Z</time>
      </trkpt>
      <trkpt lat="47.04462" lon="5.39717">
        <ele>238.7</ele>
        <time>2012-12-24T13:06:53.000Z</time>
      </trkpt>
      <trkpt lat="47.04463" lon="5.39711">
        <ele>237.7</ele>
        <time>2012-12-24T13:06:57.000Z</time>
      </trkpt>
      <trkpt lat="47.04463" lon="5.3971">
        <ele>237.7</ele>
        <time>2012-12-24T13:06:58.000Z</time>
      </trkpt>
      <trkpt lat="47.04463" lon="5.39704">
        <ele>237.7</ele>
        <time>2012-12-24T13:07:02.000Z</time>
      </trkpt>
      <trkpt lat="47.04463" lon="5.39703">
        <ele>237.7</ele>
        <time>2012-12-24T13:07:03.000Z</time>
      </trkpt>
      <trkpt lat="47.04464" lon="5.39697">
        <ele>236.5</ele>
        <time>2012-12-24T13:07:08.000Z</time>
      </trkpt>
      <trkpt lat="47.04464" lon="5.39696">
        <ele>236.4</ele>
        <time>2012-12-24T13:07:09.000Z</time>
      </trkpt>
      <trkpt lat="47.04463" lon="5.39691">
        <ele>236.3</ele>
        <time>2012-12-24T13:07:14.000Z</time>
      </trkpt>
      <trkpt lat="47.04463" lon="5.3969">
        <ele>236.2</ele>
        <time>2012-12-24T13:07:15.000Z</time>
      </trkpt>
      <trkpt lat="47.04462" lon="5.39684">
        <ele>236.2</ele>
        <time>2012-12-24T13:07:20.000Z</time>
      </trkpt>
      <trkpt lat="47.04462" lon="5.39682">
        <ele>236.3</ele>
        <time>2012-12-24T13:07:21.000Z</time>
      </trkpt>
      <trkpt lat="47.04462" lon="5.39676">
        <ele>236.6</ele>
        <time>2012-12-24T13:07:25.000Z</time>
      </trkpt>
      <trkpt lat="47.04462" lon="5.39675">
        <ele>236.6</ele>
        <time>2012-12-24T13:07:26.000Z</time>
      </trkpt>
      <trkpt lat="47.04461" lon="5.39668">
        <ele>236.7</ele>
        <time>2012-12-24T13:07:30.000Z</time>
      </trkpt>
      <trkpt lat="47.04461" lon="5.39667">
        <ele>236.7</ele>
        <time>2012-12-24T13:07:31.000Z</time>
      </trkpt>
      <trkpt lat="47.04461" lon="5.39661">
        <ele>236.5</ele>
        <time>2012-12-24T13:07:35.000Z</time>
      </trkpt>
      <trkpt lat="47.04461" lon="5.39659">
        <ele>236.5</ele>
        <time>2012-12-24T13:07:36.500Z</time>
      </trkpt>
      <trkpt lat="47.04461" lon="5.39652">
        <ele>235.7</ele>
        <time>2012-12-24T13:07:41.000Z</time>
      </trkpt>
      <trkpt lat="47.04461" lon="5.39651">
        <ele>235.5</ele>
        <time>2012-12-24T13:07:42.000Z</time>
      </trkpt>
      <trkpt lat="47.04462" lon="5.39645">
        <ele>235.2</ele>
        <time>2012-12-24T13:07:46.000Z</time>
      </trkpt>
      <trkpt lat="47.04462" lon="5.39644">
        <ele>234.9</ele>
        <time>2012-12-24T13:07:47.000Z</time>
      </trkpt>
      <trkpt lat="47.04462" lon="5.39638">
        <ele>233.9</ele>
        <time>2012-12-24T13:07:51.000Z</time>
      </trkpt>
      <trkpt lat="47.04462" lon="5.39637">
        <ele>233.7</ele>
        <time>2012-12-24T13:07:52.000Z</time>
      </trkpt>
      <trkpt lat="47.04462" lon="5.39631">
        <ele>232.8</ele>
        <time>2012-12-24T13:07:56.000Z</time>
      </trkpt>
      <trkpt lat="47.04462" lon="5.3963">
        <ele>232.4</ele>
        <time>2012-12-24T13:07:57.000Z</time>
      </trkpt>
      <trkpt lat="47.04462" lon="5.39624">
        <ele>231.7</ele>
        <time>2012-12-24T13:08:01.000Z</time>
      </trkpt>
      <trkpt lat="47.04462" lon="5.39623">
        <ele>231.6</ele>
        <time>2012-12-24T13:08:02.000Z</time>
      </trkpt>
      <trkpt lat="47.04461" lon="5.39617">
        <ele>231.5</ele>
        <time>2012-12-24T13:08:06.000Z</time>
      </trkpt>
      <trkpt lat="47.04461" lon="5.39616">
        <ele>231.6</ele>
        <time>2012-12-24T13:08:07.000Z</time>
      </trkpt>
      <trkpt lat="47.0446" lon="5.3961">
        <ele>231.8</ele>
        <time>2012-12-24T13:08:11.000Z</time>
      </trkpt>
      <trkpt lat="47.0446" lon="5.39609">
        <ele>231.7</ele>
        <time>2012-12-24T13:08:12.000Z</time>
      </trkpt>
      <trkpt lat="47.04456" lon="5.39605">
        <ele>241.4</ele>
        <time>2012-12-24T13:08:20.000Z</time>
      </trkpt>
      <trkpt lat="47.0446" lon="5.39598">
        <ele>233.3</ele>
        <time>2012-12-24T13:08:21.000Z</time>
      </trkpt>
      <trkpt lat="47.04459" lon="5.39593">
        <ele>231.4</ele>
        <time>2012-12-24T13:08:25.000Z</time>
      </trkpt>
      <trkpt lat="47.04459" lon="5.39591">
        <ele>231.7</ele>
        <time>2012-12-24T13:08:26.000Z</time>
      </trkpt>
      <trkpt lat="47.04459" lon="5.39585">
        <ele>231</ele>
        <time>2012-12-24T13:08:30.000Z</time>
      </trkpt>
      <trkpt lat="47.04459" lon="5.39584">
        <ele>231.1</ele>
        <time>2012-12-24T13:08:31.000Z</time>
      </trkpt>
      <trkpt lat="47.04459" lon="5.39578">
        <ele>231.5</ele>
        <time>2012-12-24T13:08:35.000Z</time>
      </trkpt>
      <trkpt lat="47.04459" lon="5.39577">
        <ele>231.5</ele>
        <time>2012-12-24T13:08:36.000Z</time>
      </trkpt>
      <trkpt lat="47.04459" lon="5.39571">
        <ele>231.8</ele>
        <time>2012-12-24T13:08:40.000Z</time>
      </trkpt>
      <trkpt lat="47.04459" lon="5.3957">
        <ele>232</ele>
        <time>2012-12-24T13:08:41.000Z</time>
      </trkpt>
      <trkpt lat="47.04459" lon="5.39565">
        <ele>232.3</ele>
        <time>2012-12-24T13:08:45.000Z</time>
      </trkpt>
      <trkpt lat="47.04458" lon="5.39563">
        <ele>232.4</ele>
        <time>2012-12-24T13:08:46.000Z</time>
      </trkpt>
      <trkpt lat="47.04458" lon="5.39558">
        <ele>232.5</ele>
        <time>2012-12-24T13:08:50.000Z</time>
      </trkpt>
      <trkpt lat="47.04458" lon="5.39557">
        <ele>232.5</ele>
        <time>2012-12-24T13:08:51.000Z</time>
      </trkpt>
      <trkpt lat="47.04457" lon="5.39551">
        <ele>232.6</ele>
        <time>2012-12-24T13:08:55.000Z</time>
      </trkpt>
      <trkpt lat="47.04457" lon="5.39549">
        <ele>232.6</ele>
        <time>2012-12-24T13:08:56.000Z</time>
      </trkpt>
      <trkpt lat="47.04457" lon="5.39543">
        <ele>232.4</ele>
        <time>2012-12-24T13:09:00.000Z</time>
      </trkpt>
      <trkpt lat="47.04457" lon="5.39542">
        <ele>232.5</ele>
        <time>2012-12-24T13:09:01.000Z</time>
      </trkpt>
      <trkpt lat="47.04456" lon="5.39536">
        <ele>232.3</ele>
        <time>2012-12-24T13:09:05.000Z</time>
      </trkpt>
      <trkpt lat="47.04456" lon="5.39534">
        <ele>232.2</ele>
        <time>2012-12-24T13:09:06.000Z</time>
      </trkpt>
      <trkpt lat="47.04456" lon="5.39529">
        <ele>232.1</ele>
        <time>2012-12-24T13:09:10.000Z</time>
      </trkpt>
      <trkpt lat="47.04456" lon="5.39527">
        <ele>232.1</ele>
        <time>2012-12-24T13:09:11.000Z</time>
      </trkpt>
      <trkpt lat="47.04455" lon="5.39523">
        <ele>232.3</ele>
        <time>2012-12-24T13:09:14.500Z</time>
      </trkpt>
      <trkpt lat="47.04456" lon="5.39517">
        <ele>230.9</ele>
        <time>2012-12-24T13:09:18.000Z</time>
      </trkpt>
      <trkpt lat="47.04456" lon="5.39517">
        <ele>230.9</ele>
        <time>2012-12-24T13:09:20.000Z</time>
      </trkpt>
      <trkpt lat="47.0445" lon="5.39504">
        <ele>239.8</ele>
        <time>2012-12-24T13:09:21.000Z</time>
      </trkpt>
      <trkpt lat="47.04449" lon="5.39498">
        <ele>238.5</ele>
        <time>2012-12-24T13:09:26.000Z</time>
      </trkpt>
      <trkpt lat="47.04449" lon="5.39497">
        <ele>238.7</ele>
        <time>2012-12-24T13:09:27.000Z</time>
      </trkpt>
      <trkpt lat="47.04449" lon="5.39491">
        <ele>237.7</ele>
        <time>2012-12-24T13:09:32.000Z</time>
      </trkpt>
      <trkpt lat="47.04449" lon="5.3949">
        <ele>237.3</ele>
        <time>2012-12-24T13:09:33.000Z</time>
      </trkpt>
      <trkpt lat="47.0445" lon="5.39483">
        <ele>236</ele>
        <time>2012-12-24T13:09:38.000Z</time>
      </trkpt>
      <trkpt lat="47.0445" lon="5.39482">
        <ele>235.8</ele>
        <time>2012-12-24T13:09:39.000Z</time>
      </trkpt>
      <trkpt lat="47.04451" lon="5.39476">
        <ele>235.4</ele>
        <time>2012-12-24T13:09:44.000Z</time>
      </trkpt>
      <trkpt lat="47.04451" lon="5.39475">
        <ele>235.4</ele>
        <time>2012-12-24T13:09:45.000Z</time>
      </trkpt>
      <trkpt lat="47.0445" lon="5.39469">
        <ele>235.3</ele>
        <time>2012-12-24T13:09:49.000Z</time>
      </trkpt>
      <trkpt lat="47.0445" lon="5.39468">
        <ele>235.2</ele>
        <time>2012-12-24T13:09:50.000Z</time>
      </trkpt>
      <trkpt lat="47.04451" lon="5.39462">
        <ele>234.8</ele>
        <time>2012-12-24T13:09:54.000Z</time>
      </trkpt>
      <trkpt lat="47.04451" lon="5.39461">
        <ele>234.6</ele>
        <time>2012-12-24T13:09:55.000Z</time>
      </trkpt>
      <trkpt lat="47.04451" lon="5.39455">
        <ele>234.5</ele>
        <time>2012-12-24T13:09:59.000Z</time>
      </trkpt>
      <trkpt lat="47.04451" lon="5.39454">
        <ele>234.5</ele>
        <time>2012-12-24T13:10:00.000Z</time>
      </trkpt>
      <trkpt lat="47.04451" lon="5.39448">
        <ele>234.6</ele>
        <time>2012-12-24T13:10:04.000Z</time>
      </trkpt>
      <trkpt lat="47.04451" lon="5.39446">
        <ele>234.5</ele>
        <time>2012-12-24T13:10:05.000Z</time>
      </trkpt>
      <trkpt lat="47.0445" lon="5.3944">
        <ele>234.6</ele>
        <time>2012-12-24T13:10:09.000Z</time>
      </trkpt>
      <trkpt lat="47.0445" lon="5.39439">
        <ele>234.7</ele>
        <time>2012-12-24T13:10:10.000Z</time>
      </trkpt>
      <trkpt lat="47.04451" lon="5.39433">
        <ele>234.4</ele>
        <time>2012-12-24T13:10:20.000Z</time>
      </trkpt>
      <trkpt lat="47.04449" lon="5.39422">
        <ele>235.3</ele>
        <time>2012-12-24T13:10:21.000Z</time>
      </trkpt>
      <trkpt lat="47.04449" lon="5.39417">
        <ele>234</ele>
        <time>2012-12-24T13:10:25.000Z</time>
      </trkpt>
      <trkpt lat="47.04449" lon="5.39415">
        <ele>233.4</ele>
        <time>2012-12-24T13:10:26.000Z</time>
      </trkpt>
      <trkpt lat="47.04449" lon="5.3941">
        <ele>232.9</ele>
        <time>2012-12-24T13:10:30.000Z</time>
      </trkpt>
      <trkpt lat="47.04449" lon="5.39408">
        <ele>232.8</ele>
        <time>2012-12-24T13:10:31.000Z</time>
      </trkpt>
      <trkpt lat="47.04448" lon="5.39402">
        <ele>233.6</ele>
        <time>2012-12-24T13:10:35.000Z</time>
      </trkpt>
      <trkpt lat="47.04448" lon="5.39401">
        <ele>233.5</ele>
        <time>2012-12-24T13:10:36.000Z</time>
      </trkpt>
      <trkpt lat="47.04449" lon="5.39395">
        <ele>233.2</ele>
        <time>2012-12-24T13:10:41.000Z</time>
      </trkpt>
      <trkpt lat="47.04449" lon="5.39394">
        <ele>233</ele>
        <time>2012-12-24T13:10:42.000Z</time>
      </trkpt>
      <trkpt lat="47.04448" lon="5.39388">
        <ele>233.1</ele>
        <time>2012-12-24T13:10:46.000Z</time>
      </trkpt>
      <trkpt lat="47.04448" lon="5.39387">
        <ele>233.1</ele>
        <time>2012-12-24T13:10:47.000Z</time>
      </trkpt>
      <trkpt lat="47.04448" lon="5.3938">
        <ele>233.3</ele>
        <time>2012-12-24T13:10:51.000Z</time>
      </trkpt>
      <trkpt lat="47.04448" lon="5.39379">
        <ele>233.1</ele>
        <time>2012-12-24T13:10:52.000Z</time>
      </trkpt>
      <trkpt lat="47.04448" lon="5.39373">
        <ele>233</ele>
        <time>2012-12-24T13:10:57.000Z</time>
      </trkpt>
      <trkpt lat="47.04448" lon="5.39372">
        <ele>233.1</ele>
        <time>2012-12-24T13:10:58.000Z</time>
      </trkpt>
      <trkpt lat="47.04446" lon="5.39366">
        <ele>232.5</ele>
        <time>2012-12-24T13:11:04.000Z</time>
      </trkpt>
      <trkpt lat="47.04446" lon="5.39365">
        <ele>232.6</ele>
        <time>2012-12-24T13:11:05.000Z</time>
      </trkpt>
      <trkpt lat="47.04446" lon="5.39359">
        <ele>232.5</ele>
        <time>2012-12-24T13:11:09.000Z</time>
      </trkpt>
      <trkpt lat="47.04446" lon="5.39358">
        <ele>232.5</ele>
        <time>2012-12-24T13:11:10.000Z</time>
      </trkpt>
      <trkpt lat="47.04445" lon="5.39353">
        <ele>232.2</ele>
        <time>2012-12-24T13:11:14.000Z</time>
      </trkpt>
      <trkpt lat="47.04445" lon="5.39351">
        <ele>232.1</ele>
        <time>2012-12-24T13:11:15.000Z</time>
      </trkpt>
      <trkpt lat="47.04445" lon="5.39346">
        <ele>231.8</ele>
        <time>2012-12-24T13:11:19.000Z</time>
      </trkpt>
      <trkpt lat="47.04445" lon="5.39344">
        <ele>231.8</ele>
        <time>2012-12-24T13:11:20.000Z</time>
      </trkpt>
      <trkpt lat="47.04445" lon="5.39339">
        <ele>231.8</ele>
        <time>2012-12-24T13:11:24.000Z</time>
      </trkpt>
      <trkpt lat="47.04445" lon="5.39337">
        <ele>231.8</ele>
        <time>2012-12-24T13:11:25.000Z</time>
      </trkpt>
      <trkpt lat="47.04445" lon="5.39331">
        <ele>231.8</ele>
        <time>2012-12-24T13:11:29.000Z</time>
      </trkpt>
      <trkpt lat="47.04445" lon="5.3933">
        <ele>231.9</ele>
        <time>2012-12-24T13:11:30.000Z</time>
      </trkpt>
      <trkpt lat="47.04445" lon="5.39324">
        <ele>232</ele>
        <time>2012-12-24T13:11:34.000Z</time>
      </trkpt>
      <trkpt lat="47.04445" lon="5.39322">
        <ele>232.1</ele>
        <time>2012-12-24T13:11:35.000Z</time>
      </trkpt>
      <trkpt lat="47.04444" lon="5.39316">
        <ele>232.2</ele>
        <time>2012-12-24T13:11:39.000Z</time>
      </trkpt>
      <trkpt lat="47.04444" lon="5.39315">
        <ele>232.3</ele>
        <time>2012-12-24T13:11:40.000Z</time>
      </trkpt>
      <trkpt lat="47.04445" lon="5.39309">
        <ele>231.9</ele>
        <time>2012-12-24T13:11:44.000Z</time>
      </trkpt>
      <trkpt lat="47.04444" lon="5.39307">
        <ele>231.9</ele>
        <time>2012-12-24T13:11:45.000Z</time>
      </trkpt>
      <trkpt lat="47.04444" lon="5.39302">
        <ele>231.7</ele>
        <time>2012-12-24T13:11:49.000Z</time>
      </trkpt>
      <trkpt lat="47.04444" lon="5.39301">
        <ele>231.7</ele>
        <time>2012-12-24T13:11:50.000Z</time>
      </trkpt>
      <trkpt lat="47.04444" lon="5.39295">
        <ele>231.2</ele>
        <time>2012-12-24T13:11:54.000Z</time>
      </trkpt>
      <trkpt lat="47.04444" lon="5.39294">
        <ele>231.3</ele>
        <time>2012-12-24T13:11:55.000Z</time>
      </trkpt>
      <trkpt lat="47.04443" lon="5.39288">
        <ele>231.3</ele>
        <time>2012-12-24T13:12:00.000Z</time>
      </trkpt>
      <trkpt lat="47.04443" lon="5.39286">
        <ele>231.2</ele>
        <time>2012-12-24T13:12:01.000Z</time>
      </trkpt>
      <trkpt lat="47.04442" lon="5.3928">
        <ele>231.5</ele>
        <time>2012-12-24T13:12:05.000Z</time>
      </trkpt>
      <trkpt lat="47.04442" lon="5.39278">
        <ele>231.6</ele>
        <time>2012-12-24T13:12:06.000Z</time>
      </trkpt>
      <trkpt lat="47.04442" lon="5.39272">
        <ele>231.6</ele>
        <time>2012-12-24T13:12:10.000Z</time>
      </trkpt>
      <trkpt lat="47.04442" lon="5.39271">
        <ele>231.5</ele>
        <time>2012-12-24T13:12:11.000Z</time>
      </trkpt>
      <trkpt lat="47.04442" lon="5.39264">
        <ele>231.5</ele>
        <time>2012-12-24T13:12:15.000Z</time>
      </trkpt>
      <trkpt lat="47.04442" lon="5.39263">
        <ele>231.4</ele>
        <time>2012-12-24T13:12:16.000Z</time>
      </trkpt>
      <trkpt lat="47.04443" lon="5.39257">
        <ele>231.7</ele>
        <time>2012-12-24T13:12:20.000Z</time>
      </trkpt>
      <trkpt lat="47.04443" lon="5.39255">
        <ele>231.8</ele>
        <time>2012-12-24T13:12:21.000Z</time>
      </trkpt>
      <trkpt lat="47.04443" lon="5.39249">
        <ele>231.5</ele>
        <time>2012-12-24T13:12:25.000Z</time>
      </trkpt>
      <trkpt lat="47.04442" lon="5.39248">
        <ele>231.3</ele>
        <time>2012-12-24T13:12:26.000Z</time>
      </trkpt>
      <trkpt lat="47.04442" lon="5.39242">
        <ele>231</ele>
        <time>2012-12-24T13:12:30.000Z</time>
      </trkpt>
      <trkpt lat="47.04442" lon="5.3924">
        <ele>231</ele>
        <time>2012-12-24T13:12:31.000Z</time>
      </trkpt>
      <trkpt lat="47.04442" lon="5.39234">
        <ele>230.8</ele>
        <time>2012-12-24T13:12:35.000Z</time>
      </trkpt>
      <trkpt lat="47.04442" lon="5.39233">
        <ele>230.8</ele>
        <time>2012-12-24T13:12:36.000Z</time>
      </trkpt>
      <trkpt lat="47.04442" lon="5.39227">
        <ele>230.8</ele>
        <time>2012-12-24T13:12:40.000Z</time>
      </trkpt>
      <trkpt lat="47.04441" lon="5.39225">
        <ele>231.2</ele>
        <time>2012-12-24T13:12:41.000Z</time>
      </trkpt>
      <trkpt lat="47.04441" lon="5.3922">
        <ele>231.8</ele>
        <time>2012-12-24T13:12:44.000Z</time>
      </trkpt>
      <trkpt lat="47.04441" lon="5.39218">
        <ele>232</ele>
        <time>2012-12-24T13:12:45.000Z</time>
      </trkpt>
      <trkpt lat="47.04441" lon="5.39213">
        <ele>231.9</ele>
        <time>2012-12-24T13:12:49.000Z</time>
      </trkpt>
      <trkpt lat="47.04441" lon="5.39211">
        <ele>231.8</ele>
        <time>2012-12-24T13:12:50.000Z</time>
      </trkpt>
      <trkpt lat="47.04441" lon="5.39206">
        <ele>231.3</ele>
        <time>2012-12-24T13:12:54.000Z</time>
      </trkpt>
      <trkpt lat="47.04441" lon="5.39204">
        <ele>231.1</ele>
        <time>2012-12-24T13:12:55.000Z</time>
      </trkpt>
      <trkpt lat="47.0444" lon="5.39198">
        <ele>230.8</ele>
        <time>2012-12-24T13:12:59.000Z</time>
      </trkpt>
      <trkpt lat="47.0444" lon="5.39197">
        <ele>230.7</ele>
        <time>2012-12-24T13:13:00.000Z</time>
      </trkpt>
      <trkpt lat="47.0444" lon="5.39192">
        <ele>230.5</ele>
        <time>2012-12-24T13:13:04.000Z</time>
      </trkpt>
      <trkpt lat="47.0444" lon="5.3919">
        <ele>230.5</ele>
        <time>2012-12-24T13:13:05.000Z</time>
      </trkpt>
      <trkpt lat="47.0444" lon="5.39184">
        <ele>230.3</ele>
        <time>2012-12-24T13:13:09.000Z</time>
      </trkpt>
      <trkpt lat="47.0444" lon="5.39183">
        <ele>230.3</ele>
        <time>2012-12-24T13:13:10.000Z</time>
      </trkpt>
      <trkpt lat="47.0444" lon="5.39177">
        <ele>230</ele>
        <time>2012-12-24T13:13:14.000Z</time>
      </trkpt>
      <trkpt lat="47.0444" lon="5.39176">
        <ele>229.9</ele>
        <time>2012-12-24T13:13:15.000Z</time>
      </trkpt>
      <trkpt lat="47.04439" lon="5.3917">
        <ele>229.8</ele>
        <time>2012-12-24T13:13:19.000Z</time>
      </trkpt>
      <trkpt lat="47.04439" lon="5.39169">
        <ele>229.8</ele>
        <time>2012-12-24T13:13:20.000Z</time>
      </trkpt>
      <trkpt lat="47.04439" lon="5.39163">
        <ele>229.6</ele>
        <time>2012-12-24T13:13:24.000Z</time>
      </trkpt>
      <trkpt lat="47.04471" lon="5.38824">
        <ele>85.1</ele>
        <time>2012-12-24T13:17:30.000Z</time>
      </trkpt>
      <trkpt lat="47.04456" lon="5.38825">
        <ele>125.6</ele>
        <time>2012-12-24T13:17:31.000Z</time>
      </trkpt>
      <trkpt lat="47.04448" lon="5.38818">
        <ele>149.5</ele>
        <time>2012-12-24T13:17:32.000Z</time>
      </trkpt>
      <trkpt lat="47.04441" lon="5.38812">
        <ele>166.8</ele>
        <time>2012-12-24T13:17:33.000Z</time>
      </trkpt>
      <trkpt lat="47.04436" lon="5.38806">
        <ele>179</ele>
        <time>2012-12-24T13:17:34.000Z</time>
      </trkpt>
      <trkpt lat="47.04433" lon="5.38801">
        <ele>188</ele>
        <time>2012-12-24T13:17:35.000Z</time>
      </trkpt>
      <trkpt lat="47.0443" lon="5.38796">
        <ele>194.9</ele>
        <time>2012-12-24T13:17:36.000Z</time>
      </trkpt>
      <trkpt lat="47.04427" lon="5.38792">
        <ele>200.4</ele>
        <time>2012-12-24T13:17:37.000Z</time>
      </trkpt>
      <trkpt lat="47.04425" lon="5.38788">
        <ele>205.2</ele>
        <time>2012-12-24T13:17:38.000Z</time>
      </trkpt>
      <trkpt lat="47.04423" lon="5.38784">
        <ele>209</ele>
        <time>2012-12-24T13:17:39.000Z</time>
      </trkpt>
      <trkpt lat="47.04421" lon="5.38779">
        <ele>214.5</ele>
        <time>2012-12-24T13:17:41.000Z</time>
      </trkpt>
      <trkpt lat="47.0442" lon="5.38777">
        <ele>216.9</ele>
        <time>2012-12-24T13:17:42.000Z</time>
      </trkpt>
      <trkpt lat="47.04418" lon="5.38772">
        <ele>221.3</ele>
        <time>2012-12-24T13:17:44.000Z</time>
      </trkpt>
      <trkpt lat="47.04417" lon="5.3877">
        <ele>223.4</ele>
        <time>2012-12-24T13:17:45.000Z</time>
      </trkpt>
      <trkpt lat="47.04416" lon="5.38765">
        <ele>226.7</ele>
        <time>2012-12-24T13:17:47.000Z</time>
      </trkpt>
      <trkpt lat="47.04416" lon="5.38763">
        <ele>227.8</ele>
        <time>2012-12-24T13:17:49.000Z</time>
      </trkpt>
      <trkpt lat="47.04415" lon="5.38758">
        <ele>229.9</ele>
        <time>2012-12-24T13:17:52.000Z</time>
      </trkpt>
      <trkpt lat="47.04415" lon="5.38757">
        <ele>230</ele>
        <time>2012-12-24T13:17:53.000Z</time>
      </trkpt>
      <trkpt lat="47.04415" lon="5.38751">
        <ele>230.6</ele>
        <time>2012-12-24T13:17:57.000Z</time>
      </trkpt>
      <trkpt lat="47.04415" lon="5.38749">
        <ele>230.9</ele>
        <time>2012-12-24T13:17:58.000Z</time>
      </trkpt>
      <trkpt lat="47.04415" lon="5.38743">
        <ele>232.7</ele>
        <time>2012-12-24T13:18:02.000Z</time>
      </trkpt>
      <trkpt lat="47.04415" lon="5.38742">
        <ele>233</ele>
        <time>2012-12-24T13:18:03.000Z</time>
      </trkpt>
      <trkpt lat="47.04414" lon="5.38735">
        <ele>234.8</ele>
        <time>2012-12-24T13:18:07.000Z</time>
      </trkpt>
      <trkpt lat="47.04414" lon="5.38734">
        <ele>235.2</ele>
        <time>2012-12-24T13:18:08.000Z</time>
      </trkpt>
      <trkpt lat="47.04414" lon="5.38728">
        <ele>235.5</ele>
        <time>2012-12-24T13:18:12.000Z</time>
      </trkpt>
      <trkpt lat="47.04414" lon="5.38726">
        <ele>235.4</ele>
        <time>2012-12-24T13:18:13.000Z</time>
      </trkpt>
      <trkpt lat="47.04413" lon="5.3872">
        <ele>234.9</ele>
        <time>2012-12-24T13:18:17.000Z</time>
      </trkpt>
      <trkpt lat="47.04413" lon="5.38719">
        <ele>234.2</ele>
        <time>2012-12-24T13:18:18.000Z</time>
      </trkpt>
      <trkpt lat="47.04413" lon="5.38714">
        <ele>234.1</ele>
        <time>2012-12-24T13:18:22.000Z</time>
      </trkpt>
      <trkpt lat="47.04412" lon="5.38712">
        <ele>234</ele>
        <time>2012-12-24T13:18:23.000Z</time>
      </trkpt>
      <trkpt lat="47.04412" lon="5.38706">
        <ele>234.1</ele>
        <time>2012-12-24T13:18:28.000Z</time>
      </trkpt>
      <trkpt lat="47.04412" lon="5.38705">
        <ele>234.1</ele>
        <time>2012-12-24T13:18:29.000Z</time>
      </trkpt>
      <trkpt lat="47.04412" lon="5.38699">
        <ele>234.2</ele>
        <time>2012-12-24T13:18:33.000Z</time>
      </trkpt>
      <trkpt lat="47.04411" lon="5.38698">
        <ele>234</ele>
        <time>2012-12-24T13:18:34.000Z</time>
      </trkpt>
      <trkpt lat="47.04411" lon="5.38692">
        <ele>233.8</ele>
        <time>2012-12-24T13:18:38.000Z</time>
      </trkpt>
      <trkpt lat="47.04411" lon="5.38691">
        <ele>233.8</ele>
        <time>2012-12-24T13:18:39.000Z</time>
      </trkpt>
      <trkpt lat="47.04411" lon="5.38685">
        <ele>233.6</ele>
        <time>2012-12-24T13:18:43.000Z</time>
      </trkpt>
      <trkpt lat="47.04411" lon="5.38684">
        <ele>233.6</ele>
        <time>2012-12-24T13:18:44.000Z</time>
      </trkpt>
      <trkpt lat="47.04411" lon="5.38678">
        <ele>233.6</ele>
        <time>2012-12-24T13:18:48.000Z</time>
      </trkpt>
      <trkpt lat="47.04411" lon="5.38676">
        <ele>233.7</ele>
        <time>2012-12-24T13:18:49.000Z</time>
      </trkpt>
      <trkpt lat="47.0441" lon="5.3867">
        <ele>233.5</ele>
        <time>2012-12-24T13:18:53.000Z</time>
      </trkpt>
      <trkpt lat="47.0441" lon="5.38669">
        <ele>233.3</ele>
        <time>2012-12-24T13:18:54.000Z</time>
      </trkpt>
      <trkpt lat="47.0441" lon="5.38663">
        <ele>233.1</ele>
        <time>2012-12-24T13:18:58.000Z</time>
      </trkpt>
      <trkpt lat="47.0441" lon="5.38662">
        <ele>232.9</ele>
        <time>2012-12-24T13:18:59.000Z</time>
      </trkpt>
      <trkpt lat="47.0441" lon="5.38656">
        <ele>232.9</ele>
        <time>2012-12-24T13:19:03.000Z</time>
      </trkpt>
      <trkpt lat="47.0441" lon="5.38654">
        <ele>232.9</ele>
        <time>2012-12-24T13:19:04.000Z</time>
      </trkpt>
      <trkpt lat="47.0441" lon="5.38649">
        <ele>233</ele>
        <time>2012-12-24T13:19:08.000Z</time>
      </trkpt>
      <trkpt lat="47.04409" lon="5.38647">
        <ele>233.1</ele>
        <time>2012-12-24T13:19:09.000Z</time>
      </trkpt>
      <trkpt lat="47.04409" lon="5.38641">
        <ele>232.9</ele>
        <time>2012-12-24T13:19:14.000Z</time>
      </trkpt>
      <trkpt lat="47.04409" lon="5.38639">
        <ele>232.8</ele>
        <time>2012-12-24T13:19:15.000Z</time>
      </trkpt>
      <trkpt lat="47.04409" lon="5.38634">
        <ele>232.6</ele>
        <time>2012-12-24T13:19:19.000Z</time>
      </trkpt>
      <trkpt lat="47.04408" lon="5.38632">
        <ele>232.7</ele>
        <time>2012-12-24T13:19:20.000Z</time>
      </trkpt>
      <trkpt lat="47.04408" lon="5.38627">
        <ele>232.8</ele>
        <time>2012-12-24T13:19:24.000Z</time>
      </trkpt>
      <trkpt lat="47.04408" lon="5.38625">
        <ele>232.8</ele>
        <time>2012-12-24T13:19:25.000Z</time>
      </trkpt>
      <trkpt lat="47.04408" lon="5.3862">
        <ele>233</ele>
        <time>2012-12-24T13:19:29.000Z</time>
      </trkpt>
      <trkpt lat="47.04408" lon="5.38618">
        <ele>233</ele>
        <time>2012-12-24T13:19:30.000Z</time>
      </trkpt>
      <trkpt lat="47.04408" lon="5.38612">
        <ele>233.1</ele>
        <time>2012-12-24T13:19:34.000Z</time>
      </trkpt>
      <trkpt lat="47.04408" lon="5.38611">
        <ele>233.1</ele>
        <time>2012-12-24T13:19:35.000Z</time>
      </trkpt>
      <trkpt lat="47.04407" lon="5.38605">
        <ele>233.1</ele>
        <time>2012-12-24T13:19:39.000Z</time>
      </trkpt>
      <trkpt lat="47.04407" lon="5.38603">
        <ele>233.2</ele>
        <time>2012-12-24T13:19:40.000Z</time>
      </trkpt>
      <trkpt lat="47.04407" lon="5.38597">
        <ele>233.6</ele>
        <time>2012-12-24T13:19:44.000Z</time>
      </trkpt>
      <trkpt lat="47.04407" lon="5.38596">
        <ele>233.5</ele>
        <time>2012-12-24T13:19:45.000Z</time>
      </trkpt>
      <trkpt lat="47.04406" lon="5.3859">
        <ele>233.3</ele>
        <time>2012-12-24T13:19:49.000Z</time>
      </trkpt>
      <trkpt lat="47.04406" lon="5.38588">
        <ele>233.2</ele>
        <time>2012-12-24T13:19:50.000Z</time>
      </trkpt>
      <trkpt lat="47.04406" lon="5.38582">
        <ele>233</ele>
        <time>2012-12-24T13:19:54.000Z</time>
      </trkpt>
      <trkpt lat="47.04406" lon="5.38581">
        <ele>232.9</ele>
        <time>2012-12-24T13:19:55.000Z</time>
      </trkpt>
      <trkpt lat="47.04406" lon="5.38575">
        <ele>232.8</ele>
        <time>2012-12-24T13:19:59.000Z</time>
      </trkpt>
      <trkpt lat="47.04406" lon="5.38574">
        <ele>232.6</ele>
        <time>2012-12-24T13:20:00.000Z</time>
      </trkpt>
      <trkpt lat="47.04407" lon="5.38568">
        <ele>232.1</ele>
        <time>2012-12-24T13:20:04.000Z</time>
      </trkpt>
      <trkpt lat="47.04407" lon="5.38567">
        <ele>232.1</ele>
        <time>2012-12-24T13:20:05.000Z</time>
      </trkpt>
      <trkpt lat="47.04406" lon="5.38561">
        <ele>232.5</ele>
        <time>2012-12-24T13:20:09.000Z</time>
      </trkpt>
      <trkpt lat="47.04406" lon="5.3856">
        <ele>232.5</ele>
        <time>2012-12-24T13:20:10.000Z</time>
      </trkpt>
      <trkpt lat="47.04405" lon="5.38553">
        <ele>233</ele>
        <time>2012-12-24T13:20:14.000Z</time>
      </trkpt>
      <trkpt lat="47.04405" lon="5.38552">
        <ele>233.1</ele>
        <time>2012-12-24T13:20:15.000Z</time>
      </trkpt>
      <trkpt lat="47.04404" lon="5.38546">
        <ele>233.2</ele>
        <time>2012-12-24T13:20:19.000Z</time>
      </trkpt>
      <trkpt lat="47.04404" lon="5.38545">
        <ele>233</ele>
        <time>2012-12-24T13:20:20.000Z</time>
      </trkpt>
      <trkpt lat="47.04403" lon="5.38539">
        <ele>233.1</ele>
        <time>2012-12-24T13:20:24.000Z</time>
      </trkpt>
      <trkpt lat="47.04403" lon="5.38538">
        <ele>233.1</ele>
        <time>2012-12-24T13:20:25.000Z</time>
      </trkpt>
      <trkpt lat="47.04403" lon="5.38531">
        <ele>233.6</ele>
        <time>2012-12-24T13:20:29.000Z</time>
      </trkpt>
      <trkpt lat="47.04403" lon="5.3853">
        <ele>233.7</ele>
        <time>2012-12-24T13:20:30.000Z</time>
      </trkpt>
      <trkpt lat="47.04402" lon="5.38523">
        <ele>233.9</ele>
        <time>2012-12-24T13:20:34.000Z</time>
      </trkpt>
      <trkpt lat="47.04402" lon="5.38522">
        <ele>233.9</ele>
        <time>2012-12-24T13:20:35.000Z</time>
      </trkpt>
      <trkpt lat="47.04402" lon="5.38516">
        <ele>234.3</ele>
        <time>2012-12-24T13:20:39.000Z</time>
      </trkpt>
      <trkpt lat="47.04402" lon="5.38515">
        <ele>234.3</ele>
        <time>2012-12-24T13:20:40.000Z</time>
      </trkpt>
      <trkpt lat="47.04402" lon="5.38509">
        <ele>234.8</ele>
        <time>2012-12-24T13:20:44.000Z</time>
      </trkpt>
      <trkpt lat="47.04402" lon="5.38508">
        <ele>234.9</ele>
        <time>2012-12-24T13:20:45.000Z</time>
      </trkpt>
      <trkpt lat="47.04402" lon="5.38503">
        <ele>235.2</ele>
        <time>2012-12-24T13:20:49.000Z</time>
      </trkpt>
      <trkpt lat="47.04401" lon="5.38501">
        <ele>235.3</ele>
        <time>2012-12-24T13:20:50.000Z</time>
      </trkpt>
      <trkpt lat="47.04401" lon="5.38495">
        <ele>235.8</ele>
        <time>2012-12-24T13:20:54.000Z</time>
      </trkpt>
      <trkpt lat="47.04401" lon="5.38494">
        <ele>235.9</ele>
        <time>2012-12-24T13:20:55.000Z</time>
      </trkpt>
      <trkpt lat="47.044" lon="5.38488">
        <ele>236.4</ele>
        <time>2012-12-24T13:20:59.000Z</time>
      </trkpt>
      <trkpt lat="47.044" lon="5.38487">
        <ele>236.6</ele>
        <time>2012-12-24T13:21:00.000Z</time>
      </trkpt>
      <trkpt lat="47.044" lon="5.38481">
        <ele>236.9</ele>
        <time>2012-12-24T13:21:04.000Z</time>
      </trkpt>
      <trkpt lat="47.044" lon="5.3848">
        <ele>237.2</ele>
        <time>2012-12-24T13:21:05.000Z</time>
      </trkpt>
      <trkpt lat="47.04399" lon="5.38474">
        <ele>237.5</ele>
        <time>2012-12-24T13:21:09.000Z</time>
      </trkpt>
      <trkpt lat="47.04399" lon="5.38472">
        <ele>237.7</ele>
        <time>2012-12-24T13:21:10.000Z</time>
      </trkpt>
      <trkpt lat="47.04399" lon="5.38467">
        <ele>238.3</ele>
        <time>2012-12-24T13:21:13.000Z</time>
      </trkpt>
      <trkpt lat="47.04398" lon="5.38465">
        <ele>238.5</ele>
        <time>2012-12-24T13:21:14.000Z</time>
      </trkpt>
      <trkpt lat="47.04397" lon="5.3846">
        <ele>239.5</ele>
        <time>2012-12-24T13:21:17.000Z</time>
      </trkpt>
      <trkpt lat="47.04397" lon="5.38459">
        <ele>239.7</ele>
        <time>2012-12-24T13:21:18.000Z</time>
      </trkpt>
      <trkpt lat="47.04395" lon="5.38454">
        <ele>240.3</ele>
        <time>2012-12-24T13:21:21.000Z</time>
      </trkpt>
      <trkpt lat="47.04395" lon="5.38453">
        <ele>240.5</ele>
        <time>2012-12-24T13:21:22.000Z</time>
      </trkpt>
      <trkpt lat="47.04393" lon="5.38447">
        <ele>240.8</ele>
        <time>2012-12-24T13:21:26.000Z</time>
      </trkpt>
      <trkpt lat="47.04393" lon="5.38445">
        <ele>240.8</ele>
        <time>2012-12-24T13:21:27.000Z</time>
      </trkpt>
      <trkpt lat="47.04392" lon="5.38439">
        <ele>240.4</ele>
        <time>2012-12-24T13:21:32.000Z</time>
      </trkpt>
      <trkpt lat="47.04392" lon="5.38438">
        <ele>240.4</ele>
        <time>2012-12-24T13:21:33.000Z</time>
      </trkpt>
      <trkpt lat="47.04393" lon="5.38432">
        <ele>239.5</ele>
        <time>2012-12-24T13:21:37.000Z</time>
      </trkpt>
      <trkpt lat="47.04393" lon="5.38431">
        <ele>239</ele>
        <time>2012-12-24T13:21:38.000Z</time>
      </trkpt>
      <trkpt lat="47.04392" lon="5.38425">
        <ele>238.7</ele>
        <time>2012-12-24T13:21:42.000Z</time>
      </trkpt>
      <trkpt lat="47.04393" lon="5.38424">
        <ele>238.5</ele>
        <time>2012-12-24T13:21:43.000Z</time>
      </trkpt>
      <trkpt lat="47.04393" lon="5.38418">
        <ele>238.3</ele>
        <time>2012-12-24T13:21:48.000Z</time>
      </trkpt>
      <trkpt lat="47.04393" lon="5.38416">
        <ele>238.3</ele>
        <time>2012-12-24T13:21:49.000Z</time>
      </trkpt>
      <trkpt lat="47.04392" lon="5.38412">
        <ele>238.6</ele>
        <time>2012-12-24T13:21:52.000Z</time>
      </trkpt>
      <trkpt lat="47.04392" lon="5.3841">
        <ele>238.7</ele>
        <time>2012-12-24T13:21:53.000Z</time>
      </trkpt>
      <trkpt lat="47.04391" lon="5.38404">
        <ele>239.1</ele>
        <time>2012-12-24T13:21:57.000Z</time>
      </trkpt>
      <trkpt lat="47.04391" lon="5.38402">
        <ele>238.9</ele>
        <time>2012-12-24T13:21:58.000Z</time>
      </trkpt>
      <trkpt lat="47.04391" lon="5.38396">
        <ele>239.1</ele>
        <time>2012-12-24T13:22:03.000Z</time>
      </trkpt>
      <trkpt lat="47.0439" lon="5.38394">
        <ele>239.1</ele>
        <time>2012-12-24T13:22:04.000Z</time>
      </trkpt>
      <trkpt lat="47.0439" lon="5.38389">
        <ele>239.5</ele>
        <time>2012-12-24T13:22:08.000Z</time>
      </trkpt>
      <trkpt lat="47.0439" lon="5.38387">
        <ele>239.6</ele>
        <time>2012-12-24T13:22:09.000Z</time>
      </trkpt>
      <trkpt lat="47.04389" lon="5.38382">
        <ele>241.2</ele>
        <time>2012-12-24T13:22:12.000Z</time>
      </trkpt>
      <trkpt lat="47.04389" lon="5.3838">
        <ele>241.5</ele>
        <time>2012-12-24T13:22:13.000Z</time>
      </trkpt>
      <trkpt lat="47.04388" lon="5.38375">
        <ele>242.4</ele>
        <time>2012-12-24T13:22:16.000Z</time>
      </trkpt>
      <trkpt lat="47.04388" lon="5.38373">
        <ele>242.9</ele>
        <time>2012-12-24T13:22:17.000Z</time>
      </trkpt>
      <trkpt lat="47.04388" lon="5.38367">
        <ele>246.4</ele>
        <time>2012-12-24T13:22:21.000Z</time>
      </trkpt>
      <trkpt lat="47.04378" lon="5.38344">
        <ele>262.1</ele>
        <time>2012-12-24T13:22:28.000Z</time>
      </trkpt>
      <trkpt lat="47.04384" lon="5.3834">
        <ele>258.5</ele>
        <time>2012-12-24T13:22:29.000Z</time>
      </trkpt>
      <trkpt lat="47.04386" lon="5.38335">
        <ele>257.9</ele>
        <time>2012-12-24T13:22:35.000Z</time>
      </trkpt>
      <trkpt lat="47.04386" lon="5.38334">
        <ele>257.2</ele>
        <time>2012-12-24T13:22:36.000Z</time>
      </trkpt>
      <trkpt lat="47.04386" lon="5.38328">
        <ele>253.1</ele>
        <time>2012-12-24T13:22:43.000Z</time>
      </trkpt>
      <trkpt lat="47.04386" lon="5.38327">
        <ele>252.5</ele>
        <time>2012-12-24T13:22:44.000Z</time>
      </trkpt>
      <trkpt lat="47.04387" lon="5.38321">
        <ele>249.5</ele>
        <time>2012-12-24T13:22:50.000Z</time>
      </trkpt>
      <trkpt lat="47.04387" lon="5.38319">
        <ele>249.2</ele>
        <time>2012-12-24T13:22:51.000Z</time>
      </trkpt>
      <trkpt lat="47.04386" lon="5.38313">
        <ele>248.3</ele>
        <time>2012-12-24T13:22:56.000Z</time>
      </trkpt>
      <trkpt lat="47.04386" lon="5.38312">
        <ele>247.5</ele>
        <time>2012-12-24T13:22:57.000Z</time>
      </trkpt>
      <trkpt lat="47.04383" lon="5.38308">
        <ele>246.1</ele>
        <time>2012-12-24T13:23:06.000Z</time>
      </trkpt>
      <trkpt lat="47.04382" lon="5.38306">
        <ele>245.7</ele>
        <time>2012-12-24T13:23:07.000Z</time>
      </trkpt>
      <trkpt lat="47.04383" lon="5.38301">
        <ele>245.5</ele>
        <time>2012-12-24T13:23:11.000Z</time>
      </trkpt>
      <trkpt lat="47.04383" lon="5.383">
        <ele>245.6</ele>
        <time>2012-12-24T13:23:12.000Z</time>
      </trkpt>
      <trkpt lat="47.04383" lon="5.38294">
        <ele>245.4</ele>
        <time>2012-12-24T13:23:16.000Z</time>
      </trkpt>
      <trkpt lat="47.04383" lon="5.38293">
        <ele>245.5</ele>
        <time>2012-12-24T13:23:17.000Z</time>
      </trkpt>
      <trkpt lat="47.04384" lon="5.38288">
        <ele>245.5</ele>
        <time>2012-12-24T13:23:20.000Z</time>
      </trkpt>
      <trkpt lat="47.04384" lon="5.38286">
        <ele>245.6</ele>
        <time>2012-12-24T13:23:21.000Z</time>
      </trkpt>
      <trkpt lat="47.04376" lon="5.3827">
        <ele>231.9</ele>
        <time>2012-12-24T13:23:27.000Z</time>
      </trkpt>
      <trkpt lat="47.04378" lon="5.38267">
        <ele>242.5</ele>
        <time>2012-12-24T13:23:29.000Z</time>
      </trkpt>
      <trkpt lat="47.04377" lon="5.38264">
        <ele>245.3</ele>
        <time>2012-12-24T13:23:30.000Z</time>
      </trkpt>
      <trkpt lat="47.04378" lon="5.3826">
        <ele>245.2</ele>
        <time>2012-12-24T13:23:31.000Z</time>
      </trkpt>
      <trkpt lat="47.0438" lon="5.38257">
        <ele>244.6</ele>
        <time>2012-12-24T13:23:32.000Z</time>
      </trkpt>
      <trkpt lat="47.04381" lon="5.38252">
        <ele>246.5</ele>
        <time>2012-12-24T13:23:35.000Z</time>
      </trkpt>
      <trkpt lat="47.04382" lon="5.38251">
        <ele>247.7</ele>
        <time>2012-12-24T13:23:36.000Z</time>
      </trkpt>
      <trkpt lat="47.04384" lon="5.38246">
        <ele>245.8</ele>
        <time>2012-12-24T13:23:41.000Z</time>
      </trkpt>
      <trkpt lat="47.04384" lon="5.38244">
        <ele>246.2</ele>
        <time>2012-12-24T13:23:42.000Z</time>
      </trkpt>
      <trkpt lat="47.04384" lon="5.38238">
        <ele>247.5</ele>
        <time>2012-12-24T13:23:46.000Z</time>
      </trkpt>
      <trkpt lat="47.04384" lon="5.38236">
        <ele>248.7</ele>
        <time>2012-12-24T13:23:47.000Z</time>
      </trkpt>
      <trkpt lat="47.04382" lon="5.3823">
        <ele>250.6</ele>
        <time>2012-12-24T13:23:50.000Z</time>
      </trkpt>
      <trkpt lat="47.04382" lon="5.38229">
        <ele>251.1</ele>
        <time>2012-12-24T13:23:51.000Z</time>
      </trkpt>
      <trkpt lat="47.04382" lon="5.38223">
        <ele>250.7</ele>
        <time>2012-12-24T13:24:02.000Z</time>
      </trkpt>
      <trkpt lat="47.04382" lon="5.38222">
        <ele>250.5</ele>
        <time>2012-12-24T13:24:03.000Z</time>
      </trkpt>
      <trkpt lat="47.04383" lon="5.38216">
        <ele>249.6</ele>
        <time>2012-12-24T13:24:07.000Z</time>
      </trkpt>
      <trkpt lat="47.04384" lon="5.38215">
        <ele>249</ele>
        <time>2012-12-24T13:24:08.000Z</time>
      </trkpt>
      <trkpt lat="47.04384" lon="5.38209">
        <ele>247.4</ele>
        <time>2012-12-24T13:24:14.000Z</time>
      </trkpt>
      <trkpt lat="47.04384" lon="5.38208">
        <ele>247.6</ele>
        <time>2012-12-24T13:24:15.000Z</time>
      </trkpt>
      <trkpt lat="47.04383" lon="5.38202">
        <ele>247.2</ele>
        <time>2012-12-24T13:24:21.000Z</time>
      </trkpt>
      <trkpt lat="47.04382" lon="5.38201">
        <ele>247</ele>
        <time>2012-12-24T13:24:22.000Z</time>
      </trkpt>
      <trkpt lat="47.04381" lon="5.38195">
        <ele>247</ele>
        <time>2012-12-24T13:24:27.000Z</time>
      </trkpt>
      <trkpt lat="47.04381" lon="5.38195">
        <ele>247</ele>
        <time>2012-12-24T13:24:28.000Z</time>
      </trkpt>
      <trkpt lat="47.04381" lon="5.38189">
        <ele>246.8</ele>
        <time>2012-12-24T13:24:34.000Z</time>
      </trkpt>
      <trkpt lat="47.04381" lon="5.38187">
        <ele>246.8</ele>
        <time>2012-12-24T13:24:35.000Z</time>
      </trkpt>
      <trkpt lat="47.04382" lon="5.38182">
        <ele>246.4</ele>
        <time>2012-12-24T13:24:39.000Z</time>
      </trkpt>
      <trkpt lat="47.04383" lon="5.38181">
        <ele>246.2</ele>
        <time>2012-12-24T13:24:40.000Z</time>
      </trkpt>
      <trkpt lat="47.04381" lon="5.38176">
        <ele>247.3</ele>
        <time>2012-12-24T13:24:49.000Z</time>
      </trkpt>
      <trkpt lat="47.04381" lon="5.38174">
        <ele>247.4</ele>
        <time>2012-12-24T13:24:50.000Z</time>
      </trkpt>
      <trkpt lat="47.04382" lon="5.38169">
        <ele>247.6</ele>
        <time>2012-12-24T13:24:52.000Z</time>
      </trkpt>
      <trkpt lat="47.04382" lon="5.38167">
        <ele>247.5</ele>
        <time>2012-12-24T13:24:53.000Z</time>
      </trkpt>
      <trkpt lat="47.04382" lon="5.3816">
        <ele>246.7</ele>
        <time>2012-12-24T13:24:55.000Z</time>
      </trkpt>
      <trkpt lat="47.04382" lon="5.38157">
        <ele>246.4</ele>
        <time>2012-12-24T13:24:56.000Z</time>
      </trkpt>
      <trkpt lat="47.04381" lon="5.38151">
        <ele>246</ele>
        <time>2012-12-24T13:24:59.000Z</time>
      </trkpt>
      <trkpt lat="47.04381" lon="5.38149">
        <ele>246</ele>
        <time>2012-12-24T13:25:00.000Z</time>
      </trkpt>
      <trkpt lat="47.0438" lon="5.38143">
        <ele>246.2</ele>
        <time>2012-12-24T13:25:03.000Z</time>
      </trkpt>
      <trkpt lat="47.0438" lon="5.38141">
        <ele>246</ele>
        <time>2012-12-24T13:25:04.000Z</time>
      </trkpt>
      <trkpt lat="47.0438" lon="5.38136">
        <ele>246.6</ele>
        <time>2012-12-24T13:25:07.000Z</time>
      </trkpt>
      <trkpt lat="47.0438" lon="5.38134">
        <ele>246.9</ele>
        <time>2012-12-24T13:25:08.000Z</time>
      </trkpt>
      <trkpt lat="47.04379" lon="5.38128">
        <ele>247.6</ele>
        <time>2012-12-24T13:25:11.000Z</time>
      </trkpt>
      <trkpt lat="47.04378" lon="5.38126">
        <ele>248</ele>
        <time>2012-12-24T13:25:12.000Z</time>
      </trkpt>
      <trkpt lat="47.04377" lon="5.38121">
        <ele>248.7</ele>
        <time>2012-12-24T13:25:15.000Z</time>
      </trkpt>
      <trkpt lat="47.04377" lon="5.38119">
        <ele>248.8</ele>
        <time>2012-12-24T13:25:16.000Z</time>
      </trkpt>
      <trkpt lat="47.04377" lon="5.38113">
        <ele>249.2</ele>
        <time>2012-12-24T13:25:20.000Z</time>
      </trkpt>
      <trkpt lat="47.04377" lon="5.38112">
        <ele>249.2</ele>
        <time>2012-12-24T13:25:21.000Z</time>
      </trkpt>
      <trkpt lat="47.04377" lon="5.38106">
        <ele>249.1</ele>
        <time>2012-12-24T13:25:26.000Z</time>
      </trkpt>
      <trkpt lat="47.04377" lon="5.38104">
        <ele>249.4</ele>
        <time>2012-12-24T13:25:27.000Z</time>
      </trkpt>
      <trkpt lat="47.04377" lon="5.38098">
        <ele>249.7</ele>
        <time>2012-12-24T13:25:31.000Z</time>
      </trkpt>
      <trkpt lat="47.04377" lon="5.38097">
        <ele>249.6</ele>
        <time>2012-12-24T13:25:32.000Z</time>
      </trkpt>
      <trkpt lat="47.04375" lon="5.38091">
        <ele>250.6</ele>
        <time>2012-12-24T13:25:36.000Z</time>
      </trkpt>
      <trkpt lat="47.04375" lon="5.38089">
        <ele>251</ele>
        <time>2012-12-24T13:25:37.000Z</time>
      </trkpt>
      <trkpt lat="47.04375" lon="5.38083">
        <ele>252</ele>
        <time>2012-12-24T13:25:42.000Z</time>
      </trkpt>
      <trkpt lat="47.04376" lon="5.38082">
        <ele>252.1</ele>
        <time>2012-12-24T13:25:43.000Z</time>
      </trkpt>
      <trkpt lat="47.04376" lon="5.38077">
        <ele>252.5</ele>
        <time>2012-12-24T13:25:48.000Z</time>
      </trkpt>
      <trkpt lat="47.04376" lon="5.38075">
        <ele>252.5</ele>
        <time>2012-12-24T13:25:49.000Z</time>
      </trkpt>
      <trkpt lat="47.04375" lon="5.38069">
        <ele>253.4</ele>
        <time>2012-12-24T13:25:53.000Z</time>
      </trkpt>
      <trkpt lat="47.04375" lon="5.38067">
        <ele>253.3</ele>
        <time>2012-12-24T13:25:54.000Z</time>
      </trkpt>
      <trkpt lat="47.04375" lon="5.38061">
        <ele>252.6</ele>
        <time>2012-12-24T13:25:58.000Z</time>
      </trkpt>
      <trkpt lat="47.04375" lon="5.3806">
        <ele>252.4</ele>
        <time>2012-12-24T13:25:59.000Z</time>
      </trkpt>
      <trkpt lat="47.04375" lon="5.38054">
        <ele>251.8</ele>
        <time>2012-12-24T13:26:03.000Z</time>
      </trkpt>
      <trkpt lat="47.04375" lon="5.38052">
        <ele>251.7</ele>
        <time>2012-12-24T13:26:04.000Z</time>
      </trkpt>
      <trkpt lat="47.04374" lon="5.38046">
        <ele>249.4</ele>
        <time>2012-12-24T13:26:08.000Z</time>
      </trkpt>
      <trkpt lat="47.04375" lon="5.38045">
        <ele>249.3</ele>
        <time>2012-12-24T13:26:09.000Z</time>
      </trkpt>
      <trkpt lat="47.04375" lon="5.38039">
        <ele>249.3</ele>
        <time>2012-12-24T13:26:13.000Z</time>
      </trkpt>
      <trkpt lat="47.04375" lon="5.38037">
        <ele>249.1</ele>
        <time>2012-12-24T13:26:14.000Z</time>
      </trkpt>
      <trkpt lat="47.04375" lon="5.38032">
        <ele>248.7</ele>
        <time>2012-12-24T13:26:18.000Z</time>
      </trkpt>
      <trkpt lat="47.04374" lon="5.3803">
        <ele>248.8</ele>
        <time>2012-12-24T13:26:19.000Z</time>
      </trkpt>
      <trkpt lat="47.04374" lon="5.38029">
        <ele>248.6</ele>
        <time>2012-12-24T13:26:20.000Z</time>
      </trkpt>
      <trkpt lat="47.04368" lon="5.38036">
        <ele>261.8</ele>
        <time>2012-12-24T13:26:29.000Z</time>
      </trkpt>
      <trkpt lat="47.04368" lon="5.38032">
        <ele>259</ele>
        <time>2012-12-24T13:26:30.000Z</time>
      </trkpt>
      <trkpt lat="47.0437" lon="5.38027">
        <ele>249.3</ele>
        <time>2012-12-24T13:26:31.000Z</time>
      </trkpt>
      <trkpt lat="47.04371" lon="5.38022">
        <ele>250.5</ele>
        <time>2012-12-24T13:26:32.000Z</time>
      </trkpt>
      <trkpt lat="47.04372" lon="5.38019">
        <ele>250.7</ele>
        <time>2012-12-24T13:26:33.000Z</time>
      </trkpt>
      <trkpt lat="47.04372" lon="5.38013">
        <ele>251.7</ele>
        <time>2012-12-24T13:26:37.000Z</time>
      </trkpt>
      <trkpt lat="47.04372" lon="5.38011">
        <ele>251</ele>
        <time>2012-12-24T13:26:38.000Z</time>
      </trkpt>
      <trkpt lat="47.04374" lon="5.38005">
        <ele>250.1</ele>
        <time>2012-12-24T13:26:42.000Z</time>
      </trkpt>
      <trkpt lat="47.04374" lon="5.38004">
        <ele>248.8</ele>
        <time>2012-12-24T13:26:43.000Z</time>
      </trkpt>
      <trkpt lat="47.04373" lon="5.37999">
        <ele>247.3</ele>
        <time>2012-12-24T13:26:47.000Z</time>
      </trkpt>
      <trkpt lat="47.04373" lon="5.37998">
        <ele>246.7</ele>
        <time>2012-12-24T13:26:48.000Z</time>
      </trkpt>
      <trkpt lat="47.04373" lon="5.37991">
        <ele>244.7</ele>
        <time>2012-12-24T13:26:53.000Z</time>
      </trkpt>
      <trkpt lat="47.04373" lon="5.3799">
        <ele>244.8</ele>
        <time>2012-12-24T13:26:54.000Z</time>
      </trkpt>
      <trkpt lat="47.04373" lon="5.37985">
        <ele>245.6</ele>
        <time>2012-12-24T13:26:57.000Z</time>
      </trkpt>
      <trkpt lat="47.04373" lon="5.37983">
        <ele>245.9</ele>
        <time>2012-12-24T13:26:58.000Z</time>
      </trkpt>
      <trkpt lat="47.04372" lon="5.37978">
        <ele>246.8</ele>
        <time>2012-12-24T13:27:01.000Z</time>
      </trkpt>
      <trkpt lat="47.04372" lon="5.37977">
        <ele>246.6</ele>
        <time>2012-12-24T13:27:02.000Z</time>
      </trkpt>
      <trkpt lat="47.04372" lon="5.37971">
        <ele>246.4</ele>
        <time>2012-12-24T13:27:06.000Z</time>
      </trkpt>
      <trkpt lat="47.04372" lon="5.37969">
        <ele>246.5</ele>
        <time>2012-12-24T13:27:07.000Z</time>
      </trkpt>
      <trkpt lat="47.04373" lon="5.37964">
        <ele>246.7</ele>
        <time>2012-12-24T13:27:11.000Z</time>
      </trkpt>
      <trkpt lat="47.04373" lon="5.37962">
        <ele>246.4</ele>
        <time>2012-12-24T13:27:12.000Z</time>
      </trkpt>
      <trkpt lat="47.04372" lon="5.37956">
        <ele>246.3</ele>
        <time>2012-12-24T13:27:16.000Z</time>
      </trkpt>
      <trkpt lat="47.04373" lon="5.37954">
        <ele>246.3</ele>
        <time>2012-12-24T13:27:17.000Z</time>
      </trkpt>
      <trkpt lat="47.04373" lon="5.37948">
        <ele>246.9</ele>
        <time>2012-12-24T13:27:21.000Z</time>
      </trkpt>
      <trkpt lat="47.04373" lon="5.37947">
        <ele>247.1</ele>
        <time>2012-12-24T13:27:22.000Z</time>
      </trkpt>
      <trkpt lat="47.04372" lon="5.37942">
        <ele>247.4</ele>
        <time>2012-12-24T13:27:25.000Z</time>
      </trkpt>
      <trkpt lat="47.04372" lon="5.3794">
        <ele>247.6</ele>
        <time>2012-12-24T13:27:26.000Z</time>
      </trkpt>
      <trkpt lat="47.04371" lon="5.37934">
        <ele>246.6</ele>
        <time>2012-12-24T13:27:30.000Z</time>
      </trkpt>
      <trkpt lat="47.04371" lon="5.37933">
        <ele>246.4</ele>
        <time>2012-12-24T13:27:31.000Z</time>
      </trkpt>
      <trkpt lat="47.04371" lon="5.37927">
        <ele>244.7</ele>
        <time>2012-12-24T13:27:35.000Z</time>
      </trkpt>
      <trkpt lat="47.04371" lon="5.37925">
        <ele>244.1</ele>
        <time>2012-12-24T13:27:36.000Z</time>
      </trkpt>
      <trkpt lat="47.0437" lon="5.37919">
        <ele>244.2</ele>
        <time>2012-12-24T13:27:40.000Z</time>
      </trkpt>
      <trkpt lat="47.0437" lon="5.37917">
        <ele>244.1</ele>
        <time>2012-12-24T13:27:41.000Z</time>
      </trkpt>
      <trkpt lat="47.0437" lon="5.37911">
        <ele>244.5</ele>
        <time>2012-12-24T13:27:45.000Z</time>
      </trkpt>
      <trkpt lat="47.04369" lon="5.37909">
        <ele>244.9</ele>
        <time>2012-12-24T13:27:46.000Z</time>
      </trkpt>
      <trkpt lat="47.04369" lon="5.37904">
        <ele>245.5</ele>
        <time>2012-12-24T13:27:49.000Z</time>
      </trkpt>
      <trkpt lat="47.04369" lon="5.37902">
        <ele>245.9</ele>
        <time>2012-12-24T13:27:50.000Z</time>
      </trkpt>
      <trkpt lat="47.04368" lon="5.37897">
        <ele>246.6</ele>
        <time>2012-12-24T13:27:53.000Z</time>
      </trkpt>
      <trkpt lat="47.04368" lon="5.37895">
        <ele>247</ele>
        <time>2012-12-24T13:27:54.000Z</time>
      </trkpt>
      <trkpt lat="47.04367" lon="5.3789">
        <ele>246.7</ele>
        <time>2012-12-24T13:27:57.000Z</time>
      </trkpt>
      <trkpt lat="47.04367" lon="5.37888">
        <ele>246.6</ele>
        <time>2012-12-24T13:27:58.000Z</time>
      </trkpt>
      <trkpt lat="47.04366" lon="5.37882">
        <ele>246.5</ele>
        <time>2012-12-24T13:28:02.000Z</time>
      </trkpt>
      <trkpt lat="47.04366" lon="5.37881">
        <ele>246.4</ele>
        <time>2012-12-24T13:28:03.000Z</time>
      </trkpt>
      <trkpt lat="47.04368" lon="5.37876">
        <ele>246.6</ele>
        <time>2012-12-24T13:28:08.000Z</time>
      </trkpt>
      <trkpt lat="47.04368" lon="5.37875">
        <ele>246.6</ele>
        <time>2012-12-24T13:28:09.000Z</time>
      </trkpt>
      <trkpt lat="47.04368" lon="5.37869">
        <ele>246.9</ele>
        <time>2012-12-24T13:28:14.000Z</time>
      </trkpt>
      <trkpt lat="47.04368" lon="5.37868">
        <ele>247</ele>
        <time>2012-12-24T13:28:15.000Z</time>
      </trkpt>
      <trkpt lat="47.04369" lon="5.37863">
        <ele>246.6</ele>
        <time>2012-12-24T13:28:25.000Z</time>
      </trkpt>
      <trkpt lat="47.04369" lon="5.37861">
        <ele>246.7</ele>
        <time>2012-12-24T13:28:26.000Z</time>
      </trkpt>
      <trkpt lat="47.04369" lon="5.37854">
        <ele>246.7</ele>
        <time>2012-12-24T13:28:30.000Z</time>
      </trkpt>
      <trkpt lat="47.04369" lon="5.37853">
        <ele>246.9</ele>
        <time>2012-12-24T13:28:31.000Z</time>
      </trkpt>
      <trkpt lat="47.04369" lon="5.37847">
        <ele>247.2</ele>
        <time>2012-12-24T13:28:35.000Z</time>
      </trkpt>
      <trkpt lat="47.04369" lon="5.37845">
        <ele>247.2</ele>
        <time>2012-12-24T13:28:36.000Z</time>
      </trkpt>
      <trkpt lat="47.04369" lon="5.37839">
        <ele>246.5</ele>
        <time>2012-12-24T13:28:40.000Z</time>
      </trkpt>
      <trkpt lat="47.04369" lon="5.37838">
        <ele>246.2</ele>
        <time>2012-12-24T13:28:41.000Z</time>
      </trkpt>
      <trkpt lat="47.04369" lon="5.37832">
        <ele>245.7</ele>
        <time>2012-12-24T13:28:46.000Z</time>
      </trkpt>
      <trkpt lat="47.04369" lon="5.3783">
        <ele>245.7</ele>
        <time>2012-12-24T13:28:47.000Z</time>
      </trkpt>
      <trkpt lat="47.04369" lon="5.37824">
        <ele>245.2</ele>
        <time>2012-12-24T13:28:52.000Z</time>
      </trkpt>
      <trkpt lat="47.04369" lon="5.37823">
        <ele>245.1</ele>
        <time>2012-12-24T13:28:53.000Z</time>
      </trkpt>
      <trkpt lat="47.04369" lon="5.37818">
        <ele>244</ele>
        <time>2012-12-24T13:28:58.000Z</time>
      </trkpt>
      <trkpt lat="47.04369" lon="5.37816">
        <ele>243.7</ele>
        <time>2012-12-24T13:28:59.000Z</time>
      </trkpt>
      <trkpt lat="47.04368" lon="5.37811">
        <ele>243.3</ele>
        <time>2012-12-24T13:29:02.000Z</time>
      </trkpt>
      <trkpt lat="47.04368" lon="5.3781">
        <ele>243.2</ele>
        <time>2012-12-24T13:29:03.000Z</time>
      </trkpt>
      <trkpt lat="47.04367" lon="5.37804">
        <ele>243.4</ele>
        <time>2012-12-24T13:29:07.000Z</time>
      </trkpt>
      <trkpt lat="47.04367" lon="5.37802">
        <ele>243.1</ele>
        <time>2012-12-24T13:29:08.000Z</time>
      </trkpt>
      <trkpt lat="47.04367" lon="5.37796">
        <ele>242.9</ele>
        <time>2012-12-24T13:29:12.000Z</time>
      </trkpt>
      <trkpt lat="47.04367" lon="5.37794">
        <ele>242.7</ele>
        <time>2012-12-24T13:29:13.000Z</time>
      </trkpt>
      <trkpt lat="47.04366" lon="5.37788">
        <ele>242</ele>
        <time>2012-12-24T13:29:17.000Z</time>
      </trkpt>
      <trkpt lat="47.04366" lon="5.37786">
        <ele>241.9</ele>
        <time>2012-12-24T13:29:18.000Z</time>
      </trkpt>
      <trkpt lat="47.04366" lon="5.37781">
        <ele>241.8</ele>
        <time>2012-12-24T13:29:22.000Z</time>
      </trkpt>
      <trkpt lat="47.04366" lon="5.3778">
        <ele>241.7</ele>
        <time>2012-12-24T13:29:23.000Z</time>
      </trkpt>
      <trkpt lat="47.04366" lon="5.37774">
        <ele>241.2</ele>
        <time>2012-12-24T13:29:30.000Z</time>
      </trkpt>
      <trkpt lat="47.04366" lon="5.37773">
        <ele>241.2</ele>
        <time>2012-12-24T13:29:31.000Z</time>
      </trkpt>
      <trkpt lat="47.04366" lon="5.37767">
        <ele>240.5</ele>
        <time>2012-12-24T13:29:35.000Z</time>
      </trkpt>
      <trkpt lat="47.04366" lon="5.37765">
        <ele>240.2</ele>
        <time>2012-12-24T13:29:36.000Z</time>
      </trkpt>
      <trkpt lat="47.04366" lon="5.3776">
        <ele>239.5</ele>
        <time>2012-12-24T13:29:40.000Z</time>
      </trkpt>
      <trkpt lat="47.04366" lon="5.37758">
        <ele>239.3</ele>
        <time>2012-12-24T13:29:41.000Z</time>
      </trkpt>
      <trkpt lat="47.04366" lon="5.37752">
        <ele>239.1</ele>
        <time>2012-12-24T13:29:45.000Z</time>
      </trkpt>
      <trkpt lat="47.04366" lon="5.37751">
        <ele>239.1</ele>
        <time>2012-12-24T13:29:46.000Z</time>
      </trkpt>
      <trkpt lat="47.04366" lon="5.37745">
        <ele>239.3</ele>
        <time>2012-12-24T13:29:49.000Z</time>
      </trkpt>
      <trkpt lat="47.04365" lon="5.37744">
        <ele>239.3</ele>
        <time>2012-12-24T13:29:50.000Z</time>
      </trkpt>
      <trkpt lat="47.04365" lon="5.37739">
        <ele>239.5</ele>
        <time>2012-12-24T13:29:53.000Z</time>
      </trkpt>
      <trkpt lat="47.04365" lon="5.37737">
        <ele>239.5</ele>
        <time>2012-12-24T13:29:54.000Z</time>
      </trkpt>
      <trkpt lat="47.04365" lon="5.37731">
        <ele>239.4</ele>
        <time>2012-12-24T13:29:58.000Z</time>
      </trkpt>
      <trkpt lat="47.04365" lon="5.3773">
        <ele>239.5</ele>
        <time>2012-12-24T13:29:59.000Z</time>
      </trkpt>
      <trkpt lat="47.04365" lon="5.37723">
        <ele>239.7</ele>
        <time>2012-12-24T13:30:03.000Z</time>
      </trkpt>
      <trkpt lat="47.04365" lon="5.37722">
        <ele>239.8</ele>
        <time>2012-12-24T13:30:04.000Z</time>
      </trkpt>
      <trkpt lat="47.04364" lon="5.37715">
        <ele>240</ele>
        <time>2012-12-24T13:30:08.000Z</time>
      </trkpt>
      <trkpt lat="47.04364" lon="5.37714">
        <ele>240</ele>
        <time>2012-12-24T13:30:09.000Z</time>
      </trkpt>
      <trkpt lat="47.04364" lon="5.37708">
        <ele>240.2</ele>
        <time>2012-12-24T13:30:13.000Z</time>
      </trkpt>
      <trkpt lat="47.04364" lon="5.37707">
        <ele>240.1</ele>
        <time>2012-12-24T13:30:14.000Z</time>
      </trkpt>
      <trkpt lat="47.04364" lon="5.37701">
        <ele>240.1</ele>
        <time>2012-12-24T13:30:18.000Z</time>
      </trkpt>
      <trkpt lat="47.04364" lon="5.37699">
        <ele>240.2</ele>
        <time>2012-12-24T13:30:19.000Z</time>
      </trkpt>
      <trkpt lat="47.04363" lon="5.37694">
        <ele>239.7</ele>
        <time>2012-12-24T13:30:23.000Z</time>
      </trkpt>
      <trkpt lat="47.04363" lon="5.37692">
        <ele>239.6</ele>
        <time>2012-12-24T13:30:24.000Z</time>
      </trkpt>
      <trkpt lat="47.04363" lon="5.37687">
        <ele>239.9</ele>
        <time>2012-12-24T13:30:27.000Z</time>
      </trkpt>
      <trkpt lat="47.04363" lon="5.37685">
        <ele>240.1</ele>
        <time>2012-12-24T13:30:28.000Z</time>
      </trkpt>
      <trkpt lat="47.04363" lon="5.3768">
        <ele>240.5</ele>
        <time>2012-12-24T13:30:31.000Z</time>
      </trkpt>
      <trkpt lat="47.04362" lon="5.37678">
        <ele>240.7</ele>
        <time>2012-12-24T13:30:32.000Z</time>
      </trkpt>
      <trkpt lat="47.04362" lon="5.37671">
        <ele>241.4</ele>
        <time>2012-12-24T13:30:36.000Z</time>
      </trkpt>
      <trkpt lat="47.04362" lon="5.3767">
        <ele>241.6</ele>
        <time>2012-12-24T13:30:37.000Z</time>
      </trkpt>
      <trkpt lat="47.04361" lon="5.37665">
        <ele>242.4</ele>
        <time>2012-12-24T13:30:40.000Z</time>
      </trkpt>
      <trkpt lat="47.04361" lon="5.37663">
        <ele>242.8</ele>
        <time>2012-12-24T13:30:41.000Z</time>
      </trkpt>
      <trkpt lat="47.0436" lon="5.37657">
        <ele>243.5</ele>
        <time>2012-12-24T13:30:44.000Z</time>
      </trkpt>
      <trkpt lat="47.0436" lon="5.37655">
        <ele>243.5</ele>
        <time>2012-12-24T13:30:45.000Z</time>
      </trkpt>
      <trkpt lat="47.04359" lon="5.37649">
        <ele>243.1</ele>
        <time>2012-12-24T13:30:49.000Z</time>
      </trkpt>
      <trkpt lat="47.04359" lon="5.37647">
        <ele>243.1</ele>
        <time>2012-12-24T13:30:50.000Z</time>
      </trkpt>
      <trkpt lat="47.04358" lon="5.37642">
        <ele>241.8</ele>
        <time>2012-12-24T13:30:59.000Z</time>
      </trkpt>
      <trkpt lat="47.04358" lon="5.3764">
        <ele>241.9</ele>
        <time>2012-12-24T13:31:00.000Z</time>
      </trkpt>
      <trkpt lat="47.04358" lon="5.37636">
        <ele>242.3</ele>
        <time>2012-12-24T13:31:03.000Z</time>
      </trkpt>
      <trkpt lat="47.04358" lon="5.37634">
        <ele>242.6</ele>
        <time>2012-12-24T13:31:04.000Z</time>
      </trkpt>
      <trkpt lat="47.04358" lon="5.37628">
        <ele>243.4</ele>
        <time>2012-12-24T13:31:07.000Z</time>
      </trkpt>
      <trkpt lat="47.04357" lon="5.37626">
        <ele>243.5</ele>
        <time>2012-12-24T13:31:08.000Z</time>
      </trkpt>
      <trkpt lat="47.04357" lon="5.3762">
        <ele>244</ele>
        <time>2012-12-24T13:31:11.000Z</time>
      </trkpt>
      <trkpt lat="47.04356" lon="5.37619">
        <ele>244.1</ele>
        <time>2012-12-24T13:31:12.000Z</time>
      </trkpt>
      <trkpt lat="47.04356" lon="5.37612">
        <ele>244.6</ele>
        <time>2012-12-24T13:31:16.000Z</time>
      </trkpt>
      <trkpt lat="47.04356" lon="5.3761">
        <ele>244.6</ele>
        <time>2012-12-24T13:31:17.000Z</time>
      </trkpt>
      <trkpt lat="47.04355" lon="5.37605">
        <ele>244.8</ele>
        <time>2012-12-24T13:31:20.000Z</time>
      </trkpt>
      <trkpt lat="47.04355" lon="5.37604">
        <ele>244.7</ele>
        <time>2012-12-24T13:31:21.000Z</time>
      </trkpt>
      <trkpt lat="47.04351" lon="5.37597">
        <ele>247.6</ele>
        <time>2012-12-24T13:31:27.000Z</time>
      </trkpt>
      <trkpt lat="47.04351" lon="5.37597">
        <ele>247.6</ele>
        <time>2012-12-24T13:31:28.000Z</time>
      </trkpt>
      <trkpt lat="47.04358" lon="5.37599">
        <ele>232.9</ele>
        <time>2012-12-24T13:31:29.000Z</time>
      </trkpt>
      <trkpt lat="47.04357" lon="5.37593">
        <ele>237.2</ele>
        <time>2012-12-24T13:31:32.000Z</time>
      </trkpt>
      <trkpt lat="47.04357" lon="5.37592">
        <ele>237.6</ele>
        <time>2012-12-24T13:31:33.000Z</time>
      </trkpt>
      <trkpt lat="47.04353" lon="5.37592">
        <ele>235.2</ele>
        <time>2012-12-24T13:31:41.000Z</time>
      </trkpt>
      <trkpt lat="47.04352" lon="5.37593">
        <ele>235.2</ele>
        <time>2012-12-24T13:31:42.000Z</time>
      </trkpt>
      <trkpt lat="47.04349" lon="5.37588">
        <ele>234.2</ele>
        <time>2012-12-24T13:31:50.000Z</time>
      </trkpt>
      <trkpt lat="47.04349" lon="5.37588">
        <ele>233.9</ele>
        <time>2012-12-24T13:31:51.000Z</time>
      </trkpt>
      <trkpt lat="47.04347" lon="5.37582">
        <ele>233.3</ele>
        <time>2012-12-24T13:32:00.000Z</time>
      </trkpt>
      <trkpt lat="47.04346" lon="5.37582">
        <ele>233.1</ele>
        <time>2012-12-24T13:32:01.000Z</time>
      </trkpt>
      <trkpt lat="47.04343" lon="5.37578">
        <ele>232.8</ele>
        <time>2012-12-24T13:32:05.000Z</time>
      </trkpt>
      <trkpt lat="47.04342" lon="5.37577">
        <ele>232.7</ele>
        <time>2012-12-24T13:32:06.000Z</time>
      </trkpt>
      <trkpt lat="47.04339" lon="5.37573">
        <ele>232.7</ele>
        <time>2012-12-24T13:32:10.000Z</time>
      </trkpt>
      <trkpt lat="47.04339" lon="5.37572">
        <ele>232.7</ele>
        <time>2012-12-24T13:32:11.000Z</time>
      </trkpt>
      <trkpt lat="47.04336" lon="5.37567">
        <ele>232.7</ele>
        <time>2012-12-24T13:32:15.000Z</time>
      </trkpt>
      <trkpt lat="47.04336" lon="5.37566">
        <ele>232.8</ele>
        <time>2012-12-24T13:32:16.000Z</time>
      </trkpt>
      <trkpt lat="47.04333" lon="5.37561">
        <ele>232.4</ele>
        <time>2012-12-24T13:32:20.000Z</time>
      </trkpt>
      <trkpt lat="47.04333" lon="5.3756">
        <ele>232.2</ele>
        <time>2012-12-24T13:32:21.000Z</time>
      </trkpt>
      <trkpt lat="47.04328" lon="5.37559">
        <ele>231</ele>
        <time>2012-12-24T13:32:26.000Z</time>
      </trkpt>
      <trkpt lat="47.04326" lon="5.37556">
        <ele>234.6</ele>
        <time>2012-12-24T13:32:28.000Z</time>
      </trkpt>
      <trkpt lat="47.04322" lon="5.37553">
        <ele>234.8</ele>
        <time>2012-12-24T13:32:29.000Z</time>
      </trkpt>
      <trkpt lat="47.04321" lon="5.37548">
        <ele>233.6</ele>
        <time>2012-12-24T13:32:34.000Z</time>
      </trkpt>
      <trkpt lat="47.0432" lon="5.37547">
        <ele>233.9</ele>
        <time>2012-12-24T13:32:35.000Z</time>
      </trkpt>
      <trkpt lat="47.04317" lon="5.37541">
        <ele>234.1</ele>
        <time>2012-12-24T13:32:40.000Z</time>
      </trkpt>
      <trkpt lat="47.04317" lon="5.3754">
        <ele>234.2</ele>
        <time>2012-12-24T13:32:41.000Z</time>
      </trkpt>
      <trkpt lat="47.04316" lon="5.37534">
        <ele>232.7</ele>
        <time>2012-12-24T13:32:46.000Z</time>
      </trkpt>
      <trkpt lat="47.04315" lon="5.37533">
        <ele>232.7</ele>
        <time>2012-12-24T13:32:47.000Z</time>
      </trkpt>
      <trkpt lat="47.04313" lon="5.37527">
        <ele>231.8</ele>
        <time>2012-12-24T13:32:52.000Z</time>
      </trkpt>
      <trkpt lat="47.04313" lon="5.37527">
        <ele>231.6</ele>
        <time>2012-12-24T13:32:53.000Z</time>
      </trkpt>
      <trkpt lat="47.0431" lon="5.37522">
        <ele>232.1</ele>
        <time>2012-12-24T13:32:57.000Z</time>
      </trkpt>
      <trkpt lat="47.0431" lon="5.37521">
        <ele>232.1</ele>
        <time>2012-12-24T13:32:58.000Z</time>
      </trkpt>
      <trkpt lat="47.04307" lon="5.37516">
        <ele>232.1</ele>
        <time>2012-12-24T13:33:03.000Z</time>
      </trkpt>
      <trkpt lat="47.04307" lon="5.37515">
        <ele>232.2</ele>
        <time>2012-12-24T13:33:04.000Z</time>
      </trkpt>
      <trkpt lat="47.04305" lon="5.3751">
        <ele>232.9</ele>
        <time>2012-12-24T13:33:08.000Z</time>
      </trkpt>
      <trkpt lat="47.04304" lon="5.37508">
        <ele>233.1</ele>
        <time>2012-12-24T13:33:09.000Z</time>
      </trkpt>
      <trkpt lat="47.04303" lon="5.37503">
        <ele>234.1</ele>
        <time>2012-12-24T13:33:12.000Z</time>
      </trkpt>
      <trkpt lat="47.04303" lon="5.37502">
        <ele>234.3</ele>
        <time>2012-12-24T13:33:13.000Z</time>
      </trkpt>
      <trkpt lat="47.04301" lon="5.37496">
        <ele>234.8</ele>
        <time>2012-12-24T13:33:17.000Z</time>
      </trkpt>
      <trkpt lat="47.043" lon="5.37495">
        <ele>234.3</ele>
        <time>2012-12-24T13:33:18.000Z</time>
      </trkpt>
      <trkpt lat="47.04299" lon="5.37493">
        <ele>233.8</ele>
        <time>2012-12-24T13:33:21.000Z</time>
      </trkpt>
      <trkpt lat="47.04297" lon="5.37488">
        <ele>229.2</ele>
        <time>2012-12-24T13:33:25.000Z</time>
      </trkpt>
      <trkpt lat="47.04297" lon="5.37488">
        <ele>229.2</ele>
        <time>2012-12-24T13:33:30.000Z</time>
      </trkpt>
      <trkpt lat="47.04292" lon="5.3748">
        <ele>239.7</ele>
        <time>2012-12-24T13:33:31.000Z</time>
      </trkpt>
      <trkpt lat="47.04291" lon="5.37474">
        <ele>239.9</ele>
        <time>2012-12-24T13:33:35.000Z</time>
      </trkpt>
      <trkpt lat="47.0429" lon="5.37472">
        <ele>239.9</ele>
        <time>2012-12-24T13:33:36.000Z</time>
      </trkpt>
      <trkpt lat="47.04289" lon="5.37466">
        <ele>239.2</ele>
        <time>2012-12-24T13:33:41.000Z</time>
      </trkpt>
      <trkpt lat="47.04289" lon="5.37464">
        <ele>239.7</ele>
        <time>2012-12-24T13:33:42.000Z</time>
      </trkpt>
      <trkpt lat="47.04287" lon="5.37459">
        <ele>239.1</ele>
        <time>2012-12-24T13:33:46.000Z</time>
      </trkpt>
      <trkpt lat="47.04286" lon="5.37458">
        <ele>238.7</ele>
        <time>2012-12-24T13:33:47.000Z</time>
      </trkpt>
      <trkpt lat="47.04286" lon="5.37452">
        <ele>235.8</ele>
        <time>2012-12-24T13:33:55.000Z</time>
      </trkpt>
      <trkpt lat="47.04285" lon="5.37451">
        <ele>235.7</ele>
        <time>2012-12-24T13:33:56.000Z</time>
      </trkpt>
      <trkpt lat="47.04282" lon="5.37448">
        <ele>234.3</ele>
        <time>2012-12-24T13:34:00.000Z</time>
      </trkpt>
      <trkpt lat="47.04281" lon="5.37447">
        <ele>234.1</ele>
        <time>2012-12-24T13:34:01.000Z</time>
      </trkpt>
      <trkpt lat="47.04277" lon="5.37448">
        <ele>232.9</ele>
        <time>2012-12-24T13:34:06.000Z</time>
      </trkpt>
      <trkpt lat="47.04276" lon="5.37449">
        <ele>232.7</ele>
        <time>2012-12-24T13:34:07.000Z</time>
      </trkpt>
      <trkpt lat="47.04272" lon="5.3745">
        <ele>232.8</ele>
        <time>2012-12-24T13:34:12.000Z</time>
      </trkpt>
      <trkpt lat="47.04271" lon="5.37449">
        <ele>232.9</ele>
        <time>2012-12-24T13:34:13.000Z</time>
      </trkpt>
      <trkpt lat="47.04267" lon="5.37447">
        <ele>232.6</ele>
        <time>2012-12-24T13:34:17.000Z</time>
      </trkpt>
      <trkpt lat="47.04266" lon="5.37446">
        <ele>232.5</ele>
        <time>2012-12-24T13:34:18.000Z</time>
      </trkpt>
      <trkpt lat="47.04265" lon="5.37444">
        <ele>232.7</ele>
        <time>2012-12-24T13:34:21.000Z</time>
      </trkpt>
      <trkpt lat="47.04262" lon="5.37439">
        <ele>234.3</ele>
        <time>2012-12-24T13:34:26.000Z</time>
      </trkpt>
      <trkpt lat="47.0426" lon="5.37436">
        <ele>235.4</ele>
        <time>2012-12-24T13:34:27.000Z</time>
      </trkpt>
      <trkpt lat="47.04258" lon="5.37433">
        <ele>238.9</ele>
        <time>2012-12-24T13:34:29.000Z</time>
      </trkpt>
      <trkpt lat="47.04253" lon="5.37435">
        <ele>236.8</ele>
        <time>2012-12-24T13:34:37.000Z</time>
      </trkpt>
      <trkpt lat="47.04253" lon="5.37436">
        <ele>236.7</ele>
        <time>2012-12-24T13:34:38.000Z</time>
      </trkpt>
      <trkpt lat="47.0425" lon="5.3744">
        <ele>237.7</ele>
        <time>2012-12-24T13:34:42.000Z</time>
      </trkpt>
      <trkpt lat="47.04249" lon="5.37441">
        <ele>237</ele>
        <time>2012-12-24T13:34:43.000Z</time>
      </trkpt>
      <trkpt lat="47.04245" lon="5.37439">
        <ele>232.6</ele>
        <time>2012-12-24T13:35:01.000Z</time>
      </trkpt>
      <trkpt lat="47.04245" lon="5.37438">
        <ele>232.2</ele>
        <time>2012-12-24T13:35:02.000Z</time>
      </trkpt>
      <trkpt lat="47.04248" lon="5.37437">
        <ele>231.8</ele>
        <time>2012-12-24T13:35:22.500Z</time>
      </trkpt>
      <trkpt lat="47.04242" lon="5.37452">
        <ele>234.3</ele>
        <time>2012-12-24T13:35:26.000Z</time>
      </trkpt>
      <trkpt lat="47.0424" lon="5.37458">
        <ele>236.4</ele>
        <time>2012-12-24T13:35:35.000Z</time>
      </trkpt>
      <trkpt lat="47.04239" lon="5.37459">
        <ele>236.6</ele>
        <time>2012-12-24T13:35:36.000Z</time>
      </trkpt>
      <trkpt lat="47.04236" lon="5.37464">
        <ele>236.4</ele>
        <time>2012-12-24T13:35:40.000Z</time>
      </trkpt>
      <trkpt lat="47.04236" lon="5.37465">
        <ele>236.1</ele>
        <time>2012-12-24T13:35:41.000Z</time>
      </trkpt>
      <trkpt lat="47.04234" lon="5.37469">
        <ele>235.4</ele>
        <time>2012-12-24T13:35:45.000Z</time>
      </trkpt>
      <trkpt lat="47.04233" lon="5.3747">
        <ele>235.3</ele>
        <time>2012-12-24T13:35:46.000Z</time>
      </trkpt>
      <trkpt lat="47.0423" lon="5.37475">
        <ele>235</ele>
        <time>2012-12-24T13:35:50.000Z</time>
      </trkpt>
      <trkpt lat="47.04229" lon="5.37476">
        <ele>234.6</ele>
        <time>2012-12-24T13:35:51.000Z</time>
      </trkpt>
      <trkpt lat="47.04227" lon="5.3748">
        <ele>234.4</ele>
        <time>2012-12-24T13:35:55.000Z</time>
      </trkpt>
      <trkpt lat="47.04226" lon="5.37481">
        <ele>234.4</ele>
        <time>2012-12-24T13:35:56.000Z</time>
      </trkpt>
      <trkpt lat="47.04223" lon="5.37484">
        <ele>234.2</ele>
        <time>2012-12-24T13:36:00.000Z</time>
      </trkpt>
      <trkpt lat="47.04222" lon="5.37485">
        <ele>234.1</ele>
        <time>2012-12-24T13:36:01.000Z</time>
      </trkpt>
      <trkpt lat="47.04219" lon="5.3749">
        <ele>234.3</ele>
        <time>2012-12-24T13:36:05.000Z</time>
      </trkpt>
      <trkpt lat="47.04219" lon="5.37491">
        <ele>234.4</ele>
        <time>2012-12-24T13:36:06.000Z</time>
      </trkpt>
      <trkpt lat="47.04216" lon="5.37494">
        <ele>234.3</ele>
        <time>2012-12-24T13:36:09.000Z</time>
      </trkpt>
      <trkpt lat="47.04215" lon="5.37495">
        <ele>234.3</ele>
        <time>2012-12-24T13:36:10.000Z</time>
      </trkpt>
      <trkpt lat="47.04212" lon="5.37499">
        <ele>234.6</ele>
        <time>2012-12-24T13:36:13.000Z</time>
      </trkpt>
      <trkpt lat="47.04211" lon="5.375">
        <ele>234.7</ele>
        <time>2012-12-24T13:36:14.000Z</time>
      </trkpt>
      <trkpt lat="47.04208" lon="5.37504">
        <ele>234.7</ele>
        <time>2012-12-24T13:36:18.000Z</time>
      </trkpt>
      <trkpt lat="47.04208" lon="5.37505">
        <ele>234.7</ele>
        <time>2012-12-24T13:36:19.000Z</time>
      </trkpt>
      <trkpt lat="47.04206" lon="5.37507">
        <ele>234.6</ele>
        <time>2012-12-24T13:36:21.000Z</time>
      </trkpt>
      <trkpt lat="47.04197" lon="5.37518">
        <ele>234.8</ele>
        <time>2012-12-24T13:36:27.000Z</time>
      </trkpt>
      <trkpt lat="47.04194" lon="5.37523">
        <ele>230.8</ele>
        <time>2012-12-24T13:36:37.000Z</time>
      </trkpt>
      <trkpt lat="47.04194" lon="5.37523">
        <ele>230.6</ele>
        <time>2012-12-24T13:36:38.000Z</time>
      </trkpt>
      <trkpt lat="47.0419" lon="5.37528">
        <ele>229.9</ele>
        <time>2012-12-24T13:36:42.000Z</time>
      </trkpt>
      <trkpt lat="47.0419" lon="5.37529">
        <ele>229.9</ele>
        <time>2012-12-24T13:36:43.000Z</time>
      </trkpt>
      <trkpt lat="47.04186" lon="5.37533">
        <ele>230</ele>
        <time>2012-12-24T13:36:47.000Z</time>
      </trkpt>
      <trkpt lat="47.04186" lon="5.37534">
        <ele>229.9</ele>
        <time>2012-12-24T13:36:48.000Z</time>
      </trkpt>
      <trkpt lat="47.04183" lon="5.37538">
        <ele>230.1</ele>
        <time>2012-12-24T13:36:52.000Z</time>
      </trkpt>
      <trkpt lat="47.04183" lon="5.37539">
        <ele>230.3</ele>
        <time>2012-12-24T13:36:53.000Z</time>
      </trkpt>
      <trkpt lat="47.04179" lon="5.37543">
        <ele>229.7</ele>
        <time>2012-12-24T13:36:57.000Z</time>
      </trkpt>
      <trkpt lat="47.04178" lon="5.37544">
        <ele>229.6</ele>
        <time>2012-12-24T13:36:58.000Z</time>
      </trkpt>
      <trkpt lat="47.04175" lon="5.37548">
        <ele>229.5</ele>
        <time>2012-12-24T13:37:02.000Z</time>
      </trkpt>
      <trkpt lat="47.04175" lon="5.37548">
        <ele>229.5</ele>
        <time>2012-12-24T13:37:03.000Z</time>
      </trkpt>
      <trkpt lat="47.04172" lon="5.37553">
        <ele>229.8</ele>
        <time>2012-12-24T13:37:07.000Z</time>
      </trkpt>
      <trkpt lat="47.04171" lon="5.37554">
        <ele>229.7</ele>
        <time>2012-12-24T13:37:08.000Z</time>
      </trkpt>
      <trkpt lat="47.04168" lon="5.37558">
        <ele>229.8</ele>
        <time>2012-12-24T13:37:12.000Z</time>
      </trkpt>
      <trkpt lat="47.04167" lon="5.37559">
        <ele>230</ele>
        <time>2012-12-24T13:37:13.000Z</time>
      </trkpt>
      <trkpt lat="47.04165" lon="5.37564">
        <ele>230</ele>
        <time>2012-12-24T13:37:17.000Z</time>
      </trkpt>
      <trkpt lat="47.04164" lon="5.37565">
        <ele>230</ele>
        <time>2012-12-24T13:37:18.000Z</time>
      </trkpt>
      <trkpt lat="47.04162" lon="5.3757">
        <ele>230.3</ele>
        <time>2012-12-24T13:37:22.500Z</time>
      </trkpt>
      <trkpt lat="47.04159" lon="5.37574">
        <ele>236</ele>
        <time>2012-12-24T13:37:26.000Z</time>
      </trkpt>
      <trkpt lat="47.04159" lon="5.37581">
        <ele>235.1</ele>
        <time>2012-12-24T13:37:29.000Z</time>
      </trkpt>
      <trkpt lat="47.04159" lon="5.37583">
        <ele>233.2</ele>
        <time>2012-12-24T13:37:30.000Z</time>
      </trkpt>
      <trkpt lat="47.04155" lon="5.37585">
        <ele>233.2</ele>
        <time>2012-12-24T13:37:33.000Z</time>
      </trkpt>
      <trkpt lat="47.04155" lon="5.37586">
        <ele>233.4</ele>
        <time>2012-12-24T13:37:34.000Z</time>
      </trkpt>
      <trkpt lat="47.04153" lon="5.3759">
        <ele>234.5</ele>
        <time>2012-12-24T13:37:37.000Z</time>
      </trkpt>
      <trkpt lat="47.04153" lon="5.37592">
        <ele>234.8</ele>
        <time>2012-12-24T13:37:38.000Z</time>
      </trkpt>
      <trkpt lat="47.0415" lon="5.37595">
        <ele>235</ele>
        <time>2012-12-24T13:37:41.000Z</time>
      </trkpt>
      <trkpt lat="47.0415" lon="5.37597">
        <ele>235.3</ele>
        <time>2012-12-24T13:37:42.000Z</time>
      </trkpt>
      <trkpt lat="47.04147" lon="5.376">
        <ele>236</ele>
        <time>2012-12-24T13:37:45.000Z</time>
      </trkpt>
      <trkpt lat="47.04147" lon="5.37602">
        <ele>235.7</ele>
        <time>2012-12-24T13:37:46.000Z</time>
      </trkpt>
      <trkpt lat="47.04145" lon="5.37606">
        <ele>236</ele>
        <time>2012-12-24T13:37:49.000Z</time>
      </trkpt>
      <trkpt lat="47.04144" lon="5.37607">
        <ele>236.1</ele>
        <time>2012-12-24T13:37:50.000Z</time>
      </trkpt>
      <trkpt lat="47.04142" lon="5.37612">
        <ele>236.7</ele>
        <time>2012-12-24T13:37:54.000Z</time>
      </trkpt>
      <trkpt lat="47.04141" lon="5.37614">
        <ele>236.4</ele>
        <time>2012-12-24T13:37:55.000Z</time>
      </trkpt>
      <trkpt lat="47.0414" lon="5.37619">
        <ele>235.5</ele>
        <time>2012-12-24T13:38:04.000Z</time>
      </trkpt>
      <trkpt lat="47.0414" lon="5.3762">
        <ele>235.4</ele>
        <time>2012-12-24T13:38:05.000Z</time>
      </trkpt>
      <trkpt lat="47.04138" lon="5.37626">
        <ele>233.6</ele>
        <time>2012-12-24T13:38:11.000Z</time>
      </trkpt>
      <trkpt lat="47.04138" lon="5.37627">
        <ele>233.4</ele>
        <time>2012-12-24T13:38:12.000Z</time>
      </trkpt>
      <trkpt lat="47.04137" lon="5.37633">
        <ele>233.7</ele>
        <time>2012-12-24T13:38:17.000Z</time>
      </trkpt>
      <trkpt lat="47.04136" lon="5.37634">
        <ele>233.7</ele>
        <time>2012-12-24T13:38:18.000Z</time>
      </trkpt>
      <trkpt lat="47.04138" lon="5.37639">
        <ele>234.1</ele>
        <time>2012-12-24T13:38:29.000Z</time>
      </trkpt>
      <trkpt lat="47.04137" lon="5.37641">
        <ele>233.8</ele>
        <time>2012-12-24T13:38:30.000Z</time>
      </trkpt>
      <trkpt lat="47.04136" lon="5.37647">
        <ele>231.5</ele>
        <time>2012-12-24T13:38:35.000Z</time>
      </trkpt>
      <trkpt lat="47.04135" lon="5.37648">
        <ele>231.4</ele>
        <time>2012-12-24T13:38:36.000Z</time>
      </trkpt>
      <trkpt lat="47.04133" lon="5.37653">
        <ele>230.7</ele>
        <time>2012-12-24T13:38:40.000Z</time>
      </trkpt>
      <trkpt lat="47.04133" lon="5.37655">
        <ele>230.7</ele>
        <time>2012-12-24T13:38:41.000Z</time>
      </trkpt>
      <trkpt lat="47.04132" lon="5.3766">
        <ele>231.1</ele>
        <time>2012-12-24T13:38:45.000Z</time>
      </trkpt>
      <trkpt lat="47.04132" lon="5.37661">
        <ele>231.1</ele>
        <time>2012-12-24T13:38:46.000Z</time>
      </trkpt>
      <trkpt lat="47.0413" lon="5.37667">
        <ele>230.7</ele>
        <time>2012-12-24T13:38:52.000Z</time>
      </trkpt>
      <trkpt lat="47.0413" lon="5.37668">
        <ele>230.7</ele>
        <time>2012-12-24T13:38:53.000Z</time>
      </trkpt>
      <trkpt lat="47.0413" lon="5.37674">
        <ele>231.2</ele>
        <time>2012-12-24T13:38:58.000Z</time>
      </trkpt>
      <trkpt lat="47.04129" lon="5.37676">
        <ele>231.6</ele>
        <time>2012-12-24T13:38:59.000Z</time>
      </trkpt>
      <trkpt lat="47.04127" lon="5.3768">
        <ele>232.1</ele>
        <time>2012-12-24T13:39:02.000Z</time>
      </trkpt>
      <trkpt lat="47.04126" lon="5.37681">
        <ele>232.1</ele>
        <time>2012-12-24T13:39:03.000Z</time>
      </trkpt>
      <trkpt lat="47.04124" lon="5.37685">
        <ele>232.5</ele>
        <time>2012-12-24T13:39:06.000Z</time>
      </trkpt>
      <trkpt lat="47.04124" lon="5.37687">
        <ele>232.4</ele>
        <time>2012-12-24T13:39:07.000Z</time>
      </trkpt>
      <trkpt lat="47.04125" lon="5.37693">
        <ele>232.5</ele>
        <time>2012-12-24T13:39:12.000Z</time>
      </trkpt>
      <trkpt lat="47.04125" lon="5.37694">
        <ele>232.6</ele>
        <time>2012-12-24T13:39:13.000Z</time>
      </trkpt>
      <trkpt lat="47.04127" lon="5.37699">
        <ele>233.4</ele>
        <time>2012-12-24T13:39:18.000Z</time>
      </trkpt>
      <trkpt lat="47.04128" lon="5.37701">
        <ele>233.6</ele>
        <time>2012-12-24T13:39:19.000Z</time>
      </trkpt>
      <trkpt lat="47.04129" lon="5.37707">
        <ele>234.5</ele>
        <time>2012-12-24T13:39:24.000Z</time>
      </trkpt>
      <trkpt lat="47.04129" lon="5.37708">
        <ele>234.7</ele>
        <time>2012-12-24T13:39:25.000Z</time>
      </trkpt>
      <trkpt lat="47.04127" lon="5.37713">
        <ele>235.4</ele>
        <time>2012-12-24T13:39:30.000Z</time>
      </trkpt>
      <trkpt lat="47.04126" lon="5.37714">
        <ele>235.3</ele>
        <time>2012-12-24T13:39:31.000Z</time>
      </trkpt>
      <trkpt lat="47.04122" lon="5.37715">
        <ele>234.7</ele>
        <time>2012-12-24T13:39:37.000Z</time>
      </trkpt>
      <trkpt lat="47.04121" lon="5.37715">
        <ele>234.7</ele>
        <time>2012-12-24T13:39:38.000Z</time>
      </trkpt>
      <trkpt lat="47.04119" lon="5.3771">
        <ele>234.4</ele>
        <time>2012-12-24T13:39:43.000Z</time>
      </trkpt>
      <trkpt lat="47.04118" lon="5.37709">
        <ele>234.1</ele>
        <time>2012-12-24T13:39:44.000Z</time>
      </trkpt>
      <trkpt lat="47.04115" lon="5.37706">
        <ele>234.3</ele>
        <time>2012-12-24T13:39:47.000Z</time>
      </trkpt>
      <trkpt lat="47.04114" lon="5.37705">
        <ele>234.2</ele>
        <time>2012-12-24T13:39:48.000Z</time>
      </trkpt>
      <trkpt lat="47.0411" lon="5.37702">
        <ele>234.1</ele>
        <time>2012-12-24T13:39:53.000Z</time>
      </trkpt>
      <trkpt lat="47.0411" lon="5.37701">
        <ele>234.2</ele>
        <time>2012-12-24T13:39:54.000Z</time>
      </trkpt>
      <trkpt lat="47.04107" lon="5.37696">
        <ele>234.9</ele>
        <time>2012-12-24T13:39:59.000Z</time>
      </trkpt>
      <trkpt lat="47.04106" lon="5.37695">
        <ele>235</ele>
        <time>2012-12-24T13:40:00.000Z</time>
      </trkpt>
      <trkpt lat="47.04103" lon="5.37691">
        <ele>235.4</ele>
        <time>2012-12-24T13:40:04.000Z</time>
      </trkpt>
      <trkpt lat="47.04102" lon="5.37691">
        <ele>235.5</ele>
        <time>2012-12-24T13:40:05.000Z</time>
      </trkpt>
      <trkpt lat="47.04099" lon="5.37688">
        <ele>235.1</ele>
        <time>2012-12-24T13:40:09.000Z</time>
      </trkpt>
      <trkpt lat="47.04098" lon="5.37688">
        <ele>235.1</ele>
        <time>2012-12-24T13:40:10.000Z</time>
      </trkpt>
      <trkpt lat="47.04094" lon="5.37684">
        <ele>235.2</ele>
        <time>2012-12-24T13:40:14.000Z</time>
      </trkpt>
      <trkpt lat="47.04093" lon="5.37683">
        <ele>235.2</ele>
        <time>2012-12-24T13:40:15.000Z</time>
      </trkpt>
      <trkpt lat="47.04089" lon="5.37681">
        <ele>235.1</ele>
        <time>2012-12-24T13:40:19.000Z</time>
      </trkpt>
      <trkpt lat="47.04088" lon="5.3768">
        <ele>235.1</ele>
        <time>2012-12-24T13:40:20.000Z</time>
      </trkpt>
      <trkpt lat="47.04084" lon="5.37677">
        <ele>234.9</ele>
        <time>2012-12-24T13:40:24.000Z</time>
      </trkpt>
      <trkpt lat="47.04083" lon="5.37676">
        <ele>234.9</ele>
        <time>2012-12-24T13:40:25.000Z</time>
      </trkpt>
      <trkpt lat="47.04079" lon="5.37673">
        <ele>235</ele>
        <time>2012-12-24T13:40:29.000Z</time>
      </trkpt>
      <trkpt lat="47.04078" lon="5.37673">
        <ele>235</ele>
        <time>2012-12-24T13:40:30.000Z</time>
      </trkpt>
      <trkpt lat="47.04075" lon="5.3767">
        <ele>235.1</ele>
        <time>2012-12-24T13:40:34.000Z</time>
      </trkpt>
      <trkpt lat="47.04074" lon="5.37669">
        <ele>235.1</ele>
        <time>2012-12-24T13:40:35.000Z</time>
      </trkpt>
      <trkpt lat="47.04071" lon="5.37665">
        <ele>235.3</ele>
        <time>2012-12-24T13:40:39.000Z</time>
      </trkpt>
      <trkpt lat="47.0407" lon="5.37664">
        <ele>235.3</ele>
        <time>2012-12-24T13:40:40.000Z</time>
      </trkpt>
      <trkpt lat="47.04067" lon="5.3766">
        <ele>235.7</ele>
        <time>2012-12-24T13:40:44.000Z</time>
      </trkpt>
      <trkpt lat="47.04066" lon="5.37659">
        <ele>235.6</ele>
        <time>2012-12-24T13:40:45.000Z</time>
      </trkpt>
      <trkpt lat="47.04062" lon="5.37657">
        <ele>235.4</ele>
        <time>2012-12-24T13:40:49.000Z</time>
      </trkpt>
      <trkpt lat="47.04061" lon="5.37657">
        <ele>235.4</ele>
        <time>2012-12-24T13:40:50.000Z</time>
      </trkpt>
      <trkpt lat="47.04057" lon="5.37654">
        <ele>234.9</ele>
        <time>2012-12-24T13:40:54.000Z</time>
      </trkpt>
      <trkpt lat="47.04057" lon="5.37653">
        <ele>234.8</ele>
        <time>2012-12-24T13:40:55.000Z</time>
      </trkpt>
      <trkpt lat="47.04054" lon="5.37658">
        <ele>231.4</ele>
        <time>2012-12-24T13:41:02.000Z</time>
      </trkpt>
      <trkpt lat="47.04054" lon="5.3766">
        <ele>231.2</ele>
        <time>2012-12-24T13:41:03.000Z</time>
      </trkpt>
      <trkpt lat="47.04053" lon="5.37664">
        <ele>231</ele>
        <time>2012-12-24T13:41:06.000Z</time>
      </trkpt>
      <trkpt lat="47.04052" lon="5.37666">
        <ele>230.9</ele>
        <time>2012-12-24T13:41:07.000Z</time>
      </trkpt>
      <trkpt lat="47.0405" lon="5.3767">
        <ele>230.9</ele>
        <time>2012-12-24T13:41:09.000Z</time>
      </trkpt>
      <trkpt lat="47.0405" lon="5.37672">
        <ele>230.9</ele>
        <time>2012-12-24T13:41:10.000Z</time>
      </trkpt>
      <trkpt lat="47.04047" lon="5.37676">
        <ele>230.1</ele>
        <time>2012-12-24T13:41:14.000Z</time>
      </trkpt>
      <trkpt lat="47.04046" lon="5.37677">
        <ele>230</ele>
        <time>2012-12-24T13:41:15.000Z</time>
      </trkpt>
      <trkpt lat="47.04043" lon="5.37681">
        <ele>229.2</ele>
        <time>2012-12-24T13:41:19.000Z</time>
      </trkpt>
      <trkpt lat="47.04043" lon="5.37682">
        <ele>229.2</ele>
        <time>2012-12-24T13:41:20.000Z</time>
      </trkpt>
      <trkpt lat="47.0404" lon="5.37686">
        <ele>229</ele>
        <time>2012-12-24T13:41:24.000Z</time>
      </trkpt>
      <trkpt lat="47.0404" lon="5.37687">
        <ele>229</ele>
        <time>2012-12-24T13:41:25.000Z</time>
      </trkpt>
      <trkpt lat="47.04038" lon="5.37692">
        <ele>228.6</ele>
        <time>2012-12-24T13:41:31.000Z</time>
      </trkpt>
      <trkpt lat="47.04038" lon="5.37693">
        <ele>228.6</ele>
        <time>2012-12-24T13:41:32.000Z</time>
      </trkpt>
      <trkpt lat="47.04036" lon="5.37699">
        <ele>228.4</ele>
        <time>2012-12-24T13:41:36.000Z</time>
      </trkpt>
      <trkpt lat="47.04036" lon="5.377">
        <ele>228.6</ele>
        <time>2012-12-24T13:41:37.000Z</time>
      </trkpt>
      <trkpt lat="47.04033" lon="5.37704">
        <ele>228.8</ele>
        <time>2012-12-24T13:41:40.000Z</time>
      </trkpt>
      <trkpt lat="47.04033" lon="5.37705">
        <ele>228.7</ele>
        <time>2012-12-24T13:41:41.000Z</time>
      </trkpt>
      <trkpt lat="47.0403" lon="5.37709">
        <ele>228.7</ele>
        <time>2012-12-24T13:41:44.000Z</time>
      </trkpt>
      <trkpt lat="47.0403" lon="5.37711">
        <ele>228.6</ele>
        <time>2012-12-24T13:41:45.000Z</time>
      </trkpt>
      <trkpt lat="47.04027" lon="5.37715">
        <ele>228.7</ele>
        <time>2012-12-24T13:41:48.000Z</time>
      </trkpt>
      <trkpt lat="47.04027" lon="5.37716">
        <ele>228.8</ele>
        <time>2012-12-24T13:41:49.000Z</time>
      </trkpt>
      <trkpt lat="47.04025" lon="5.3772">
        <ele>229</ele>
        <time>2012-12-24T13:41:52.000Z</time>
      </trkpt>
      <trkpt lat="47.04024" lon="5.37722">
        <ele>229.3</ele>
        <time>2012-12-24T13:41:53.000Z</time>
      </trkpt>
      <trkpt lat="47.04022" lon="5.37727">
        <ele>229.8</ele>
        <time>2012-12-24T13:41:59.000Z</time>
      </trkpt>
      <trkpt lat="47.04022" lon="5.37728">
        <ele>229.8</ele>
        <time>2012-12-24T13:42:00.000Z</time>
      </trkpt>
      <trkpt lat="47.04019" lon="5.37731">
        <ele>229.8</ele>
        <time>2012-12-24T13:42:05.000Z</time>
      </trkpt>
      <trkpt lat="47.04018" lon="5.37732">
        <ele>230</ele>
        <time>2012-12-24T13:42:06.000Z</time>
      </trkpt>
      <trkpt lat="47.04016" lon="5.37736">
        <ele>230</ele>
        <time>2012-12-24T13:42:09.000Z</time>
      </trkpt>
      <trkpt lat="47.04015" lon="5.37737">
        <ele>230</ele>
        <time>2012-12-24T13:42:10.000Z</time>
      </trkpt>
      <trkpt lat="47.04012" lon="5.37742">
        <ele>230.6</ele>
        <time>2012-12-24T13:42:20.000Z</time>
      </trkpt>
      <trkpt lat="47.0401" lon="5.37733">
        <ele>222.5</ele>
        <time>2012-12-24T13:42:25.000Z</time>
      </trkpt>
      <trkpt lat="47.0401" lon="5.37744">
        <ele>230.7</ele>
        <time>2012-12-24T13:42:27.000Z</time>
      </trkpt>
      <trkpt lat="47.04008" lon="5.37749">
        <ele>232.4</ele>
        <time>2012-12-24T13:42:30.000Z</time>
      </trkpt>
      <trkpt lat="47.04007" lon="5.37751">
        <ele>232.6</ele>
        <time>2012-12-24T13:42:31.000Z</time>
      </trkpt>
      <trkpt lat="47.04005" lon="5.37756">
        <ele>232.5</ele>
        <time>2012-12-24T13:42:35.000Z</time>
      </trkpt>
      <trkpt lat="47.04004" lon="5.37757">
        <ele>232.4</ele>
        <time>2012-12-24T13:42:36.000Z</time>
      </trkpt>
      <trkpt lat="47.04002" lon="5.37761">
        <ele>231.9</ele>
        <time>2012-12-24T13:42:40.000Z</time>
      </trkpt>
      <trkpt lat="47.04001" lon="5.37763">
        <ele>232</ele>
        <time>2012-12-24T13:42:41.000Z</time>
      </trkpt>
      <trkpt lat="47.04" lon="5.37769">
        <ele>231.4</ele>
        <time>2012-12-24T13:42:46.000Z</time>
      </trkpt>
      <trkpt lat="47.03999" lon="5.3777">
        <ele>231.4</ele>
        <time>2012-12-24T13:42:47.000Z</time>
      </trkpt>
      <trkpt lat="47.03996" lon="5.37774">
        <ele>230.9</ele>
        <time>2012-12-24T13:42:51.000Z</time>
      </trkpt>
      <trkpt lat="47.03995" lon="5.37776">
        <ele>230.8</ele>
        <time>2012-12-24T13:42:52.000Z</time>
      </trkpt>
      <trkpt lat="47.03993" lon="5.37781">
        <ele>230.1</ele>
        <time>2012-12-24T13:43:02.000Z</time>
      </trkpt>
      <trkpt lat="47.03993" lon="5.37782">
        <ele>230</ele>
        <time>2012-12-24T13:43:03.000Z</time>
      </trkpt>
      <trkpt lat="47.0399" lon="5.37787">
        <ele>229.9</ele>
        <time>2012-12-24T13:43:06.000Z</time>
      </trkpt>
      <trkpt lat="47.0399" lon="5.37788">
        <ele>230</ele>
        <time>2012-12-24T13:43:07.000Z</time>
      </trkpt>
      <trkpt lat="47.03987" lon="5.37793">
        <ele>230.2</ele>
        <time>2012-12-24T13:43:10.000Z</time>
      </trkpt>
      <trkpt lat="47.03987" lon="5.37794">
        <ele>230.2</ele>
        <time>2012-12-24T13:43:11.000Z</time>
      </trkpt>
      <trkpt lat="47.03985" lon="5.378">
        <ele>230.9</ele>
        <time>2012-12-24T13:43:15.000Z</time>
      </trkpt>
      <trkpt lat="47.03985" lon="5.37801">
        <ele>231.2</ele>
        <time>2012-12-24T13:43:16.000Z</time>
      </trkpt>
      <trkpt lat="47.03986" lon="5.37802">
        <ele>227.9</ele>
        <time>2012-12-24T13:43:28.000Z</time>
      </trkpt>
      <trkpt lat="47.03978" lon="5.3781">
        <ele>230.5</ele>
        <time>2012-12-24T13:43:29.000Z</time>
      </trkpt>
      <trkpt lat="47.03975" lon="5.37815">
        <ele>230.4</ele>
        <time>2012-12-24T13:43:33.000Z</time>
      </trkpt>
      <trkpt lat="47.03974" lon="5.37816">
        <ele>230.3</ele>
        <time>2012-12-24T13:43:34.000Z</time>
      </trkpt>
      <trkpt lat="47.03972" lon="5.3782">
        <ele>230.9</ele>
        <time>2012-12-24T13:43:37.000Z</time>
      </trkpt>
      <trkpt lat="47.03972" lon="5.37821">
        <ele>231.1</ele>
        <time>2012-12-24T13:43:38.000Z</time>
      </trkpt>
      <trkpt lat="47.0397" lon="5.37827">
        <ele>231.2</ele>
        <time>2012-12-24T13:43:55.000Z</time>
      </trkpt>
      <trkpt lat="47.0397" lon="5.37828">
        <ele>230.5</ele>
        <time>2012-12-24T13:43:56.000Z</time>
      </trkpt>
      <trkpt lat="47.03967" lon="5.37832">
        <ele>230.5</ele>
        <time>2012-12-24T13:44:01.000Z</time>
      </trkpt>
      <trkpt lat="47.03966" lon="5.37833">
        <ele>230.6</ele>
        <time>2012-12-24T13:44:02.000Z</time>
      </trkpt>
      <trkpt lat="47.03964" lon="5.37837">
        <ele>230.5</ele>
        <time>2012-12-24T13:44:05.000Z</time>
      </trkpt>
      <trkpt lat="47.03964" lon="5.37838">
        <ele>230.6</ele>
        <time>2012-12-24T13:44:06.000Z</time>
      </trkpt>
      <trkpt lat="47.03962" lon="5.37842">
        <ele>230.8</ele>
        <time>2012-12-24T13:44:09.000Z</time>
      </trkpt>
      <trkpt lat="47.03961" lon="5.37844">
        <ele>231</ele>
        <time>2012-12-24T13:44:10.000Z</time>
      </trkpt>
      <trkpt lat="47.03958" lon="5.37849">
        <ele>231.4</ele>
        <time>2012-12-24T13:44:14.000Z</time>
      </trkpt>
      <trkpt lat="47.03958" lon="5.3785">
        <ele>231.6</ele>
        <time>2012-12-24T13:44:15.000Z</time>
      </trkpt>
      <trkpt lat="47.03956" lon="5.37856">
        <ele>231.8</ele>
        <time>2012-12-24T13:44:19.000Z</time>
      </trkpt>
      <trkpt lat="47.03955" lon="5.37857">
        <ele>231.8</ele>
        <time>2012-12-24T13:44:20.000Z</time>
      </trkpt>
      <trkpt lat="47.03953" lon="5.37863">
        <ele>233.4</ele>
        <time>2012-12-24T13:44:28.000Z</time>
      </trkpt>
      <trkpt lat="47.03951" lon="5.37866">
        <ele>234</ele>
        <time>2012-12-24T13:44:29.000Z</time>
      </trkpt>
      <trkpt lat="47.03948" lon="5.37871">
        <ele>234</ele>
        <time>2012-12-24T13:44:32.000Z</time>
      </trkpt>
      <trkpt lat="47.03948" lon="5.37872">
        <ele>234.2</ele>
        <time>2012-12-24T13:44:33.000Z</time>
      </trkpt>
      <trkpt lat="47.03945" lon="5.37877">
        <ele>234</ele>
        <time>2012-12-24T13:44:37.000Z</time>
      </trkpt>
      <trkpt lat="47.03944" lon="5.37878">
        <ele>233.8</ele>
        <time>2012-12-24T13:44:38.000Z</time>
      </trkpt>
      <trkpt lat="47.03941" lon="5.37884">
        <ele>233.7</ele>
        <time>2012-12-24T13:44:42.000Z</time>
      </trkpt>
      <trkpt lat="47.03941" lon="5.37885">
        <ele>233.4</ele>
        <time>2012-12-24T13:44:43.000Z</time>
      </trkpt>
      <trkpt lat="47.03939" lon="5.3789">
        <ele>233.1</ele>
        <time>2012-12-24T13:44:46.000Z</time>
      </trkpt>
      <trkpt lat="47.03938" lon="5.37891">
        <ele>233</ele>
        <time>2012-12-24T13:44:47.000Z</time>
      </trkpt>
      <trkpt lat="47.03936" lon="5.37895">
        <ele>231.9</ele>
        <time>2012-12-24T13:44:58.000Z</time>
      </trkpt>
      <trkpt lat="47.03935" lon="5.37896">
        <ele>231.8</ele>
        <time>2012-12-24T13:44:59.000Z</time>
      </trkpt>
      <trkpt lat="47.03932" lon="5.379">
        <ele>231.7</ele>
        <time>2012-12-24T13:45:03.000Z</time>
      </trkpt>
      <trkpt lat="47.03931" lon="5.37901">
        <ele>231.6</ele>
        <time>2012-12-24T13:45:04.000Z</time>
      </trkpt>
      <trkpt lat="47.03929" lon="5.37906">
        <ele>231.6</ele>
        <time>2012-12-24T13:45:07.000Z</time>
      </trkpt>
      <trkpt lat="47.03929" lon="5.37907">
        <ele>231.5</ele>
        <time>2012-12-24T13:45:08.000Z</time>
      </trkpt>
      <trkpt lat="47.03927" lon="5.37913">
        <ele>231.2</ele>
        <time>2012-12-24T13:45:12.000Z</time>
      </trkpt>
      <trkpt lat="47.03927" lon="5.37914">
        <ele>231.2</ele>
        <time>2012-12-24T13:45:13.000Z</time>
      </trkpt>
      <trkpt lat="47.03924" lon="5.37918">
        <ele>231.1</ele>
        <time>2012-12-24T13:45:16.000Z</time>
      </trkpt>
      <trkpt lat="47.03923" lon="5.37919">
        <ele>231.1</ele>
        <time>2012-12-24T13:45:17.000Z</time>
      </trkpt>
      <trkpt lat="47.03922" lon="5.37924">
        <ele>231.1</ele>
        <time>2012-12-24T13:45:20.000Z</time>
      </trkpt>
      <trkpt lat="47.03921" lon="5.37925">
        <ele>231.3</ele>
        <time>2012-12-24T13:45:21.000Z</time>
      </trkpt>
      <trkpt lat="47.03919" lon="5.37929">
        <ele>231.3</ele>
        <time>2012-12-24T13:45:24.000Z</time>
      </trkpt>
      <trkpt lat="47.03918" lon="5.37931">
        <ele>231.4</ele>
        <time>2012-12-24T13:45:25.000Z</time>
      </trkpt>
      <trkpt lat="47.03916" lon="5.37935">
        <ele>231.6</ele>
        <time>2012-12-24T13:45:28.000Z</time>
      </trkpt>
      <trkpt lat="47.03915" lon="5.37936">
        <ele>231.7</ele>
        <time>2012-12-24T13:45:29.000Z</time>
      </trkpt>
      <trkpt lat="47.03913" lon="5.37941">
        <ele>231.9</ele>
        <time>2012-12-24T13:45:33.000Z</time>
      </trkpt>
      <trkpt lat="47.03912" lon="5.37942">
        <ele>232</ele>
        <time>2012-12-24T13:45:34.000Z</time>
      </trkpt>
      <trkpt lat="47.0391" lon="5.37948">
        <ele>232.3</ele>
        <time>2012-12-24T13:45:38.000Z</time>
      </trkpt>
      <trkpt lat="47.03909" lon="5.37949">
        <ele>232.4</ele>
        <time>2012-12-24T13:45:39.000Z</time>
      </trkpt>
      <trkpt lat="47.03908" lon="5.37955">
        <ele>232.8</ele>
        <time>2012-12-24T13:45:45.000Z</time>
      </trkpt>
      <trkpt lat="47.03907" lon="5.37956">
        <ele>232.6</ele>
        <time>2012-12-24T13:45:46.000Z</time>
      </trkpt>
      <trkpt lat="47.03905" lon="5.3796">
        <ele>232.3</ele>
        <time>2012-12-24T13:45:50.000Z</time>
      </trkpt>
      <trkpt lat="47.03904" lon="5.37961">
        <ele>232.1</ele>
        <time>2012-12-24T13:45:51.000Z</time>
      </trkpt>
      <trkpt lat="47.03902" lon="5.37965">
        <ele>231.7</ele>
        <time>2012-12-24T13:45:54.000Z</time>
      </trkpt>
      <trkpt lat="47.03901" lon="5.37966">
        <ele>231.7</ele>
        <time>2012-12-24T13:45:55.000Z</time>
      </trkpt>
      <trkpt lat="47.03899" lon="5.3797">
        <ele>231.2</ele>
        <time>2012-12-24T13:45:59.000Z</time>
      </trkpt>
      <trkpt lat="47.03898" lon="5.37972">
        <ele>231.1</ele>
        <time>2012-12-24T13:46:00.000Z</time>
      </trkpt>
      <trkpt lat="47.03896" lon="5.37976">
        <ele>231</ele>
        <time>2012-12-24T13:46:03.000Z</time>
      </trkpt>
      <trkpt lat="47.03895" lon="5.37978">
        <ele>231</ele>
        <time>2012-12-24T13:46:04.000Z</time>
      </trkpt>
      <trkpt lat="47.03894" lon="5.37983">
        <ele>231</ele>
        <time>2012-12-24T13:46:08.000Z</time>
      </trkpt>
      <trkpt lat="47.03893" lon="5.37985">
        <ele>231</ele>
        <time>2012-12-24T13:46:09.000Z</time>
      </trkpt>
      <trkpt lat="47.03891" lon="5.37989">
        <ele>231.2</ele>
        <time>2012-12-24T13:46:12.000Z</time>
      </trkpt>
      <trkpt lat="47.03891" lon="5.3799">
        <ele>231.2</ele>
        <time>2012-12-24T13:46:13.000Z</time>
      </trkpt>
      <trkpt lat="47.03888" lon="5.37995">
        <ele>231.4</ele>
        <time>2012-12-24T13:46:17.000Z</time>
      </trkpt>
      <trkpt lat="47.03887" lon="5.37996">
        <ele>231.5</ele>
        <time>2012-12-24T13:46:18.000Z</time>
      </trkpt>
      <trkpt lat="47.03884" lon="5.38001">
        <ele>231.5</ele>
        <time>2012-12-24T13:46:22.000Z</time>
      </trkpt>
      <trkpt lat="47.03884" lon="5.38002">
        <ele>231.5</ele>
        <time>2012-12-24T13:46:23.000Z</time>
      </trkpt>
      <trkpt lat="47.03882" lon="5.38007">
        <ele>231.5</ele>
        <time>2012-12-24T13:46:27.000Z</time>
      </trkpt>
      <trkpt lat="47.03882" lon="5.38008">
        <ele>231.5</ele>
        <time>2012-12-24T13:46:28.000Z</time>
      </trkpt>
      <trkpt lat="47.0388" lon="5.38013">
        <ele>231.7</ele>
        <time>2012-12-24T13:46:32.000Z</time>
      </trkpt>
      <trkpt lat="47.03879" lon="5.38014">
        <ele>231.8</ele>
        <time>2012-12-24T13:46:33.000Z</time>
      </trkpt>
      <trkpt lat="47.03877" lon="5.38019">
        <ele>231.9</ele>
        <time>2012-12-24T13:46:37.000Z</time>
      </trkpt>
      <trkpt lat="47.03877" lon="5.3802">
        <ele>232</ele>
        <time>2012-12-24T13:46:38.000Z</time>
      </trkpt>
      <trkpt lat="47.03875" lon="5.38025">
        <ele>232</ele>
        <time>2012-12-24T13:46:42.000Z</time>
      </trkpt>
      <trkpt lat="47.03874" lon="5.38027">
        <ele>232</ele>
        <time>2012-12-24T13:46:43.000Z</time>
      </trkpt>
      <trkpt lat="47.03872" lon="5.38032">
        <ele>232.1</ele>
        <time>2012-12-24T13:46:47.000Z</time>
      </trkpt>
      <trkpt lat="47.03871" lon="5.38033">
        <ele>232.1</ele>
        <time>2012-12-24T13:46:48.000Z</time>
      </trkpt>
      <trkpt lat="47.03868" lon="5.38037">
        <ele>232.1</ele>
        <time>2012-12-24T13:46:52.000Z</time>
      </trkpt>
      <trkpt lat="47.03868" lon="5.38039">
        <ele>232.1</ele>
        <time>2012-12-24T13:46:53.000Z</time>
      </trkpt>
      <trkpt lat="47.03866" lon="5.38044">
        <ele>232.2</ele>
        <time>2012-12-24T13:46:57.000Z</time>
      </trkpt>
      <trkpt lat="47.03865" lon="5.38045">
        <ele>232.2</ele>
        <time>2012-12-24T13:46:58.000Z</time>
      </trkpt>
      <trkpt lat="47.03863" lon="5.38051">
        <ele>232.4</ele>
        <time>2012-12-24T13:47:02.000Z</time>
      </trkpt>
      <trkpt lat="47.03862" lon="5.38052">
        <ele>232.5</ele>
        <time>2012-12-24T13:47:03.000Z</time>
      </trkpt>
      <trkpt lat="47.0386" lon="5.38056">
        <ele>232.6</ele>
        <time>2012-12-24T13:47:06.000Z</time>
      </trkpt>
      <trkpt lat="47.0386" lon="5.38058">
        <ele>232.7</ele>
        <time>2012-12-24T13:47:07.000Z</time>
      </trkpt>
      <trkpt lat="47.03857" lon="5.38063">
        <ele>232.8</ele>
        <time>2012-12-24T13:47:11.000Z</time>
      </trkpt>
      <trkpt lat="47.03857" lon="5.38064">
        <ele>232.9</ele>
        <time>2012-12-24T13:47:12.000Z</time>
      </trkpt>
      <trkpt lat="47.03855" lon="5.38069">
        <ele>233</ele>
        <time>2012-12-24T13:47:15.000Z</time>
      </trkpt>
      <trkpt lat="47.03854" lon="5.3807">
        <ele>233</ele>
        <time>2012-12-24T13:47:16.000Z</time>
      </trkpt>
      <trkpt lat="47.03852" lon="5.38075">
        <ele>233</ele>
        <time>2012-12-24T13:47:20.000Z</time>
      </trkpt>
      <trkpt lat="47.03852" lon="5.38076">
        <ele>233.1</ele>
        <time>2012-12-24T13:47:21.000Z</time>
      </trkpt>
      <trkpt lat="47.03851" lon="5.38079">
        <ele>246.5</ele>
        <time>2012-12-24T13:47:28.000Z</time>
      </trkpt>
      <trkpt lat="47.03846" lon="5.38086">
        <ele>229.4</ele>
        <time>2012-12-24T13:47:29.000Z</time>
      </trkpt>
      <trkpt lat="47.03844" lon="5.38091">
        <ele>229.7</ele>
        <time>2012-12-24T13:47:35.000Z</time>
      </trkpt>
      <trkpt lat="47.03843" lon="5.38092">
        <ele>229.6</ele>
        <time>2012-12-24T13:47:36.000Z</time>
      </trkpt>
      <trkpt lat="47.03841" lon="5.38096">
        <ele>230.1</ele>
        <time>2012-12-24T13:47:39.000Z</time>
      </trkpt>
      <trkpt lat="47.03841" lon="5.38098">
        <ele>230.2</ele>
        <time>2012-12-24T13:47:40.000Z</time>
      </trkpt>
      <trkpt lat="47.03839" lon="5.38102">
        <ele>230.7</ele>
        <time>2012-12-24T13:47:43.000Z</time>
      </trkpt>
      <trkpt lat="47.03838" lon="5.38104">
        <ele>230.7</ele>
        <time>2012-12-24T13:47:44.000Z</time>
      </trkpt>
      <trkpt lat="47.03836" lon="5.38109">
        <ele>230.4</ele>
        <time>2012-12-24T13:47:48.000Z</time>
      </trkpt>
      <trkpt lat="47.03835" lon="5.3811">
        <ele>230.2</ele>
        <time>2012-12-24T13:47:49.000Z</time>
      </trkpt>
      <trkpt lat="47.03833" lon="5.38115">
        <ele>230.5</ele>
        <time>2012-12-24T13:47:52.000Z</time>
      </trkpt>
      <trkpt lat="47.03833" lon="5.38116">
        <ele>230.7</ele>
        <time>2012-12-24T13:47:53.000Z</time>
      </trkpt>
      <trkpt lat="47.03831" lon="5.38121">
        <ele>230.9</ele>
        <time>2012-12-24T13:47:57.000Z</time>
      </trkpt>
      <trkpt lat="47.0383" lon="5.38123">
        <ele>231</ele>
        <time>2012-12-24T13:47:58.000Z</time>
      </trkpt>
      <trkpt lat="47.03828" lon="5.38127">
        <ele>231.3</ele>
        <time>2012-12-24T13:48:01.000Z</time>
      </trkpt>
      <trkpt lat="47.03827" lon="5.38129">
        <ele>231.4</ele>
        <time>2012-12-24T13:48:02.000Z</time>
      </trkpt>
      <trkpt lat="47.03826" lon="5.38133">
        <ele>231.9</ele>
        <time>2012-12-24T13:48:05.000Z</time>
      </trkpt>
      <trkpt lat="47.03825" lon="5.38135">
        <ele>231.9</ele>
        <time>2012-12-24T13:48:06.000Z</time>
      </trkpt>
      <trkpt lat="47.03823" lon="5.3814">
        <ele>231.8</ele>
        <time>2012-12-24T13:48:10.000Z</time>
      </trkpt>
      <trkpt lat="47.03823" lon="5.38142">
        <ele>231.7</ele>
        <time>2012-12-24T13:48:11.000Z</time>
      </trkpt>
      <trkpt lat="47.03821" lon="5.38147">
        <ele>231.3</ele>
        <time>2012-12-24T13:48:15.000Z</time>
      </trkpt>
      <trkpt lat="47.0382" lon="5.38149">
        <ele>231.3</ele>
        <time>2012-12-24T13:48:16.000Z</time>
      </trkpt>
      <trkpt lat="47.03819" lon="5.38154">
        <ele>231.1</ele>
        <time>2012-12-24T13:48:19.000Z</time>
      </trkpt>
      <trkpt lat="47.03819" lon="5.38155">
        <ele>231.1</ele>
        <time>2012-12-24T13:48:20.000Z</time>
      </trkpt>
      <trkpt lat="47.03817" lon="5.38161">
        <ele>230.9</ele>
        <time>2012-12-24T13:48:24.000Z</time>
      </trkpt>
      <trkpt lat="47.03816" lon="5.38162">
        <ele>230.8</ele>
        <time>2012-12-24T13:48:25.000Z</time>
      </trkpt>
      <trkpt lat="47.03816" lon="5.38167">
        <ele>231</ele>
        <time>2012-12-24T13:48:28.000Z</time>
      </trkpt>
      <trkpt lat="47.03815" lon="5.38169">
        <ele>231</ele>
        <time>2012-12-24T13:48:29.000Z</time>
      </trkpt>
      <trkpt lat="47.03814" lon="5.38173">
        <ele>231</ele>
        <time>2012-12-24T13:48:32.000Z</time>
      </trkpt>
      <trkpt lat="47.03814" lon="5.38175">
        <ele>231.2</ele>
        <time>2012-12-24T13:48:33.000Z</time>
      </trkpt>
      <trkpt lat="47.03813" lon="5.38181">
        <ele>231.3</ele>
        <time>2012-12-24T13:48:37.000Z</time>
      </trkpt>
      <trkpt lat="47.03813" lon="5.38182">
        <ele>231.3</ele>
        <time>2012-12-24T13:48:38.000Z</time>
      </trkpt>
      <trkpt lat="47.03812" lon="5.38188">
        <ele>231.4</ele>
        <time>2012-12-24T13:48:42.000Z</time>
      </trkpt>
      <trkpt lat="47.03812" lon="5.3819">
        <ele>231.4</ele>
        <time>2012-12-24T13:48:43.000Z</time>
      </trkpt>
      <trkpt lat="47.03812" lon="5.38195">
        <ele>231.4</ele>
        <time>2012-12-24T13:48:46.000Z</time>
      </trkpt>
      <trkpt lat="47.03812" lon="5.38196">
        <ele>231.6</ele>
        <time>2012-12-24T13:48:47.000Z</time>
      </trkpt>
      <trkpt lat="47.03811" lon="5.38201">
        <ele>231.7</ele>
        <time>2012-12-24T13:48:50.000Z</time>
      </trkpt>
      <trkpt lat="47.03811" lon="5.38203">
        <ele>231.7</ele>
        <time>2012-12-24T13:48:51.000Z</time>
      </trkpt>
      <trkpt lat="47.03811" lon="5.38208">
        <ele>231.6</ele>
        <time>2012-12-24T13:48:54.000Z</time>
      </trkpt>
      <trkpt lat="47.03811" lon="5.3821">
        <ele>231.7</ele>
        <time>2012-12-24T13:48:55.000Z</time>
      </trkpt>
      <trkpt lat="47.03811" lon="5.38215">
        <ele>231.5</ele>
        <time>2012-12-24T13:48:58.000Z</time>
      </trkpt>
      <trkpt lat="47.03811" lon="5.38216">
        <ele>231.4</ele>
        <time>2012-12-24T13:48:59.000Z</time>
      </trkpt>
      <trkpt lat="47.0381" lon="5.38223">
        <ele>231.2</ele>
        <time>2012-12-24T13:49:03.000Z</time>
      </trkpt>
      <trkpt lat="47.0381" lon="5.38224">
        <ele>231.1</ele>
        <time>2012-12-24T13:49:04.000Z</time>
      </trkpt>
      <trkpt lat="47.0381" lon="5.38231">
        <ele>230.8</ele>
        <time>2012-12-24T13:49:08.000Z</time>
      </trkpt>
      <trkpt lat="47.0381" lon="5.38232">
        <ele>230.7</ele>
        <time>2012-12-24T13:49:09.000Z</time>
      </trkpt>
      <trkpt lat="47.0381" lon="5.38239">
        <ele>230.8</ele>
        <time>2012-12-24T13:49:17.000Z</time>
      </trkpt>
      <trkpt lat="47.0381" lon="5.3824">
        <ele>230.8</ele>
        <time>2012-12-24T13:49:18.000Z</time>
      </trkpt>
      <trkpt lat="47.0381" lon="5.38245">
        <ele>230.8</ele>
        <time>2012-12-24T13:49:21.000Z</time>
      </trkpt>
      <trkpt lat="47.03809" lon="5.38252">
        <ele>229.7</ele>
        <time>2012-12-24T13:49:26.000Z</time>
      </trkpt>
      <trkpt lat="47.03812" lon="5.38251">
        <ele>230.9</ele>
        <time>2012-12-24T13:49:27.000Z</time>
      </trkpt>
      <trkpt lat="47.03813" lon="5.38256">
        <ele>230.7</ele>
        <time>2012-12-24T13:49:29.000Z</time>
      </trkpt>
      <trkpt lat="47.03811" lon="5.38261">
        <ele>230.8</ele>
        <time>2012-12-24T13:49:33.000Z</time>
      </trkpt>
      <trkpt lat="47.0381" lon="5.38263">
        <ele>230.6</ele>
        <time>2012-12-24T13:49:34.000Z</time>
      </trkpt>
      <trkpt lat="47.0381" lon="5.38268">
        <ele>230.5</ele>
        <time>2012-12-24T13:49:37.000Z</time>
      </trkpt>
      <trkpt lat="47.0381" lon="5.3827">
        <ele>230.4</ele>
        <time>2012-12-24T13:49:38.000Z</time>
      </trkpt>
      <trkpt lat="47.03809" lon="5.38275">
        <ele>229.9</ele>
        <time>2012-12-24T13:49:41.000Z</time>
      </trkpt>
      <trkpt lat="47.03809" lon="5.38277">
        <ele>230.1</ele>
        <time>2012-12-24T13:49:42.000Z</time>
      </trkpt>
      <trkpt lat="47.03809" lon="5.38283">
        <ele>230.2</ele>
        <time>2012-12-24T13:49:45.000Z</time>
      </trkpt>
      <trkpt lat="47.03809" lon="5.38285">
        <ele>230.2</ele>
        <time>2012-12-24T13:49:46.000Z</time>
      </trkpt>
      <trkpt lat="47.03808" lon="5.3829">
        <ele>230.6</ele>
        <time>2012-12-24T13:49:49.000Z</time>
      </trkpt>
      <trkpt lat="47.03808" lon="5.38292">
        <ele>230.7</ele>
        <time>2012-12-24T13:49:50.000Z</time>
      </trkpt>
      <trkpt lat="47.03808" lon="5.38298">
        <ele>230.3</ele>
        <time>2012-12-24T13:49:54.000Z</time>
      </trkpt>
      <trkpt lat="47.03808" lon="5.383">
        <ele>230.4</ele>
        <time>2012-12-24T13:49:55.000Z</time>
      </trkpt>
      <trkpt lat="47.03808" lon="5.38305">
        <ele>230.6</ele>
        <time>2012-12-24T13:49:58.000Z</time>
      </trkpt>
      <trkpt lat="47.03808" lon="5.38307">
        <ele>230.8</ele>
        <time>2012-12-24T13:49:59.000Z</time>
      </trkpt>
      <trkpt lat="47.03807" lon="5.38312">
        <ele>231</ele>
        <time>2012-12-24T13:50:02.000Z</time>
      </trkpt>
      <trkpt lat="47.03807" lon="5.38314">
        <ele>230.9</ele>
        <time>2012-12-24T13:50:03.000Z</time>
      </trkpt>
      <trkpt lat="47.03807" lon="5.38319">
        <ele>231.1</ele>
        <time>2012-12-24T13:50:06.000Z</time>
      </trkpt>
      <trkpt lat="47.03807" lon="5.38321">
        <ele>231</ele>
        <time>2012-12-24T13:50:07.000Z</time>
      </trkpt>
      <trkpt lat="47.03807" lon="5.38326">
        <ele>231.1</ele>
        <time>2012-12-24T13:50:10.000Z</time>
      </trkpt>
      <trkpt lat="47.03806" lon="5.38327">
        <ele>231.1</ele>
        <time>2012-12-24T13:50:11.000Z</time>
      </trkpt>
      <trkpt lat="47.03806" lon="5.38332">
        <ele>229.7</ele>
        <time>2012-12-24T13:50:17.000Z</time>
      </trkpt>
      <trkpt lat="47.03806" lon="5.38334">
        <ele>229.7</ele>
        <time>2012-12-24T13:50:18.000Z</time>
      </trkpt>
      <trkpt lat="47.03806" lon="5.38339">
        <ele>229.6</ele>
        <time>2012-12-24T13:50:21.000Z</time>
      </trkpt>
      <trkpt lat="47.03806" lon="5.38341">
        <ele>229.6</ele>
        <time>2012-12-24T13:50:25.000Z</time>
      </trkpt>
      <trkpt lat="47.03806" lon="5.38347">
        <ele>231.2</ele>
        <time>2012-12-24T13:50:26.000Z</time>
      </trkpt>
      <trkpt lat="47.03804" lon="5.38349">
        <ele>229</ele>
        <time>2012-12-24T13:50:29.000Z</time>
      </trkpt>
      <trkpt lat="47.03804" lon="5.38355">
        <ele>228.2</ele>
        <time>2012-12-24T13:50:32.000Z</time>
      </trkpt>
      <trkpt lat="47.03804" lon="5.38356">
        <ele>228</ele>
        <time>2012-12-24T13:50:33.000Z</time>
      </trkpt>
      <trkpt lat="47.03803" lon="5.38361">
        <ele>227.7</ele>
        <time>2012-12-24T13:50:36.000Z</time>
      </trkpt>
      <trkpt lat="47.03803" lon="5.38363">
        <ele>227.9</ele>
        <time>2012-12-24T13:50:37.000Z</time>
      </trkpt>
      <trkpt lat="47.03802" lon="5.38369">
        <ele>227.8</ele>
        <time>2012-12-24T13:50:41.000Z</time>
      </trkpt>
      <trkpt lat="47.03802" lon="5.38371">
        <ele>227.6</ele>
        <time>2012-12-24T13:50:42.000Z</time>
      </trkpt>
      <trkpt lat="47.038" lon="5.38376">
        <ele>227.1</ele>
        <time>2012-12-24T13:50:46.000Z</time>
      </trkpt>
      <trkpt lat="47.038" lon="5.38377">
        <ele>226.8</ele>
        <time>2012-12-24T13:50:47.000Z</time>
      </trkpt>
      <trkpt lat="47.03798" lon="5.38383">
        <ele>226.6</ele>
        <time>2012-12-24T13:50:51.000Z</time>
      </trkpt>
      <trkpt lat="47.03798" lon="5.38383">
        <ele>226.4</ele>
        <time>2012-12-24T13:50:52.000Z</time>
      </trkpt>
      <trkpt lat="47.03796" lon="5.38389">
        <ele>226.8</ele>
        <time>2012-12-24T13:50:56.000Z</time>
      </trkpt>
      <trkpt lat="47.03796" lon="5.38391">
        <ele>226.9</ele>
        <time>2012-12-24T13:50:57.000Z</time>
      </trkpt>
      <trkpt lat="47.03794" lon="5.38397">
        <ele>227.3</ele>
        <time>2012-12-24T13:51:01.000Z</time>
      </trkpt>
      <trkpt lat="47.03794" lon="5.38399">
        <ele>227.4</ele>
        <time>2012-12-24T13:51:02.000Z</time>
      </trkpt>
      <trkpt lat="47.03793" lon="5.38403">
        <ele>227.6</ele>
        <time>2012-12-24T13:51:05.000Z</time>
      </trkpt>
      <trkpt lat="47.03792" lon="5.38405">
        <ele>227.7</ele>
        <time>2012-12-24T13:51:06.000Z</time>
      </trkpt>
      <trkpt lat="47.0379" lon="5.3841">
        <ele>228</ele>
        <time>2012-12-24T13:51:09.000Z</time>
      </trkpt>
      <trkpt lat="47.03789" lon="5.38412">
        <ele>228</ele>
        <time>2012-12-24T13:51:10.000Z</time>
      </trkpt>
      <trkpt lat="47.03788" lon="5.38416">
        <ele>228.2</ele>
        <time>2012-12-24T13:51:13.000Z</time>
      </trkpt>
      <trkpt lat="47.03787" lon="5.38417">
        <ele>228.2</ele>
        <time>2012-12-24T13:51:14.000Z</time>
      </trkpt>
      <trkpt lat="47.03785" lon="5.38422">
        <ele>228.5</ele>
        <time>2012-12-24T13:51:17.000Z</time>
      </trkpt>
      <trkpt lat="47.03785" lon="5.38423">
        <ele>228.6</ele>
        <time>2012-12-24T13:51:18.000Z</time>
      </trkpt>
      <trkpt lat="47.0378" lon="5.38425">
        <ele>226.2</ele>
        <time>2012-12-24T13:51:25.000Z</time>
      </trkpt>
      <trkpt lat="47.03779" lon="5.38433">
        <ele>227.1</ele>
        <time>2012-12-24T13:51:27.000Z</time>
      </trkpt>
      <trkpt lat="47.03778" lon="5.38438">
        <ele>229.4</ele>
        <time>2012-12-24T13:51:30.000Z</time>
      </trkpt>
      <trkpt lat="47.03778" lon="5.38439">
        <ele>229.3</ele>
        <time>2012-12-24T13:51:31.000Z</time>
      </trkpt>
      <trkpt lat="47.03775" lon="5.38444">
        <ele>230.7</ele>
        <time>2012-12-24T13:51:35.000Z</time>
      </trkpt>
      <trkpt lat="47.03775" lon="5.38446">
        <ele>230.9</ele>
        <time>2012-12-24T13:51:36.000Z</time>
      </trkpt>
      <trkpt lat="47.03773" lon="5.38451">
        <ele>230.9</ele>
        <time>2012-12-24T13:51:39.000Z</time>
      </trkpt>
      <trkpt lat="47.03772" lon="5.38452">
        <ele>230.9</ele>
        <time>2012-12-24T13:51:40.000Z</time>
      </trkpt>
      <trkpt lat="47.0377" lon="5.38457">
        <ele>230.7</ele>
        <time>2012-12-24T13:51:44.000Z</time>
      </trkpt>
      <trkpt lat="47.03769" lon="5.38458">
        <ele>230.7</ele>
        <time>2012-12-24T13:51:45.000Z</time>
      </trkpt>
      <trkpt lat="47.03767" lon="5.38462">
        <ele>230.7</ele>
        <time>2012-12-24T13:51:49.000Z</time>
      </trkpt>
      <trkpt lat="47.03766" lon="5.38464">
        <ele>230.8</ele>
        <time>2012-12-24T13:51:50.000Z</time>
      </trkpt>
      <trkpt lat="47.03763" lon="5.38468">
        <ele>230.6</ele>
        <time>2012-12-24T13:51:54.000Z</time>
      </trkpt>
      <trkpt lat="47.03763" lon="5.38469">
        <ele>230.6</ele>
        <time>2012-12-24T13:51:55.000Z</time>
      </trkpt>
      <trkpt lat="47.0376" lon="5.38474">
        <ele>230.8</ele>
        <time>2012-12-24T13:51:58.000Z</time>
      </trkpt>
      <trkpt lat="47.0376" lon="5.38475">
        <ele>230.8</ele>
        <time>2012-12-24T13:51:59.000Z</time>
      </trkpt>
      <trkpt lat="47.03757" lon="5.3848">
        <ele>230.4</ele>
        <time>2012-12-24T13:52:03.000Z</time>
      </trkpt>
      <trkpt lat="47.03756" lon="5.38481">
        <ele>230.5</ele>
        <time>2012-12-24T13:52:04.000Z</time>
      </trkpt>
      <trkpt lat="47.03754" lon="5.38486">
        <ele>230.6</ele>
        <time>2012-12-24T13:52:07.000Z</time>
      </trkpt>
      <trkpt lat="47.03754" lon="5.38488">
        <ele>230.7</ele>
        <time>2012-12-24T13:52:08.000Z</time>
      </trkpt>
      <trkpt lat="47.03752" lon="5.38492">
        <ele>230.8</ele>
        <time>2012-12-24T13:52:11.000Z</time>
      </trkpt>
      <trkpt lat="47.03751" lon="5.38493">
        <ele>230.8</ele>
        <time>2012-12-24T13:52:12.000Z</time>
      </trkpt>
      <trkpt lat="47.03749" lon="5.38497">
        <ele>231</ele>
        <time>2012-12-24T13:52:15.000Z</time>
      </trkpt>
      <trkpt lat="47.03748" lon="5.38499">
        <ele>231.1</ele>
        <time>2012-12-24T13:52:16.000Z</time>
      </trkpt>
      <trkpt lat="47.03746" lon="5.38503">
        <ele>231.3</ele>
        <time>2012-12-24T13:52:19.000Z</time>
      </trkpt>
      <trkpt lat="47.03745" lon="5.38504">
        <ele>231.3</ele>
        <time>2012-12-24T13:52:20.000Z</time>
      </trkpt>
      <trkpt lat="47.03744" lon="5.38509">
        <ele>231.5</ele>
        <time>2012-12-24T13:52:23.000Z</time>
      </trkpt>
      <trkpt lat="47.03743" lon="5.3851">
        <ele>231.7</ele>
        <time>2012-12-24T13:52:24.000Z</time>
      </trkpt>
      <trkpt lat="47.03741" lon="5.38515">
        <ele>231.9</ele>
        <time>2012-12-24T13:52:27.000Z</time>
      </trkpt>
      <trkpt lat="47.0374" lon="5.38516">
        <ele>232</ele>
        <time>2012-12-24T13:52:28.000Z</time>
      </trkpt>
      <trkpt lat="47.03738" lon="5.38521">
        <ele>232</ele>
        <time>2012-12-24T13:52:31.000Z</time>
      </trkpt>
      <trkpt lat="47.03738" lon="5.38522">
        <ele>232</ele>
        <time>2012-12-24T13:52:32.000Z</time>
      </trkpt>
      <trkpt lat="47.03736" lon="5.38526">
        <ele>231.9</ele>
        <time>2012-12-24T13:52:35.000Z</time>
      </trkpt>
      <trkpt lat="47.03735" lon="5.38528">
        <ele>232</ele>
        <time>2012-12-24T13:52:36.000Z</time>
      </trkpt>
      <trkpt lat="47.03733" lon="5.38532">
        <ele>232.1</ele>
        <time>2012-12-24T13:52:39.000Z</time>
      </trkpt>
      <trkpt lat="47.03733" lon="5.38533">
        <ele>232.1</ele>
        <time>2012-12-24T13:52:40.000Z</time>
      </trkpt>
      <trkpt lat="47.0373" lon="5.38539">
        <ele>232</ele>
        <time>2012-12-24T13:52:44.000Z</time>
      </trkpt>
      <trkpt lat="47.0373" lon="5.3854">
        <ele>232</ele>
        <time>2012-12-24T13:52:45.000Z</time>
      </trkpt>
      <trkpt lat="47.03728" lon="5.38545">
        <ele>232</ele>
        <time>2012-12-24T13:52:48.000Z</time>
      </trkpt>
      <trkpt lat="47.03728" lon="5.38546">
        <ele>232.1</ele>
        <time>2012-12-24T13:52:49.000Z</time>
      </trkpt>
      <trkpt lat="47.03725" lon="5.38552">
        <ele>232</ele>
        <time>2012-12-24T13:52:53.000Z</time>
      </trkpt>
      <trkpt lat="47.03725" lon="5.38553">
        <ele>231.8</ele>
        <time>2012-12-24T13:52:54.000Z</time>
      </trkpt>
      <trkpt lat="47.03723" lon="5.38559">
        <ele>231</ele>
        <time>2012-12-24T13:52:58.000Z</time>
      </trkpt>
      <trkpt lat="47.03722" lon="5.3856">
        <ele>231.1</ele>
        <time>2012-12-24T13:52:59.000Z</time>
      </trkpt>
      <trkpt lat="47.03721" lon="5.38564">
        <ele>231.2</ele>
        <time>2012-12-24T13:53:02.000Z</time>
      </trkpt>
      <trkpt lat="47.0372" lon="5.38566">
        <ele>231.1</ele>
        <time>2012-12-24T13:53:03.000Z</time>
      </trkpt>
      <trkpt lat="47.03719" lon="5.38571">
        <ele>231.2</ele>
        <time>2012-12-24T13:53:06.000Z</time>
      </trkpt>
      <trkpt lat="47.03719" lon="5.38572">
        <ele>231.2</ele>
        <time>2012-12-24T13:53:07.000Z</time>
      </trkpt>
      <trkpt lat="47.03718" lon="5.38577">
        <ele>231.1</ele>
        <time>2012-12-24T13:53:10.000Z</time>
      </trkpt>
      <trkpt lat="47.03717" lon="5.38579">
        <ele>231</ele>
        <time>2012-12-24T13:53:11.000Z</time>
      </trkpt>
      <trkpt lat="47.03716" lon="5.38584">
        <ele>231.1</ele>
        <time>2012-12-24T13:53:14.000Z</time>
      </trkpt>
      <trkpt lat="47.03716" lon="5.38586">
        <ele>231.1</ele>
        <time>2012-12-24T13:53:15.000Z</time>
      </trkpt>
      <trkpt lat="47.03715" lon="5.38591">
        <ele>231.1</ele>
        <time>2012-12-24T13:53:18.000Z</time>
      </trkpt>
      <trkpt lat="47.03715" lon="5.38592">
        <ele>231.1</ele>
        <time>2012-12-24T13:53:19.000Z</time>
      </trkpt>
      <trkpt lat="47.03714" lon="5.38597">
        <ele>231</ele>
        <time>2012-12-24T13:53:22.000Z</time>
      </trkpt>
      <trkpt lat="47.03714" lon="5.38599">
        <ele>231</ele>
        <time>2012-12-24T13:53:23.000Z</time>
      </trkpt>
      <trkpt lat="47.03713" lon="5.38605">
        <ele>230.3</ele>
        <time>2012-12-24T13:53:27.000Z</time>
      </trkpt>
      <trkpt lat="47.03713" lon="5.38606">
        <ele>230.2</ele>
        <time>2012-12-24T13:53:28.000Z</time>
      </trkpt>
      <trkpt lat="47.03712" lon="5.38611">
        <ele>230</ele>
        <time>2012-12-24T13:53:31.000Z</time>
      </trkpt>
      <trkpt lat="47.03712" lon="5.38613">
        <ele>229.9</ele>
        <time>2012-12-24T13:53:32.000Z</time>
      </trkpt>
      <trkpt lat="47.03711" lon="5.38618">
        <ele>229.4</ele>
        <time>2012-12-24T13:53:35.000Z</time>
      </trkpt>
      <trkpt lat="47.03711" lon="5.38619">
        <ele>229.3</ele>
        <time>2012-12-24T13:53:36.000Z</time>
      </trkpt>
      <trkpt lat="47.03711" lon="5.38626">
        <ele>228.9</ele>
        <time>2012-12-24T13:53:40.000Z</time>
      </trkpt>
      <trkpt lat="47.03711" lon="5.38627">
        <ele>228.7</ele>
        <time>2012-12-24T13:53:41.000Z</time>
      </trkpt>
      <trkpt lat="47.0371" lon="5.38633">
        <ele>228.4</ele>
        <time>2012-12-24T13:53:45.000Z</time>
      </trkpt>
      <trkpt lat="47.0371" lon="5.38635">
        <ele>228.3</ele>
        <time>2012-12-24T13:53:46.000Z</time>
      </trkpt>
      <trkpt lat="47.03709" lon="5.3864">
        <ele>228.3</ele>
        <time>2012-12-24T13:53:49.000Z</time>
      </trkpt>
      <trkpt lat="47.03709" lon="5.38641">
        <ele>228.4</ele>
        <time>2012-12-24T13:53:50.000Z</time>
      </trkpt>
      <trkpt lat="47.03709" lon="5.38648">
        <ele>228.4</ele>
        <time>2012-12-24T13:53:54.000Z</time>
      </trkpt>
      <trkpt lat="47.03708" lon="5.38649">
        <ele>228.4</ele>
        <time>2012-12-24T13:53:55.000Z</time>
      </trkpt>
      <trkpt lat="47.03708" lon="5.38655">
        <ele>228.1</ele>
        <time>2012-12-24T13:53:59.000Z</time>
      </trkpt>
      <trkpt lat="47.03708" lon="5.38657">
        <ele>228.1</ele>
        <time>2012-12-24T13:54:00.000Z</time>
      </trkpt>
      <trkpt lat="47.03708" lon="5.38662">
        <ele>228.5</ele>
        <time>2012-12-24T13:54:05.000Z</time>
      </trkpt>
      <trkpt lat="47.03707" lon="5.38664">
        <ele>228.4</ele>
        <time>2012-12-24T13:54:06.000Z</time>
      </trkpt>
      <trkpt lat="47.03707" lon="5.38669">
        <ele>228.4</ele>
        <time>2012-12-24T13:54:16.000Z</time>
      </trkpt>
      <trkpt lat="47.03707" lon="5.3867">
        <ele>228.3</ele>
        <time>2012-12-24T13:54:17.000Z</time>
      </trkpt>
      <trkpt lat="47.03706" lon="5.38675">
        <ele>228.3</ele>
        <time>2012-12-24T13:54:20.000Z</time>
      </trkpt>
      <trkpt lat="47.03706" lon="5.38677">
        <ele>228.3</ele>
        <time>2012-12-24T13:54:21.000Z</time>
      </trkpt>
      <trkpt lat="47.03706" lon="5.38682">
        <ele>228.4</ele>
        <time>2012-12-24T13:54:24.000Z</time>
      </trkpt>
      <trkpt lat="47.03705" lon="5.38684">
        <ele>228.4</ele>
        <time>2012-12-24T13:54:25.000Z</time>
      </trkpt>
      <trkpt lat="47.03705" lon="5.38689">
        <ele>228.4</ele>
        <time>2012-12-24T13:54:28.000Z</time>
      </trkpt>
      <trkpt lat="47.03705" lon="5.38691">
        <ele>228.5</ele>
        <time>2012-12-24T13:54:29.000Z</time>
      </trkpt>
      <trkpt lat="47.03704" lon="5.38696">
        <ele>228.5</ele>
        <time>2012-12-24T13:54:33.000Z</time>
      </trkpt>
      <trkpt lat="47.03703" lon="5.38698">
        <ele>228.3</ele>
        <time>2012-12-24T13:54:34.000Z</time>
      </trkpt>
      <trkpt lat="47.03703" lon="5.38702">
        <ele>228.1</ele>
        <time>2012-12-24T13:54:37.000Z</time>
      </trkpt>
      <trkpt lat="47.03703" lon="5.38704">
        <ele>228</ele>
        <time>2012-12-24T13:54:38.000Z</time>
      </trkpt>
      <trkpt lat="47.03702" lon="5.38709">
        <ele>227.6</ele>
        <time>2012-12-24T13:54:41.000Z</time>
      </trkpt>
      <trkpt lat="47.03702" lon="5.3871">
        <ele>227.6</ele>
        <time>2012-12-24T13:54:42.000Z</time>
      </trkpt>
      <trkpt lat="47.03701" lon="5.38715">
        <ele>227.5</ele>
        <time>2012-12-24T13:54:45.000Z</time>
      </trkpt>
      <trkpt lat="47.03701" lon="5.38717">
        <ele>227.5</ele>
        <time>2012-12-24T13:54:46.000Z</time>
      </trkpt>
      <trkpt lat="47.037" lon="5.38723">
        <ele>227.3</ele>
        <time>2012-12-24T13:54:50.000Z</time>
      </trkpt>
      <trkpt lat="47.03699" lon="5.38725">
        <ele>227.4</ele>
        <time>2012-12-24T13:54:51.000Z</time>
      </trkpt>
      <trkpt lat="47.03698" lon="5.38731">
        <ele>227.4</ele>
        <time>2012-12-24T13:54:55.000Z</time>
      </trkpt>
      <trkpt lat="47.03698" lon="5.38732">
        <ele>227.5</ele>
        <time>2012-12-24T13:54:56.000Z</time>
      </trkpt>
      <trkpt lat="47.03696" lon="5.38737">
        <ele>227.6</ele>
        <time>2012-12-24T13:54:59.000Z</time>
      </trkpt>
      <trkpt lat="47.03696" lon="5.38739">
        <ele>227.6</ele>
        <time>2012-12-24T13:55:00.000Z</time>
      </trkpt>
      <trkpt lat="47.03695" lon="5.38744">
        <ele>227.6</ele>
        <time>2012-12-24T13:55:03.000Z</time>
      </trkpt>
      <trkpt lat="47.03695" lon="5.38746">
        <ele>227.7</ele>
        <time>2012-12-24T13:55:04.000Z</time>
      </trkpt>
      <trkpt lat="47.03693" lon="5.3875">
        <ele>227.7</ele>
        <time>2012-12-24T13:55:07.000Z</time>
      </trkpt>
      <trkpt lat="47.03693" lon="5.38752">
        <ele>227.7</ele>
        <time>2012-12-24T13:55:08.000Z</time>
      </trkpt>
      <trkpt lat="47.03692" lon="5.38757">
        <ele>227.8</ele>
        <time>2012-12-24T13:55:11.000Z</time>
      </trkpt>
      <trkpt lat="47.03691" lon="5.38758">
        <ele>227.8</ele>
        <time>2012-12-24T13:55:12.000Z</time>
      </trkpt>
      <trkpt lat="47.0369" lon="5.38763">
        <ele>227.6</ele>
        <time>2012-12-24T13:55:16.000Z</time>
      </trkpt>
      <trkpt lat="47.03689" lon="5.38765">
        <ele>227.6</ele>
        <time>2012-12-24T13:55:17.000Z</time>
      </trkpt>
      <trkpt lat="47.03687" lon="5.3877">
        <ele>227.5</ele>
        <time>2012-12-24T13:55:22.000Z</time>
      </trkpt>
      <trkpt lat="47.03687" lon="5.38771">
        <ele>227.5</ele>
        <time>2012-12-24T13:55:23.000Z</time>
      </trkpt>
      <trkpt lat="47.03685" lon="5.38776">
        <ele>227.3</ele>
        <time>2012-12-24T13:55:27.000Z</time>
      </trkpt>
      <trkpt lat="47.03684" lon="5.38777">
        <ele>227.2</ele>
        <time>2012-12-24T13:55:28.000Z</time>
      </trkpt>
      <trkpt lat="47.03682" lon="5.38783">
        <ele>227.1</ele>
        <time>2012-12-24T13:55:32.000Z</time>
      </trkpt>
      <trkpt lat="47.03681" lon="5.38784">
        <ele>227.2</ele>
        <time>2012-12-24T13:55:33.000Z</time>
      </trkpt>
      <trkpt lat="47.03679" lon="5.38789">
        <ele>228</ele>
        <time>2012-12-24T13:55:37.000Z</time>
      </trkpt>
      <trkpt lat="47.03678" lon="5.3879">
        <ele>228</ele>
        <time>2012-12-24T13:55:38.000Z</time>
      </trkpt>
      <trkpt lat="47.03676" lon="5.38795">
        <ele>228.1</ele>
        <time>2012-12-24T13:55:42.000Z</time>
      </trkpt>
      <trkpt lat="47.03675" lon="5.38797">
        <ele>228.2</ele>
        <time>2012-12-24T13:55:43.000Z</time>
      </trkpt>
      <trkpt lat="47.03673" lon="5.38802">
        <ele>228.6</ele>
        <time>2012-12-24T13:55:47.000Z</time>
      </trkpt>
      <trkpt lat="47.03672" lon="5.38803">
        <ele>228.7</ele>
        <time>2012-12-24T13:55:48.000Z</time>
      </trkpt>
      <trkpt lat="47.0367" lon="5.38808">
        <ele>229.1</ele>
        <time>2012-12-24T13:55:52.000Z</time>
      </trkpt>
      <trkpt lat="47.03669" lon="5.3881">
        <ele>229.2</ele>
        <time>2012-12-24T13:55:53.000Z</time>
      </trkpt>
      <trkpt lat="47.03667" lon="5.38815">
        <ele>229.5</ele>
        <time>2012-12-24T13:55:57.000Z</time>
      </trkpt>
      <trkpt lat="47.03666" lon="5.38816">
        <ele>229.5</ele>
        <time>2012-12-24T13:55:58.000Z</time>
      </trkpt>
      <trkpt lat="47.03663" lon="5.3882">
        <ele>229.6</ele>
        <time>2012-12-24T13:56:02.000Z</time>
      </trkpt>
      <trkpt lat="47.03663" lon="5.38821">
        <ele>229.6</ele>
        <time>2012-12-24T13:56:03.000Z</time>
      </trkpt>
      <trkpt lat="47.0366" lon="5.38826">
        <ele>230</ele>
        <time>2012-12-24T13:56:07.000Z</time>
      </trkpt>
      <trkpt lat="47.03659" lon="5.38828">
        <ele>230.1</ele>
        <time>2012-12-24T13:56:08.000Z</time>
      </trkpt>
      <trkpt lat="47.03657" lon="5.38832">
        <ele>230.4</ele>
        <time>2012-12-24T13:56:11.000Z</time>
      </trkpt>
      <trkpt lat="47.03656" lon="5.38833">
        <ele>230.4</ele>
        <time>2012-12-24T13:56:12.000Z</time>
      </trkpt>
      <trkpt lat="47.03654" lon="5.38838">
        <ele>230.5</ele>
        <time>2012-12-24T13:56:16.000Z</time>
      </trkpt>
      <trkpt lat="47.03653" lon="5.38839">
        <ele>230.6</ele>
        <time>2012-12-24T13:56:17.000Z</time>
      </trkpt>
      <trkpt lat="47.0365" lon="5.38844">
        <ele>230.8</ele>
        <time>2012-12-24T13:56:21.000Z</time>
      </trkpt>
      <trkpt lat="47.03649" lon="5.38845">
        <ele>230.8</ele>
        <time>2012-12-24T13:56:22.000Z</time>
      </trkpt>
      <trkpt lat="47.03647" lon="5.3885">
        <ele>231.3</ele>
        <time>2012-12-24T13:56:26.000Z</time>
      </trkpt>
      <trkpt lat="47.03646" lon="5.38851">
        <ele>231.3</ele>
        <time>2012-12-24T13:56:27.000Z</time>
      </trkpt>
      <trkpt lat="47.03644" lon="5.38855">
        <ele>231.8</ele>
        <time>2012-12-24T13:56:30.000Z</time>
      </trkpt>
      <trkpt lat="47.03643" lon="5.38856">
        <ele>231.9</ele>
        <time>2012-12-24T13:56:31.000Z</time>
      </trkpt>
      <trkpt lat="47.03641" lon="5.38861">
        <ele>232.3</ele>
        <time>2012-12-24T13:56:34.000Z</time>
      </trkpt>
      <trkpt lat="47.0364" lon="5.38862">
        <ele>232.4</ele>
        <time>2012-12-24T13:56:35.000Z</time>
      </trkpt>
      <trkpt lat="47.03638" lon="5.38866">
        <ele>232.6</ele>
        <time>2012-12-24T13:56:38.000Z</time>
      </trkpt>
      <trkpt lat="47.03637" lon="5.38868">
        <ele>232.8</ele>
        <time>2012-12-24T13:56:39.000Z</time>
      </trkpt>
      <trkpt lat="47.03635" lon="5.38872">
        <ele>233</ele>
        <time>2012-12-24T13:56:42.000Z</time>
      </trkpt>
      <trkpt lat="47.03635" lon="5.38873">
        <ele>233.1</ele>
        <time>2012-12-24T13:56:43.000Z</time>
      </trkpt>
      <trkpt lat="47.03633" lon="5.38877">
        <ele>233.2</ele>
        <time>2012-12-24T13:56:46.000Z</time>
      </trkpt>
      <trkpt lat="47.03632" lon="5.38879">
        <ele>233.3</ele>
        <time>2012-12-24T13:56:47.000Z</time>
      </trkpt>
      <trkpt lat="47.0363" lon="5.38883">
        <ele>233.3</ele>
        <time>2012-12-24T13:56:50.000Z</time>
      </trkpt>
      <trkpt lat="47.0363" lon="5.38885">
        <ele>233.3</ele>
        <time>2012-12-24T13:56:51.000Z</time>
      </trkpt>
      <trkpt lat="47.03628" lon="5.38889">
        <ele>233.2</ele>
        <time>2012-12-24T13:56:54.000Z</time>
      </trkpt>
      <trkpt lat="47.03627" lon="5.3889">
        <ele>233.1</ele>
        <time>2012-12-24T13:56:55.000Z</time>
      </trkpt>
      <trkpt lat="47.03625" lon="5.38895">
        <ele>232.8</ele>
        <time>2012-12-24T13:56:58.000Z</time>
      </trkpt>
      <trkpt lat="47.03625" lon="5.38896">
        <ele>232.7</ele>
        <time>2012-12-24T13:56:59.000Z</time>
      </trkpt>
      <trkpt lat="47.03623" lon="5.38901">
        <ele>232.7</ele>
        <time>2012-12-24T13:57:02.000Z</time>
      </trkpt>
      <trkpt lat="47.03623" lon="5.38902">
        <ele>232.7</ele>
        <time>2012-12-24T13:57:03.000Z</time>
      </trkpt>
      <trkpt lat="47.0362" lon="5.38908">
        <ele>232.7</ele>
        <time>2012-12-24T13:57:07.000Z</time>
      </trkpt>
      <trkpt lat="47.0362" lon="5.38909">
        <ele>232.8</ele>
        <time>2012-12-24T13:57:08.000Z</time>
      </trkpt>
      <trkpt lat="47.03618" lon="5.38914">
        <ele>232.9</ele>
        <time>2012-12-24T13:57:11.000Z</time>
      </trkpt>
      <trkpt lat="47.03618" lon="5.38915">
        <ele>233</ele>
        <time>2012-12-24T13:57:12.000Z</time>
      </trkpt>
      <trkpt lat="47.03616" lon="5.3892">
        <ele>232.9</ele>
        <time>2012-12-24T13:57:15.000Z</time>
      </trkpt>
      <trkpt lat="47.03615" lon="5.38921">
        <ele>232.9</ele>
        <time>2012-12-24T13:57:16.000Z</time>
      </trkpt>
      <trkpt lat="47.03613" lon="5.38927">
        <ele>232.7</ele>
        <time>2012-12-24T13:57:20.000Z</time>
      </trkpt>
      <trkpt lat="47.03612" lon="5.38928">
        <ele>232.6</ele>
        <time>2012-12-24T13:57:21.000Z</time>
      </trkpt>
      <trkpt lat="47.03611" lon="5.38932">
        <ele>232.7</ele>
        <time>2012-12-24T13:57:24.000Z</time>
      </trkpt>
      <trkpt lat="47.0361" lon="5.38934">
        <ele>232.8</ele>
        <time>2012-12-24T13:57:25.000Z</time>
      </trkpt>
      <trkpt lat="47.03608" lon="5.38939">
        <ele>232.8</ele>
        <time>2012-12-24T13:57:29.000Z</time>
      </trkpt>
      <trkpt lat="47.03608" lon="5.38941">
        <ele>232.7</ele>
        <time>2012-12-24T13:57:30.000Z</time>
      </trkpt>
      <trkpt lat="47.03605" lon="5.38944">
        <ele>232.6</ele>
        <time>2012-12-24T13:57:35.000Z</time>
      </trkpt>
      <trkpt lat="47.03604" lon="5.38945">
        <ele>232.5</ele>
        <time>2012-12-24T13:57:36.000Z</time>
      </trkpt>
      <trkpt lat="47.03602" lon="5.3895">
        <ele>232.4</ele>
        <time>2012-12-24T13:57:39.000Z</time>
      </trkpt>
      <trkpt lat="47.03602" lon="5.38951">
        <ele>232.3</ele>
        <time>2012-12-24T13:57:40.000Z</time>
      </trkpt>
      <trkpt lat="47.036" lon="5.38957">
        <ele>232.3</ele>
        <time>2012-12-24T13:57:43.000Z</time>
      </trkpt>
      <trkpt lat="47.03599" lon="5.38959">
        <ele>232.4</ele>
        <time>2012-12-24T13:57:44.000Z</time>
      </trkpt>
      <trkpt lat="47.03598" lon="5.38963">
        <ele>232.4</ele>
        <time>2012-12-24T13:57:47.000Z</time>
      </trkpt>
      <trkpt lat="47.03597" lon="5.38965">
        <ele>232.3</ele>
        <time>2012-12-24T13:57:48.000Z</time>
      </trkpt>
      <trkpt lat="47.03595" lon="5.38969">
        <ele>232.3</ele>
        <time>2012-12-24T13:57:51.000Z</time>
      </trkpt>
      <trkpt lat="47.03594" lon="5.3897">
        <ele>232.4</ele>
        <time>2012-12-24T13:57:52.000Z</time>
      </trkpt>
      <trkpt lat="47.03591" lon="5.38975">
        <ele>232.4</ele>
        <time>2012-12-24T13:57:56.000Z</time>
      </trkpt>
      <trkpt lat="47.0359" lon="5.38976">
        <ele>232.5</ele>
        <time>2012-12-24T13:57:57.000Z</time>
      </trkpt>
      <trkpt lat="47.03588" lon="5.38981">
        <ele>232.6</ele>
        <time>2012-12-24T13:58:01.000Z</time>
      </trkpt>
      <trkpt lat="47.03587" lon="5.38982">
        <ele>232.7</ele>
        <time>2012-12-24T13:58:02.000Z</time>
      </trkpt>
      <trkpt lat="47.03585" lon="5.38986">
        <ele>232.8</ele>
        <time>2012-12-24T13:58:05.000Z</time>
      </trkpt>
      <trkpt lat="47.03584" lon="5.38988">
        <ele>232.8</ele>
        <time>2012-12-24T13:58:06.000Z</time>
      </trkpt>
      <trkpt lat="47.03582" lon="5.38991">
        <ele>232.9</ele>
        <time>2012-12-24T13:58:09.000Z</time>
      </trkpt>
      <trkpt lat="47.03581" lon="5.38992">
        <ele>232.9</ele>
        <time>2012-12-24T13:58:10.000Z</time>
      </trkpt>
      <trkpt lat="47.03578" lon="5.38997">
        <ele>232.8</ele>
        <time>2012-12-24T13:58:14.000Z</time>
      </trkpt>
      <trkpt lat="47.03577" lon="5.38998">
        <ele>232.8</ele>
        <time>2012-12-24T13:58:15.000Z</time>
      </trkpt>
      <trkpt lat="47.03574" lon="5.39002">
        <ele>233</ele>
        <time>2012-12-24T13:58:19.000Z</time>
      </trkpt>
      <trkpt lat="47.03573" lon="5.39004">
        <ele>233</ele>
        <time>2012-12-24T13:58:20.000Z</time>
      </trkpt>
      <trkpt lat="47.03571" lon="5.39007">
        <ele>233.2</ele>
        <time>2012-12-24T13:58:23.000Z</time>
      </trkpt>
      <trkpt lat="47.0357" lon="5.39009">
        <ele>233.2</ele>
        <time>2012-12-24T13:58:24.000Z</time>
      </trkpt>
      <trkpt lat="47.03567" lon="5.39012">
        <ele>233.1</ele>
        <time>2012-12-24T13:58:27.000Z</time>
      </trkpt>
      <trkpt lat="47.03566" lon="5.39014">
        <ele>233.1</ele>
        <time>2012-12-24T13:58:28.000Z</time>
      </trkpt>
      <trkpt lat="47.03563" lon="5.39017">
        <ele>233.2</ele>
        <time>2012-12-24T13:58:33.000Z</time>
      </trkpt>
      <trkpt lat="47.03563" lon="5.39018">
        <ele>233.5</ele>
        <time>2012-12-24T13:58:34.000Z</time>
      </trkpt>
      <trkpt lat="47.0356" lon="5.39022">
        <ele>234</ele>
        <time>2012-12-24T13:58:38.000Z</time>
      </trkpt>
      <trkpt lat="47.03559" lon="5.39023">
        <ele>234.1</ele>
        <time>2012-12-24T13:58:39.000Z</time>
      </trkpt>
      <trkpt lat="47.03557" lon="5.39027">
        <ele>234.1</ele>
        <time>2012-12-24T13:58:42.000Z</time>
      </trkpt>
      <trkpt lat="47.03556" lon="5.39028">
        <ele>234</ele>
        <time>2012-12-24T13:58:43.000Z</time>
      </trkpt>
      <trkpt lat="47.03553" lon="5.3903">
        <ele>234</ele>
        <time>2012-12-24T13:58:46.000Z</time>
      </trkpt>
      <trkpt lat="47.03552" lon="5.39032">
        <ele>234</ele>
        <time>2012-12-24T13:58:47.000Z</time>
      </trkpt>
      <trkpt lat="47.03549" lon="5.39035">
        <ele>234.4</ele>
        <time>2012-12-24T13:58:50.000Z</time>
      </trkpt>
      <trkpt lat="47.03548" lon="5.39036">
        <ele>234.5</ele>
        <time>2012-12-24T13:58:51.000Z</time>
      </trkpt>
      <trkpt lat="47.03545" lon="5.3904">
        <ele>234.8</ele>
        <time>2012-12-24T13:58:54.000Z</time>
      </trkpt>
      <trkpt lat="47.03544" lon="5.39041">
        <ele>234.7</ele>
        <time>2012-12-24T13:58:55.000Z</time>
      </trkpt>
      <trkpt lat="47.03541" lon="5.39045">
        <ele>234.7</ele>
        <time>2012-12-24T13:59:00.000Z</time>
      </trkpt>
      <trkpt lat="47.0354" lon="5.39046">
        <ele>234.7</ele>
        <time>2012-12-24T13:59:01.000Z</time>
      </trkpt>
      <trkpt lat="47.03537" lon="5.3905">
        <ele>234.4</ele>
        <time>2012-12-24T13:59:05.000Z</time>
      </trkpt>
      <trkpt lat="47.03536" lon="5.39051">
        <ele>234.4</ele>
        <time>2012-12-24T13:59:06.000Z</time>
      </trkpt>
      <trkpt lat="47.03533" lon="5.39055">
        <ele>234.6</ele>
        <time>2012-12-24T13:59:10.000Z</time>
      </trkpt>
      <trkpt lat="47.03532" lon="5.39056">
        <ele>234.7</ele>
        <time>2012-12-24T13:59:11.000Z</time>
      </trkpt>
      <trkpt lat="47.0353" lon="5.39059">
        <ele>234.8</ele>
        <time>2012-12-24T13:59:14.000Z</time>
      </trkpt>
      <trkpt lat="47.03529" lon="5.3906">
        <ele>234.9</ele>
        <time>2012-12-24T13:59:15.000Z</time>
      </trkpt>
      <trkpt lat="47.03526" lon="5.39063">
        <ele>235.3</ele>
        <time>2012-12-24T13:59:18.000Z</time>
      </trkpt>
      <trkpt lat="47.03525" lon="5.39065">
        <ele>235.4</ele>
        <time>2012-12-24T13:59:19.000Z</time>
      </trkpt>
      <trkpt lat="47.03523" lon="5.39068">
        <ele>235.5</ele>
        <time>2012-12-24T13:59:22.500Z</time>
      </trkpt>
      <trkpt lat="47.03518" lon="5.39071">
        <ele>234</ele>
        <time>2012-12-24T13:59:27.000Z</time>
      </trkpt>
      <trkpt lat="47.03517" lon="5.39075">
        <ele>233.7</ele>
        <time>2012-12-24T13:59:30.000Z</time>
      </trkpt>
      <trkpt lat="47.03516" lon="5.39076">
        <ele>235</ele>
        <time>2012-12-24T13:59:31.000Z</time>
      </trkpt>
      <trkpt lat="47.03513" lon="5.3908">
        <ele>237.1</ele>
        <time>2012-12-24T13:59:34.000Z</time>
      </trkpt>
      <trkpt lat="47.03512" lon="5.39081">
        <ele>237.1</ele>
        <time>2012-12-24T13:59:35.000Z</time>
      </trkpt>
      <trkpt lat="47.03509" lon="5.39084">
        <ele>237.4</ele>
        <time>2012-12-24T13:59:38.000Z</time>
      </trkpt>
      <trkpt lat="47.03508" lon="5.39086">
        <ele>237.7</ele>
        <time>2012-12-24T13:59:39.000Z</time>
      </trkpt>
      <trkpt lat="47.03505" lon="5.39091">
        <ele>240.3</ele>
        <time>2012-12-24T13:59:43.000Z</time>
      </trkpt>
      <trkpt lat="47.03505" lon="5.39092">
        <ele>241</ele>
        <time>2012-12-24T13:59:44.000Z</time>
      </trkpt>
      <trkpt lat="47.03501" lon="5.39095">
        <ele>240.6</ele>
        <time>2012-12-24T13:59:48.000Z</time>
      </trkpt>
      <trkpt lat="47.035" lon="5.39096">
        <ele>240.3</ele>
        <time>2012-12-24T13:59:49.000Z</time>
      </trkpt>
      <trkpt lat="47.03497" lon="5.391">
        <ele>237.1</ele>
        <time>2012-12-24T13:59:57.000Z</time>
      </trkpt>
      <trkpt lat="47.03497" lon="5.39101">
        <ele>237</ele>
        <time>2012-12-24T13:59:58.000Z</time>
      </trkpt>
      <trkpt lat="47.03493" lon="5.39104">
        <ele>238</ele>
        <time>2012-12-24T14:00:02.000Z</time>
      </trkpt>
      <trkpt lat="47.03492" lon="5.39105">
        <ele>238.1</ele>
        <time>2012-12-24T14:00:03.000Z</time>
      </trkpt>
      <trkpt lat="47.03489" lon="5.3911">
        <ele>238</ele>
        <time>2012-12-24T14:00:07.000Z</time>
      </trkpt>
      <trkpt lat="47.03489" lon="5.39111">
        <ele>238.2</ele>
        <time>2012-12-24T14:00:08.000Z</time>
      </trkpt>
      <trkpt lat="47.03486" lon="5.39115">
        <ele>238.6</ele>
        <time>2012-12-24T14:00:11.000Z</time>
      </trkpt>
      <trkpt lat="47.03486" lon="5.39116">
        <ele>238.7</ele>
        <time>2012-12-24T14:00:12.000Z</time>
      </trkpt>
      <trkpt lat="47.03483" lon="5.39122">
        <ele>238.3</ele>
        <time>2012-12-24T14:00:17.000Z</time>
      </trkpt>
      <trkpt lat="47.03483" lon="5.39123">
        <ele>238.3</ele>
        <time>2012-12-24T14:00:18.000Z</time>
      </trkpt>
      <trkpt lat="47.03481" lon="5.39128">
        <ele>238.8</ele>
        <time>2012-12-24T14:00:22.000Z</time>
      </trkpt>
      <trkpt lat="47.03481" lon="5.39129">
        <ele>238.8</ele>
        <time>2012-12-24T14:00:23.000Z</time>
      </trkpt>
      <trkpt lat="47.03479" lon="5.39135">
        <ele>238.7</ele>
        <time>2012-12-24T14:00:27.000Z</time>
      </trkpt>
      <trkpt lat="47.03479" lon="5.39137">
        <ele>238.6</ele>
        <time>2012-12-24T14:00:28.000Z</time>
      </trkpt>
      <trkpt lat="47.03478" lon="5.39142">
        <ele>238.5</ele>
        <time>2012-12-24T14:00:31.000Z</time>
      </trkpt>
      <trkpt lat="47.03477" lon="5.39143">
        <ele>238.5</ele>
        <time>2012-12-24T14:00:32.000Z</time>
      </trkpt>
      <trkpt lat="47.03476" lon="5.39149">
        <ele>238.4</ele>
        <time>2012-12-24T14:00:36.000Z</time>
      </trkpt>
      <trkpt lat="47.03475" lon="5.3915">
        <ele>238.1</ele>
        <time>2012-12-24T14:00:37.000Z</time>
      </trkpt>
      <trkpt lat="47.03474" lon="5.39156">
        <ele>238.6</ele>
        <time>2012-12-24T14:00:41.000Z</time>
      </trkpt>
      <trkpt lat="47.03474" lon="5.39158">
        <ele>238.7</ele>
        <time>2012-12-24T14:00:42.000Z</time>
      </trkpt>
      <trkpt lat="47.03473" lon="5.39164">
        <ele>239</ele>
        <time>2012-12-24T14:00:46.000Z</time>
      </trkpt>
      <trkpt lat="47.03472" lon="5.39165">
        <ele>238.9</ele>
        <time>2012-12-24T14:00:47.000Z</time>
      </trkpt>
      <trkpt lat="47.03472" lon="5.39171">
        <ele>238.2</ele>
        <time>2012-12-24T14:00:51.000Z</time>
      </trkpt>
      <trkpt lat="47.03471" lon="5.39172">
        <ele>238.3</ele>
        <time>2012-12-24T14:00:52.000Z</time>
      </trkpt>
      <trkpt lat="47.0347" lon="5.39177">
        <ele>238.2</ele>
        <time>2012-12-24T14:00:55.000Z</time>
      </trkpt>
      <trkpt lat="47.0347" lon="5.39179">
        <ele>238.3</ele>
        <time>2012-12-24T14:00:56.000Z</time>
      </trkpt>
      <trkpt lat="47.03469" lon="5.39184">
        <ele>238.5</ele>
        <time>2012-12-24T14:00:59.000Z</time>
      </trkpt>
      <trkpt lat="47.03468" lon="5.39186">
        <ele>238.6</ele>
        <time>2012-12-24T14:01:00.000Z</time>
      </trkpt>
      <trkpt lat="47.03467" lon="5.39191">
        <ele>238.6</ele>
        <time>2012-12-24T14:01:03.000Z</time>
      </trkpt>
      <trkpt lat="47.03467" lon="5.39193">
        <ele>238.5</ele>
        <time>2012-12-24T14:01:04.000Z</time>
      </trkpt>
      <trkpt lat="47.03466" lon="5.39197">
        <ele>238.5</ele>
        <time>2012-12-24T14:01:07.000Z</time>
      </trkpt>
      <trkpt lat="47.03466" lon="5.39199">
        <ele>238.9</ele>
        <time>2012-12-24T14:01:08.000Z</time>
      </trkpt>
      <trkpt lat="47.03465" lon="5.39205">
        <ele>239.8</ele>
        <time>2012-12-24T14:01:11.000Z</time>
      </trkpt>
      <trkpt lat="47.03464" lon="5.39206">
        <ele>239.9</ele>
        <time>2012-12-24T14:01:12.000Z</time>
      </trkpt>
      <trkpt lat="47.03463" lon="5.39212">
        <ele>239.8</ele>
        <time>2012-12-24T14:01:15.000Z</time>
      </trkpt>
      <trkpt lat="47.03463" lon="5.39213">
        <ele>239.8</ele>
        <time>2012-12-24T14:01:16.000Z</time>
      </trkpt>
      <trkpt lat="47.03463" lon="5.39219">
        <ele>240</ele>
        <time>2012-12-24T14:01:20.000Z</time>
      </trkpt>
      <trkpt lat="47.03463" lon="5.39221">
        <ele>240.1</ele>
        <time>2012-12-24T14:01:21.000Z</time>
      </trkpt>
      <trkpt lat="47.03465" lon="5.39226">
        <ele>239</ele>
        <time>2012-12-24T14:01:38.000Z</time>
      </trkpt>
      <trkpt lat="47.03464" lon="5.39227">
        <ele>238.8</ele>
        <time>2012-12-24T14:01:39.000Z</time>
      </trkpt>
      <trkpt lat="47.03462" lon="5.39232">
        <ele>238</ele>
        <time>2012-12-24T14:01:43.000Z</time>
      </trkpt>
      <trkpt lat="47.03461" lon="5.39233">
        <ele>238</ele>
        <time>2012-12-24T14:01:44.000Z</time>
      </trkpt>
      <trkpt lat="47.0346" lon="5.39238">
        <ele>237.6</ele>
        <time>2012-12-24T14:01:48.000Z</time>
      </trkpt>
      <trkpt lat="47.03459" lon="5.39239">
        <ele>237.4</ele>
        <time>2012-12-24T14:01:49.000Z</time>
      </trkpt>
      <trkpt lat="47.03457" lon="5.39245">
        <ele>236.5</ele>
        <time>2012-12-24T14:01:53.000Z</time>
      </trkpt>
      <trkpt lat="47.03457" lon="5.39246">
        <ele>236.1</ele>
        <time>2012-12-24T14:01:54.000Z</time>
      </trkpt>
      <trkpt lat="47.03455" lon="5.39251">
        <ele>235.5</ele>
        <time>2012-12-24T14:01:58.000Z</time>
      </trkpt>
      <trkpt lat="47.03455" lon="5.39252">
        <ele>235.4</ele>
        <time>2012-12-24T14:01:59.000Z</time>
      </trkpt>
      <trkpt lat="47.03454" lon="5.39258">
        <ele>234.8</ele>
        <time>2012-12-24T14:02:03.000Z</time>
      </trkpt>
      <trkpt lat="47.03453" lon="5.39259">
        <ele>234.6</ele>
        <time>2012-12-24T14:02:04.000Z</time>
      </trkpt>
      <trkpt lat="47.03452" lon="5.39264">
        <ele>233.9</ele>
        <time>2012-12-24T14:02:08.000Z</time>
      </trkpt>
      <trkpt lat="47.03452" lon="5.39266">
        <ele>233.8</ele>
        <time>2012-12-24T14:02:09.000Z</time>
      </trkpt>
      <trkpt lat="47.0345" lon="5.39271">
        <ele>233.5</ele>
        <time>2012-12-24T14:02:13.000Z</time>
      </trkpt>
      <trkpt lat="47.0345" lon="5.39272">
        <ele>233.5</ele>
        <time>2012-12-24T14:02:14.000Z</time>
      </trkpt>
      <trkpt lat="47.03448" lon="5.39278">
        <ele>233.2</ele>
        <time>2012-12-24T14:02:18.000Z</time>
      </trkpt>
      <trkpt lat="47.03447" lon="5.39279">
        <ele>233.2</ele>
        <time>2012-12-24T14:02:19.000Z</time>
      </trkpt>
      <trkpt lat="47.03446" lon="5.39283">
        <ele>233.2</ele>
        <time>2012-12-24T14:02:22.000Z</time>
      </trkpt>
      <trkpt lat="47.03455" lon="5.39282">
        <ele>240.6</ele>
        <time>2012-12-24T14:02:28.000Z</time>
      </trkpt>
      <trkpt lat="47.03456" lon="5.39288">
        <ele>236.5</ele>
        <time>2012-12-24T14:04:07.000Z</time>
      </trkpt>
      <trkpt lat="47.03455" lon="5.3929">
        <ele>236.3</ele>
        <time>2012-12-24T14:04:08.000Z</time>
      </trkpt>
      <trkpt lat="47.03454" lon="5.39293">
        <ele>236.1</ele>
        <time>2012-12-24T14:04:10.000Z</time>
      </trkpt>
      <trkpt lat="47.03453" lon="5.39295">
        <ele>236</ele>
        <time>2012-12-24T14:04:11.000Z</time>
      </trkpt>
      <trkpt lat="47.0345" lon="5.39299">
        <ele>235.7</ele>
        <time>2012-12-24T14:04:13.000Z</time>
      </trkpt>
      <trkpt lat="47.03449" lon="5.39302">
        <ele>235.6</ele>
        <time>2012-12-24T14:04:14.000Z</time>
      </trkpt>
      <trkpt lat="47.03447" lon="5.39305">
        <ele>235.8</ele>
        <time>2012-12-24T14:04:15.000Z</time>
      </trkpt>
      <trkpt lat="47.03446" lon="5.39307">
        <ele>235.6</ele>
        <time>2012-12-24T14:04:16.000Z</time>
      </trkpt>
      <trkpt lat="47.03443" lon="5.39312">
        <ele>235.6</ele>
        <time>2012-12-24T14:04:18.000Z</time>
      </trkpt>
      <trkpt lat="47.03442" lon="5.39314">
        <ele>235.6</ele>
        <time>2012-12-24T14:04:19.000Z</time>
      </trkpt>
      <trkpt lat="47.0344" lon="5.39319">
        <ele>236.1</ele>
        <time>2012-12-24T14:04:21.000Z</time>
      </trkpt>
      <trkpt lat="47.03438" lon="5.39321">
        <ele>236.2</ele>
        <time>2012-12-24T14:04:22.000Z</time>
      </trkpt>
      <trkpt lat="47.03435" lon="5.39327">
        <ele>235.9</ele>
        <time>2012-12-24T14:04:28.000Z</time>
      </trkpt>
      <trkpt lat="47.03435" lon="5.39327">
        <ele>235.9</ele>
        <time>2012-12-24T14:04:29.000Z</time>
      </trkpt>
      <trkpt lat="47.03425" lon="5.39339">
        <ele>234.1</ele>
        <time>2012-12-24T14:04:30.000Z</time>
      </trkpt>
      <trkpt lat="47.03423" lon="5.39345">
        <ele>233</ele>
        <time>2012-12-24T14:04:33.000Z</time>
      </trkpt>
      <trkpt lat="47.03423" lon="5.39346">
        <ele>232.5</ele>
        <time>2012-12-24T14:04:34.000Z</time>
      </trkpt>
      <trkpt lat="47.03421" lon="5.39351">
        <ele>231.1</ele>
        <time>2012-12-24T14:04:37.000Z</time>
      </trkpt>
      <trkpt lat="47.0342" lon="5.39353">
        <ele>230.6</ele>
        <time>2012-12-24T14:04:38.000Z</time>
      </trkpt>
      <trkpt lat="47.03418" lon="5.39356">
        <ele>229.7</ele>
        <time>2012-12-24T14:04:41.000Z</time>
      </trkpt>
      <trkpt lat="47.03418" lon="5.39358">
        <ele>229.5</ele>
        <time>2012-12-24T14:04:42.000Z</time>
      </trkpt>
      <trkpt lat="47.03416" lon="5.39364">
        <ele>230</ele>
        <time>2012-12-24T14:04:45.000Z</time>
      </trkpt>
      <trkpt lat="47.03416" lon="5.39366">
        <ele>229.9</ele>
        <time>2012-12-24T14:04:46.000Z</time>
      </trkpt>
      <trkpt lat="47.03414" lon="5.39372">
        <ele>229.7</ele>
        <time>2012-12-24T14:04:49.000Z</time>
      </trkpt>
      <trkpt lat="47.03414" lon="5.39374">
        <ele>230</ele>
        <time>2012-12-24T14:04:50.000Z</time>
      </trkpt>
      <trkpt lat="47.03413" lon="5.39378">
        <ele>230.8</ele>
        <time>2012-12-24T14:04:52.000Z</time>
      </trkpt>
      <trkpt lat="47.03412" lon="5.3938">
        <ele>231.1</ele>
        <time>2012-12-24T14:04:53.000Z</time>
      </trkpt>
      <trkpt lat="47.03411" lon="5.39384">
        <ele>231.4</ele>
        <time>2012-12-24T14:04:55.000Z</time>
      </trkpt>
      <trkpt lat="47.0341" lon="5.39386">
        <ele>231.4</ele>
        <time>2012-12-24T14:04:56.000Z</time>
      </trkpt>
      <trkpt lat="47.03409" lon="5.39392">
        <ele>231.5</ele>
        <time>2012-12-24T14:04:59.000Z</time>
      </trkpt>
      <trkpt lat="47.03409" lon="5.39394">
        <ele>231.5</ele>
        <time>2012-12-24T14:05:00.000Z</time>
      </trkpt>
      <trkpt lat="47.03407" lon="5.39399">
        <ele>231.6</ele>
        <time>2012-12-24T14:05:03.000Z</time>
      </trkpt>
      <trkpt lat="47.03406" lon="5.39401">
        <ele>231.5</ele>
        <time>2012-12-24T14:05:04.000Z</time>
      </trkpt>
      <trkpt lat="47.03404" lon="5.39406">
        <ele>231.5</ele>
        <time>2012-12-24T14:05:07.000Z</time>
      </trkpt>
      <trkpt lat="47.03404" lon="5.39408">
        <ele>231.6</ele>
        <time>2012-12-24T14:05:08.000Z</time>
      </trkpt>
      <trkpt lat="47.03402" lon="5.39413">
        <ele>231.4</ele>
        <time>2012-12-24T14:05:11.000Z</time>
      </trkpt>
      <trkpt lat="47.03402" lon="5.39415">
        <ele>231.3</ele>
        <time>2012-12-24T14:05:12.000Z</time>
      </trkpt>
      <trkpt lat="47.034" lon="5.3942">
        <ele>231.2</ele>
        <time>2012-12-24T14:05:15.000Z</time>
      </trkpt>
      <trkpt lat="47.03399" lon="5.39422">
        <ele>231.3</ele>
        <time>2012-12-24T14:05:16.000Z</time>
      </trkpt>
      <trkpt lat="47.03398" lon="5.39427">
        <ele>231</ele>
        <time>2012-12-24T14:05:19.000Z</time>
      </trkpt>
      <trkpt lat="47.03397" lon="5.39428">
        <ele>231</ele>
        <time>2012-12-24T14:05:20.000Z</time>
      </trkpt>
      <trkpt lat="47.03394" lon="5.39429">
        <ele>230.2</ele>
        <time>2012-12-24T14:05:29.000Z</time>
      </trkpt>
      <trkpt lat="47.03389" lon="5.39445">
        <ele>230.3</ele>
        <time>2012-12-24T14:05:30.000Z</time>
      </trkpt>
      <trkpt lat="47.03387" lon="5.39452">
        <ele>231.4</ele>
        <time>2012-12-24T14:05:33.000Z</time>
      </trkpt>
      <trkpt lat="47.03387" lon="5.39453">
        <ele>231.6</ele>
        <time>2012-12-24T14:05:34.000Z</time>
      </trkpt>
      <trkpt lat="47.03385" lon="5.39457">
        <ele>232</ele>
        <time>2012-12-24T14:05:37.000Z</time>
      </trkpt>
      <trkpt lat="47.03384" lon="5.39459">
        <ele>232.2</ele>
        <time>2012-12-24T14:05:38.000Z</time>
      </trkpt>
      <trkpt lat="47.03382" lon="5.39464">
        <ele>232.4</ele>
        <time>2012-12-24T14:05:41.000Z</time>
      </trkpt>
      <trkpt lat="47.03382" lon="5.39466">
        <ele>232.7</ele>
        <time>2012-12-24T14:05:42.000Z</time>
      </trkpt>
      <trkpt lat="47.0338" lon="5.3947">
        <ele>233.4</ele>
        <time>2012-12-24T14:05:44.000Z</time>
      </trkpt>
      <trkpt lat="47.0338" lon="5.39472">
        <ele>233.5</ele>
        <time>2012-12-24T14:05:45.000Z</time>
      </trkpt>
      <trkpt lat="47.03379" lon="5.39477">
        <ele>233.8</ele>
        <time>2012-12-24T14:05:48.000Z</time>
      </trkpt>
      <trkpt lat="47.03378" lon="5.39479">
        <ele>233.9</ele>
        <time>2012-12-24T14:05:49.000Z</time>
      </trkpt>
      <trkpt lat="47.03377" lon="5.39484">
        <ele>234</ele>
        <time>2012-12-24T14:05:52.000Z</time>
      </trkpt>
      <trkpt lat="47.03376" lon="5.39486">
        <ele>233.9</ele>
        <time>2012-12-24T14:05:53.000Z</time>
      </trkpt>
      <trkpt lat="47.03374" lon="5.39492">
        <ele>234.5</ele>
        <time>2012-12-24T14:05:56.000Z</time>
      </trkpt>
      <trkpt lat="47.03374" lon="5.39493">
        <ele>234.6</ele>
        <time>2012-12-24T14:05:57.000Z</time>
      </trkpt>
      <trkpt lat="47.03372" lon="5.39499">
        <ele>234.7</ele>
        <time>2012-12-24T14:06:00.000Z</time>
      </trkpt>
      <trkpt lat="47.03371" lon="5.39501">
        <ele>234.9</ele>
        <time>2012-12-24T14:06:01.000Z</time>
      </trkpt>
      <trkpt lat="47.03369" lon="5.39506">
        <ele>234.8</ele>
        <time>2012-12-24T14:06:04.000Z</time>
      </trkpt>
      <trkpt lat="47.03369" lon="5.39508">
        <ele>235</ele>
        <time>2012-12-24T14:06:05.000Z</time>
      </trkpt>
      <trkpt lat="47.03367" lon="5.39514">
        <ele>235.4</ele>
        <time>2012-12-24T14:06:08.000Z</time>
      </trkpt>
      <trkpt lat="47.03367" lon="5.39516">
        <ele>235.5</ele>
        <time>2012-12-24T14:06:09.000Z</time>
      </trkpt>
      <trkpt lat="47.03365" lon="5.39522">
        <ele>235.8</ele>
        <time>2012-12-24T14:06:12.000Z</time>
      </trkpt>
      <trkpt lat="47.03365" lon="5.39524">
        <ele>235.8</ele>
        <time>2012-12-24T14:06:13.000Z</time>
      </trkpt>
      <trkpt lat="47.03363" lon="5.39529">
        <ele>235.9</ele>
        <time>2012-12-24T14:06:16.000Z</time>
      </trkpt>
      <trkpt lat="47.03363" lon="5.3953">
        <ele>235.7</ele>
        <time>2012-12-24T14:06:17.000Z</time>
      </trkpt>
      <trkpt lat="47.03361" lon="5.39536">
        <ele>235.8</ele>
        <time>2012-12-24T14:06:20.000Z</time>
      </trkpt>
      <trkpt lat="47.03361" lon="5.39537">
        <ele>235.9</ele>
        <time>2012-12-24T14:06:21.000Z</time>
      </trkpt>
      <trkpt lat="47.03359" lon="5.39543">
        <ele>235.8</ele>
        <time>2012-12-24T14:06:24.000Z</time>
      </trkpt>
      <trkpt lat="47.03359" lon="5.39544">
        <ele>235.8</ele>
        <time>2012-12-24T14:06:25.000Z</time>
      </trkpt>
      <trkpt lat="47.03357" lon="5.3955">
        <ele>235.4</ele>
        <time>2012-12-24T14:06:28.000Z</time>
      </trkpt>
      <trkpt lat="47.03357" lon="5.39551">
        <ele>235</ele>
        <time>2012-12-24T14:06:29.000Z</time>
      </trkpt>
      <trkpt lat="47.03356" lon="5.39556">
        <ele>235</ele>
        <time>2012-12-24T14:06:32.000Z</time>
      </trkpt>
      <trkpt lat="47.03355" lon="5.39558">
        <ele>235.1</ele>
        <time>2012-12-24T14:06:33.000Z</time>
      </trkpt>
      <trkpt lat="47.03354" lon="5.39563">
        <ele>235.3</ele>
        <time>2012-12-24T14:06:36.000Z</time>
      </trkpt>
      <trkpt lat="47.03353" lon="5.39565">
        <ele>235.3</ele>
        <time>2012-12-24T14:06:37.000Z</time>
      </trkpt>
      <trkpt lat="47.03351" lon="5.3957">
        <ele>235.6</ele>
        <time>2012-12-24T14:06:40.000Z</time>
      </trkpt>
      <trkpt lat="47.03351" lon="5.39572">
        <ele>235.6</ele>
        <time>2012-12-24T14:06:41.000Z</time>
      </trkpt>
      <trkpt lat="47.0335" lon="5.39578">
        <ele>235.3</ele>
        <time>2012-12-24T14:06:44.000Z</time>
      </trkpt>
      <trkpt lat="47.03349" lon="5.3958">
        <ele>235</ele>
        <time>2012-12-24T14:06:45.000Z</time>
      </trkpt>
      <trkpt lat="47.03348" lon="5.39585">
        <ele>234.6</ele>
        <time>2012-12-24T14:06:48.000Z</time>
      </trkpt>
      <trkpt lat="47.03347" lon="5.39587">
        <ele>234.6</ele>
        <time>2012-12-24T14:06:49.000Z</time>
      </trkpt>
      <trkpt lat="47.03346" lon="5.39592">
        <ele>234.4</ele>
        <time>2012-12-24T14:06:52.000Z</time>
      </trkpt>
      <trkpt lat="47.03345" lon="5.39593">
        <ele>234.3</ele>
        <time>2012-12-24T14:06:53.000Z</time>
      </trkpt>
      <trkpt lat="47.03345" lon="5.39598">
        <ele>234</ele>
        <time>2012-12-24T14:06:56.000Z</time>
      </trkpt>
      <trkpt lat="47.03344" lon="5.396">
        <ele>234</ele>
        <time>2012-12-24T14:06:57.000Z</time>
      </trkpt>
      <trkpt lat="47.03342" lon="5.39604">
        <ele>233.8</ele>
        <time>2012-12-24T14:07:00.000Z</time>
      </trkpt>
      <trkpt lat="47.03341" lon="5.39605">
        <ele>233.6</ele>
        <time>2012-12-24T14:07:01.000Z</time>
      </trkpt>
      <trkpt lat="47.03339" lon="5.39611">
        <ele>233.3</ele>
        <time>2012-12-24T14:07:05.000Z</time>
      </trkpt>
      <trkpt lat="47.03339" lon="5.39612">
        <ele>233.1</ele>
        <time>2012-12-24T14:07:06.000Z</time>
      </trkpt>
      <trkpt lat="47.03337" lon="5.39618">
        <ele>232.5</ele>
        <time>2012-12-24T14:07:10.000Z</time>
      </trkpt>
      <trkpt lat="47.03337" lon="5.39619">
        <ele>232.4</ele>
        <time>2012-12-24T14:07:11.000Z</time>
      </trkpt>
      <trkpt lat="47.03334" lon="5.39625">
        <ele>232.1</ele>
        <time>2012-12-24T14:07:15.000Z</time>
      </trkpt>
      <trkpt lat="47.03334" lon="5.39626">
        <ele>232.1</ele>
        <time>2012-12-24T14:07:16.000Z</time>
      </trkpt>
      <trkpt lat="47.03332" lon="5.39632">
        <ele>231.4</ele>
        <time>2012-12-24T14:07:20.000Z</time>
      </trkpt>
      <trkpt lat="47.03332" lon="5.39633">
        <ele>231.4</ele>
        <time>2012-12-24T14:07:21.000Z</time>
      </trkpt>
      <trkpt lat="47.03331" lon="5.39635">
        <ele>231.5</ele>
        <time>2012-12-24T14:07:22.000Z</time>
      </trkpt>
      <trkpt lat="47.03327" lon="5.39637">
        <ele>230.2</ele>
        <time>2012-12-24T14:07:27.000Z</time>
      </trkpt>
      <trkpt lat="47.03327" lon="5.39637">
        <ele>230.2</ele>
        <time>2012-12-24T14:07:29.000Z</time>
      </trkpt>
      <trkpt lat="47.03328" lon="5.39644">
        <ele>232.9</ele>
        <time>2012-12-24T14:07:30.000Z</time>
      </trkpt>
      <trkpt lat="47.03327" lon="5.3965">
        <ele>235.4</ele>
        <time>2012-12-24T14:07:32.000Z</time>
      </trkpt>
      <trkpt lat="47.03326" lon="5.39653">
        <ele>235.6</ele>
        <time>2012-12-24T14:07:33.000Z</time>
      </trkpt>
      <trkpt lat="47.03324" lon="5.39658">
        <ele>235.5</ele>
        <time>2012-12-24T14:07:36.000Z</time>
      </trkpt>
      <trkpt lat="47.03324" lon="5.39659">
        <ele>235.2</ele>
        <time>2012-12-24T14:07:37.000Z</time>
      </trkpt>
      <trkpt lat="47.03322" lon="5.39665">
        <ele>234.5</ele>
        <time>2012-12-24T14:07:42.000Z</time>
      </trkpt>
      <trkpt lat="47.03322" lon="5.39667">
        <ele>234.2</ele>
        <time>2012-12-24T14:07:43.000Z</time>
      </trkpt>
      <trkpt lat="47.0332" lon="5.39673">
        <ele>232.8</ele>
        <time>2012-12-24T14:07:47.000Z</time>
      </trkpt>
      <trkpt lat="47.03319" lon="5.39674">
        <ele>232.5</ele>
        <time>2012-12-24T14:07:48.000Z</time>
      </trkpt>
      <trkpt lat="47.03317" lon="5.39679">
        <ele>231.4</ele>
        <time>2012-12-24T14:07:52.000Z</time>
      </trkpt>
      <trkpt lat="47.03317" lon="5.39681">
        <ele>231.4</ele>
        <time>2012-12-24T14:07:53.000Z</time>
      </trkpt>
      <trkpt lat="47.03316" lon="5.39685">
        <ele>231.3</ele>
        <time>2012-12-24T14:07:56.000Z</time>
      </trkpt>
      <trkpt lat="47.03316" lon="5.39687">
        <ele>231.4</ele>
        <time>2012-12-24T14:07:57.000Z</time>
      </trkpt>
      <trkpt lat="47.03314" lon="5.39692">
        <ele>231.5</ele>
        <time>2012-12-24T14:08:00.000Z</time>
      </trkpt>
      <trkpt lat="47.03314" lon="5.39693">
        <ele>231.7</ele>
        <time>2012-12-24T14:08:01.000Z</time>
      </trkpt>
      <trkpt lat="47.03312" lon="5.39699">
        <ele>232.3</ele>
        <time>2012-12-24T14:08:05.000Z</time>
      </trkpt>
      <trkpt lat="47.03312" lon="5.39701">
        <ele>232.4</ele>
        <time>2012-12-24T14:08:06.000Z</time>
      </trkpt>
      <trkpt lat="47.0331" lon="5.39706">
        <ele>232.7</ele>
        <time>2012-12-24T14:08:10.000Z</time>
      </trkpt>
      <trkpt lat="47.0331" lon="5.39708">
        <ele>232.8</ele>
        <time>2012-12-24T14:08:11.000Z</time>
      </trkpt>
      <trkpt lat="47.03309" lon="5.39713">
        <ele>232.9</ele>
        <time>2012-12-24T14:08:15.000Z</time>
      </trkpt>
      <trkpt lat="47.03308" lon="5.39714">
        <ele>232.8</ele>
        <time>2012-12-24T14:08:16.000Z</time>
      </trkpt>
      <trkpt lat="47.03307" lon="5.39719">
        <ele>232.3</ele>
        <time>2012-12-24T14:08:20.000Z</time>
      </trkpt>
      <trkpt lat="47.03307" lon="5.39721">
        <ele>232.2</ele>
        <time>2012-12-24T14:08:21.000Z</time>
      </trkpt>
      <trkpt lat="47.03305" lon="5.39726">
        <ele>232</ele>
        <time>2012-12-24T14:08:25.000Z</time>
      </trkpt>
      <trkpt lat="47.03305" lon="5.39728">
        <ele>231.9</ele>
        <time>2012-12-24T14:08:26.000Z</time>
      </trkpt>
      <trkpt lat="47.03304" lon="5.39733">
        <ele>231.6</ele>
        <time>2012-12-24T14:08:30.000Z</time>
      </trkpt>
      <trkpt lat="47.03304" lon="5.39735">
        <ele>231.5</ele>
        <time>2012-12-24T14:08:31.000Z</time>
      </trkpt>
      <trkpt lat="47.03302" lon="5.3974">
        <ele>231.3</ele>
        <time>2012-12-24T14:08:35.000Z</time>
      </trkpt>
      <trkpt lat="47.03302" lon="5.39742">
        <ele>231.3</ele>
        <time>2012-12-24T14:08:36.000Z</time>
      </trkpt>
      <trkpt lat="47.03301" lon="5.39748">
        <ele>231.3</ele>
        <time>2012-12-24T14:08:40.000Z</time>
      </trkpt>
      <trkpt lat="47.033" lon="5.39749">
        <ele>231.4</ele>
        <time>2012-12-24T14:08:41.000Z</time>
      </trkpt>
      <trkpt lat="47.03299" lon="5.39755">
        <ele>231.6</ele>
        <time>2012-12-24T14:08:45.000Z</time>
      </trkpt>
      <trkpt lat="47.03299" lon="5.39757">
        <ele>231.8</ele>
        <time>2012-12-24T14:08:46.000Z</time>
      </trkpt>
      <trkpt lat="47.03298" lon="5.39762">
        <ele>232</ele>
        <time>2012-12-24T14:08:49.000Z</time>
      </trkpt>
      <trkpt lat="47.03298" lon="5.39764">
        <ele>232.1</ele>
        <time>2012-12-24T14:08:50.000Z</time>
      </trkpt>
      <trkpt lat="47.03297" lon="5.39769">
        <ele>232</ele>
        <time>2012-12-24T14:08:53.000Z</time>
      </trkpt>
      <trkpt lat="47.03297" lon="5.3977">
        <ele>231.9</ele>
        <time>2012-12-24T14:08:54.000Z</time>
      </trkpt>
      <trkpt lat="47.03296" lon="5.39776">
        <ele>231.7</ele>
        <time>2012-12-24T14:08:58.000Z</time>
      </trkpt>
      <trkpt lat="47.03296" lon="5.39778">
        <ele>231.6</ele>
        <time>2012-12-24T14:08:59.000Z</time>
      </trkpt>
      <trkpt lat="47.03294" lon="5.39784">
        <ele>231</ele>
        <time>2012-12-24T14:09:03.000Z</time>
      </trkpt>
      <trkpt lat="47.03294" lon="5.39785">
        <ele>230.9</ele>
        <time>2012-12-24T14:09:04.000Z</time>
      </trkpt>
      <trkpt lat="47.03293" lon="5.39792">
        <ele>230.7</ele>
        <time>2012-12-24T14:09:08.000Z</time>
      </trkpt>
      <trkpt lat="47.03293" lon="5.39793">
        <ele>230.8</ele>
        <time>2012-12-24T14:09:09.000Z</time>
      </trkpt>
      <trkpt lat="47.03292" lon="5.39798">
        <ele>230.9</ele>
        <time>2012-12-24T14:09:12.000Z</time>
      </trkpt>
      <trkpt lat="47.03292" lon="5.398">
        <ele>230.8</ele>
        <time>2012-12-24T14:09:13.000Z</time>
      </trkpt>
      <trkpt lat="47.03291" lon="5.39806">
        <ele>230.5</ele>
        <time>2012-12-24T14:09:17.000Z</time>
      </trkpt>
      <trkpt lat="47.03291" lon="5.39807">
        <ele>230.3</ele>
        <time>2012-12-24T14:09:18.000Z</time>
      </trkpt>
      <trkpt lat="47.0329" lon="5.39813">
        <ele>229.9</ele>
        <time>2012-12-24T14:09:26.000Z</time>
      </trkpt>
      <trkpt lat="47.03286" lon="5.3982">
        <ele>229.5</ele>
        <time>2012-12-24T14:09:27.000Z</time>
      </trkpt>
      <trkpt lat="47.03286" lon="5.39825">
        <ele>232.8</ele>
        <time>2012-12-24T14:09:28.000Z</time>
      </trkpt>
      <trkpt lat="47.03285" lon="5.39831">
        <ele>234.9</ele>
        <time>2012-12-24T14:09:29.000Z</time>
      </trkpt>
      <trkpt lat="47.03285" lon="5.39837">
        <ele>229.7</ele>
        <time>2012-12-24T14:09:38.000Z</time>
      </trkpt>
      <trkpt lat="47.03284" lon="5.39838">
        <ele>229.6</ele>
        <time>2012-12-24T14:09:39.000Z</time>
      </trkpt>
      <trkpt lat="47.03283" lon="5.39844">
        <ele>229.1</ele>
        <time>2012-12-24T14:09:43.000Z</time>
      </trkpt>
      <trkpt lat="47.03282" lon="5.39846">
        <ele>229.1</ele>
        <time>2012-12-24T14:09:44.000Z</time>
      </trkpt>
      <trkpt lat="47.0328" lon="5.39851">
        <ele>229.1</ele>
        <time>2012-12-24T14:09:48.000Z</time>
      </trkpt>
      <trkpt lat="47.0328" lon="5.39853">
        <ele>228.9</ele>
        <time>2012-12-24T14:09:49.000Z</time>
      </trkpt>
      <trkpt lat="47.03278" lon="5.39858">
        <ele>228.7</ele>
        <time>2012-12-24T14:09:53.000Z</time>
      </trkpt>
      <trkpt lat="47.03278" lon="5.3986">
        <ele>228.7</ele>
        <time>2012-12-24T14:09:54.000Z</time>
      </trkpt>
      <trkpt lat="47.03277" lon="5.39865">
        <ele>228.8</ele>
        <time>2012-12-24T14:09:57.000Z</time>
      </trkpt>
      <trkpt lat="47.03276" lon="5.39867">
        <ele>229.2</ele>
        <time>2012-12-24T14:09:58.000Z</time>
      </trkpt>
      <trkpt lat="47.03274" lon="5.39871">
        <ele>229.7</ele>
        <time>2012-12-24T14:10:01.000Z</time>
      </trkpt>
      <trkpt lat="47.03274" lon="5.39873">
        <ele>229.7</ele>
        <time>2012-12-24T14:10:02.000Z</time>
      </trkpt>
      <trkpt lat="47.03272" lon="5.39877">
        <ele>229.5</ele>
        <time>2012-12-24T14:10:05.000Z</time>
      </trkpt>
      <trkpt lat="47.03272" lon="5.39879">
        <ele>229.4</ele>
        <time>2012-12-24T14:10:06.000Z</time>
      </trkpt>
      <trkpt lat="47.0327" lon="5.39883">
        <ele>229.3</ele>
        <time>2012-12-24T14:10:09.000Z</time>
      </trkpt>
      <trkpt lat="47.0327" lon="5.39885">
        <ele>229.4</ele>
        <time>2012-12-24T14:10:10.000Z</time>
      </trkpt>
      <trkpt lat="47.03268" lon="5.3989">
        <ele>229.6</ele>
        <time>2012-12-24T14:10:13.000Z</time>
      </trkpt>
      <trkpt lat="47.03267" lon="5.39891">
        <ele>229.7</ele>
        <time>2012-12-24T14:10:14.000Z</time>
      </trkpt>
      <trkpt lat="47.03266" lon="5.39897">
        <ele>229.7</ele>
        <time>2012-12-24T14:10:18.000Z</time>
      </trkpt>
      <trkpt lat="47.03265" lon="5.39899">
        <ele>229.7</ele>
        <time>2012-12-24T14:10:19.000Z</time>
      </trkpt>
      <trkpt lat="47.03263" lon="5.39904">
        <ele>229.9</ele>
        <time>2012-12-24T14:10:23.000Z</time>
      </trkpt>
      <trkpt lat="47.03263" lon="5.39905">
        <ele>229.8</ele>
        <time>2012-12-24T14:10:24.000Z</time>
      </trkpt>
      <trkpt lat="47.03261" lon="5.3991">
        <ele>229.9</ele>
        <time>2012-12-24T14:10:28.000Z</time>
      </trkpt>
      <trkpt lat="47.0326" lon="5.39911">
        <ele>229.9</ele>
        <time>2012-12-24T14:10:29.000Z</time>
      </trkpt>
      <trkpt lat="47.03258" lon="5.39916">
        <ele>230.2</ele>
        <time>2012-12-24T14:10:32.000Z</time>
      </trkpt>
      <trkpt lat="47.03258" lon="5.39918">
        <ele>230.3</ele>
        <time>2012-12-24T14:10:33.000Z</time>
      </trkpt>
      <trkpt lat="47.03256" lon="5.39923">
        <ele>230.4</ele>
        <time>2012-12-24T14:10:37.000Z</time>
      </trkpt>
      <trkpt lat="47.03255" lon="5.39925">
        <ele>230.7</ele>
        <time>2012-12-24T14:10:38.000Z</time>
      </trkpt>
      <trkpt lat="47.03253" lon="5.39931">
        <ele>231.6</ele>
        <time>2012-12-24T14:10:41.000Z</time>
      </trkpt>
      <trkpt lat="47.03253" lon="5.39932">
        <ele>231.8</ele>
        <time>2012-12-24T14:10:42.000Z</time>
      </trkpt>
      <trkpt lat="47.03252" lon="5.39938">
        <ele>232.7</ele>
        <time>2012-12-24T14:10:45.000Z</time>
      </trkpt>
      <trkpt lat="47.03251" lon="5.39939">
        <ele>232.9</ele>
        <time>2012-12-24T14:10:46.000Z</time>
      </trkpt>
      <trkpt lat="47.03249" lon="5.39944">
        <ele>233.2</ele>
        <time>2012-12-24T14:10:49.000Z</time>
      </trkpt>
      <trkpt lat="47.03249" lon="5.39945">
        <ele>233.4</ele>
        <time>2012-12-24T14:10:50.000Z</time>
      </trkpt>
      <trkpt lat="47.03247" lon="5.3995">
        <ele>233.9</ele>
        <time>2012-12-24T14:10:53.000Z</time>
      </trkpt>
      <trkpt lat="47.03246" lon="5.39952">
        <ele>234.1</ele>
        <time>2012-12-24T14:10:54.000Z</time>
      </trkpt>
      <trkpt lat="47.03245" lon="5.39958">
        <ele>234.9</ele>
        <time>2012-12-24T14:10:57.000Z</time>
      </trkpt>
      <trkpt lat="47.03245" lon="5.39959">
        <ele>234.8</ele>
        <time>2012-12-24T14:10:58.000Z</time>
      </trkpt>
      <trkpt lat="47.03243" lon="5.39965">
        <ele>234.5</ele>
        <time>2012-12-24T14:11:02.000Z</time>
      </trkpt>
      <trkpt lat="47.03243" lon="5.39966">
        <ele>234.5</ele>
        <time>2012-12-24T14:11:03.000Z</time>
      </trkpt>
      <trkpt lat="47.03241" lon="5.39972">
        <ele>234.7</ele>
        <time>2012-12-24T14:11:07.000Z</time>
      </trkpt>
      <trkpt lat="47.03241" lon="5.39974">
        <ele>234.9</ele>
        <time>2012-12-24T14:11:08.000Z</time>
      </trkpt>
      <trkpt lat="47.0324" lon="5.3998">
        <ele>235.3</ele>
        <time>2012-12-24T14:11:13.000Z</time>
      </trkpt>
      <trkpt lat="47.03239" lon="5.3998">
        <ele>235.4</ele>
        <time>2012-12-24T14:11:14.000Z</time>
      </trkpt>
      <trkpt lat="47.03238" lon="5.39986">
        <ele>236.1</ele>
        <time>2012-12-24T14:11:19.000Z</time>
      </trkpt>
      <trkpt lat="47.03238" lon="5.39988">
        <ele>236.1</ele>
        <time>2012-12-24T14:11:20.000Z</time>
      </trkpt>
      <trkpt lat="47.03237" lon="5.39994">
        <ele>237.1</ele>
        <time>2012-12-24T14:11:24.000Z</time>
      </trkpt>
      <trkpt lat="47.03237" lon="5.39996">
        <ele>237.2</ele>
        <time>2012-12-24T14:11:25.000Z</time>
      </trkpt>
      <trkpt lat="47.03236" lon="5.40002">
        <ele>237.3</ele>
        <time>2012-12-24T14:11:29.000Z</time>
      </trkpt>
      <trkpt lat="47.03236" lon="5.40003">
        <ele>237.4</ele>
        <time>2012-12-24T14:11:30.000Z</time>
      </trkpt>
      <trkpt lat="47.03236" lon="5.40008">
        <ele>237.2</ele>
        <time>2012-12-24T14:11:33.000Z</time>
      </trkpt>
      <trkpt lat="47.03236" lon="5.4001">
        <ele>237</ele>
        <time>2012-12-24T14:11:34.000Z</time>
      </trkpt>
      <trkpt lat="47.03236" lon="5.40016">
        <ele>235.4</ele>
        <time>2012-12-24T14:11:39.000Z</time>
      </trkpt>
      <trkpt lat="47.03236" lon="5.40018">
        <ele>235</ele>
        <time>2012-12-24T14:11:40.000Z</time>
      </trkpt>
      <trkpt lat="47.03236" lon="5.40023">
        <ele>234.6</ele>
        <time>2012-12-24T14:11:44.000Z</time>
      </trkpt>
      <trkpt lat="47.03236" lon="5.40024">
        <ele>234.7</ele>
        <time>2012-12-24T14:11:45.000Z</time>
      </trkpt>
      <trkpt lat="47.03236" lon="5.40031">
        <ele>234.7</ele>
        <time>2012-12-24T14:11:54.000Z</time>
      </trkpt>
      <trkpt lat="47.03236" lon="5.40031">
        <ele>234.9</ele>
        <time>2012-12-24T14:11:55.000Z</time>
      </trkpt>
      <trkpt lat="47.03235" lon="5.40037">
        <ele>236</ele>
        <time>2012-12-24T14:12:07.000Z</time>
      </trkpt>
      <trkpt lat="47.03235" lon="5.40039">
        <ele>236.3</ele>
        <time>2012-12-24T14:12:08.000Z</time>
      </trkpt>
      <trkpt lat="47.03233" lon="5.40045">
        <ele>237.1</ele>
        <time>2012-12-24T14:12:12.000Z</time>
      </trkpt>
      <trkpt lat="47.03233" lon="5.40047">
        <ele>237.2</ele>
        <time>2012-12-24T14:12:13.000Z</time>
      </trkpt>
      <trkpt lat="47.03231" lon="5.40052">
        <ele>237.4</ele>
        <time>2012-12-24T14:12:17.000Z</time>
      </trkpt>
      <trkpt lat="47.03231" lon="5.40054">
        <ele>237.6</ele>
        <time>2012-12-24T14:12:18.000Z</time>
      </trkpt>
      <trkpt lat="47.0323" lon="5.40059">
        <ele>237.1</ele>
        <time>2012-12-24T14:12:22.000Z</time>
      </trkpt>
      <trkpt lat="47.0323" lon="5.40061">
        <ele>237</ele>
        <time>2012-12-24T14:12:23.000Z</time>
      </trkpt>
      <trkpt lat="47.0323" lon="5.40066">
        <ele>236.6</ele>
        <time>2012-12-24T14:12:27.000Z</time>
      </trkpt>
      <trkpt lat="47.03229" lon="5.40068">
        <ele>236.5</ele>
        <time>2012-12-24T14:12:28.000Z</time>
      </trkpt>
      <trkpt lat="47.03228" lon="5.40073">
        <ele>235.9</ele>
        <time>2012-12-24T14:12:37.000Z</time>
      </trkpt>
      <trkpt lat="47.03228" lon="5.40074">
        <ele>235.8</ele>
        <time>2012-12-24T14:12:38.000Z</time>
      </trkpt>
      <trkpt lat="47.03226" lon="5.40079">
        <ele>235.4</ele>
        <time>2012-12-24T14:12:43.000Z</time>
      </trkpt>
      <trkpt lat="47.03226" lon="5.4008">
        <ele>235.5</ele>
        <time>2012-12-24T14:12:44.000Z</time>
      </trkpt>
      <trkpt lat="47.03223" lon="5.40084">
        <ele>236.5</ele>
        <time>2012-12-24T14:12:47.000Z</time>
      </trkpt>
      <trkpt lat="47.03222" lon="5.40085">
        <ele>236.4</ele>
        <time>2012-12-24T14:12:48.000Z</time>
      </trkpt>
      <trkpt lat="47.0322" lon="5.40091">
        <ele>236.2</ele>
        <time>2012-12-24T14:13:13.000Z</time>
      </trkpt>
      <trkpt lat="47.03221" lon="5.40092">
        <ele>236.2</ele>
        <time>2012-12-24T14:13:14.000Z</time>
      </trkpt>
      <trkpt lat="47.0322" lon="5.40095">
        <ele>237.3</ele>
        <time>2012-12-24T14:13:22.000Z</time>
      </trkpt>
      <trkpt lat="47.03218" lon="5.40119">
        <ele>241.4</ele>
        <time>2012-12-24T14:13:27.000Z</time>
      </trkpt>
      <trkpt lat="47.03214" lon="5.4012">
        <ele>240</ele>
        <time>2012-12-24T14:13:29.000Z</time>
      </trkpt>
      <trkpt lat="47.03209" lon="5.40119">
        <ele>229.4</ele>
        <time>2012-12-24T14:13:30.000Z</time>
      </trkpt>
      <trkpt lat="47.03207" lon="5.40124">
        <ele>204.6</ele>
        <time>2012-12-24T14:13:33.000Z</time>
      </trkpt>
      <trkpt lat="47.03207" lon="5.40126">
        <ele>207.3</ele>
        <time>2012-12-24T14:13:34.000Z</time>
      </trkpt>
      <trkpt lat="47.03206" lon="5.40133">
        <ele>224.6</ele>
        <time>2012-12-24T14:13:46.000Z</time>
      </trkpt>
      <trkpt lat="47.03206" lon="5.40133">
        <ele>224.2</ele>
        <time>2012-12-24T14:13:47.000Z</time>
      </trkpt>
      <trkpt lat="47.03204" lon="5.40139">
        <ele>231</ele>
        <time>2012-12-24T14:14:14.000Z</time>
      </trkpt>
      <trkpt lat="47.03204" lon="5.40139">
        <ele>230.6</ele>
        <time>2012-12-24T14:14:15.000Z</time>
      </trkpt>
      <trkpt lat="47.03201" lon="5.40142">
        <ele>229.8</ele>
        <time>2012-12-24T14:14:18.000Z</time>
      </trkpt>
      <trkpt lat="47.032" lon="5.40143">
        <ele>229.6</ele>
        <time>2012-12-24T14:14:19.000Z</time>
      </trkpt>
      <trkpt lat="47.03198" lon="5.40147">
        <ele>228.6</ele>
        <time>2012-12-24T14:14:22.000Z</time>
      </trkpt>
      <trkpt lat="47.03197" lon="5.40149">
        <ele>228.5</ele>
        <time>2012-12-24T14:14:23.000Z</time>
      </trkpt>
      <trkpt lat="47.03196" lon="5.40153">
        <ele>227.6</ele>
        <time>2012-12-24T14:14:26.000Z</time>
      </trkpt>
      <trkpt lat="47.03195" lon="5.40155">
        <ele>227.5</ele>
        <time>2012-12-24T14:14:27.000Z</time>
      </trkpt>
      <trkpt lat="47.03194" lon="5.4016">
        <ele>227.3</ele>
        <time>2012-12-24T14:14:30.000Z</time>
      </trkpt>
      <trkpt lat="47.03193" lon="5.40162">
        <ele>227.3</ele>
        <time>2012-12-24T14:14:31.000Z</time>
      </trkpt>
      <trkpt lat="47.03191" lon="5.40168">
        <ele>225.5</ele>
        <time>2012-12-24T14:14:36.000Z</time>
      </trkpt>
      <trkpt lat="47.03191" lon="5.40168">
        <ele>225.5</ele>
        <time>2012-12-24T14:14:37.000Z</time>
      </trkpt>
      <trkpt lat="47.03189" lon="5.40172">
        <ele>226.9</ele>
        <time>2012-12-24T14:14:44.000Z</time>
      </trkpt>
      <trkpt lat="47.03188" lon="5.40173">
        <ele>227.4</ele>
        <time>2012-12-24T14:14:45.000Z</time>
      </trkpt>
      <trkpt lat="47.03186" lon="5.40178">
        <ele>228.5</ele>
        <time>2012-12-24T14:14:48.000Z</time>
      </trkpt>
      <trkpt lat="47.03185" lon="5.40179">
        <ele>228.8</ele>
        <time>2012-12-24T14:14:49.000Z</time>
      </trkpt>
      <trkpt lat="47.03188" lon="5.40184">
        <ele>229</ele>
        <time>2012-12-24T14:14:53.000Z</time>
      </trkpt>
      <trkpt lat="47.03188" lon="5.40184">
        <ele>228.6</ele>
        <time>2012-12-24T14:14:54.000Z</time>
      </trkpt>
      <trkpt lat="47.03191" lon="5.40187">
        <ele>228.3</ele>
        <time>2012-12-24T14:14:58.000Z</time>
      </trkpt>
      <trkpt lat="47.03192" lon="5.40188">
        <ele>228.7</ele>
        <time>2012-12-24T14:14:59.000Z</time>
      </trkpt>
      <trkpt lat="47.03194" lon="5.40194">
        <ele>230.1</ele>
        <time>2012-12-24T14:15:15.000Z</time>
      </trkpt>
      <trkpt lat="47.03194" lon="5.40194">
        <ele>230.4</ele>
        <time>2012-12-24T14:15:16.000Z</time>
      </trkpt>
      <trkpt lat="47.03197" lon="5.40199">
        <ele>231.4</ele>
        <time>2012-12-24T14:15:21.000Z</time>
      </trkpt>
      <trkpt lat="47.03197" lon="5.40201">
        <ele>231.7</ele>
        <time>2012-12-24T14:15:22.000Z</time>
      </trkpt>
      <trkpt lat="47.03199" lon="5.40206">
        <ele>231.9</ele>
        <time>2012-12-24T14:15:26.000Z</time>
      </trkpt>
      <trkpt lat="47.03199" lon="5.40207">
        <ele>232.2</ele>
        <time>2012-12-24T14:15:27.000Z</time>
      </trkpt>
      <trkpt lat="47.03201" lon="5.40213">
        <ele>233.1</ele>
        <time>2012-12-24T14:15:31.000Z</time>
      </trkpt>
      <trkpt lat="47.03201" lon="5.40215">
        <ele>233.2</ele>
        <time>2012-12-24T14:15:32.000Z</time>
      </trkpt>
      <trkpt lat="47.03204" lon="5.40219">
        <ele>233.8</ele>
        <time>2012-12-24T14:15:36.000Z</time>
      </trkpt>
      <trkpt lat="47.03205" lon="5.4022">
        <ele>233.8</ele>
        <time>2012-12-24T14:15:37.000Z</time>
      </trkpt>
      <trkpt lat="47.03208" lon="5.40222">
        <ele>234.1</ele>
        <time>2012-12-24T14:15:40.000Z</time>
      </trkpt>
      <trkpt lat="47.03209" lon="5.40223">
        <ele>234.4</ele>
        <time>2012-12-24T14:15:41.000Z</time>
      </trkpt>
      <trkpt lat="47.03213" lon="5.40225">
        <ele>234.3</ele>
        <time>2012-12-24T14:15:45.000Z</time>
      </trkpt>
      <trkpt lat="47.03213" lon="5.40225">
        <ele>234.2</ele>
        <time>2012-12-24T14:15:46.000Z</time>
      </trkpt>
      <trkpt lat="47.03216" lon="5.4023">
        <ele>234.7</ele>
        <time>2012-12-24T14:15:51.000Z</time>
      </trkpt>
      <trkpt lat="47.03217" lon="5.40231">
        <ele>234.9</ele>
        <time>2012-12-24T14:15:52.000Z</time>
      </trkpt>
      <trkpt lat="47.0322" lon="5.40234">
        <ele>235.2</ele>
        <time>2012-12-24T14:15:55.000Z</time>
      </trkpt>
      <trkpt lat="47.03221" lon="5.40235">
        <ele>235.4</ele>
        <time>2012-12-24T14:15:56.000Z</time>
      </trkpt>
      <trkpt lat="47.03224" lon="5.40238">
        <ele>235.4</ele>
        <time>2012-12-24T14:15:59.000Z</time>
      </trkpt>
      <trkpt lat="47.03225" lon="5.40239">
        <ele>235.3</ele>
        <time>2012-12-24T14:16:00.000Z</time>
      </trkpt>
      <trkpt lat="47.03228" lon="5.40242">
        <ele>235</ele>
        <time>2012-12-24T14:16:04.000Z</time>
      </trkpt>
      <trkpt lat="47.03229" lon="5.40243">
        <ele>235</ele>
        <time>2012-12-24T14:16:05.000Z</time>
      </trkpt>
      <trkpt lat="47.03231" lon="5.40247">
        <ele>234.4</ele>
        <time>2012-12-24T14:16:09.000Z</time>
      </trkpt>
      <trkpt lat="47.03232" lon="5.40248">
        <ele>234.3</ele>
        <time>2012-12-24T14:16:10.000Z</time>
      </trkpt>
      <trkpt lat="47.03235" lon="5.40253">
        <ele>234.4</ele>
        <time>2012-12-24T14:16:14.000Z</time>
      </trkpt>
      <trkpt lat="47.03235" lon="5.40255">
        <ele>234.2</ele>
        <time>2012-12-24T14:16:15.000Z</time>
      </trkpt>
      <trkpt lat="47.03237" lon="5.40259">
        <ele>234.6</ele>
        <time>2012-12-24T14:16:18.000Z</time>
      </trkpt>
      <trkpt lat="47.03238" lon="5.4026">
        <ele>235</ele>
        <time>2012-12-24T14:16:19.000Z</time>
      </trkpt>
      <trkpt lat="47.0324" lon="5.40264">
        <ele>236.5</ele>
        <time>2012-12-24T14:16:22.000Z</time>
      </trkpt>
      <trkpt lat="47.0324" lon="5.40266">
        <ele>236.9</ele>
        <time>2012-12-24T14:16:23.000Z</time>
      </trkpt>
      <trkpt lat="47.03242" lon="5.40271">
        <ele>238.3</ele>
        <time>2012-12-24T14:16:31.000Z</time>
      </trkpt>
      <trkpt lat="47.03243" lon="5.40272">
        <ele>238.2</ele>
        <time>2012-12-24T14:16:32.000Z</time>
      </trkpt>
      <trkpt lat="47.03245" lon="5.40276">
        <ele>238.4</ele>
        <time>2012-12-24T14:16:35.000Z</time>
      </trkpt>
      <trkpt lat="47.03246" lon="5.40277">
        <ele>238.5</ele>
        <time>2012-12-24T14:16:36.000Z</time>
      </trkpt>
      <trkpt lat="47.03249" lon="5.4028">
        <ele>238.5</ele>
        <time>2012-12-24T14:16:39.000Z</time>
      </trkpt>
      <trkpt lat="47.0325" lon="5.40281">
        <ele>238.7</ele>
        <time>2012-12-24T14:16:40.000Z</time>
      </trkpt>
      <trkpt lat="47.03253" lon="5.40285">
        <ele>239.2</ele>
        <time>2012-12-24T14:16:44.000Z</time>
      </trkpt>
      <trkpt lat="47.03255" lon="5.40287">
        <ele>239.2</ele>
        <time>2012-12-24T14:16:45.000Z</time>
      </trkpt>
      <trkpt lat="47.03258" lon="5.4029">
        <ele>239.4</ele>
        <time>2012-12-24T14:16:48.000Z</time>
      </trkpt>
      <trkpt lat="47.03259" lon="5.40291">
        <ele>239.5</ele>
        <time>2012-12-24T14:16:49.000Z</time>
      </trkpt>
      <trkpt lat="47.03262" lon="5.40293">
        <ele>239.3</ele>
        <time>2012-12-24T14:16:52.000Z</time>
      </trkpt>
      <trkpt lat="47.03263" lon="5.40294">
        <ele>239.1</ele>
        <time>2012-12-24T14:16:53.000Z</time>
      </trkpt>
      <trkpt lat="47.03266" lon="5.40298">
        <ele>238.9</ele>
        <time>2012-12-24T14:16:57.000Z</time>
      </trkpt>
      <trkpt lat="47.03266" lon="5.40299">
        <ele>238.8</ele>
        <time>2012-12-24T14:16:58.000Z</time>
      </trkpt>
      <trkpt lat="47.03264" lon="5.40304">
        <ele>238.7</ele>
        <time>2012-12-24T14:17:02.000Z</time>
      </trkpt>
      <trkpt lat="47.03264" lon="5.40306">
        <ele>238.5</ele>
        <time>2012-12-24T14:17:03.000Z</time>
      </trkpt>
      <trkpt lat="47.03268" lon="5.40309">
        <ele>238.7</ele>
        <time>2012-12-24T14:17:07.000Z</time>
      </trkpt>
      <trkpt lat="47.03269" lon="5.4031">
        <ele>238.5</ele>
        <time>2012-12-24T14:17:08.000Z</time>
      </trkpt>
      <trkpt lat="47.03272" lon="5.40314">
        <ele>238.9</ele>
        <time>2012-12-24T14:17:11.000Z</time>
      </trkpt>
      <trkpt lat="47.03273" lon="5.40315">
        <ele>239.1</ele>
        <time>2012-12-24T14:17:12.000Z</time>
      </trkpt>
      <trkpt lat="47.03277" lon="5.40318">
        <ele>240.1</ele>
        <time>2012-12-24T14:17:15.000Z</time>
      </trkpt>
      <trkpt lat="47.03278" lon="5.40319">
        <ele>240.3</ele>
        <time>2012-12-24T14:17:16.000Z</time>
      </trkpt>
      <trkpt lat="47.03281" lon="5.40323">
        <ele>240.5</ele>
        <time>2012-12-24T14:17:20.000Z</time>
      </trkpt>
      <trkpt lat="47.03281" lon="5.40324">
        <ele>240.4</ele>
        <time>2012-12-24T14:17:21.000Z</time>
      </trkpt>
      <trkpt lat="47.03284" lon="5.40329">
        <ele>240.6</ele>
        <time>2012-12-24T14:17:25.000Z</time>
      </trkpt>
      <trkpt lat="47.03285" lon="5.4033">
        <ele>240.7</ele>
        <time>2012-12-24T14:17:26.000Z</time>
      </trkpt>
      <trkpt lat="47.03287" lon="5.40334">
        <ele>241</ele>
        <time>2012-12-24T14:17:29.000Z</time>
      </trkpt>
      <trkpt lat="47.03288" lon="5.40335">
        <ele>241</ele>
        <time>2012-12-24T14:17:30.000Z</time>
      </trkpt>
      <trkpt lat="47.03291" lon="5.4034">
        <ele>241.1</ele>
        <time>2012-12-24T14:17:36.000Z</time>
      </trkpt>
      <trkpt lat="47.03291" lon="5.4034">
        <ele>241.3</ele>
        <time>2012-12-24T14:17:37.000Z</time>
      </trkpt>
      <trkpt lat="47.03294" lon="5.40343">
        <ele>241.6</ele>
        <time>2012-12-24T14:17:49.000Z</time>
      </trkpt>
      <trkpt lat="47.03294" lon="5.40345">
        <ele>241.8</ele>
        <time>2012-12-24T14:17:50.000Z</time>
      </trkpt>
      <trkpt lat="47.03297" lon="5.40349">
        <ele>242</ele>
        <time>2012-12-24T14:17:53.000Z</time>
      </trkpt>
      <trkpt lat="47.03298" lon="5.4035">
        <ele>241.9</ele>
        <time>2012-12-24T14:17:54.000Z</time>
      </trkpt>
      <trkpt lat="47.033" lon="5.40354">
        <ele>242.5</ele>
        <time>2012-12-24T14:17:57.000Z</time>
      </trkpt>
      <trkpt lat="47.03301" lon="5.40355">
        <ele>242.6</ele>
        <time>2012-12-24T14:17:58.000Z</time>
      </trkpt>
      <trkpt lat="47.03304" lon="5.40359">
        <ele>242.5</ele>
        <time>2012-12-24T14:18:01.000Z</time>
      </trkpt>
      <trkpt lat="47.03304" lon="5.4036">
        <ele>242.4</ele>
        <time>2012-12-24T14:18:02.000Z</time>
      </trkpt>
      <trkpt lat="47.03307" lon="5.40364">
        <ele>241.7</ele>
        <time>2012-12-24T14:18:06.000Z</time>
      </trkpt>
      <trkpt lat="47.03308" lon="5.40364">
        <ele>241.3</ele>
        <time>2012-12-24T14:18:07.000Z</time>
      </trkpt>
      <trkpt lat="47.0331" lon="5.4037">
        <ele>239.3</ele>
        <time>2012-12-24T14:18:16.000Z</time>
      </trkpt>
      <trkpt lat="47.0331" lon="5.40371">
        <ele>239.2</ele>
        <time>2012-12-24T14:18:17.000Z</time>
      </trkpt>
      <trkpt lat="47.03314" lon="5.40376">
        <ele>238.5</ele>
        <time>2012-12-24T14:18:21.000Z</time>
      </trkpt>
      <trkpt lat="47.03316" lon="5.40389">
        <ele>254.1</ele>
        <time>2012-12-24T14:18:29.000Z</time>
      </trkpt>
      <trkpt lat="47.03316" lon="5.40389">
        <ele>254.1</ele>
        <time>2012-12-24T14:18:31.000Z</time>
      </trkpt>
      <trkpt lat="47.0333" lon="5.40389">
        <ele>256.4</ele>
        <time>2012-12-24T14:18:32.000Z</time>
      </trkpt>
      <trkpt lat="47.03331" lon="5.40395">
        <ele>247.3</ele>
        <time>2012-12-24T14:18:40.000Z</time>
      </trkpt>
      <trkpt lat="47.03331" lon="5.40396">
        <ele>246.2</ele>
        <time>2012-12-24T14:18:41.000Z</time>
      </trkpt>
      <trkpt lat="47.03333" lon="5.40401">
        <ele>241.9</ele>
        <time>2012-12-24T14:18:46.000Z</time>
      </trkpt>
      <trkpt lat="47.03333" lon="5.40401">
        <ele>241.4</ele>
        <time>2012-12-24T14:18:47.000Z</time>
      </trkpt>
      <trkpt lat="47.03335" lon="5.40407">
        <ele>239.6</ele>
        <time>2012-12-24T14:18:52.000Z</time>
      </trkpt>
      <trkpt lat="47.03335" lon="5.40409">
        <ele>239.7</ele>
        <time>2012-12-24T14:18:53.000Z</time>
      </trkpt>
      <trkpt lat="47.03338" lon="5.40413">
        <ele>240</ele>
        <time>2012-12-24T14:18:57.000Z</time>
      </trkpt>
      <trkpt lat="47.03339" lon="5.40414">
        <ele>240</ele>
        <time>2012-12-24T14:18:58.000Z</time>
      </trkpt>
      <trkpt lat="47.03342" lon="5.40418">
        <ele>240.6</ele>
        <time>2012-12-24T14:19:02.000Z</time>
      </trkpt>
      <trkpt lat="47.03343" lon="5.40419">
        <ele>240.5</ele>
        <time>2012-12-24T14:19:03.000Z</time>
      </trkpt>
      <trkpt lat="47.03346" lon="5.40423">
        <ele>240</ele>
        <time>2012-12-24T14:19:07.000Z</time>
      </trkpt>
      <trkpt lat="47.03346" lon="5.40424">
        <ele>239.7</ele>
        <time>2012-12-24T14:19:08.000Z</time>
      </trkpt>
      <trkpt lat="47.03349" lon="5.40428">
        <ele>239.6</ele>
        <time>2012-12-24T14:19:12.000Z</time>
      </trkpt>
      <trkpt lat="47.03349" lon="5.40429">
        <ele>239.5</ele>
        <time>2012-12-24T14:19:13.000Z</time>
      </trkpt>
      <trkpt lat="47.03352" lon="5.40433">
        <ele>239.8</ele>
        <time>2012-12-24T14:19:17.000Z</time>
      </trkpt>
      <trkpt lat="47.03353" lon="5.40433">
        <ele>239.9</ele>
        <time>2012-12-24T14:19:18.000Z</time>
      </trkpt>
      <trkpt lat="47.03355" lon="5.40438">
        <ele>240.4</ele>
        <time>2012-12-24T14:19:22.000Z</time>
      </trkpt>
      <trkpt lat="47.03356" lon="5.40439">
        <ele>240.4</ele>
        <time>2012-12-24T14:19:23.000Z</time>
      </trkpt>
      <trkpt lat="47.03359" lon="5.40443">
        <ele>241.6</ele>
        <time>2012-12-24T14:19:27.000Z</time>
      </trkpt>
      <trkpt lat="47.03359" lon="5.40444">
        <ele>241.5</ele>
        <time>2012-12-24T14:19:28.000Z</time>
      </trkpt>
      <trkpt lat="47.03362" lon="5.40448">
        <ele>240.9</ele>
        <time>2012-12-24T14:19:39.000Z</time>
      </trkpt>
      <trkpt lat="47.03362" lon="5.40449">
        <ele>240.7</ele>
        <time>2012-12-24T14:19:40.000Z</time>
      </trkpt>
      <trkpt lat="47.03365" lon="5.40453">
        <ele>240.9</ele>
        <time>2012-12-24T14:19:44.000Z</time>
      </trkpt>
      <trkpt lat="47.03366" lon="5.40454">
        <ele>240.9</ele>
        <time>2012-12-24T14:19:45.000Z</time>
      </trkpt>
      <trkpt lat="47.03368" lon="5.40459">
        <ele>241.3</ele>
        <time>2012-12-24T14:19:49.000Z</time>
      </trkpt>
      <trkpt lat="47.03369" lon="5.40461">
        <ele>241.2</ele>
        <time>2012-12-24T14:19:50.000Z</time>
      </trkpt>
      <trkpt lat="47.03371" lon="5.40465">
        <ele>241.2</ele>
        <time>2012-12-24T14:19:54.000Z</time>
      </trkpt>
      <trkpt lat="47.03372" lon="5.40467">
        <ele>241</ele>
        <time>2012-12-24T14:19:55.000Z</time>
      </trkpt>
      <trkpt lat="47.03374" lon="5.40471">
        <ele>239.5</ele>
        <time>2012-12-24T14:20:00.000Z</time>
      </trkpt>
      <trkpt lat="47.03375" lon="5.40472">
        <ele>239.2</ele>
        <time>2012-12-24T14:20:01.000Z</time>
      </trkpt>
      <trkpt lat="47.03377" lon="5.40477">
        <ele>239.5</ele>
        <time>2012-12-24T14:20:09.000Z</time>
      </trkpt>
      <trkpt lat="47.03378" lon="5.40478">
        <ele>239.6</ele>
        <time>2012-12-24T14:20:10.000Z</time>
      </trkpt>
      <trkpt lat="47.03379" lon="5.40482">
        <ele>238.9</ele>
        <time>2012-12-24T14:20:14.000Z</time>
      </trkpt>
      <trkpt lat="47.0338" lon="5.40483">
        <ele>238.5</ele>
        <time>2012-12-24T14:20:15.000Z</time>
      </trkpt>
      <trkpt lat="47.03382" lon="5.40487">
        <ele>238</ele>
        <time>2012-12-24T14:20:18.000Z</time>
      </trkpt>
      <trkpt lat="47.03383" lon="5.40489">
        <ele>238</ele>
        <time>2012-12-24T14:20:19.000Z</time>
      </trkpt>
      <trkpt lat="47.03385" lon="5.40492">
        <ele>237.5</ele>
        <time>2012-12-24T14:20:22.000Z</time>
      </trkpt>
      <trkpt lat="47.03386" lon="5.40494">
        <ele>237.4</ele>
        <time>2012-12-24T14:20:23.000Z</time>
      </trkpt>
      <trkpt lat="47.03389" lon="5.40498">
        <ele>237.7</ele>
        <time>2012-12-24T14:20:27.000Z</time>
      </trkpt>
      <trkpt lat="47.0339" lon="5.40499">
        <ele>237.5</ele>
        <time>2012-12-24T14:20:28.000Z</time>
      </trkpt>
      <trkpt lat="47.03393" lon="5.40503">
        <ele>238.2</ele>
        <time>2012-12-24T14:20:32.000Z</time>
      </trkpt>
      <trkpt lat="47.03394" lon="5.40504">
        <ele>239.3</ele>
        <time>2012-12-24T14:20:33.000Z</time>
      </trkpt>
      <trkpt lat="47.03397" lon="5.40506">
        <ele>240.7</ele>
        <time>2012-12-24T14:20:36.000Z</time>
      </trkpt>
      <trkpt lat="47.03399" lon="5.40507">
        <ele>241.6</ele>
        <time>2012-12-24T14:20:37.000Z</time>
      </trkpt>
      <trkpt lat="47.03402" lon="5.4051">
        <ele>243.9</ele>
        <time>2012-12-24T14:20:40.000Z</time>
      </trkpt>
      <trkpt lat="47.03403" lon="5.40511">
        <ele>244.4</ele>
        <time>2012-12-24T14:20:41.000Z</time>
      </trkpt>
      <trkpt lat="47.03408" lon="5.40512">
        <ele>244.2</ele>
        <time>2012-12-24T14:20:46.000Z</time>
      </trkpt>
      <trkpt lat="47.03408" lon="5.40512">
        <ele>244.1</ele>
        <time>2012-12-24T14:20:47.000Z</time>
      </trkpt>
      <trkpt lat="47.03411" lon="5.40517">
        <ele>243.4</ele>
        <time>2012-12-24T14:20:55.000Z</time>
      </trkpt>
      <trkpt lat="47.03411" lon="5.40519">
        <ele>243.1</ele>
        <time>2012-12-24T14:20:56.000Z</time>
      </trkpt>
      <trkpt lat="47.03413" lon="5.40523">
        <ele>242.6</ele>
        <time>2012-12-24T14:21:00.000Z</time>
      </trkpt>
      <trkpt lat="47.03413" lon="5.40524">
        <ele>242.5</ele>
        <time>2012-12-24T14:21:01.000Z</time>
      </trkpt>
      <trkpt lat="47.03415" lon="5.4053">
        <ele>242</ele>
        <time>2012-12-24T14:21:06.000Z</time>
      </trkpt>
      <trkpt lat="47.03415" lon="5.40531">
        <ele>241.9</ele>
        <time>2012-12-24T14:21:07.000Z</time>
      </trkpt>
      <trkpt lat="47.03417" lon="5.40536">
        <ele>240.8</ele>
        <time>2012-12-24T14:21:15.000Z</time>
      </trkpt>
      <trkpt lat="47.03418" lon="5.40537">
        <ele>240.9</ele>
        <time>2012-12-24T14:21:16.000Z</time>
      </trkpt>
      <trkpt lat="47.03422" lon="5.40538">
        <ele>239.2</ele>
        <time>2012-12-24T14:21:22.000Z</time>
      </trkpt>
      <trkpt lat="47.03423" lon="5.40536">
        <ele>239.1</ele>
        <time>2012-12-24T14:21:23.000Z</time>
      </trkpt>
      <trkpt lat="47.03422" lon="5.40529">
        <ele>238.9</ele>
        <time>2012-12-24T14:21:27.000Z</time>
      </trkpt>
      <trkpt lat="47.03423" lon="5.40528">
        <ele>238.9</ele>
        <time>2012-12-24T14:21:28.000Z</time>
      </trkpt>
      <trkpt lat="47.03427" lon="5.40527">
        <ele>239.1</ele>
        <time>2012-12-24T14:21:31.000Z</time>
      </trkpt>
      <trkpt lat="47.03428" lon="5.40527">
        <ele>239.3</ele>
        <time>2012-12-24T14:21:32.000Z</time>
      </trkpt>
      <trkpt lat="47.03432" lon="5.40526">
        <ele>239.8</ele>
        <time>2012-12-24T14:21:35.000Z</time>
      </trkpt>
      <trkpt lat="47.03433" lon="5.40525">
        <ele>240.1</ele>
        <time>2012-12-24T14:21:36.000Z</time>
      </trkpt>
      <trkpt lat="47.03437" lon="5.40524">
        <ele>241.5</ele>
        <time>2012-12-24T14:21:40.000Z</time>
      </trkpt>
      <trkpt lat="47.03438" lon="5.40524">
        <ele>241.7</ele>
        <time>2012-12-24T14:21:41.000Z</time>
      </trkpt>
      <trkpt lat="47.03441" lon="5.40521">
        <ele>242.6</ele>
        <time>2012-12-24T14:21:44.000Z</time>
      </trkpt>
      <trkpt lat="47.03442" lon="5.4052">
        <ele>242.8</ele>
        <time>2012-12-24T14:21:45.000Z</time>
      </trkpt>
      <trkpt lat="47.03445" lon="5.40517">
        <ele>243.2</ele>
        <time>2012-12-24T14:21:49.000Z</time>
      </trkpt>
      <trkpt lat="47.03446" lon="5.40517">
        <ele>243.3</ele>
        <time>2012-12-24T14:21:50.000Z</time>
      </trkpt>
      <trkpt lat="47.0345" lon="5.40515">
        <ele>244</ele>
        <time>2012-12-24T14:21:54.000Z</time>
      </trkpt>
      <trkpt lat="47.03451" lon="5.40514">
        <ele>243.9</ele>
        <time>2012-12-24T14:21:55.000Z</time>
      </trkpt>
      <trkpt lat="47.03455" lon="5.40512">
        <ele>244.5</ele>
        <time>2012-12-24T14:21:59.000Z</time>
      </trkpt>
      <trkpt lat="47.03456" lon="5.40512">
        <ele>244.7</ele>
        <time>2012-12-24T14:22:00.000Z</time>
      </trkpt>
      <trkpt lat="47.0346" lon="5.40511">
        <ele>244</ele>
        <time>2012-12-24T14:22:04.000Z</time>
      </trkpt>
      <trkpt lat="47.03461" lon="5.40511">
        <ele>243.8</ele>
        <time>2012-12-24T14:22:05.000Z</time>
      </trkpt>
      <trkpt lat="47.03465" lon="5.40508">
        <ele>243</ele>
        <time>2012-12-24T14:22:09.000Z</time>
      </trkpt>
      <trkpt lat="47.03466" lon="5.40507">
        <ele>243.1</ele>
        <time>2012-12-24T14:22:10.000Z</time>
      </trkpt>
      <trkpt lat="47.03469" lon="5.40505">
        <ele>243</ele>
        <time>2012-12-24T14:22:14.000Z</time>
      </trkpt>
      <trkpt lat="47.0347" lon="5.40504">
        <ele>243</ele>
        <time>2012-12-24T14:22:15.000Z</time>
      </trkpt>
      <trkpt lat="47.03474" lon="5.40502">
        <ele>242.3</ele>
        <time>2012-12-24T14:22:19.000Z</time>
      </trkpt>
      <trkpt lat="47.03475" lon="5.40501">
        <ele>242.3</ele>
        <time>2012-12-24T14:22:20.000Z</time>
      </trkpt>
      <trkpt lat="47.03477" lon="5.40499">
        <ele>242.2</ele>
        <time>2012-12-24T14:22:22.000Z</time>
      </trkpt>
      <trkpt lat="47.03486" lon="5.40489">
        <ele>262.2</ele>
        <time>2012-12-24T14:22:27.000Z</time>
      </trkpt>
      <trkpt lat="47.0349" lon="5.40486">
        <ele>248.9</ele>
        <time>2012-12-24T14:22:37.000Z</time>
      </trkpt>
      <trkpt lat="47.03491" lon="5.40485">
        <ele>249.1</ele>
        <time>2012-12-24T14:22:38.000Z</time>
      </trkpt>
      <trkpt lat="47.03495" lon="5.40485">
        <ele>243.8</ele>
        <time>2012-12-24T14:22:44.000Z</time>
      </trkpt>
      <trkpt lat="47.03496" lon="5.40485">
        <ele>243.3</ele>
        <time>2012-12-24T14:22:45.000Z</time>
      </trkpt>
      <trkpt lat="47.03499" lon="5.40483">
        <ele>242.1</ele>
        <time>2012-12-24T14:22:50.000Z</time>
      </trkpt>
      <trkpt lat="47.035" lon="5.40482">
        <ele>241.5</ele>
        <time>2012-12-24T14:22:51.000Z</time>
      </trkpt>
      <trkpt lat="47.03503" lon="5.4048">
        <ele>241.2</ele>
        <time>2012-12-24T14:22:55.000Z</time>
      </trkpt>
      <trkpt lat="47.03504" lon="5.40479">
        <ele>241.4</ele>
        <time>2012-12-24T14:22:56.000Z</time>
      </trkpt>
      <trkpt lat="47.03507" lon="5.40476">
        <ele>241.1</ele>
        <time>2012-12-24T14:23:01.000Z</time>
      </trkpt>
      <trkpt lat="47.03508" lon="5.40475">
        <ele>241.4</ele>
        <time>2012-12-24T14:23:02.000Z</time>
      </trkpt>
      <trkpt lat="47.03511" lon="5.40472">
        <ele>241.4</ele>
        <time>2012-12-24T14:23:06.000Z</time>
      </trkpt>
      <trkpt lat="47.03512" lon="5.40472">
        <ele>240.6</ele>
        <time>2012-12-24T14:23:07.000Z</time>
      </trkpt>
      <trkpt lat="47.03516" lon="5.4047">
        <ele>239.3</ele>
        <time>2012-12-24T14:23:11.000Z</time>
      </trkpt>
      <trkpt lat="47.03517" lon="5.4047">
        <ele>239.3</ele>
        <time>2012-12-24T14:23:12.000Z</time>
      </trkpt>
      <trkpt lat="47.0352" lon="5.4047">
        <ele>241.4</ele>
        <time>2012-12-24T14:23:24.000Z</time>
      </trkpt>
      <trkpt lat="47.03521" lon="5.40469">
        <ele>243.2</ele>
        <time>2012-12-24T14:23:25.000Z</time>
      </trkpt>
      <trkpt lat="47.03525" lon="5.40466">
        <ele>246.6</ele>
        <time>2012-12-24T14:23:29.000Z</time>
      </trkpt>
      <trkpt lat="47.03526" lon="5.40466">
        <ele>246.8</ele>
        <time>2012-12-24T14:23:30.000Z</time>
      </trkpt>
      <trkpt lat="47.0353" lon="5.40465">
        <ele>249.5</ele>
        <time>2012-12-24T14:23:33.000Z</time>
      </trkpt>
      <trkpt lat="47.03531" lon="5.40464">
        <ele>251</ele>
        <time>2012-12-24T14:23:34.000Z</time>
      </trkpt>
      <trkpt lat="47.03534" lon="5.4046">
        <ele>252.7</ele>
        <time>2012-12-24T14:23:37.000Z</time>
      </trkpt>
      <trkpt lat="47.03535" lon="5.40459">
        <ele>253.2</ele>
        <time>2012-12-24T14:23:38.000Z</time>
      </trkpt>
      <trkpt lat="47.03538" lon="5.40456">
        <ele>254.3</ele>
        <time>2012-12-24T14:23:41.000Z</time>
      </trkpt>
      <trkpt lat="47.03539" lon="5.40455">
        <ele>254.5</ele>
        <time>2012-12-24T14:23:42.000Z</time>
      </trkpt>
      <trkpt lat="47.03542" lon="5.40452">
        <ele>251.8</ele>
        <time>2012-12-24T14:23:46.000Z</time>
      </trkpt>
      <trkpt lat="47.03543" lon="5.40451">
        <ele>251.3</ele>
        <time>2012-12-24T14:23:47.000Z</time>
      </trkpt>
      <trkpt lat="47.03545" lon="5.40449">
        <ele>249</ele>
        <time>2012-12-24T14:24:10.000Z</time>
      </trkpt>
      <trkpt lat="47.03547" lon="5.40447">
        <ele>249.4</ele>
        <time>2012-12-24T14:24:11.000Z</time>
      </trkpt>
      <trkpt lat="47.0355" lon="5.40445">
        <ele>250.2</ele>
        <time>2012-12-24T14:24:13.000Z</time>
      </trkpt>
      <trkpt lat="47.03552" lon="5.40443">
        <ele>250.5</ele>
        <time>2012-12-24T14:24:14.000Z</time>
      </trkpt>
      <trkpt lat="47.03554" lon="5.4044">
        <ele>251.6</ele>
        <time>2012-12-24T14:24:16.000Z</time>
      </trkpt>
      <trkpt lat="47.03556" lon="5.40439">
        <ele>252.2</ele>
        <time>2012-12-24T14:24:17.000Z</time>
      </trkpt>
      <trkpt lat="47.03558" lon="5.40435">
        <ele>253.4</ele>
        <time>2012-12-24T14:24:20.000Z</time>
      </trkpt>
      <trkpt lat="47.03559" lon="5.40434">
        <ele>253.5</ele>
        <time>2012-12-24T14:24:21.000Z</time>
      </trkpt>
      <trkpt lat="47.03561" lon="5.40428">
        <ele>253.4</ele>
        <time>2012-12-24T14:24:29.000Z</time>
      </trkpt>
      <trkpt lat="47.03562" lon="5.40427">
        <ele>253.5</ele>
        <time>2012-12-24T14:24:30.000Z</time>
      </trkpt>
      <trkpt lat="47.03565" lon="5.40423">
        <ele>254</ele>
        <time>2012-12-24T14:24:34.000Z</time>
      </trkpt>
      <trkpt lat="47.03566" lon="5.40422">
        <ele>254.2</ele>
        <time>2012-12-24T14:24:35.000Z</time>
      </trkpt>
      <trkpt lat="47.03569" lon="5.40417">
        <ele>255.3</ele>
        <time>2012-12-24T14:24:39.000Z</time>
      </trkpt>
      <trkpt lat="47.0357" lon="5.40417">
        <ele>255.8</ele>
        <time>2012-12-24T14:24:40.000Z</time>
      </trkpt>
      <trkpt lat="47.03573" lon="5.40413">
        <ele>258.2</ele>
        <time>2012-12-24T14:24:44.000Z</time>
      </trkpt>
      <trkpt lat="47.03573" lon="5.40411">
        <ele>258.4</ele>
        <time>2012-12-24T14:24:45.000Z</time>
      </trkpt>
      <trkpt lat="47.03576" lon="5.40407">
        <ele>259</ele>
        <time>2012-12-24T14:24:49.000Z</time>
      </trkpt>
      <trkpt lat="47.03577" lon="5.40406">
        <ele>259.4</ele>
        <time>2012-12-24T14:24:50.000Z</time>
      </trkpt>
      <trkpt lat="47.0358" lon="5.40403">
        <ele>259</ele>
        <time>2012-12-24T14:24:54.000Z</time>
      </trkpt>
      <trkpt lat="47.03581" lon="5.40402">
        <ele>258.9</ele>
        <time>2012-12-24T14:24:55.000Z</time>
      </trkpt>
      <trkpt lat="47.03583" lon="5.40397">
        <ele>259.3</ele>
        <time>2012-12-24T14:24:59.000Z</time>
      </trkpt>
      <trkpt lat="47.03584" lon="5.40396">
        <ele>259.2</ele>
        <time>2012-12-24T14:25:00.000Z</time>
      </trkpt>
      <trkpt lat="47.03586" lon="5.40392">
        <ele>259.8</ele>
        <time>2012-12-24T14:25:03.000Z</time>
      </trkpt>
      <trkpt lat="47.03587" lon="5.4039">
        <ele>259.8</ele>
        <time>2012-12-24T14:25:04.000Z</time>
      </trkpt>
      <trkpt lat="47.03591" lon="5.40387">
        <ele>258.4</ele>
        <time>2012-12-24T14:25:08.000Z</time>
      </trkpt>
      <trkpt lat="47.03592" lon="5.40386">
        <ele>257.9</ele>
        <time>2012-12-24T14:25:09.000Z</time>
      </trkpt>
      <trkpt lat="47.03595" lon="5.40383">
        <ele>257.3</ele>
        <time>2012-12-24T14:25:13.000Z</time>
      </trkpt>
      <trkpt lat="47.03595" lon="5.40383">
        <ele>257.3</ele>
        <time>2012-12-24T14:25:14.000Z</time>
      </trkpt>
      <trkpt lat="47.03598" lon="5.40379">
        <ele>257.3</ele>
        <time>2012-12-24T14:25:18.000Z</time>
      </trkpt>
      <trkpt lat="47.03599" lon="5.40378">
        <ele>257.4</ele>
        <time>2012-12-24T14:25:19.000Z</time>
      </trkpt>
      <trkpt lat="47.036" lon="5.40372">
        <ele>259.3</ele>
        <time>2012-12-24T14:25:23.000Z</time>
      </trkpt>
      <trkpt lat="47.03608" lon="5.40358">
        <ele>264.5</ele>
        <time>2012-12-24T14:25:31.000Z</time>
      </trkpt>
      <trkpt lat="47.0361" lon="5.40353">
        <ele>265.5</ele>
        <time>2012-12-24T14:25:35.000Z</time>
      </trkpt>
      <trkpt lat="47.03611" lon="5.40352">
        <ele>265.2</ele>
        <time>2012-12-24T14:25:36.000Z</time>
      </trkpt>
      <trkpt lat="47.03613" lon="5.40347">
        <ele>263.7</ele>
        <time>2012-12-24T14:25:41.000Z</time>
      </trkpt>
      <trkpt lat="47.03614" lon="5.40345">
        <ele>264.2</ele>
        <time>2012-12-24T14:25:42.000Z</time>
      </trkpt>
      <trkpt lat="47.03616" lon="5.40342">
        <ele>263.6</ele>
        <time>2012-12-24T14:25:46.000Z</time>
      </trkpt>
      <trkpt lat="47.03617" lon="5.4034">
        <ele>263.7</ele>
        <time>2012-12-24T14:25:47.000Z</time>
      </trkpt>
      <trkpt lat="47.03619" lon="5.40336">
        <ele>262.9</ele>
        <time>2012-12-24T14:25:51.000Z</time>
      </trkpt>
      <trkpt lat="47.0362" lon="5.40335">
        <ele>262.2</ele>
        <time>2012-12-24T14:25:52.000Z</time>
      </trkpt>
      <trkpt lat="47.03622" lon="5.40331">
        <ele>258.7</ele>
        <time>2012-12-24T14:25:57.000Z</time>
      </trkpt>
      <trkpt lat="47.03622" lon="5.4033">
        <ele>257.9</ele>
        <time>2012-12-24T14:25:58.000Z</time>
      </trkpt>
      <trkpt lat="47.03625" lon="5.40325">
        <ele>253.4</ele>
        <time>2012-12-24T14:26:04.000Z</time>
      </trkpt>
      <trkpt lat="47.03626" lon="5.40324">
        <ele>252.9</ele>
        <time>2012-12-24T14:26:05.000Z</time>
      </trkpt>
      <trkpt lat="47.03629" lon="5.40321">
        <ele>248.6</ele>
        <time>2012-12-24T14:26:22.000Z</time>
      </trkpt>
      <trkpt lat="47.0363" lon="5.40319">
        <ele>248.5</ele>
        <time>2012-12-24T14:26:23.000Z</time>
      </trkpt>
      <trkpt lat="47.03633" lon="5.40315">
        <ele>248.4</ele>
        <time>2012-12-24T14:26:27.000Z</time>
      </trkpt>
      <trkpt lat="47.03634" lon="5.40314">
        <ele>248.5</ele>
        <time>2012-12-24T14:26:28.000Z</time>
      </trkpt>
      <trkpt lat="47.03636" lon="5.40309">
        <ele>248.7</ele>
        <time>2012-12-24T14:26:32.000Z</time>
      </trkpt>
      <trkpt lat="47.03636" lon="5.40307">
        <ele>248.8</ele>
        <time>2012-12-24T14:26:33.000Z</time>
      </trkpt>
      <trkpt lat="47.03638" lon="5.40302">
        <ele>248.5</ele>
        <time>2012-12-24T14:26:37.000Z</time>
      </trkpt>
      <trkpt lat="47.03639" lon="5.40301">
        <ele>248.1</ele>
        <time>2012-12-24T14:26:38.000Z</time>
      </trkpt>
      <trkpt lat="47.03642" lon="5.40297">
        <ele>246.7</ele>
        <time>2012-12-24T14:26:43.000Z</time>
      </trkpt>
      <trkpt lat="47.03642" lon="5.40296">
        <ele>246.7</ele>
        <time>2012-12-24T14:26:44.000Z</time>
      </trkpt>
      <trkpt lat="47.03646" lon="5.40293">
        <ele>247.9</ele>
        <time>2012-12-24T14:26:48.000Z</time>
      </trkpt>
      <trkpt lat="47.03647" lon="5.40292">
        <ele>248.1</ele>
        <time>2012-12-24T14:26:49.000Z</time>
      </trkpt>
      <trkpt lat="47.03651" lon="5.40288">
        <ele>247.1</ele>
        <time>2012-12-24T14:26:54.000Z</time>
      </trkpt>
      <trkpt lat="47.03651" lon="5.40288">
        <ele>247.4</ele>
        <time>2012-12-24T14:26:55.000Z</time>
      </trkpt>
      <trkpt lat="47.03654" lon="5.40283">
        <ele>248.7</ele>
        <time>2012-12-24T14:26:59.000Z</time>
      </trkpt>
      <trkpt lat="47.03654" lon="5.40281">
        <ele>249.5</ele>
        <time>2012-12-24T14:27:00.000Z</time>
      </trkpt>
      <trkpt lat="47.03655" lon="5.40276">
        <ele>250.9</ele>
        <time>2012-12-24T14:27:03.000Z</time>
      </trkpt>
      <trkpt lat="47.03655" lon="5.40274">
        <ele>251.6</ele>
        <time>2012-12-24T14:27:04.000Z</time>
      </trkpt>
      <trkpt lat="47.03657" lon="5.40268">
        <ele>252.6</ele>
        <time>2012-12-24T14:27:07.000Z</time>
      </trkpt>
      <trkpt lat="47.03658" lon="5.40267">
        <ele>252.6</ele>
        <time>2012-12-24T14:27:08.000Z</time>
      </trkpt>
      <trkpt lat="47.03661" lon="5.40262">
        <ele>251.9</ele>
        <time>2012-12-24T14:27:12.000Z</time>
      </trkpt>
      <trkpt lat="47.03661" lon="5.40261">
        <ele>251.4</ele>
        <time>2012-12-24T14:27:13.000Z</time>
      </trkpt>
      <trkpt lat="47.03664" lon="5.40256">
        <ele>250.5</ele>
        <time>2012-12-24T14:27:17.000Z</time>
      </trkpt>
      <trkpt lat="47.03664" lon="5.40255">
        <ele>250.5</ele>
        <time>2012-12-24T14:27:18.000Z</time>
      </trkpt>
      <trkpt lat="47.03668" lon="5.40252">
        <ele>248.9</ele>
        <time>2012-12-24T14:27:28.000Z</time>
      </trkpt>
      <trkpt lat="47.03668" lon="5.4025">
        <ele>248.9</ele>
        <time>2012-12-24T14:27:29.000Z</time>
      </trkpt>
      <trkpt lat="47.0367" lon="5.40246">
        <ele>247.5</ele>
        <time>2012-12-24T14:27:32.000Z</time>
      </trkpt>
      <trkpt lat="47.03671" lon="5.40245">
        <ele>247.1</ele>
        <time>2012-12-24T14:27:33.000Z</time>
      </trkpt>
      <trkpt lat="47.03672" lon="5.40239">
        <ele>245.5</ele>
        <time>2012-12-24T14:27:37.000Z</time>
      </trkpt>
      <trkpt lat="47.03672" lon="5.40238">
        <ele>245.5</ele>
        <time>2012-12-24T14:27:38.000Z</time>
      </trkpt>
      <trkpt lat="47.03673" lon="5.40231">
        <ele>245.6</ele>
        <time>2012-12-24T14:27:42.000Z</time>
      </trkpt>
      <trkpt lat="47.03673" lon="5.4023">
        <ele>245.9</ele>
        <time>2012-12-24T14:27:43.000Z</time>
      </trkpt>
      <trkpt lat="47.03675" lon="5.40225">
        <ele>246.2</ele>
        <time>2012-12-24T14:27:46.000Z</time>
      </trkpt>
      <trkpt lat="47.03676" lon="5.40224">
        <ele>246.2</ele>
        <time>2012-12-24T14:27:47.000Z</time>
      </trkpt>
      <trkpt lat="47.03678" lon="5.4022">
        <ele>246.9</ele>
        <time>2012-12-24T14:27:50.000Z</time>
      </trkpt>
      <trkpt lat="47.03678" lon="5.40219">
        <ele>246.9</ele>
        <time>2012-12-24T14:27:51.000Z</time>
      </trkpt>
      <trkpt lat="47.0368" lon="5.40213">
        <ele>246.7</ele>
        <time>2012-12-24T14:27:55.000Z</time>
      </trkpt>
      <trkpt lat="47.0368" lon="5.40211">
        <ele>246.7</ele>
        <time>2012-12-24T14:27:56.000Z</time>
      </trkpt>
      <trkpt lat="47.03683" lon="5.40206">
        <ele>245.3</ele>
        <time>2012-12-24T14:28:01.000Z</time>
      </trkpt>
      <trkpt lat="47.03683" lon="5.40206">
        <ele>245.1</ele>
        <time>2012-12-24T14:28:02.000Z</time>
      </trkpt>
      <trkpt lat="47.03685" lon="5.40201">
        <ele>245.2</ele>
        <time>2012-12-24T14:28:06.000Z</time>
      </trkpt>
      <trkpt lat="47.03685" lon="5.402">
        <ele>245.4</ele>
        <time>2012-12-24T14:28:07.000Z</time>
      </trkpt>
      <trkpt lat="47.03687" lon="5.40195">
        <ele>245.9</ele>
        <time>2012-12-24T14:28:10.000Z</time>
      </trkpt>
      <trkpt lat="47.03688" lon="5.40194">
        <ele>245.7</ele>
        <time>2012-12-24T14:28:11.000Z</time>
      </trkpt>
      <trkpt lat="47.03691" lon="5.40189">
        <ele>245.4</ele>
        <time>2012-12-24T14:28:15.000Z</time>
      </trkpt>
      <trkpt lat="47.03691" lon="5.40188">
        <ele>245.1</ele>
        <time>2012-12-24T14:28:16.000Z</time>
      </trkpt>
      <trkpt lat="47.03693" lon="5.40183">
        <ele>244.7</ele>
        <time>2012-12-24T14:28:19.000Z</time>
      </trkpt>
      <trkpt lat="47.03693" lon="5.40182">
        <ele>244.6</ele>
        <time>2012-12-24T14:28:20.000Z</time>
      </trkpt>
      <trkpt lat="47.03696" lon="5.40177">
        <ele>244.2</ele>
        <time>2012-12-24T14:28:24.000Z</time>
      </trkpt>
      <trkpt lat="47.03696" lon="5.40176">
        <ele>244.2</ele>
        <time>2012-12-24T14:28:25.000Z</time>
      </trkpt>
      <trkpt lat="47.037" lon="5.40173">
        <ele>241.1</ele>
        <time>2012-12-24T14:28:34.000Z</time>
      </trkpt>
      <trkpt lat="47.03701" lon="5.40172">
        <ele>241.4</ele>
        <time>2012-12-24T14:28:35.000Z</time>
      </trkpt>
      <trkpt lat="47.03702" lon="5.40167">
        <ele>241.7</ele>
        <time>2012-12-24T14:28:38.000Z</time>
      </trkpt>
      <trkpt lat="47.03703" lon="5.40165">
        <ele>242</ele>
        <time>2012-12-24T14:28:39.000Z</time>
      </trkpt>
      <trkpt lat="47.03704" lon="5.40159">
        <ele>242.3</ele>
        <time>2012-12-24T14:28:42.000Z</time>
      </trkpt>
      <trkpt lat="47.03704" lon="5.40158">
        <ele>242.5</ele>
        <time>2012-12-24T14:28:43.000Z</time>
      </trkpt>
      <trkpt lat="47.03707" lon="5.40153">
        <ele>242.2</ele>
        <time>2012-12-24T14:28:49.000Z</time>
      </trkpt>
      <trkpt lat="47.03707" lon="5.40152">
        <ele>242.1</ele>
        <time>2012-12-24T14:28:50.000Z</time>
      </trkpt>
      <trkpt lat="47.03709" lon="5.40146">
        <ele>242.7</ele>
        <time>2012-12-24T14:28:54.000Z</time>
      </trkpt>
      <trkpt lat="47.03709" lon="5.40145">
        <ele>242.8</ele>
        <time>2012-12-24T14:28:55.000Z</time>
      </trkpt>
      <trkpt lat="47.03711" lon="5.40139">
        <ele>242.9</ele>
        <time>2012-12-24T14:28:59.000Z</time>
      </trkpt>
      <trkpt lat="47.03711" lon="5.40138">
        <ele>243</ele>
        <time>2012-12-24T14:29:00.000Z</time>
      </trkpt>
      <trkpt lat="47.03713" lon="5.40133">
        <ele>243.6</ele>
        <time>2012-12-24T14:29:03.000Z</time>
      </trkpt>
      <trkpt lat="47.03714" lon="5.40132">
        <ele>243.8</ele>
        <time>2012-12-24T14:29:04.000Z</time>
      </trkpt>
      <trkpt lat="47.03717" lon="5.40128">
        <ele>244.3</ele>
        <time>2012-12-24T14:29:08.000Z</time>
      </trkpt>
      <trkpt lat="47.03717" lon="5.40127">
        <ele>244.3</ele>
        <time>2012-12-24T14:29:09.000Z</time>
      </trkpt>
      <trkpt lat="47.03721" lon="5.40123">
        <ele>245.7</ele>
        <time>2012-12-24T14:29:14.000Z</time>
      </trkpt>
      <trkpt lat="47.03722" lon="5.40122">
        <ele>245.9</ele>
        <time>2012-12-24T14:29:15.000Z</time>
      </trkpt>
      <trkpt lat="47.03725" lon="5.40118">
        <ele>246</ele>
        <time>2012-12-24T14:29:19.000Z</time>
      </trkpt>
      <trkpt lat="47.03726" lon="5.40117">
        <ele>246.2</ele>
        <time>2012-12-24T14:29:20.000Z</time>
      </trkpt>
      <trkpt lat="47.03729" lon="5.40114">
        <ele>246.8</ele>
        <time>2012-12-24T14:29:25.000Z</time>
      </trkpt>
      <trkpt lat="47.0373" lon="5.40114">
        <ele>244.9</ele>
        <time>2012-12-24T14:29:26.000Z</time>
      </trkpt>
      <trkpt lat="47.03734" lon="5.40112">
        <ele>246.3</ele>
        <time>2012-12-24T14:29:33.000Z</time>
      </trkpt>
      <trkpt lat="47.03735" lon="5.40111">
        <ele>246.8</ele>
        <time>2012-12-24T14:29:34.000Z</time>
      </trkpt>
      <trkpt lat="47.03738" lon="5.40109">
        <ele>247.2</ele>
        <time>2012-12-24T14:29:37.000Z</time>
      </trkpt>
      <trkpt lat="47.03739" lon="5.40108">
        <ele>247.4</ele>
        <time>2012-12-24T14:29:38.000Z</time>
      </trkpt>
      <trkpt lat="47.03743" lon="5.40104">
        <ele>248.3</ele>
        <time>2012-12-24T14:29:42.000Z</time>
      </trkpt>
      <trkpt lat="47.03744" lon="5.40104">
        <ele>248.3</ele>
        <time>2012-12-24T14:29:43.000Z</time>
      </trkpt>
      <trkpt lat="47.03747" lon="5.40101">
        <ele>248.6</ele>
        <time>2012-12-24T14:29:47.000Z</time>
      </trkpt>
      <trkpt lat="47.03748" lon="5.401">
        <ele>248.8</ele>
        <time>2012-12-24T14:29:48.000Z</time>
      </trkpt>
      <trkpt lat="47.03752" lon="5.40099">
        <ele>251.1</ele>
        <time>2012-12-24T14:29:52.000Z</time>
      </trkpt>
      <trkpt lat="47.03753" lon="5.40098">
        <ele>251.7</ele>
        <time>2012-12-24T14:29:53.000Z</time>
      </trkpt>
      <trkpt lat="47.03757" lon="5.40095">
        <ele>252.7</ele>
        <time>2012-12-24T14:29:57.000Z</time>
      </trkpt>
      <trkpt lat="47.03758" lon="5.40094">
        <ele>252.7</ele>
        <time>2012-12-24T14:29:58.000Z</time>
      </trkpt>
      <trkpt lat="47.03761" lon="5.40091">
        <ele>252</ele>
        <time>2012-12-24T14:30:02.000Z</time>
      </trkpt>
      <trkpt lat="47.03761" lon="5.4009">
        <ele>252.2</ele>
        <time>2012-12-24T14:30:03.000Z</time>
      </trkpt>
      <trkpt lat="47.03764" lon="5.40086">
        <ele>252</ele>
        <time>2012-12-24T14:30:07.000Z</time>
      </trkpt>
      <trkpt lat="47.03765" lon="5.40086">
        <ele>251.9</ele>
        <time>2012-12-24T14:30:08.000Z</time>
      </trkpt>
      <trkpt lat="47.03769" lon="5.40083">
        <ele>250.9</ele>
        <time>2012-12-24T14:30:16.000Z</time>
      </trkpt>
      <trkpt lat="47.03769" lon="5.40084">
        <ele>249.6</ele>
        <time>2012-12-24T14:30:17.000Z</time>
      </trkpt>
      <trkpt lat="47.03773" lon="5.40083">
        <ele>248.6</ele>
        <time>2012-12-24T14:30:22.000Z</time>
      </trkpt>
      <trkpt lat="47.03774" lon="5.40083">
        <ele>248.3</ele>
        <time>2012-12-24T14:30:23.000Z</time>
      </trkpt>
      <trkpt lat="47.03778" lon="5.40082">
        <ele>247.1</ele>
        <time>2012-12-24T14:30:27.000Z</time>
      </trkpt>
      <trkpt lat="47.0378" lon="5.40082">
        <ele>247.2</ele>
        <time>2012-12-24T14:30:28.000Z</time>
      </trkpt>
      <trkpt lat="47.03783" lon="5.40082">
        <ele>246.9</ele>
        <time>2012-12-24T14:30:31.000Z</time>
      </trkpt>
      <trkpt lat="47.03784" lon="5.40083">
        <ele>246.3</ele>
        <time>2012-12-24T14:30:32.000Z</time>
      </trkpt>
      <trkpt lat="47.03788" lon="5.40083">
        <ele>246.2</ele>
        <time>2012-12-24T14:30:36.000Z</time>
      </trkpt>
      <trkpt lat="47.03789" lon="5.40084">
        <ele>246.2</ele>
        <time>2012-12-24T14:30:37.000Z</time>
      </trkpt>
      <trkpt lat="47.03793" lon="5.40085">
        <ele>245.6</ele>
        <time>2012-12-24T14:30:41.000Z</time>
      </trkpt>
      <trkpt lat="47.03794" lon="5.40086">
        <ele>245.4</ele>
        <time>2012-12-24T14:30:42.000Z</time>
      </trkpt>
      <trkpt lat="47.03797" lon="5.40089">
        <ele>245.1</ele>
        <time>2012-12-24T14:30:45.000Z</time>
      </trkpt>
      <trkpt lat="47.03798" lon="5.40089">
        <ele>245</ele>
        <time>2012-12-24T14:30:46.000Z</time>
      </trkpt>
      <trkpt lat="47.03802" lon="5.40091">
        <ele>244.5</ele>
        <time>2012-12-24T14:30:50.000Z</time>
      </trkpt>
      <trkpt lat="47.03803" lon="5.40091">
        <ele>244.3</ele>
        <time>2012-12-24T14:30:51.000Z</time>
      </trkpt>
      <trkpt lat="47.03807" lon="5.40094">
        <ele>243.8</ele>
        <time>2012-12-24T14:30:55.000Z</time>
      </trkpt>
      <trkpt lat="47.03808" lon="5.40095">
        <ele>243.9</ele>
        <time>2012-12-24T14:30:56.000Z</time>
      </trkpt>
      <trkpt lat="47.03811" lon="5.40097">
        <ele>243.8</ele>
        <time>2012-12-24T14:31:00.000Z</time>
      </trkpt>
      <trkpt lat="47.03812" lon="5.40098">
        <ele>243.8</ele>
        <time>2012-12-24T14:31:01.000Z</time>
      </trkpt>
      <trkpt lat="47.03816" lon="5.40101">
        <ele>243.3</ele>
        <time>2012-12-24T14:31:09.000Z</time>
      </trkpt>
      <trkpt lat="47.03816" lon="5.40102">
        <ele>243.2</ele>
        <time>2012-12-24T14:31:10.000Z</time>
      </trkpt>
      <trkpt lat="47.03819" lon="5.40104">
        <ele>242.6</ele>
        <time>2012-12-24T14:31:14.000Z</time>
      </trkpt>
      <trkpt lat="47.0382" lon="5.40105">
        <ele>242.8</ele>
        <time>2012-12-24T14:31:15.000Z</time>
      </trkpt>
      <trkpt lat="47.03823" lon="5.40109">
        <ele>242.9</ele>
        <time>2012-12-24T14:31:19.000Z</time>
      </trkpt>
      <trkpt lat="47.03824" lon="5.4011">
        <ele>243</ele>
        <time>2012-12-24T14:31:20.000Z</time>
      </trkpt>
      <trkpt lat="47.03828" lon="5.40114">
        <ele>242.8</ele>
        <time>2012-12-24T14:31:24.000Z</time>
      </trkpt>
      <trkpt lat="47.03829" lon="5.40114">
        <ele>242.7</ele>
        <time>2012-12-24T14:31:25.000Z</time>
      </trkpt>
      <trkpt lat="47.03832" lon="5.40116">
        <ele>242.5</ele>
        <time>2012-12-24T14:31:29.000Z</time>
      </trkpt>
      <trkpt lat="47.03833" lon="5.40117">
        <ele>242.4</ele>
        <time>2012-12-24T14:31:30.000Z</time>
      </trkpt>
      <trkpt lat="47.03836" lon="5.40119">
        <ele>242.4</ele>
        <time>2012-12-24T14:31:34.000Z</time>
      </trkpt>
      <trkpt lat="47.03837" lon="5.4012">
        <ele>242.4</ele>
        <time>2012-12-24T14:31:35.000Z</time>
      </trkpt>
      <trkpt lat="47.03841" lon="5.40123">
        <ele>241.9</ele>
        <time>2012-12-24T14:31:39.000Z</time>
      </trkpt>
      <trkpt lat="47.03842" lon="5.40123">
        <ele>241.7</ele>
        <time>2012-12-24T14:31:40.000Z</time>
      </trkpt>
      <trkpt lat="47.03845" lon="5.40127">
        <ele>240.7</ele>
        <time>2012-12-24T14:31:44.000Z</time>
      </trkpt>
      <trkpt lat="47.03845" lon="5.40127">
        <ele>240.5</ele>
        <time>2012-12-24T14:31:45.000Z</time>
      </trkpt>
      <trkpt lat="47.03849" lon="5.4013">
        <ele>238.1</ele>
        <time>2012-12-24T14:31:55.000Z</time>
      </trkpt>
      <trkpt lat="47.0385" lon="5.40131">
        <ele>238.1</ele>
        <time>2012-12-24T14:31:56.000Z</time>
      </trkpt>
      <trkpt lat="47.03853" lon="5.40133">
        <ele>238</ele>
        <time>2012-12-24T14:31:59.000Z</time>
      </trkpt>
      <trkpt lat="47.03854" lon="5.40134">
        <ele>238.1</ele>
        <time>2012-12-24T14:32:00.000Z</time>
      </trkpt>
      <trkpt lat="47.03858" lon="5.40137">
        <ele>237.7</ele>
        <time>2012-12-24T14:32:04.000Z</time>
      </trkpt>
      <trkpt lat="47.03859" lon="5.40138">
        <ele>237.7</ele>
        <time>2012-12-24T14:32:05.000Z</time>
      </trkpt>
      <trkpt lat="47.03862" lon="5.40141">
        <ele>237.4</ele>
        <time>2012-12-24T14:32:09.000Z</time>
      </trkpt>
      <trkpt lat="47.03863" lon="5.40141">
        <ele>237.3</ele>
        <time>2012-12-24T14:32:10.000Z</time>
      </trkpt>
      <trkpt lat="47.03867" lon="5.40144">
        <ele>237</ele>
        <time>2012-12-24T14:32:14.000Z</time>
      </trkpt>
      <trkpt lat="47.03867" lon="5.40145">
        <ele>236.9</ele>
        <time>2012-12-24T14:32:15.000Z</time>
      </trkpt>
      <trkpt lat="47.03871" lon="5.40148">
        <ele>237</ele>
        <time>2012-12-24T14:32:19.000Z</time>
      </trkpt>
      <trkpt lat="47.03872" lon="5.40148">
        <ele>236.9</ele>
        <time>2012-12-24T14:32:20.000Z</time>
      </trkpt>
      <trkpt lat="47.03873" lon="5.40154">
        <ele>237.2</ele>
        <time>2012-12-24T14:32:32.000Z</time>
      </trkpt>
      <trkpt lat="47.03874" lon="5.40155">
        <ele>236.6</ele>
        <time>2012-12-24T14:32:33.000Z</time>
      </trkpt>
      <trkpt lat="47.03877" lon="5.40157">
        <ele>236.5</ele>
        <time>2012-12-24T14:32:36.000Z</time>
      </trkpt>
      <trkpt lat="47.03878" lon="5.40157">
        <ele>236.2</ele>
        <time>2012-12-24T14:32:37.000Z</time>
      </trkpt>
      <trkpt lat="47.03882" lon="5.4016">
        <ele>235.8</ele>
        <time>2012-12-24T14:32:41.000Z</time>
      </trkpt>
      <trkpt lat="47.03883" lon="5.40161">
        <ele>235.6</ele>
        <time>2012-12-24T14:32:42.000Z</time>
      </trkpt>
      <trkpt lat="47.03886" lon="5.40163">
        <ele>234.8</ele>
        <time>2012-12-24T14:32:46.000Z</time>
      </trkpt>
      <trkpt lat="47.03887" lon="5.40164">
        <ele>234.9</ele>
        <time>2012-12-24T14:32:47.000Z</time>
      </trkpt>
      <trkpt lat="47.0389" lon="5.40167">
        <ele>235.1</ele>
        <time>2012-12-24T14:32:51.000Z</time>
      </trkpt>
      <trkpt lat="47.03891" lon="5.40167">
        <ele>235.2</ele>
        <time>2012-12-24T14:32:52.000Z</time>
      </trkpt>
      <trkpt lat="47.03895" lon="5.40169">
        <ele>235.8</ele>
        <time>2012-12-24T14:32:55.000Z</time>
      </trkpt>
      <trkpt lat="47.03896" lon="5.4017">
        <ele>235.9</ele>
        <time>2012-12-24T14:32:56.000Z</time>
      </trkpt>
      <trkpt lat="47.03899" lon="5.40172">
        <ele>236.4</ele>
        <time>2012-12-24T14:32:59.000Z</time>
      </trkpt>
      <trkpt lat="47.039" lon="5.40173">
        <ele>236.7</ele>
        <time>2012-12-24T14:33:00.000Z</time>
      </trkpt>
      <trkpt lat="47.03904" lon="5.40176">
        <ele>237.4</ele>
        <time>2012-12-24T14:33:04.000Z</time>
      </trkpt>
      <trkpt lat="47.03905" lon="5.40176">
        <ele>237.4</ele>
        <time>2012-12-24T14:33:05.000Z</time>
      </trkpt>
      <trkpt lat="47.03909" lon="5.40179">
        <ele>238</ele>
        <time>2012-12-24T14:33:09.000Z</time>
      </trkpt>
      <trkpt lat="47.0391" lon="5.40179">
        <ele>238.2</ele>
        <time>2012-12-24T14:33:10.000Z</time>
      </trkpt>
      <trkpt lat="47.03914" lon="5.40181">
        <ele>239</ele>
        <time>2012-12-24T14:33:14.000Z</time>
      </trkpt>
      <trkpt lat="47.03914" lon="5.40182">
        <ele>239</ele>
        <time>2012-12-24T14:33:15.000Z</time>
      </trkpt>
      <trkpt lat="47.03918" lon="5.40184">
        <ele>239.1</ele>
        <time>2012-12-24T14:33:19.000Z</time>
      </trkpt>
      <trkpt lat="47.03919" lon="5.40185">
        <ele>239.4</ele>
        <time>2012-12-24T14:33:20.000Z</time>
      </trkpt>
      <trkpt lat="47.03918" lon="5.40188">
        <ele>238.7</ele>
        <time>2012-12-24T14:33:29.000Z</time>
      </trkpt>
      <trkpt lat="47.03927" lon="5.40188">
        <ele>242.1</ele>
        <time>2012-12-24T14:33:30.000Z</time>
      </trkpt>
      <trkpt lat="47.0393" lon="5.40189">
        <ele>243.3</ele>
        <time>2012-12-24T14:33:31.000Z</time>
      </trkpt>
      <trkpt lat="47.03932" lon="5.40189">
        <ele>244.3</ele>
        <time>2012-12-24T14:33:32.000Z</time>
      </trkpt>
      <trkpt lat="47.03936" lon="5.40191">
        <ele>245.5</ele>
        <time>2012-12-24T14:33:35.000Z</time>
      </trkpt>
      <trkpt lat="47.03937" lon="5.40192">
        <ele>245.3</ele>
        <time>2012-12-24T14:33:36.000Z</time>
      </trkpt>
      <trkpt lat="47.0394" lon="5.40195">
        <ele>244.9</ele>
        <time>2012-12-24T14:33:41.000Z</time>
      </trkpt>
      <trkpt lat="47.03941" lon="5.40195">
        <ele>244.9</ele>
        <time>2012-12-24T14:33:42.000Z</time>
      </trkpt>
      <trkpt lat="47.03944" lon="5.40199">
        <ele>242.9</ele>
        <time>2012-12-24T14:33:47.000Z</time>
      </trkpt>
      <trkpt lat="47.03945" lon="5.40199">
        <ele>242.8</ele>
        <time>2012-12-24T14:33:48.000Z</time>
      </trkpt>
      <trkpt lat="47.03948" lon="5.40202">
        <ele>242.6</ele>
        <time>2012-12-24T14:33:52.000Z</time>
      </trkpt>
      <trkpt lat="47.03949" lon="5.40203">
        <ele>242.4</ele>
        <time>2012-12-24T14:33:53.000Z</time>
      </trkpt>
      <trkpt lat="47.03953" lon="5.40205">
        <ele>241.5</ele>
        <time>2012-12-24T14:33:58.000Z</time>
      </trkpt>
      <trkpt lat="47.03953" lon="5.40205">
        <ele>241.5</ele>
        <time>2012-12-24T14:33:59.000Z</time>
      </trkpt>
      <trkpt lat="47.03957" lon="5.40208">
        <ele>241.9</ele>
        <time>2012-12-24T14:34:03.000Z</time>
      </trkpt>
      <trkpt lat="47.03958" lon="5.40208">
        <ele>242.1</ele>
        <time>2012-12-24T14:34:04.000Z</time>
      </trkpt>
      <trkpt lat="47.03961" lon="5.40213">
        <ele>239.7</ele>
        <time>2012-12-24T14:34:12.000Z</time>
      </trkpt>
      <trkpt lat="47.03962" lon="5.40213">
        <ele>239.9</ele>
        <time>2012-12-24T14:34:13.000Z</time>
      </trkpt>
      <trkpt lat="47.03965" lon="5.40215">
        <ele>240.6</ele>
        <time>2012-12-24T14:34:17.000Z</time>
      </trkpt>
      <trkpt lat="47.03966" lon="5.40215">
        <ele>240.5</ele>
        <time>2012-12-24T14:34:18.000Z</time>
      </trkpt>
      <trkpt lat="47.03969" lon="5.40218">
        <ele>240.2</ele>
        <time>2012-12-24T14:34:22.000Z</time>
      </trkpt>
      <trkpt lat="47.0397" lon="5.40218">
        <ele>240.1</ele>
        <time>2012-12-24T14:34:23.000Z</time>
      </trkpt>
      <trkpt lat="47.03974" lon="5.4022">
        <ele>239.9</ele>
        <time>2012-12-24T14:34:27.000Z</time>
      </trkpt>
      <trkpt lat="47.03975" lon="5.4022">
        <ele>239.8</ele>
        <time>2012-12-24T14:34:28.000Z</time>
      </trkpt>
      <trkpt lat="47.03978" lon="5.40223">
        <ele>239.9</ele>
        <time>2012-12-24T14:34:32.000Z</time>
      </trkpt>
      <trkpt lat="47.03979" lon="5.40223">
        <ele>240</ele>
        <time>2012-12-24T14:34:33.000Z</time>
      </trkpt>
      <trkpt lat="47.03983" lon="5.40226">
        <ele>240</ele>
        <time>2012-12-24T14:34:37.000Z</time>
      </trkpt>
      <trkpt lat="47.03983" lon="5.40226">
        <ele>239.9</ele>
        <time>2012-12-24T14:34:38.000Z</time>
      </trkpt>
      <trkpt lat="47.03987" lon="5.40227">
        <ele>238.8</ele>
        <time>2012-12-24T14:34:55.000Z</time>
      </trkpt>
      <trkpt lat="47.03988" lon="5.40226">
        <ele>238.8</ele>
        <time>2012-12-24T14:34:56.500Z</time>
      </trkpt>
      <trkpt lat="47.03985" lon="5.4023">
        <ele>237</ele>
        <time>2012-12-24T14:35:17.000Z</time>
      </trkpt>
      <trkpt lat="47.03984" lon="5.40229">
        <ele>238</ele>
        <time>2012-12-24T14:35:18.000Z</time>
      </trkpt>
      <trkpt lat="47.03986" lon="5.40234">
        <ele>238.7</ele>
        <time>2012-12-24T14:35:38.000Z</time>
      </trkpt>
      <trkpt lat="47.03987" lon="5.40235">
        <ele>238.7</ele>
        <time>2012-12-24T14:35:39.000Z</time>
      </trkpt>
      <trkpt lat="47.0399" lon="5.40239">
        <ele>238.5</ele>
        <time>2012-12-24T14:35:44.000Z</time>
      </trkpt>
      <trkpt lat="47.0399" lon="5.4024">
        <ele>238.4</ele>
        <time>2012-12-24T14:35:45.000Z</time>
      </trkpt>
      <trkpt lat="47.03994" lon="5.40241">
        <ele>238.7</ele>
        <time>2012-12-24T14:35:51.000Z</time>
      </trkpt>
      <trkpt lat="47.03994" lon="5.40241">
        <ele>238.7</ele>
        <time>2012-12-24T14:35:52.000Z</time>
      </trkpt>
      <trkpt lat="47.03998" lon="5.40243">
        <ele>237.8</ele>
        <time>2012-12-24T14:35:57.000Z</time>
      </trkpt>
      <trkpt lat="47.03999" lon="5.40244">
        <ele>237.8</ele>
        <time>2012-12-24T14:35:58.000Z</time>
      </trkpt>
      <trkpt lat="47.04003" lon="5.40247">
        <ele>237.7</ele>
        <time>2012-12-24T14:36:03.000Z</time>
      </trkpt>
      <trkpt lat="47.04003" lon="5.40248">
        <ele>237.5</ele>
        <time>2012-12-24T14:36:04.000Z</time>
      </trkpt>
      <trkpt lat="47.04007" lon="5.4025">
        <ele>236.8</ele>
        <time>2012-12-24T14:36:10.000Z</time>
      </trkpt>
      <trkpt lat="47.04008" lon="5.40249">
        <ele>236.7</ele>
        <time>2012-12-24T14:36:11.000Z</time>
      </trkpt>
      <trkpt lat="47.04008" lon="5.40249">
        <ele>237.2</ele>
        <time>2012-12-24T14:36:22.000Z</time>
      </trkpt>
      <trkpt lat="47.04022" lon="5.40251">
        <ele>233.1</ele>
        <time>2012-12-24T14:36:34.000Z</time>
      </trkpt>
      <trkpt lat="47.04027" lon="5.4025">
        <ele>231.4</ele>
        <time>2012-12-24T14:36:36.000Z</time>
      </trkpt>
      <trkpt lat="47.04029" lon="5.4025">
        <ele>230.4</ele>
        <time>2012-12-24T14:36:37.000Z</time>
      </trkpt>
      <trkpt lat="47.04032" lon="5.40253">
        <ele>227.4</ele>
        <time>2012-12-24T14:36:41.000Z</time>
      </trkpt>
      <trkpt lat="47.04033" lon="5.40254">
        <ele>227.3</ele>
        <time>2012-12-24T14:36:42.000Z</time>
      </trkpt>
      <trkpt lat="47.04035" lon="5.4026">
        <ele>229.5</ele>
        <time>2012-12-24T14:36:48.000Z</time>
      </trkpt>
      <trkpt lat="47.04037" lon="5.4026">
        <ele>231.7</ele>
        <time>2012-12-24T14:36:49.000Z</time>
      </trkpt>
      <trkpt lat="47.0404" lon="5.40262">
        <ele>235.5</ele>
        <time>2012-12-24T14:36:51.000Z</time>
      </trkpt>
      <trkpt lat="47.04041" lon="5.40263">
        <ele>236.6</ele>
        <time>2012-12-24T14:36:52.000Z</time>
      </trkpt>
      <trkpt lat="47.04044" lon="5.40267">
        <ele>239.7</ele>
        <time>2012-12-24T14:36:55.000Z</time>
      </trkpt>
      <trkpt lat="47.04046" lon="5.40268">
        <ele>240.4</ele>
        <time>2012-12-24T14:36:56.000Z</time>
      </trkpt>
      <trkpt lat="47.04049" lon="5.40272">
        <ele>243.1</ele>
        <time>2012-12-24T14:36:59.000Z</time>
      </trkpt>
      <trkpt lat="47.0405" lon="5.40274">
        <ele>243.4</ele>
        <time>2012-12-24T14:37:00.000Z</time>
      </trkpt>
      <trkpt lat="47.04052" lon="5.40278">
        <ele>244.3</ele>
        <time>2012-12-24T14:37:03.000Z</time>
      </trkpt>
      <trkpt lat="47.04053" lon="5.4028">
        <ele>244.4</ele>
        <time>2012-12-24T14:37:04.000Z</time>
      </trkpt>
      <trkpt lat="47.04054" lon="5.40286">
        <ele>243.2</ele>
        <time>2012-12-24T14:37:08.000Z</time>
      </trkpt>
      <trkpt lat="47.04054" lon="5.40287">
        <ele>242</ele>
        <time>2012-12-24T14:37:09.000Z</time>
      </trkpt>
      <trkpt lat="47.04054" lon="5.40292">
        <ele>240.4</ele>
        <time>2012-12-24T14:37:13.000Z</time>
      </trkpt>
      <trkpt lat="47.04054" lon="5.40294">
        <ele>240.6</ele>
        <time>2012-12-24T14:37:14.000Z</time>
      </trkpt>
      <trkpt lat="47.04055" lon="5.40299">
        <ele>240.7</ele>
        <time>2012-12-24T14:37:17.000Z</time>
      </trkpt>
      <trkpt lat="47.04055" lon="5.40301">
        <ele>240.5</ele>
        <time>2012-12-24T14:37:18.000Z</time>
      </trkpt>
      <trkpt lat="47.04056" lon="5.40306">
        <ele>239.9</ele>
        <time>2012-12-24T14:37:22.000Z</time>
      </trkpt>
      <trkpt lat="47.04056" lon="5.40307">
        <ele>239.8</ele>
        <time>2012-12-24T14:37:23.000Z</time>
      </trkpt>
      <trkpt lat="47.04056" lon="5.40313">
        <ele>239.4</ele>
        <time>2012-12-24T14:37:27.000Z</time>
      </trkpt>
      <trkpt lat="47.04056" lon="5.40314">
        <ele>239.2</ele>
        <time>2012-12-24T14:37:28.000Z</time>
      </trkpt>
      <trkpt lat="47.04056" lon="5.40321">
        <ele>239</ele>
        <time>2012-12-24T14:37:33.000Z</time>
      </trkpt>
      <trkpt lat="47.04056" lon="5.40322">
        <ele>238.9</ele>
        <time>2012-12-24T14:37:34.000Z</time>
      </trkpt>
      <trkpt lat="47.04057" lon="5.40327">
        <ele>238.8</ele>
        <time>2012-12-24T14:37:38.000Z</time>
      </trkpt>
      <trkpt lat="47.04057" lon="5.40329">
        <ele>238.8</ele>
        <time>2012-12-24T14:37:39.000Z</time>
      </trkpt>
      <trkpt lat="47.04057" lon="5.40334">
        <ele>238.9</ele>
        <time>2012-12-24T14:37:43.000Z</time>
      </trkpt>
      <trkpt lat="47.04057" lon="5.40335">
        <ele>238.9</ele>
        <time>2012-12-24T14:37:44.000Z</time>
      </trkpt>
      <trkpt lat="47.04058" lon="5.40342">
        <ele>238.5</ele>
        <time>2012-12-24T14:37:49.000Z</time>
      </trkpt>
      <trkpt lat="47.04058" lon="5.40343">
        <ele>238.5</ele>
        <time>2012-12-24T14:37:50.000Z</time>
      </trkpt>
      <trkpt lat="47.04058" lon="5.40349">
        <ele>238.4</ele>
        <time>2012-12-24T14:37:54.000Z</time>
      </trkpt>
      <trkpt lat="47.04058" lon="5.4035">
        <ele>238.4</ele>
        <time>2012-12-24T14:37:55.000Z</time>
      </trkpt>
      <trkpt lat="47.04058" lon="5.40356">
        <ele>238.1</ele>
        <time>2012-12-24T14:38:00.000Z</time>
      </trkpt>
      <trkpt lat="47.04059" lon="5.40357">
        <ele>238.2</ele>
        <time>2012-12-24T14:38:01.000Z</time>
      </trkpt>
      <trkpt lat="47.0406" lon="5.40363">
        <ele>238.2</ele>
        <time>2012-12-24T14:38:08.000Z</time>
      </trkpt>
      <trkpt lat="47.04061" lon="5.40363">
        <ele>238.1</ele>
        <time>2012-12-24T14:38:09.000Z</time>
      </trkpt>
      <trkpt lat="47.04063" lon="5.40368">
        <ele>238</ele>
        <time>2012-12-24T14:38:16.000Z</time>
      </trkpt>
      <trkpt lat="47.04064" lon="5.40368">
        <ele>238.2</ele>
        <time>2012-12-24T14:38:17.000Z</time>
      </trkpt>
      <trkpt lat="47.04068" lon="5.4037">
        <ele>237.9</ele>
        <time>2012-12-24T14:38:25.000Z</time>
      </trkpt>
      <trkpt lat="47.04069" lon="5.40371">
        <ele>238</ele>
        <time>2012-12-24T14:38:26.000Z</time>
      </trkpt>
      <trkpt lat="47.04071" lon="5.40375">
        <ele>237.8</ele>
        <time>2012-12-24T14:38:29.000Z</time>
      </trkpt>
      <trkpt lat="47.04072" lon="5.40376">
        <ele>237.9</ele>
        <time>2012-12-24T14:38:30.000Z</time>
      </trkpt>
      <trkpt lat="47.04075" lon="5.4038">
        <ele>237.6</ele>
        <time>2012-12-24T14:38:34.000Z</time>
      </trkpt>
      <trkpt lat="47.04076" lon="5.40381">
        <ele>237.6</ele>
        <time>2012-12-24T14:38:35.000Z</time>
      </trkpt>
      <trkpt lat="47.04078" lon="5.40383">
        <ele>237.6</ele>
        <time>2012-12-24T14:38:38.000Z</time>
      </trkpt>
      <trkpt lat="47.0408" lon="5.40384">
        <ele>237.6</ele>
        <time>2012-12-24T14:38:39.500Z</time>
      </trkpt>
      <trkpt lat="47.04081" lon="5.40389">
        <ele>238.5</ele>
        <time>2012-12-24T14:38:43.000Z</time>
      </trkpt>
      <trkpt lat="47.04082" lon="5.4039">
        <ele>238.9</ele>
        <time>2012-12-24T14:38:44.000Z</time>
      </trkpt>
      <trkpt lat="47.04083" lon="5.40394">
        <ele>234.2</ele>
        <time>2012-12-24T14:38:55.000Z</time>
      </trkpt>
      <trkpt lat="47.04084" lon="5.40395">
        <ele>234.1</ele>
        <time>2012-12-24T14:38:56.000Z</time>
      </trkpt>
      <trkpt lat="47.04088" lon="5.40397">
        <ele>234.1</ele>
        <time>2012-12-24T14:38:59.000Z</time>
      </trkpt>
      <trkpt lat="47.04089" lon="5.40398">
        <ele>234.2</ele>
        <time>2012-12-24T14:39:00.000Z</time>
      </trkpt>
      <trkpt lat="47.04092" lon="5.40399">
        <ele>234.5</ele>
        <time>2012-12-24T14:39:03.000Z</time>
      </trkpt>
      <trkpt lat="47.04094" lon="5.40399">
        <ele>234.8</ele>
        <time>2012-12-24T14:39:04.000Z</time>
      </trkpt>
      <trkpt lat="47.04097" lon="5.40401">
        <ele>235.4</ele>
        <time>2012-12-24T14:39:07.000Z</time>
      </trkpt>
      <trkpt lat="47.04098" lon="5.40401">
        <ele>235.5</ele>
        <time>2012-12-24T14:39:08.000Z</time>
      </trkpt>
      <trkpt lat="47.04101" lon="5.40403">
        <ele>235.4</ele>
        <time>2012-12-24T14:39:11.000Z</time>
      </trkpt>
      <trkpt lat="47.04102" lon="5.40404">
        <ele>235.5</ele>
        <time>2012-12-24T14:39:12.000Z</time>
      </trkpt>
      <trkpt lat="47.04106" lon="5.40405">
        <ele>235.8</ele>
        <time>2012-12-24T14:39:16.000Z</time>
      </trkpt>
      <trkpt lat="47.04107" lon="5.40406">
        <ele>235.7</ele>
        <time>2012-12-24T14:39:17.000Z</time>
      </trkpt>
      <trkpt lat="47.04111" lon="5.40407">
        <ele>235.7</ele>
        <time>2012-12-24T14:39:21.000Z</time>
      </trkpt>
      <trkpt lat="47.04113" lon="5.40407">
        <ele>235.8</ele>
        <time>2012-12-24T14:39:22.000Z</time>
      </trkpt>
      <trkpt lat="47.04116" lon="5.40408">
        <ele>235.7</ele>
        <time>2012-12-24T14:39:26.000Z</time>
      </trkpt>
      <trkpt lat="47.04117" lon="5.40409">
        <ele>235.5</ele>
        <time>2012-12-24T14:39:27.000Z</time>
      </trkpt>
      <trkpt lat="47.04122" lon="5.40411">
        <ele>236.1</ele>
        <time>2012-12-24T14:39:31.000Z</time>
      </trkpt>
      <trkpt lat="47.04123" lon="5.40411">
        <ele>236.1</ele>
        <time>2012-12-24T14:39:32.000Z</time>
      </trkpt>
      <trkpt lat="47.04127" lon="5.40413">
        <ele>236</ele>
        <time>2012-12-24T14:39:36.000Z</time>
      </trkpt>
      <trkpt lat="47.04128" lon="5.40414">
        <ele>236</ele>
        <time>2012-12-24T14:39:37.000Z</time>
      </trkpt>
      <trkpt lat="47.04131" lon="5.40416">
        <ele>235.7</ele>
        <time>2012-12-24T14:39:41.000Z</time>
      </trkpt>
      <trkpt lat="47.04132" lon="5.40416">
        <ele>235.7</ele>
        <time>2012-12-24T14:39:42.000Z</time>
      </trkpt>
      <trkpt lat="47.04136" lon="5.40418">
        <ele>236.6</ele>
        <time>2012-12-24T14:39:56.000Z</time>
      </trkpt>
      <trkpt lat="47.04137" lon="5.40418">
        <ele>236.6</ele>
        <time>2012-12-24T14:39:57.000Z</time>
      </trkpt>
      <trkpt lat="47.04141" lon="5.4042">
        <ele>236.3</ele>
        <time>2012-12-24T14:40:01.000Z</time>
      </trkpt>
      <trkpt lat="47.04142" lon="5.4042">
        <ele>236.1</ele>
        <time>2012-12-24T14:40:02.000Z</time>
      </trkpt>
      <trkpt lat="47.04146" lon="5.40422">
        <ele>236.3</ele>
        <time>2012-12-24T14:40:06.000Z</time>
      </trkpt>
      <trkpt lat="47.04147" lon="5.40423">
        <ele>236.5</ele>
        <time>2012-12-24T14:40:07.000Z</time>
      </trkpt>
      <trkpt lat="47.04151" lon="5.40425">
        <ele>236.6</ele>
        <time>2012-12-24T14:40:11.000Z</time>
      </trkpt>
      <trkpt lat="47.04152" lon="5.40425">
        <ele>236.5</ele>
        <time>2012-12-24T14:40:12.000Z</time>
      </trkpt>
      <trkpt lat="47.04155" lon="5.40427">
        <ele>236.9</ele>
        <time>2012-12-24T14:40:15.000Z</time>
      </trkpt>
      <trkpt lat="47.04156" lon="5.40428">
        <ele>236.9</ele>
        <time>2012-12-24T14:40:16.000Z</time>
      </trkpt>
      <trkpt lat="47.0416" lon="5.40429">
        <ele>237.1</ele>
        <time>2012-12-24T14:40:19.000Z</time>
      </trkpt>
      <trkpt lat="47.04161" lon="5.4043">
        <ele>237.1</ele>
        <time>2012-12-24T14:40:20.000Z</time>
      </trkpt>
      <trkpt lat="47.04163" lon="5.40432">
        <ele>237.4</ele>
        <time>2012-12-24T14:40:23.000Z</time>
      </trkpt>
      <trkpt lat="47.04163" lon="5.40436">
        <ele>239.8</ele>
        <time>2012-12-24T14:40:28.000Z</time>
      </trkpt>
      <trkpt lat="47.04163" lon="5.40436">
        <ele>239.8</ele>
        <time>2012-12-24T14:40:30.000Z</time>
      </trkpt>
      <trkpt lat="47.04168" lon="5.40437">
        <ele>235</ele>
        <time>2012-12-24T14:40:31.000Z</time>
      </trkpt>
      <trkpt lat="47.04171" lon="5.4044">
        <ele>234.6</ele>
        <time>2012-12-24T14:40:35.000Z</time>
      </trkpt>
      <trkpt lat="47.04172" lon="5.40441">
        <ele>235.6</ele>
        <time>2012-12-24T14:40:36.000Z</time>
      </trkpt>
      <trkpt lat="47.04175" lon="5.40444">
        <ele>236.6</ele>
        <time>2012-12-24T14:40:41.000Z</time>
      </trkpt>
      <trkpt lat="47.04176" lon="5.40445">
        <ele>236.6</ele>
        <time>2012-12-24T14:40:42.000Z</time>
      </trkpt>
      <trkpt lat="47.04179" lon="5.40446">
        <ele>237</ele>
        <time>2012-12-24T14:40:45.000Z</time>
      </trkpt>
      <trkpt lat="47.0418" lon="5.40447">
        <ele>236.9</ele>
        <time>2012-12-24T14:40:46.000Z</time>
      </trkpt>
      <trkpt lat="47.04184" lon="5.40448">
        <ele>236.9</ele>
        <time>2012-12-24T14:40:49.000Z</time>
      </trkpt>
      <trkpt lat="47.04185" lon="5.40449">
        <ele>237</ele>
        <time>2012-12-24T14:40:50.000Z</time>
      </trkpt>
      <trkpt lat="47.04188" lon="5.40451">
        <ele>237.5</ele>
        <time>2012-12-24T14:40:53.000Z</time>
      </trkpt>
      <trkpt lat="47.04189" lon="5.40452">
        <ele>237.4</ele>
        <time>2012-12-24T14:40:54.000Z</time>
      </trkpt>
      <trkpt lat="47.04192" lon="5.40454">
        <ele>237.3</ele>
        <time>2012-12-24T14:40:57.000Z</time>
      </trkpt>
      <trkpt lat="47.04193" lon="5.40455">
        <ele>237.4</ele>
        <time>2012-12-24T14:40:58.000Z</time>
      </trkpt>
      <trkpt lat="47.04196" lon="5.40459">
        <ele>236.4</ele>
        <time>2012-12-24T14:41:06.000Z</time>
      </trkpt>
      <trkpt lat="47.04197" lon="5.40459">
        <ele>236.5</ele>
        <time>2012-12-24T14:41:07.000Z</time>
      </trkpt>
      <trkpt lat="47.042" lon="5.40462">
        <ele>237.1</ele>
        <time>2012-12-24T14:41:10.000Z</time>
      </trkpt>
      <trkpt lat="47.04201" lon="5.40463">
        <ele>237.1</ele>
        <time>2012-12-24T14:41:11.000Z</time>
      </trkpt>
      <trkpt lat="47.04204" lon="5.40467">
        <ele>237</ele>
        <time>2012-12-24T14:41:15.000Z</time>
      </trkpt>
      <trkpt lat="47.04205" lon="5.40468">
        <ele>237.1</ele>
        <time>2012-12-24T14:41:16.000Z</time>
      </trkpt>
      <trkpt lat="47.04208" lon="5.40471">
        <ele>236.9</ele>
        <time>2012-12-24T14:41:19.000Z</time>
      </trkpt>
      <trkpt lat="47.04209" lon="5.40472">
        <ele>236.8</ele>
        <time>2012-12-24T14:41:20.000Z</time>
      </trkpt>
      <trkpt lat="47.04212" lon="5.40476">
        <ele>236.8</ele>
        <time>2012-12-24T14:41:24.000Z</time>
      </trkpt>
      <trkpt lat="47.04213" lon="5.40477">
        <ele>236.8</ele>
        <time>2012-12-24T14:41:25.000Z</time>
      </trkpt>
      <trkpt lat="47.04216" lon="5.4048">
        <ele>236.9</ele>
        <time>2012-12-24T14:41:28.000Z</time>
      </trkpt>
      <trkpt lat="47.04217" lon="5.40481">
        <ele>236.9</ele>
        <time>2012-12-24T14:41:29.000Z</time>
      </trkpt>
      <trkpt lat="47.0422" lon="5.40484">
        <ele>236.9</ele>
        <time>2012-12-24T14:41:32.000Z</time>
      </trkpt>
      <trkpt lat="47.04221" lon="5.40485">
        <ele>236.9</ele>
        <time>2012-12-24T14:41:33.000Z</time>
      </trkpt>
      <trkpt lat="47.04224" lon="5.40489">
        <ele>236.6</ele>
        <time>2012-12-24T14:41:37.000Z</time>
      </trkpt>
      <trkpt lat="47.04225" lon="5.40489">
        <ele>236.5</ele>
        <time>2012-12-24T14:41:38.000Z</time>
      </trkpt>
      <trkpt lat="47.04229" lon="5.40493">
        <ele>236.9</ele>
        <time>2012-12-24T14:41:42.000Z</time>
      </trkpt>
      <trkpt lat="47.0423" lon="5.40494">
        <ele>236.9</ele>
        <time>2012-12-24T14:41:43.000Z</time>
      </trkpt>
      <trkpt lat="47.04233" lon="5.40497">
        <ele>236.9</ele>
        <time>2012-12-24T14:41:46.000Z</time>
      </trkpt>
      <trkpt lat="47.04234" lon="5.40498">
        <ele>236.8</ele>
        <time>2012-12-24T14:41:47.000Z</time>
      </trkpt>
      <trkpt lat="47.04237" lon="5.40501">
        <ele>236.9</ele>
        <time>2012-12-24T14:41:50.000Z</time>
      </trkpt>
      <trkpt lat="47.04237" lon="5.40502">
        <ele>236.9</ele>
        <time>2012-12-24T14:41:51.000Z</time>
      </trkpt>
      <trkpt lat="47.0424" lon="5.40505">
        <ele>237</ele>
        <time>2012-12-24T14:41:54.000Z</time>
      </trkpt>
      <trkpt lat="47.04241" lon="5.40506">
        <ele>237.1</ele>
        <time>2012-12-24T14:41:55.000Z</time>
      </trkpt>
      <trkpt lat="47.04245" lon="5.4051">
        <ele>237.6</ele>
        <time>2012-12-24T14:41:59.000Z</time>
      </trkpt>
      <trkpt lat="47.04245" lon="5.40511">
        <ele>237.4</ele>
        <time>2012-12-24T14:42:00.000Z</time>
      </trkpt>
      <trkpt lat="47.04248" lon="5.40514">
        <ele>236.9</ele>
        <time>2012-12-24T14:42:06.000Z</time>
      </trkpt>
      <trkpt lat="47.04249" lon="5.40515">
        <ele>237</ele>
        <time>2012-12-24T14:42:07.000Z</time>
      </trkpt>
      <trkpt lat="47.04252" lon="5.40517">
        <ele>237</ele>
        <time>2012-12-24T14:42:10.000Z</time>
      </trkpt>
      <trkpt lat="47.04253" lon="5.40518">
        <ele>237.1</ele>
        <time>2012-12-24T14:42:11.000Z</time>
      </trkpt>
      <trkpt lat="47.04256" lon="5.40521">
        <ele>237.3</ele>
        <time>2012-12-24T14:42:14.000Z</time>
      </trkpt>
      <trkpt lat="47.04257" lon="5.40522">
        <ele>237.2</ele>
        <time>2012-12-24T14:42:15.000Z</time>
      </trkpt>
      <trkpt lat="47.0426" lon="5.40525">
        <ele>237.1</ele>
        <time>2012-12-24T14:42:18.000Z</time>
      </trkpt>
      <trkpt lat="47.04261" lon="5.40526">
        <ele>237.1</ele>
        <time>2012-12-24T14:42:19.000Z</time>
      </trkpt>
      <trkpt lat="47.04264" lon="5.40531">
        <ele>236.9</ele>
        <time>2012-12-24T14:42:27.000Z</time>
      </trkpt>
      <trkpt lat="47.04265" lon="5.40531">
        <ele>236.9</ele>
        <time>2012-12-24T14:42:28.000Z</time>
      </trkpt>
      <trkpt lat="47.04268" lon="5.40534">
        <ele>237.2</ele>
        <time>2012-12-24T14:42:31.000Z</time>
      </trkpt>
      <trkpt lat="47.0427" lon="5.40535">
        <ele>237.3</ele>
        <time>2012-12-24T14:42:32.000Z</time>
      </trkpt>
      <trkpt lat="47.04273" lon="5.40538">
        <ele>237.3</ele>
        <time>2012-12-24T14:42:35.000Z</time>
      </trkpt>
      <trkpt lat="47.04274" lon="5.40539">
        <ele>237.4</ele>
        <time>2012-12-24T14:42:36.000Z</time>
      </trkpt>
      <trkpt lat="47.04277" lon="5.40543">
        <ele>237.7</ele>
        <time>2012-12-24T14:42:40.000Z</time>
      </trkpt>
      <trkpt lat="47.04278" lon="5.40544">
        <ele>237.7</ele>
        <time>2012-12-24T14:42:41.000Z</time>
      </trkpt>
      <trkpt lat="47.04281" lon="5.40546">
        <ele>237.9</ele>
        <time>2012-12-24T14:42:44.000Z</time>
      </trkpt>
      <trkpt lat="47.04282" lon="5.40547">
        <ele>238</ele>
        <time>2012-12-24T14:42:45.000Z</time>
      </trkpt>
      <trkpt lat="47.04285" lon="5.4055">
        <ele>238.6</ele>
        <time>2012-12-24T14:42:48.000Z</time>
      </trkpt>
      <trkpt lat="47.04286" lon="5.40551">
        <ele>238.7</ele>
        <time>2012-12-24T14:42:49.000Z</time>
      </trkpt>
      <trkpt lat="47.04289" lon="5.40554">
        <ele>238.6</ele>
        <time>2012-12-24T14:42:52.000Z</time>
      </trkpt>
      <trkpt lat="47.0429" lon="5.40555">
        <ele>238.4</ele>
        <time>2012-12-24T14:42:53.000Z</time>
      </trkpt>
      <trkpt lat="47.04294" lon="5.40559">
        <ele>238.2</ele>
        <time>2012-12-24T14:42:57.000Z</time>
      </trkpt>
      <trkpt lat="47.04294" lon="5.40559">
        <ele>238.4</ele>
        <time>2012-12-24T14:42:58.000Z</time>
      </trkpt>
      <trkpt lat="47.04298" lon="5.40563">
        <ele>238.2</ele>
        <time>2012-12-24T14:43:02.000Z</time>
      </trkpt>
      <trkpt lat="47.04299" lon="5.40564">
        <ele>238.1</ele>
        <time>2012-12-24T14:43:03.000Z</time>
      </trkpt>
      <trkpt lat="47.04301" lon="5.40567">
        <ele>237.9</ele>
        <time>2012-12-24T14:43:06.000Z</time>
      </trkpt>
      <trkpt lat="47.04302" lon="5.40568">
        <ele>237.8</ele>
        <time>2012-12-24T14:43:07.000Z</time>
      </trkpt>
      <trkpt lat="47.04305" lon="5.4057">
        <ele>237.9</ele>
        <time>2012-12-24T14:43:10.000Z</time>
      </trkpt>
      <trkpt lat="47.04306" lon="5.40571">
        <ele>237.9</ele>
        <time>2012-12-24T14:43:11.000Z</time>
      </trkpt>
      <trkpt lat="47.04309" lon="5.40575">
        <ele>238</ele>
        <time>2012-12-24T14:43:14.000Z</time>
      </trkpt>
      <trkpt lat="47.0431" lon="5.40576">
        <ele>238</ele>
        <time>2012-12-24T14:43:15.000Z</time>
      </trkpt>
      <trkpt lat="47.04313" lon="5.40579">
        <ele>238.6</ele>
        <time>2012-12-24T14:43:18.000Z</time>
      </trkpt>
      <trkpt lat="47.04314" lon="5.40579">
        <ele>238.6</ele>
        <time>2012-12-24T14:43:19.000Z</time>
      </trkpt>
      <trkpt lat="47.04317" lon="5.40584">
        <ele>238.4</ele>
        <time>2012-12-24T14:43:27.000Z</time>
      </trkpt>
      <trkpt lat="47.04318" lon="5.40584">
        <ele>238</ele>
        <time>2012-12-24T14:43:28.000Z</time>
      </trkpt>
      <trkpt lat="47.04321" lon="5.40585">
        <ele>237.4</ele>
        <time>2012-12-24T14:43:31.000Z</time>
      </trkpt>
      <trkpt lat="47.04322" lon="5.40586">
        <ele>237.1</ele>
        <time>2012-12-24T14:43:32.000Z</time>
      </trkpt>
      <trkpt lat="47.04326" lon="5.40588">
        <ele>236.9</ele>
        <time>2012-12-24T14:43:35.000Z</time>
      </trkpt>
      <trkpt lat="47.04327" lon="5.40588">
        <ele>236.8</ele>
        <time>2012-12-24T14:43:36.000Z</time>
      </trkpt>
      <trkpt lat="47.0433" lon="5.40591">
        <ele>236.3</ele>
        <time>2012-12-24T14:43:39.000Z</time>
      </trkpt>
      <trkpt lat="47.04331" lon="5.40592">
        <ele>236.1</ele>
        <time>2012-12-24T14:43:40.000Z</time>
      </trkpt>
      <trkpt lat="47.04335" lon="5.40595">
        <ele>236.3</ele>
        <time>2012-12-24T14:43:44.000Z</time>
      </trkpt>
      <trkpt lat="47.04336" lon="5.40596">
        <ele>236.5</ele>
        <time>2012-12-24T14:43:45.000Z</time>
      </trkpt>
      <trkpt lat="47.04339" lon="5.40599">
        <ele>237.4</ele>
        <time>2012-12-24T14:43:48.000Z</time>
      </trkpt>
      <trkpt lat="47.0434" lon="5.406">
        <ele>237.6</ele>
        <time>2012-12-24T14:43:49.000Z</time>
      </trkpt>
      <trkpt lat="47.04342" lon="5.40604">
        <ele>238</ele>
        <time>2012-12-24T14:43:52.000Z</time>
      </trkpt>
      <trkpt lat="47.04343" lon="5.40605">
        <ele>238.3</ele>
        <time>2012-12-24T14:43:53.000Z</time>
      </trkpt>
      <trkpt lat="47.04346" lon="5.40608">
        <ele>238.9</ele>
        <time>2012-12-24T14:43:56.000Z</time>
      </trkpt>
      <trkpt lat="47.04347" lon="5.40609">
        <ele>239</ele>
        <time>2012-12-24T14:43:57.000Z</time>
      </trkpt>
      <trkpt lat="47.0435" lon="5.40612">
        <ele>239.7</ele>
        <time>2012-12-24T14:44:00.000Z</time>
      </trkpt>
      <trkpt lat="47.04351" lon="5.40613">
        <ele>239.8</ele>
        <time>2012-12-24T14:44:01.000Z</time>
      </trkpt>
      <trkpt lat="47.04354" lon="5.40616">
        <ele>240.3</ele>
        <time>2012-12-24T14:44:04.000Z</time>
      </trkpt>
      <trkpt lat="47.04355" lon="5.40617">
        <ele>240.4</ele>
        <time>2012-12-24T14:44:05.000Z</time>
      </trkpt>
      <trkpt lat="47.04358" lon="5.40619">
        <ele>240.7</ele>
        <time>2012-12-24T14:44:08.000Z</time>
      </trkpt>
      <trkpt lat="47.04359" lon="5.4062">
        <ele>240.9</ele>
        <time>2012-12-24T14:44:09.000Z</time>
      </trkpt>
      <trkpt lat="47.04362" lon="5.40623">
        <ele>241.4</ele>
        <time>2012-12-24T14:44:12.000Z</time>
      </trkpt>
      <trkpt lat="47.04363" lon="5.40624">
        <ele>241.6</ele>
        <time>2012-12-24T14:44:13.000Z</time>
      </trkpt>
      <trkpt lat="47.04366" lon="5.40628">
        <ele>241.4</ele>
        <time>2012-12-24T14:44:17.000Z</time>
      </trkpt>
      <trkpt lat="47.04367" lon="5.40629">
        <ele>241.4</ele>
        <time>2012-12-24T14:44:18.000Z</time>
      </trkpt>
      <trkpt lat="47.0437" lon="5.40633">
        <ele>241.3</ele>
        <time>2012-12-24T14:44:22.000Z</time>
      </trkpt>
      <trkpt lat="47.04371" lon="5.40634">
        <ele>241.5</ele>
        <time>2012-12-24T14:44:23.000Z</time>
      </trkpt>
      <trkpt lat="47.04374" lon="5.40637">
        <ele>241.4</ele>
        <time>2012-12-24T14:44:27.000Z</time>
      </trkpt>
      <trkpt lat="47.04375" lon="5.40638">
        <ele>241.5</ele>
        <time>2012-12-24T14:44:28.000Z</time>
      </trkpt>
      <trkpt lat="47.04378" lon="5.40641">
        <ele>242</ele>
        <time>2012-12-24T14:44:31.000Z</time>
      </trkpt>
      <trkpt lat="47.04379" lon="5.40643">
        <ele>242.2</ele>
        <time>2012-12-24T14:44:32.000Z</time>
      </trkpt>
      <trkpt lat="47.04382" lon="5.40646">
        <ele>243.5</ele>
        <time>2012-12-24T14:44:35.000Z</time>
      </trkpt>
      <trkpt lat="47.04383" lon="5.40647">
        <ele>243.8</ele>
        <time>2012-12-24T14:44:36.000Z</time>
      </trkpt>
      <trkpt lat="47.04387" lon="5.40649">
        <ele>244.4</ele>
        <time>2012-12-24T14:44:39.000Z</time>
      </trkpt>
      <trkpt lat="47.04388" lon="5.4065">
        <ele>244.6</ele>
        <time>2012-12-24T14:44:40.000Z</time>
      </trkpt>
      <trkpt lat="47.04391" lon="5.40654">
        <ele>244.6</ele>
        <time>2012-12-24T14:44:44.000Z</time>
      </trkpt>
      <trkpt lat="47.04392" lon="5.40655">
        <ele>244.8</ele>
        <time>2012-12-24T14:44:45.000Z</time>
      </trkpt>
      <trkpt lat="47.04395" lon="5.40659">
        <ele>245</ele>
        <time>2012-12-24T14:44:49.000Z</time>
      </trkpt>
      <trkpt lat="47.04395" lon="5.40661">
        <ele>245.1</ele>
        <time>2012-12-24T14:44:50.000Z</time>
      </trkpt>
      <trkpt lat="47.04396" lon="5.40667">
        <ele>244.7</ele>
        <time>2012-12-24T14:44:54.000Z</time>
      </trkpt>
      <trkpt lat="47.04396" lon="5.40668">
        <ele>244.3</ele>
        <time>2012-12-24T14:44:55.000Z</time>
      </trkpt>
      <trkpt lat="47.04398" lon="5.40674">
        <ele>242.4</ele>
        <time>2012-12-24T14:45:00.000Z</time>
      </trkpt>
      <trkpt lat="47.04399" lon="5.40675">
        <ele>241.8</ele>
        <time>2012-12-24T14:45:01.000Z</time>
      </trkpt>
      <trkpt lat="47.04402" lon="5.40677">
        <ele>240</ele>
        <time>2012-12-24T14:45:04.000Z</time>
      </trkpt>
      <trkpt lat="47.04403" lon="5.40678">
        <ele>239.5</ele>
        <time>2012-12-24T14:45:05.000Z</time>
      </trkpt>
      <trkpt lat="47.04406" lon="5.40682">
        <ele>239.1</ele>
        <time>2012-12-24T14:45:08.000Z</time>
      </trkpt>
      <trkpt lat="47.04406" lon="5.40683">
        <ele>238.8</ele>
        <time>2012-12-24T14:45:09.000Z</time>
      </trkpt>
      <trkpt lat="47.04404" lon="5.40688">
        <ele>237.6</ele>
        <time>2012-12-24T14:45:13.000Z</time>
      </trkpt>
      <trkpt lat="47.04404" lon="5.40689">
        <ele>237.5</ele>
        <time>2012-12-24T14:45:14.000Z</time>
      </trkpt>
      <trkpt lat="47.044" lon="5.40692">
        <ele>237.7</ele>
        <time>2012-12-24T14:45:41.000Z</time>
      </trkpt>
      <trkpt lat="47.04399" lon="5.40693">
        <ele>237.4</ele>
        <time>2012-12-24T14:45:42.000Z</time>
      </trkpt>
      <trkpt lat="47.04395" lon="5.40696">
        <ele>237.3</ele>
        <time>2012-12-24T14:45:45.000Z</time>
      </trkpt>
      <trkpt lat="47.04395" lon="5.40698">
        <ele>237.4</ele>
        <time>2012-12-24T14:45:46.000Z</time>
      </trkpt>
      <trkpt lat="47.04391" lon="5.40702">
        <ele>236.1</ele>
        <time>2012-12-24T14:45:49.000Z</time>
      </trkpt>
      <trkpt lat="47.0439" lon="5.40703">
        <ele>235.9</ele>
        <time>2012-12-24T14:45:50.000Z</time>
      </trkpt>
      <trkpt lat="47.04387" lon="5.40707">
        <ele>235.8</ele>
        <time>2012-12-24T14:46:01.000Z</time>
      </trkpt>
      <trkpt lat="47.04386" lon="5.40708">
        <ele>235.6</ele>
        <time>2012-12-24T14:46:02.000Z</time>
      </trkpt>
      <trkpt lat="47.04384" lon="5.40711">
        <ele>235</ele>
        <time>2012-12-24T14:46:05.000Z</time>
      </trkpt>
      <trkpt lat="47.04383" lon="5.40712">
        <ele>234.6</ele>
        <time>2012-12-24T14:46:06.000Z</time>
      </trkpt>
      <trkpt lat="47.0438" lon="5.40716">
        <ele>234.5</ele>
        <time>2012-12-24T14:46:09.000Z</time>
      </trkpt>
      <trkpt lat="47.04379" lon="5.40717">
        <ele>234.6</ele>
        <time>2012-12-24T14:46:10.000Z</time>
      </trkpt>
      <trkpt lat="47.04375" lon="5.40721">
        <ele>234.9</ele>
        <time>2012-12-24T14:46:13.000Z</time>
      </trkpt>
      <trkpt lat="47.04374" lon="5.40722">
        <ele>235.1</ele>
        <time>2012-12-24T14:46:14.000Z</time>
      </trkpt>
      <trkpt lat="47.04371" lon="5.40725">
        <ele>235.5</ele>
        <time>2012-12-24T14:46:17.000Z</time>
      </trkpt>
      <trkpt lat="47.0437" lon="5.40727">
        <ele>235.8</ele>
        <time>2012-12-24T14:46:18.000Z</time>
      </trkpt>
      <trkpt lat="47.04367" lon="5.4073">
        <ele>236.2</ele>
        <time>2012-12-24T14:46:21.000Z</time>
      </trkpt>
      <trkpt lat="47.04366" lon="5.40731">
        <ele>236.3</ele>
        <time>2012-12-24T14:46:22.000Z</time>
      </trkpt>
      <trkpt lat="47.04363" lon="5.40736">
        <ele>236.6</ele>
        <time>2012-12-24T14:46:26.000Z</time>
      </trkpt>
      <trkpt lat="47.04363" lon="5.40738">
        <ele>236.9</ele>
        <time>2012-12-24T14:46:27.000Z</time>
      </trkpt>
      <trkpt lat="47.04361" lon="5.40743">
        <ele>237.8</ele>
        <time>2012-12-24T14:46:31.000Z</time>
      </trkpt>
      <trkpt lat="47.0436" lon="5.40743">
        <ele>237.5</ele>
        <time>2012-12-24T14:46:32.000Z</time>
      </trkpt>
      <trkpt lat="47.04357" lon="5.40748">
        <ele>237.9</ele>
        <time>2012-12-24T14:46:36.000Z</time>
      </trkpt>
      <trkpt lat="47.04356" lon="5.40749">
        <ele>237.8</ele>
        <time>2012-12-24T14:46:37.000Z</time>
      </trkpt>
      <trkpt lat="47.04353" lon="5.40752">
        <ele>236.5</ele>
        <time>2012-12-24T14:46:49.000Z</time>
      </trkpt>
      <trkpt lat="47.04352" lon="5.40753">
        <ele>236.1</ele>
        <time>2012-12-24T14:46:50.000Z</time>
      </trkpt>
      <trkpt lat="47.04349" lon="5.40757">
        <ele>236</ele>
        <time>2012-12-24T14:46:53.000Z</time>
      </trkpt>
      <trkpt lat="47.04348" lon="5.40758">
        <ele>236.1</ele>
        <time>2012-12-24T14:46:54.000Z</time>
      </trkpt>
      <trkpt lat="47.04345" lon="5.40761">
        <ele>236.1</ele>
        <time>2012-12-24T14:46:57.000Z</time>
      </trkpt>
      <trkpt lat="47.04344" lon="5.40762">
        <ele>235.8</ele>
        <time>2012-12-24T14:46:58.000Z</time>
      </trkpt>
      <trkpt lat="47.04341" lon="5.40766">
        <ele>235.4</ele>
        <time>2012-12-24T14:47:01.000Z</time>
      </trkpt>
      <trkpt lat="47.0434" lon="5.40767">
        <ele>235.3</ele>
        <time>2012-12-24T14:47:02.000Z</time>
      </trkpt>
      <trkpt lat="47.04338" lon="5.40771">
        <ele>235.2</ele>
        <time>2012-12-24T14:47:05.000Z</time>
      </trkpt>
      <trkpt lat="47.04338" lon="5.40773">
        <ele>235.4</ele>
        <time>2012-12-24T14:47:06.000Z</time>
      </trkpt>
      <trkpt lat="47.04336" lon="5.40777">
        <ele>235.5</ele>
        <time>2012-12-24T14:47:09.000Z</time>
      </trkpt>
      <trkpt lat="47.04335" lon="5.40778">
        <ele>235.7</ele>
        <time>2012-12-24T14:47:10.000Z</time>
      </trkpt>
      <trkpt lat="47.04334" lon="5.40783">
        <ele>235.9</ele>
        <time>2012-12-24T14:47:13.000Z</time>
      </trkpt>
      <trkpt lat="47.04334" lon="5.40785">
        <ele>235.9</ele>
        <time>2012-12-24T14:47:14.000Z</time>
      </trkpt>
      <trkpt lat="47.04336" lon="5.4079">
        <ele>235.3</ele>
        <time>2012-12-24T14:47:17.000Z</time>
      </trkpt>
      <trkpt lat="47.04337" lon="5.40791">
        <ele>235.7</ele>
        <time>2012-12-24T14:47:18.000Z</time>
      </trkpt>
      <trkpt lat="47.0434" lon="5.40796">
        <ele>235.6</ele>
        <time>2012-12-24T14:47:21.000Z</time>
      </trkpt>
      <trkpt lat="47.04341" lon="5.40798">
        <ele>235.8</ele>
        <time>2012-12-24T14:47:22.000Z</time>
      </trkpt>
      <trkpt lat="47.04341" lon="5.40799">
        <ele>235.8</ele>
        <time>2012-12-24T14:47:23.000Z</time>
      </trkpt>
      <trkpt lat="47.04352" lon="5.40817">
        <ele>208.6</ele>
        <time>2012-12-24T14:47:25.000Z</time>
      </trkpt>
      <trkpt lat="47.04345" lon="5.40809">
        <ele>227.4</ele>
        <time>2012-12-24T14:47:26.000Z</time>
      </trkpt>
      <trkpt lat="47.04347" lon="5.40811">
        <ele>237.4</ele>
        <time>2012-12-24T14:47:30.000Z</time>
      </trkpt>
      <trkpt lat="47.04349" lon="5.40813">
        <ele>233.6</ele>
        <time>2012-12-24T14:47:31.000Z</time>
      </trkpt>
      <trkpt lat="47.04351" lon="5.40817">
        <ele>237.4</ele>
        <time>2012-12-24T14:47:35.000Z</time>
      </trkpt>
      <trkpt lat="47.04351" lon="5.40819">
        <ele>237.7</ele>
        <time>2012-12-24T14:47:36.000Z</time>
      </trkpt>
      <trkpt lat="47.04352" lon="5.40825">
        <ele>237.9</ele>
        <time>2012-12-24T14:47:40.000Z</time>
      </trkpt>
      <trkpt lat="47.04353" lon="5.40826">
        <ele>237.9</ele>
        <time>2012-12-24T14:47:41.000Z</time>
      </trkpt>
      <trkpt lat="47.04354" lon="5.40832">
        <ele>238</ele>
        <time>2012-12-24T14:47:46.000Z</time>
      </trkpt>
      <trkpt lat="47.04355" lon="5.40833">
        <ele>238</ele>
        <time>2012-12-24T14:47:47.000Z</time>
      </trkpt>
      <trkpt lat="47.04356" lon="5.40838">
        <ele>239</ele>
        <time>2012-12-24T14:47:51.000Z</time>
      </trkpt>
      <trkpt lat="47.04357" lon="5.40839">
        <ele>238.9</ele>
        <time>2012-12-24T14:47:52.000Z</time>
      </trkpt>
      <trkpt lat="47.04357" lon="5.40842">
        <ele>238.6</ele>
        <time>2012-12-24T14:48:08.000Z</time>
      </trkpt>
      <trkpt lat="47.04357" lon="5.40847">
        <ele>235.9</ele>
        <time>2012-12-24T14:48:09.000Z</time>
      </trkpt>
      <trkpt lat="47.04359" lon="5.40851">
        <ele>237.2</ele>
        <time>2012-12-24T14:48:11.000Z</time>
      </trkpt>
      <trkpt lat="47.04359" lon="5.40854">
        <ele>237.4</ele>
        <time>2012-12-24T14:48:12.000Z</time>
      </trkpt>
      <trkpt lat="47.04357" lon="5.4086">
        <ele>235.9</ele>
        <time>2012-12-24T14:48:16.000Z</time>
      </trkpt>
      <trkpt lat="47.04357" lon="5.4086">
        <ele>235.9</ele>
        <time>2012-12-24T14:48:17.000Z</time>
      </trkpt>
      <trkpt lat="47.04359" lon="5.40865">
        <ele>234.5</ele>
        <time>2012-12-24T14:48:20.000Z</time>
      </trkpt>
      <trkpt lat="47.0436" lon="5.40866">
        <ele>234.2</ele>
        <time>2012-12-24T14:48:21.000Z</time>
      </trkpt>
      <trkpt lat="47.04361" lon="5.40871">
        <ele>234.6</ele>
        <time>2012-12-24T14:48:24.000Z</time>
      </trkpt>
      <trkpt lat="47.04362" lon="5.40872">
        <ele>234.7</ele>
        <time>2012-12-24T14:48:25.000Z</time>
      </trkpt>
      <trkpt lat="47.04365" lon="5.40877">
        <ele>234.5</ele>
        <time>2012-12-24T14:48:30.000Z</time>
      </trkpt>
      <trkpt lat="47.04365" lon="5.40877">
        <ele>234.5</ele>
        <time>2012-12-24T14:48:31.000Z</time>
      </trkpt>
      <trkpt lat="47.04367" lon="5.40883">
        <ele>233.5</ele>
        <time>2012-12-24T14:48:35.000Z</time>
      </trkpt>
      <trkpt lat="47.04367" lon="5.40885">
        <ele>233.4</ele>
        <time>2012-12-24T14:48:36.000Z</time>
      </trkpt>
      <trkpt lat="47.04368" lon="5.4089">
        <ele>233.3</ele>
        <time>2012-12-24T14:48:40.000Z</time>
      </trkpt>
      <trkpt lat="47.04368" lon="5.40892">
        <ele>233.3</ele>
        <time>2012-12-24T14:48:41.000Z</time>
      </trkpt>
      <trkpt lat="47.04369" lon="5.40897">
        <ele>233.9</ele>
        <time>2012-12-24T14:48:45.000Z</time>
      </trkpt>
      <trkpt lat="47.0437" lon="5.40899">
        <ele>234.1</ele>
        <time>2012-12-24T14:48:46.000Z</time>
      </trkpt>
      <trkpt lat="47.04372" lon="5.40902">
        <ele>235.6</ele>
        <time>2012-12-24T14:49:05.000Z</time>
      </trkpt>
      <trkpt lat="47.04373" lon="5.40902">
        <ele>235.3</ele>
        <time>2012-12-24T14:49:06.000Z</time>
      </trkpt>
      <trkpt lat="47.04374" lon="5.40907">
        <ele>233.8</ele>
        <time>2012-12-24T14:49:41.000Z</time>
      </trkpt>
      <trkpt lat="47.04372" lon="5.40909">
        <ele>233.8</ele>
        <time>2012-12-24T14:49:42.000Z</time>
      </trkpt>
      <trkpt lat="47.04369" lon="5.40912">
        <ele>233.9</ele>
        <time>2012-12-24T14:49:45.000Z</time>
      </trkpt>
      <trkpt lat="47.04367" lon="5.40913">
        <ele>233.8</ele>
        <time>2012-12-24T14:49:46.000Z</time>
      </trkpt>
      <trkpt lat="47.04364" lon="5.40917">
        <ele>233.7</ele>
        <time>2012-12-24T14:49:49.000Z</time>
      </trkpt>
      <trkpt lat="47.04363" lon="5.40919">
        <ele>233.7</ele>
        <time>2012-12-24T14:49:50.000Z</time>
      </trkpt>
      <trkpt lat="47.04361" lon="5.40923">
        <ele>233.6</ele>
        <time>2012-12-24T14:49:53.000Z</time>
      </trkpt>
      <trkpt lat="47.0436" lon="5.40925">
        <ele>233.6</ele>
        <time>2012-12-24T14:49:54.000Z</time>
      </trkpt>
      <trkpt lat="47.04358" lon="5.4093">
        <ele>233.8</ele>
        <time>2012-12-24T14:49:57.000Z</time>
      </trkpt>
      <trkpt lat="47.04357" lon="5.40931">
        <ele>233.8</ele>
        <time>2012-12-24T14:49:58.000Z</time>
      </trkpt>
      <trkpt lat="47.04355" lon="5.40936">
        <ele>234</ele>
        <time>2012-12-24T14:50:01.000Z</time>
      </trkpt>
      <trkpt lat="47.04354" lon="5.40938">
        <ele>234.1</ele>
        <time>2012-12-24T14:50:02.000Z</time>
      </trkpt>
      <trkpt lat="47.04352" lon="5.40942">
        <ele>234.2</ele>
        <time>2012-12-24T14:50:05.000Z</time>
      </trkpt>
      <trkpt lat="47.04352" lon="5.40944">
        <ele>234.2</ele>
        <time>2012-12-24T14:50:06.000Z</time>
      </trkpt>
      <trkpt lat="47.04349" lon="5.40949">
        <ele>234.4</ele>
        <time>2012-12-24T14:50:10.000Z</time>
      </trkpt>
      <trkpt lat="47.04348" lon="5.4095">
        <ele>234.4</ele>
        <time>2012-12-24T14:50:11.000Z</time>
      </trkpt>
      <trkpt lat="47.04346" lon="5.40955">
        <ele>234.5</ele>
        <time>2012-12-24T14:50:15.000Z</time>
      </trkpt>
      <trkpt lat="47.04346" lon="5.40956">
        <ele>234.6</ele>
        <time>2012-12-24T14:50:16.000Z</time>
      </trkpt>
      <trkpt lat="47.04343" lon="5.40961">
        <ele>234.7</ele>
        <time>2012-12-24T14:50:20.000Z</time>
      </trkpt>
      <trkpt lat="47.04342" lon="5.40962">
        <ele>234.7</ele>
        <time>2012-12-24T14:50:21.000Z</time>
      </trkpt>
      <trkpt lat="47.04339" lon="5.40963">
        <ele>233.2</ele>
        <time>2012-12-24T14:50:30.000Z</time>
      </trkpt>
      <trkpt lat="47.04336" lon="5.40971">
        <ele>233.6</ele>
        <time>2012-12-24T14:50:31.000Z</time>
      </trkpt>
      <trkpt lat="47.04334" lon="5.40976">
        <ele>236.7</ele>
        <time>2012-12-24T14:50:35.000Z</time>
      </trkpt>
      <trkpt lat="47.04334" lon="5.40977">
        <ele>237.6</ele>
        <time>2012-12-24T14:50:36.000Z</time>
      </trkpt>
      <trkpt lat="47.04332" lon="5.40981">
        <ele>237.8</ele>
        <time>2012-12-24T14:50:40.000Z</time>
      </trkpt>
      <trkpt lat="47.04331" lon="5.40983">
        <ele>237.9</ele>
        <time>2012-12-24T14:50:41.000Z</time>
      </trkpt>
      <trkpt lat="47.0433" lon="5.40988">
        <ele>237.2</ele>
        <time>2012-12-24T14:50:45.000Z</time>
      </trkpt>
      <trkpt lat="47.04329" lon="5.40989">
        <ele>237</ele>
        <time>2012-12-24T14:50:46.000Z</time>
      </trkpt>
      <trkpt lat="47.04326" lon="5.40994">
        <ele>235.6</ele>
        <time>2012-12-24T14:50:53.000Z</time>
      </trkpt>
      <trkpt lat="47.04326" lon="5.40995">
        <ele>235.7</ele>
        <time>2012-12-24T14:50:54.000Z</time>
      </trkpt>
      <trkpt lat="47.04324" lon="5.41">
        <ele>236.3</ele>
        <time>2012-12-24T14:50:58.000Z</time>
      </trkpt>
      <trkpt lat="47.04324" lon="5.41001">
        <ele>236.3</ele>
        <time>2012-12-24T14:50:59.000Z</time>
      </trkpt>
      <trkpt lat="47.04322" lon="5.41005">
        <ele>236.4</ele>
        <time>2012-12-24T14:51:01.000Z</time>
      </trkpt>
      <trkpt lat="47.04321" lon="5.41007">
        <ele>236.3</ele>
        <time>2012-12-24T14:51:02.000Z</time>
      </trkpt>
      <trkpt lat="47.0432" lon="5.41013">
        <ele>236.2</ele>
        <time>2012-12-24T14:51:05.000Z</time>
      </trkpt>
      <trkpt lat="47.04319" lon="5.41014">
        <ele>236.1</ele>
        <time>2012-12-24T14:51:06.000Z</time>
      </trkpt>
      <trkpt lat="47.04317" lon="5.4102">
        <ele>236.4</ele>
        <time>2012-12-24T14:51:09.000Z</time>
      </trkpt>
      <trkpt lat="47.04316" lon="5.41022">
        <ele>236.7</ele>
        <time>2012-12-24T14:51:10.000Z</time>
      </trkpt>
      <trkpt lat="47.04314" lon="5.41027">
        <ele>236.9</ele>
        <time>2012-12-24T14:51:13.000Z</time>
      </trkpt>
      <trkpt lat="47.04313" lon="5.41029">
        <ele>236.8</ele>
        <time>2012-12-24T14:51:14.000Z</time>
      </trkpt>
      <trkpt lat="47.0431" lon="5.41033">
        <ele>236.5</ele>
        <time>2012-12-24T14:51:19.000Z</time>
      </trkpt>
      <trkpt lat="47.04309" lon="5.41034">
        <ele>236.4</ele>
        <time>2012-12-24T14:51:20.000Z</time>
      </trkpt>
      <trkpt lat="47.04306" lon="5.41036">
        <ele>235.6</ele>
        <time>2012-12-24T14:51:25.000Z</time>
      </trkpt>
      <trkpt lat="47.04305" lon="5.41037">
        <ele>235.3</ele>
        <time>2012-12-24T14:51:26.000Z</time>
      </trkpt>
      <trkpt lat="47.04302" lon="5.4104">
        <ele>234.6</ele>
        <time>2012-12-24T14:51:31.000Z</time>
      </trkpt>
      <trkpt lat="47.04301" lon="5.41041">
        <ele>234.7</ele>
        <time>2012-12-24T14:51:32.000Z</time>
      </trkpt>
      <trkpt lat="47.04297" lon="5.41044">
        <ele>235.1</ele>
        <time>2012-12-24T14:51:36.000Z</time>
      </trkpt>
      <trkpt lat="47.04296" lon="5.41044">
        <ele>235.2</ele>
        <time>2012-12-24T14:51:37.000Z</time>
      </trkpt>
      <trkpt lat="47.04292" lon="5.41045">
        <ele>235.4</ele>
        <time>2012-12-24T14:51:41.000Z</time>
      </trkpt>
      <trkpt lat="47.04291" lon="5.41045">
        <ele>235.5</ele>
        <time>2012-12-24T14:51:42.000Z</time>
      </trkpt>
      <trkpt lat="47.04287" lon="5.41045">
        <ele>236.1</ele>
        <time>2012-12-24T14:51:46.000Z</time>
      </trkpt>
      <trkpt lat="47.04286" lon="5.41045">
        <ele>236.2</ele>
        <time>2012-12-24T14:51:47.000Z</time>
      </trkpt>
      <trkpt lat="47.04281" lon="5.41045">
        <ele>236.4</ele>
        <time>2012-12-24T14:51:51.000Z</time>
      </trkpt>
      <trkpt lat="47.0428" lon="5.41044">
        <ele>236.5</ele>
        <time>2012-12-24T14:51:52.000Z</time>
      </trkpt>
      <trkpt lat="47.04276" lon="5.41044">
        <ele>236.9</ele>
        <time>2012-12-24T14:51:56.000Z</time>
      </trkpt>
      <trkpt lat="47.04275" lon="5.41044">
        <ele>236.9</ele>
        <time>2012-12-24T14:51:57.000Z</time>
      </trkpt>
      <trkpt lat="47.0427" lon="5.41043">
        <ele>237</ele>
        <time>2012-12-24T14:52:01.000Z</time>
      </trkpt>
      <trkpt lat="47.04269" lon="5.41043">
        <ele>237.1</ele>
        <time>2012-12-24T14:52:02.000Z</time>
      </trkpt>
      <trkpt lat="47.04265" lon="5.41042">
        <ele>237.5</ele>
        <time>2012-12-24T14:52:06.000Z</time>
      </trkpt>
      <trkpt lat="47.04264" lon="5.41041">
        <ele>237.5</ele>
        <time>2012-12-24T14:52:07.000Z</time>
      </trkpt>
      <trkpt lat="47.04261" lon="5.41041">
        <ele>237.4</ele>
        <time>2012-12-24T14:52:10.000Z</time>
      </trkpt>
      <trkpt lat="47.04259" lon="5.4104">
        <ele>237.4</ele>
        <time>2012-12-24T14:52:11.500Z</time>
      </trkpt>
      <trkpt lat="47.04256" lon="5.41038">
        <ele>236.5</ele>
        <time>2012-12-24T14:52:15.000Z</time>
      </trkpt>
    </trkseg>
  </trk>
</gpx>